<?xml version="1.0" encoding="UTF-8" standalone="no" ?>
<gpx xmlns="http://www.topografix.com/GPX/1/1" xmlns:xsi="http://www.w3.org/2001/XMLSchema-instance" xsi:schemaLocation="http://www.topografix.com/GPX/1/1 http://www.topografix.com/GPX/1/1/gpx.xsd" version="1.1" creator="VisuGPX - https://www.visugpx.com">
  <metadata>
    <name>tracé 2021</name>
  </metadata>
  <trk>
    <name><![CDATA[tracé 2021_4]]></name>
    <trkseg>
      <trkpt lat="44.53727" lon="1.61402">
        <ele>215.7</ele>
        <time>2010-01-01T00:00:00Z</time>
      </trkpt>
      <trkpt lat="44.5373" lon="1.61399">
        <ele>215.5</ele>
        <time>2010-01-01T00:00:00Z</time>
      </trkpt>
      <trkpt lat="44.53739" lon="1.61389">
        <ele>216.5</ele>
        <time>2010-01-01T00:00:00Z</time>
      </trkpt>
      <trkpt lat="44.5376" lon="1.61372">
        <ele>209.4</ele>
        <time>2010-01-01T00:00:00Z</time>
      </trkpt>
      <trkpt lat="44.53781" lon="1.61356">
        <ele>210.6</ele>
        <time>2010-01-01T00:00:00Z</time>
      </trkpt>
      <trkpt lat="44.53803" lon="1.61344">
        <ele>209.6</ele>
        <time>2010-01-01T00:00:00Z</time>
      </trkpt>
      <trkpt lat="44.53809" lon="1.61342">
        <ele>209.4</ele>
        <time>2010-01-01T00:00:00Z</time>
      </trkpt>
      <trkpt lat="44.53815" lon="1.61342">
        <ele>209.2</ele>
        <time>2010-01-01T00:00:00Z</time>
      </trkpt>
      <trkpt lat="44.53821" lon="1.61342">
        <ele>209.2</ele>
        <time>2010-01-01T00:00:00Z</time>
      </trkpt>
      <trkpt lat="44.53825" lon="1.61342">
        <ele>209.2</ele>
        <time>2010-01-01T00:00:00Z</time>
      </trkpt>
      <trkpt lat="44.5383" lon="1.61343">
        <ele>209.2</ele>
        <time>2010-01-01T00:00:00Z</time>
      </trkpt>
      <trkpt lat="44.53834" lon="1.61345">
        <ele>207.3</ele>
        <time>2010-01-01T00:00:00Z</time>
      </trkpt>
      <trkpt lat="44.53838" lon="1.61346">
        <ele>207</ele>
        <time>2010-01-01T00:00:00Z</time>
      </trkpt>
      <trkpt lat="44.53841" lon="1.61347">
        <ele>206.6</ele>
        <time>2010-01-01T00:00:00Z</time>
      </trkpt>
      <trkpt lat="44.53846" lon="1.61348">
        <ele>206.1</ele>
        <time>2010-01-01T00:00:00Z</time>
      </trkpt>
      <trkpt lat="44.53852" lon="1.61349">
        <ele>205.5</ele>
        <time>2010-01-01T00:00:00Z</time>
      </trkpt>
      <trkpt lat="44.53862" lon="1.61349">
        <ele>204.9</ele>
        <time>2010-01-01T00:00:00Z</time>
      </trkpt>
      <trkpt lat="44.5387" lon="1.6135">
        <ele>204.5</ele>
        <time>2010-01-01T00:00:00Z</time>
      </trkpt>
      <trkpt lat="44.53873" lon="1.61352">
        <ele>204.3</ele>
        <time>2010-01-01T00:00:00Z</time>
      </trkpt>
      <trkpt lat="44.53877" lon="1.61354">
        <ele>204.1</ele>
        <time>2010-01-01T00:00:00Z</time>
      </trkpt>
      <trkpt lat="44.53883" lon="1.61355">
        <ele>203.9</ele>
        <time>2010-01-01T00:00:00Z</time>
      </trkpt>
      <trkpt lat="44.53886" lon="1.61354">
        <ele>203.9</ele>
        <time>2010-01-01T00:00:00Z</time>
      </trkpt>
      <trkpt lat="44.53889" lon="1.61353">
        <ele>203.9</ele>
        <time>2010-01-01T00:00:00Z</time>
      </trkpt>
      <trkpt lat="44.53892" lon="1.61352">
        <ele>203.8</ele>
        <time>2010-01-01T00:00:00Z</time>
      </trkpt>
      <trkpt lat="44.53897" lon="1.6135">
        <ele>203.8</ele>
        <time>2010-01-01T00:00:00Z</time>
      </trkpt>
      <trkpt lat="44.539" lon="1.61348">
        <ele>203.8</ele>
        <time>2010-01-01T00:00:00Z</time>
      </trkpt>
      <trkpt lat="44.53903" lon="1.61345">
        <ele>203.9</ele>
        <time>2010-01-01T00:00:00Z</time>
      </trkpt>
      <trkpt lat="44.53905" lon="1.61339">
        <ele>203.9</ele>
        <time>2010-01-01T00:00:00Z</time>
      </trkpt>
      <trkpt lat="44.53907" lon="1.61333">
        <ele>209.6</ele>
        <time>2010-01-01T00:00:00Z</time>
      </trkpt>
      <trkpt lat="44.5391" lon="1.61327">
        <ele>209.6</ele>
        <time>2010-01-01T00:00:00Z</time>
      </trkpt>
      <trkpt lat="44.53913" lon="1.61321">
        <ele>211.3</ele>
        <time>2010-01-01T00:00:00Z</time>
      </trkpt>
      <trkpt lat="44.53916" lon="1.61315">
        <ele>213.5</ele>
        <time>2010-01-01T00:00:00Z</time>
      </trkpt>
      <trkpt lat="44.53922" lon="1.61307">
        <ele>213.9</ele>
        <time>2010-01-01T00:00:00Z</time>
      </trkpt>
      <trkpt lat="44.53927" lon="1.61301">
        <ele>215.5</ele>
        <time>2010-01-01T00:00:00Z</time>
      </trkpt>
      <trkpt lat="44.53931" lon="1.61295">
        <ele>216.7</ele>
        <time>2010-01-01T00:00:00Z</time>
      </trkpt>
      <trkpt lat="44.53937" lon="1.61287">
        <ele>218.1</ele>
        <time>2010-01-01T00:00:00Z</time>
      </trkpt>
      <trkpt lat="44.53943" lon="1.61279">
        <ele>219.1</ele>
        <time>2010-01-01T00:00:00Z</time>
      </trkpt>
      <trkpt lat="44.53953" lon="1.61267">
        <ele>220.1</ele>
        <time>2010-01-01T00:00:00Z</time>
      </trkpt>
      <trkpt lat="44.53958" lon="1.6126">
        <ele>220.5</ele>
        <time>2010-01-01T00:00:00Z</time>
      </trkpt>
      <trkpt lat="44.53963" lon="1.61254">
        <ele>220.7</ele>
        <time>2010-01-01T00:00:00Z</time>
      </trkpt>
      <trkpt lat="44.53967" lon="1.61247">
        <ele>228.7</ele>
        <time>2010-01-01T00:00:00Z</time>
      </trkpt>
      <trkpt lat="44.53973" lon="1.61238">
        <ele>228.5</ele>
        <time>2010-01-01T00:00:00Z</time>
      </trkpt>
      <trkpt lat="44.53981" lon="1.61226">
        <ele>228.7</ele>
        <time>2010-01-01T00:00:00Z</time>
      </trkpt>
      <trkpt lat="44.53986" lon="1.61219">
        <ele>228.9</ele>
        <time>2010-01-01T00:00:00Z</time>
      </trkpt>
      <trkpt lat="44.5399" lon="1.61212">
        <ele>229.1</ele>
        <time>2010-01-01T00:00:00Z</time>
      </trkpt>
      <trkpt lat="44.53993" lon="1.61204">
        <ele>229.2</ele>
        <time>2010-01-01T00:00:00Z</time>
      </trkpt>
      <trkpt lat="44.53996" lon="1.61199">
        <ele>229.1</ele>
        <time>2010-01-01T00:00:00Z</time>
      </trkpt>
      <trkpt lat="44.54001" lon="1.61192">
        <ele>228.4</ele>
        <time>2010-01-01T00:00:00Z</time>
      </trkpt>
      <trkpt lat="44.54005" lon="1.61188">
        <ele>228.3</ele>
        <time>2010-01-01T00:00:00Z</time>
      </trkpt>
      <trkpt lat="44.5401" lon="1.61183">
        <ele>228.2</ele>
        <time>2010-01-01T00:00:00Z</time>
      </trkpt>
      <trkpt lat="44.54015" lon="1.61179">
        <ele>228.2</ele>
        <time>2010-01-01T00:00:00Z</time>
      </trkpt>
      <trkpt lat="44.5402" lon="1.61174">
        <ele>228.4</ele>
        <time>2010-01-01T00:00:00Z</time>
      </trkpt>
      <trkpt lat="44.54023" lon="1.6117">
        <ele>228.5</ele>
        <time>2010-01-01T00:00:00Z</time>
      </trkpt>
      <trkpt lat="44.54026" lon="1.61167">
        <ele>228.6</ele>
        <time>2010-01-01T00:00:00Z</time>
      </trkpt>
      <trkpt lat="44.54029" lon="1.61161">
        <ele>230.1</ele>
        <time>2010-01-01T00:00:00Z</time>
      </trkpt>
      <trkpt lat="44.54031" lon="1.61156">
        <ele>230.4</ele>
        <time>2010-01-01T00:00:00Z</time>
      </trkpt>
      <trkpt lat="44.54032" lon="1.61151">
        <ele>230.7</ele>
        <time>2010-01-01T00:00:00Z</time>
      </trkpt>
      <trkpt lat="44.54033" lon="1.61147">
        <ele>230.9</ele>
        <time>2010-01-01T00:00:00Z</time>
      </trkpt>
      <trkpt lat="44.54037" lon="1.61143">
        <ele>231.2</ele>
        <time>2010-01-01T00:00:00Z</time>
      </trkpt>
      <trkpt lat="44.54055" lon="1.6114">
        <ele>230.8</ele>
        <time>2010-01-01T00:00:00Z</time>
      </trkpt>
      <trkpt lat="44.54062" lon="1.61142">
        <ele>230.4</ele>
        <time>2010-01-01T00:00:00Z</time>
      </trkpt>
      <trkpt lat="44.54067" lon="1.61144">
        <ele>230.1</ele>
        <time>2010-01-01T00:00:00Z</time>
      </trkpt>
      <trkpt lat="44.54072" lon="1.61147">
        <ele>229.7</ele>
        <time>2010-01-01T00:00:00Z</time>
      </trkpt>
      <trkpt lat="44.54077" lon="1.61147">
        <ele>229.5</ele>
        <time>2010-01-01T00:00:00Z</time>
      </trkpt>
      <trkpt lat="44.54087" lon="1.61146">
        <ele>230.8</ele>
        <time>2010-01-01T00:00:00Z</time>
      </trkpt>
      <trkpt lat="44.54093" lon="1.61142">
        <ele>231.4</ele>
        <time>2010-01-01T00:00:00Z</time>
      </trkpt>
      <trkpt lat="44.54099" lon="1.61134">
        <ele>232.1</ele>
        <time>2010-01-01T00:00:00Z</time>
      </trkpt>
      <trkpt lat="44.54102" lon="1.61129">
        <ele>232.3</ele>
        <time>2010-01-01T00:00:00Z</time>
      </trkpt>
      <trkpt lat="44.54107" lon="1.61123">
        <ele>232.5</ele>
        <time>2010-01-01T00:00:00Z</time>
      </trkpt>
      <trkpt lat="44.54112" lon="1.61115">
        <ele>232.6</ele>
        <time>2010-01-01T00:00:00Z</time>
      </trkpt>
      <trkpt lat="44.54122" lon="1.61097">
        <ele>232.5</ele>
        <time>2010-01-01T00:00:00Z</time>
      </trkpt>
      <trkpt lat="44.54138" lon="1.61076">
        <ele>232.9</ele>
        <time>2010-01-01T00:00:00Z</time>
      </trkpt>
      <trkpt lat="44.54152" lon="1.61062">
        <ele>233.1</ele>
        <time>2010-01-01T00:00:00Z</time>
      </trkpt>
      <trkpt lat="44.54169" lon="1.61045">
        <ele>237.3</ele>
        <time>2010-01-01T00:00:00Z</time>
      </trkpt>
      <trkpt lat="44.54177" lon="1.61036">
        <ele>237.8</ele>
        <time>2010-01-01T00:00:00Z</time>
      </trkpt>
      <trkpt lat="44.54193" lon="1.61019">
        <ele>238.3</ele>
        <time>2010-01-01T00:00:00Z</time>
      </trkpt>
      <trkpt lat="44.54211" lon="1.61002">
        <ele>239</ele>
        <time>2010-01-01T00:00:00Z</time>
      </trkpt>
      <trkpt lat="44.54216" lon="1.60998">
        <ele>240.1</ele>
        <time>2010-01-01T00:00:00Z</time>
      </trkpt>
      <trkpt lat="44.54219" lon="1.60992">
        <ele>240.3</ele>
        <time>2010-01-01T00:00:00Z</time>
      </trkpt>
      <trkpt lat="44.54222" lon="1.60987">
        <ele>240.4</ele>
        <time>2010-01-01T00:00:00Z</time>
      </trkpt>
      <trkpt lat="44.54225" lon="1.60978">
        <ele>240.7</ele>
        <time>2010-01-01T00:00:00Z</time>
      </trkpt>
      <trkpt lat="44.5423" lon="1.60966">
        <ele>241.1</ele>
        <time>2010-01-01T00:00:00Z</time>
      </trkpt>
      <trkpt lat="44.54235" lon="1.60959">
        <ele>241.4</ele>
        <time>2010-01-01T00:00:00Z</time>
      </trkpt>
      <trkpt lat="44.54239" lon="1.60955">
        <ele>241.5</ele>
        <time>2010-01-01T00:00:00Z</time>
      </trkpt>
      <trkpt lat="44.54244" lon="1.60953">
        <ele>241.5</ele>
        <time>2010-01-01T00:00:00Z</time>
      </trkpt>
      <trkpt lat="44.54248" lon="1.60951">
        <ele>241.5</ele>
        <time>2010-01-01T00:00:00Z</time>
      </trkpt>
      <trkpt lat="44.54253" lon="1.60947">
        <ele>244.2</ele>
        <time>2010-01-01T00:00:00Z</time>
      </trkpt>
      <trkpt lat="44.54257" lon="1.60944">
        <ele>244.3</ele>
        <time>2010-01-01T00:00:00Z</time>
      </trkpt>
      <trkpt lat="44.54261" lon="1.6094">
        <ele>244.3</ele>
        <time>2010-01-01T00:00:00Z</time>
      </trkpt>
      <trkpt lat="44.54269" lon="1.60933">
        <ele>244.4</ele>
        <time>2010-01-01T00:00:00Z</time>
      </trkpt>
      <trkpt lat="44.54277" lon="1.60927">
        <ele>244.7</ele>
        <time>2010-01-01T00:00:00Z</time>
      </trkpt>
      <trkpt lat="44.54283" lon="1.60924">
        <ele>244.9</ele>
        <time>2010-01-01T00:00:00Z</time>
      </trkpt>
      <trkpt lat="44.54288" lon="1.60921">
        <ele>245.1</ele>
        <time>2010-01-01T00:00:00Z</time>
      </trkpt>
      <trkpt lat="44.54292" lon="1.60917">
        <ele>245.2</ele>
        <time>2010-01-01T00:00:00Z</time>
      </trkpt>
      <trkpt lat="44.54295" lon="1.60914">
        <ele>246.8</ele>
        <time>2010-01-01T00:00:00Z</time>
      </trkpt>
      <trkpt lat="44.543" lon="1.6091">
        <ele>246.9</ele>
        <time>2010-01-01T00:00:00Z</time>
      </trkpt>
      <trkpt lat="44.54304" lon="1.60906">
        <ele>247</ele>
        <time>2010-01-01T00:00:00Z</time>
      </trkpt>
      <trkpt lat="44.54308" lon="1.60901">
        <ele>247.1</ele>
        <time>2010-01-01T00:00:00Z</time>
      </trkpt>
      <trkpt lat="44.54314" lon="1.60897">
        <ele>247.1</ele>
        <time>2010-01-01T00:00:00Z</time>
      </trkpt>
      <trkpt lat="44.54321" lon="1.60892">
        <ele>247.3</ele>
        <time>2010-01-01T00:00:00Z</time>
      </trkpt>
      <trkpt lat="44.54327" lon="1.60888">
        <ele>247.5</ele>
        <time>2010-01-01T00:00:00Z</time>
      </trkpt>
      <trkpt lat="44.54332" lon="1.60884">
        <ele>247.8</ele>
        <time>2010-01-01T00:00:00Z</time>
      </trkpt>
      <trkpt lat="44.54338" lon="1.60881">
        <ele>249.4</ele>
        <time>2010-01-01T00:00:00Z</time>
      </trkpt>
      <trkpt lat="44.54343" lon="1.60876">
        <ele>249.8</ele>
        <time>2010-01-01T00:00:00Z</time>
      </trkpt>
      <trkpt lat="44.54355" lon="1.60863">
        <ele>250.4</ele>
        <time>2010-01-01T00:00:00Z</time>
      </trkpt>
      <trkpt lat="44.5437" lon="1.60858">
        <ele>250.6</ele>
        <time>2010-01-01T00:00:00Z</time>
      </trkpt>
      <trkpt lat="44.54371" lon="1.60858">
        <ele>250.7</ele>
        <time>2010-01-01T00:00:00Z</time>
      </trkpt>
      <trkpt lat="44.5439" lon="1.60854">
        <ele>250.7</ele>
        <time>2010-01-01T00:00:00Z</time>
      </trkpt>
      <trkpt lat="44.54405" lon="1.60849">
        <ele>250.1</ele>
        <time>2010-01-01T00:00:00Z</time>
      </trkpt>
      <trkpt lat="44.54416" lon="1.60845">
        <ele>249.5</ele>
        <time>2010-01-01T00:00:00Z</time>
      </trkpt>
      <trkpt lat="44.54433" lon="1.60837">
        <ele>252.5</ele>
        <time>2010-01-01T00:00:00Z</time>
      </trkpt>
      <trkpt lat="44.54449" lon="1.60833">
        <ele>250.7</ele>
        <time>2010-01-01T00:00:00Z</time>
      </trkpt>
      <trkpt lat="44.54461" lon="1.60829">
        <ele>251.2</ele>
        <time>2010-01-01T00:00:00Z</time>
      </trkpt>
      <trkpt lat="44.54476" lon="1.60824">
        <ele>251.7</ele>
        <time>2010-01-01T00:00:00Z</time>
      </trkpt>
      <trkpt lat="44.5449" lon="1.60818">
        <ele>252</ele>
        <time>2010-01-01T00:00:00Z</time>
      </trkpt>
      <trkpt lat="44.545" lon="1.60812">
        <ele>253.7</ele>
        <time>2010-01-01T00:00:00Z</time>
      </trkpt>
      <trkpt lat="44.54509" lon="1.60806">
        <ele>253.9</ele>
        <time>2010-01-01T00:00:00Z</time>
      </trkpt>
      <trkpt lat="44.54518" lon="1.608">
        <ele>254</ele>
        <time>2010-01-01T00:00:00Z</time>
      </trkpt>
      <trkpt lat="44.54529" lon="1.60797">
        <ele>254.3</ele>
        <time>2010-01-01T00:00:00Z</time>
      </trkpt>
      <trkpt lat="44.54537" lon="1.60794">
        <ele>254.4</ele>
        <time>2010-01-01T00:00:00Z</time>
      </trkpt>
      <trkpt lat="44.54544" lon="1.6079">
        <ele>254.5</ele>
        <time>2010-01-01T00:00:00Z</time>
      </trkpt>
      <trkpt lat="44.54548" lon="1.60787">
        <ele>254.5</ele>
        <time>2010-01-01T00:00:00Z</time>
      </trkpt>
      <trkpt lat="44.54551" lon="1.60785">
        <ele>254.4</ele>
        <time>2010-01-01T00:00:00Z</time>
      </trkpt>
      <trkpt lat="44.54553" lon="1.60783">
        <ele>254.4</ele>
        <time>2010-01-01T00:00:00Z</time>
      </trkpt>
      <trkpt lat="44.54555" lon="1.6078">
        <ele>254.2</ele>
        <time>2010-01-01T00:00:00Z</time>
      </trkpt>
      <trkpt lat="44.54561" lon="1.60768">
        <ele>253.6</ele>
        <time>2010-01-01T00:00:00Z</time>
      </trkpt>
      <trkpt lat="44.54566" lon="1.60757">
        <ele>252.9</ele>
        <time>2010-01-01T00:00:00Z</time>
      </trkpt>
      <trkpt lat="44.54569" lon="1.60752">
        <ele>252.5</ele>
        <time>2010-01-01T00:00:00Z</time>
      </trkpt>
      <trkpt lat="44.54572" lon="1.60749">
        <ele>251.8</ele>
        <time>2010-01-01T00:00:00Z</time>
      </trkpt>
      <trkpt lat="44.54574" lon="1.60748">
        <ele>251.7</ele>
        <time>2010-01-01T00:00:00Z</time>
      </trkpt>
      <trkpt lat="44.54579" lon="1.60748">
        <ele>251.4</ele>
        <time>2010-01-01T00:00:00Z</time>
      </trkpt>
      <trkpt lat="44.54582" lon="1.60748">
        <ele>251.2</ele>
        <time>2010-01-01T00:00:00Z</time>
      </trkpt>
      <trkpt lat="44.54588" lon="1.60751">
        <ele>252.8</ele>
        <time>2010-01-01T00:00:00Z</time>
      </trkpt>
      <trkpt lat="44.54596" lon="1.60757">
        <ele>255.5</ele>
        <time>2010-01-01T00:00:00Z</time>
      </trkpt>
      <trkpt lat="44.54608" lon="1.60759">
        <ele>257.5</ele>
        <time>2010-01-01T00:00:00Z</time>
      </trkpt>
      <trkpt lat="44.54619" lon="1.60757">
        <ele>258.6</ele>
        <time>2010-01-01T00:00:00Z</time>
      </trkpt>
      <trkpt lat="44.54631" lon="1.60753">
        <ele>259.3</ele>
        <time>2010-01-01T00:00:00Z</time>
      </trkpt>
      <trkpt lat="44.54641" lon="1.60746">
        <ele>256.4</ele>
        <time>2010-01-01T00:00:00Z</time>
      </trkpt>
      <trkpt lat="44.54652" lon="1.60734">
        <ele>256.8</ele>
        <time>2010-01-01T00:00:00Z</time>
      </trkpt>
      <trkpt lat="44.54659" lon="1.60722">
        <ele>256.5</ele>
        <time>2010-01-01T00:00:00Z</time>
      </trkpt>
      <trkpt lat="44.54665" lon="1.60711">
        <ele>256.3</ele>
        <time>2010-01-01T00:00:00Z</time>
      </trkpt>
      <trkpt lat="44.54675" lon="1.60701">
        <ele>262.1</ele>
        <time>2010-01-01T00:00:00Z</time>
      </trkpt>
      <trkpt lat="44.54694" lon="1.60677">
        <ele>262.2</ele>
        <time>2010-01-01T00:00:00Z</time>
      </trkpt>
      <trkpt lat="44.54704" lon="1.60664">
        <ele>260.3</ele>
        <time>2010-01-01T00:00:00Z</time>
      </trkpt>
      <trkpt lat="44.54711" lon="1.60655">
        <ele>260.9</ele>
        <time>2010-01-01T00:00:00Z</time>
      </trkpt>
      <trkpt lat="44.54716" lon="1.60648">
        <ele>261.1</ele>
        <time>2010-01-01T00:00:00Z</time>
      </trkpt>
      <trkpt lat="44.54728" lon="1.60628">
        <ele>260.9</ele>
        <time>2010-01-01T00:00:00Z</time>
      </trkpt>
      <trkpt lat="44.54734" lon="1.60616">
        <ele>260.4</ele>
        <time>2010-01-01T00:00:00Z</time>
      </trkpt>
      <trkpt lat="44.54737" lon="1.60611">
        <ele>260.2</ele>
        <time>2010-01-01T00:00:00Z</time>
      </trkpt>
      <trkpt lat="44.54739" lon="1.60608">
        <ele>260</ele>
        <time>2010-01-01T00:00:00Z</time>
      </trkpt>
      <trkpt lat="44.54741" lon="1.60605">
        <ele>259.8</ele>
        <time>2010-01-01T00:00:00Z</time>
      </trkpt>
      <trkpt lat="44.54742" lon="1.60602">
        <ele>259.6</ele>
        <time>2010-01-01T00:00:00Z</time>
      </trkpt>
      <trkpt lat="44.54748" lon="1.60582">
        <ele>258.2</ele>
        <time>2010-01-01T00:00:00Z</time>
      </trkpt>
      <trkpt lat="44.54749" lon="1.60576">
        <ele>258.6</ele>
        <time>2010-01-01T00:00:00Z</time>
      </trkpt>
      <trkpt lat="44.54755" lon="1.6055">
        <ele>262.2</ele>
        <time>2010-01-01T00:00:00Z</time>
      </trkpt>
      <trkpt lat="44.54759" lon="1.60523">
        <ele>261.8</ele>
        <time>2010-01-01T00:00:00Z</time>
      </trkpt>
      <trkpt lat="44.54763" lon="1.60506">
        <ele>260.9</ele>
        <time>2010-01-01T00:00:00Z</time>
      </trkpt>
      <trkpt lat="44.54765" lon="1.60496">
        <ele>260.4</ele>
        <time>2010-01-01T00:00:00Z</time>
      </trkpt>
      <trkpt lat="44.54769" lon="1.60487">
        <ele>261.2</ele>
        <time>2010-01-01T00:00:00Z</time>
      </trkpt>
      <trkpt lat="44.54777" lon="1.60473">
        <ele>262.1</ele>
        <time>2010-01-01T00:00:00Z</time>
      </trkpt>
      <trkpt lat="44.54789" lon="1.60458">
        <ele>262.6</ele>
        <time>2010-01-01T00:00:00Z</time>
      </trkpt>
      <trkpt lat="44.54798" lon="1.60449">
        <ele>262.9</ele>
        <time>2010-01-01T00:00:00Z</time>
      </trkpt>
      <trkpt lat="44.54807" lon="1.6044">
        <ele>263</ele>
        <time>2010-01-01T00:00:00Z</time>
      </trkpt>
      <trkpt lat="44.54817" lon="1.60437">
        <ele>263.1</ele>
        <time>2010-01-01T00:00:00Z</time>
      </trkpt>
      <trkpt lat="44.54827" lon="1.60437">
        <ele>263.2</ele>
        <time>2010-01-01T00:00:00Z</time>
      </trkpt>
      <trkpt lat="44.5484" lon="1.60443">
        <ele>266.2</ele>
        <time>2010-01-01T00:00:00Z</time>
      </trkpt>
      <trkpt lat="44.54851" lon="1.60448">
        <ele>266.8</ele>
        <time>2010-01-01T00:00:00Z</time>
      </trkpt>
      <trkpt lat="44.54866" lon="1.6046">
        <ele>267.6</ele>
        <time>2010-01-01T00:00:00Z</time>
      </trkpt>
      <trkpt lat="44.54876" lon="1.60464">
        <ele>267.9</ele>
        <time>2010-01-01T00:00:00Z</time>
      </trkpt>
      <trkpt lat="44.54891" lon="1.60468">
        <ele>268.3</ele>
        <time>2010-01-01T00:00:00Z</time>
      </trkpt>
      <trkpt lat="44.54909" lon="1.60471">
        <ele>268.8</ele>
        <time>2010-01-01T00:00:00Z</time>
      </trkpt>
      <trkpt lat="44.54916" lon="1.60473">
        <ele>269</ele>
        <time>2010-01-01T00:00:00Z</time>
      </trkpt>
      <trkpt lat="44.54933" lon="1.60477">
        <ele>269.4</ele>
        <time>2010-01-01T00:00:00Z</time>
      </trkpt>
      <trkpt lat="44.5495" lon="1.60482">
        <ele>269.2</ele>
        <time>2010-01-01T00:00:00Z</time>
      </trkpt>
      <trkpt lat="44.54962" lon="1.60484">
        <ele>269</ele>
        <time>2010-01-01T00:00:00Z</time>
      </trkpt>
      <trkpt lat="44.54964" lon="1.60485">
        <ele>269</ele>
        <time>2010-01-01T00:00:00Z</time>
      </trkpt>
      <trkpt lat="44.54979" lon="1.60489">
        <ele>268.9</ele>
        <time>2010-01-01T00:00:00Z</time>
      </trkpt>
      <trkpt lat="44.54999" lon="1.60492">
        <ele>268.9</ele>
        <time>2010-01-01T00:00:00Z</time>
      </trkpt>
      <trkpt lat="44.55013" lon="1.60493">
        <ele>270.4</ele>
        <time>2010-01-01T00:00:00Z</time>
      </trkpt>
      <trkpt lat="44.55029" lon="1.60497">
        <ele>271.4</ele>
        <time>2010-01-01T00:00:00Z</time>
      </trkpt>
      <trkpt lat="44.55043" lon="1.60502">
        <ele>275</ele>
        <time>2010-01-01T00:00:00Z</time>
      </trkpt>
      <trkpt lat="44.55054" lon="1.60503">
        <ele>275.3</ele>
        <time>2010-01-01T00:00:00Z</time>
      </trkpt>
      <trkpt lat="44.55054" lon="1.60501">
        <ele>275.2</ele>
        <time>2010-01-01T00:00:00Z</time>
      </trkpt>
      <trkpt lat="44.55054" lon="1.60503">
        <ele>275.3</ele>
        <time>2010-01-01T00:00:00Z</time>
      </trkpt>
      <trkpt lat="44.55066" lon="1.60503">
        <ele>275.2</ele>
        <time>2010-01-01T00:00:00Z</time>
      </trkpt>
      <trkpt lat="44.55081" lon="1.60503">
        <ele>274.4</ele>
        <time>2010-01-01T00:00:00Z</time>
      </trkpt>
      <trkpt lat="44.55098" lon="1.60503">
        <ele>276.8</ele>
        <time>2010-01-01T00:00:00Z</time>
      </trkpt>
      <trkpt lat="44.55121" lon="1.60504">
        <ele>278.7</ele>
        <time>2010-01-01T00:00:00Z</time>
      </trkpt>
      <trkpt lat="44.55136" lon="1.60507">
        <ele>279.2</ele>
        <time>2010-01-01T00:00:00Z</time>
      </trkpt>
      <trkpt lat="44.55167" lon="1.60514">
        <ele>279.1</ele>
        <time>2010-01-01T00:00:00Z</time>
      </trkpt>
      <trkpt lat="44.55188" lon="1.60524">
        <ele>279.7</ele>
        <time>2010-01-01T00:00:00Z</time>
      </trkpt>
      <trkpt lat="44.55197" lon="1.60533">
        <ele>280</ele>
        <time>2010-01-01T00:00:00Z</time>
      </trkpt>
      <trkpt lat="44.55201" lon="1.60538">
        <ele>280.1</ele>
        <time>2010-01-01T00:00:00Z</time>
      </trkpt>
      <trkpt lat="44.55212" lon="1.60556">
        <ele>280.3</ele>
        <time>2010-01-01T00:00:00Z</time>
      </trkpt>
      <trkpt lat="44.55217" lon="1.60574">
        <ele>280.3</ele>
        <time>2010-01-01T00:00:00Z</time>
      </trkpt>
      <trkpt lat="44.55218" lon="1.60585">
        <ele>283.9</ele>
        <time>2010-01-01T00:00:00Z</time>
      </trkpt>
      <trkpt lat="44.55218" lon="1.60602">
        <ele>284.5</ele>
        <time>2010-01-01T00:00:00Z</time>
      </trkpt>
      <trkpt lat="44.55222" lon="1.60616">
        <ele>285</ele>
        <time>2010-01-01T00:00:00Z</time>
      </trkpt>
      <trkpt lat="44.55226" lon="1.60626">
        <ele>285.2</ele>
        <time>2010-01-01T00:00:00Z</time>
      </trkpt>
      <trkpt lat="44.55235" lon="1.60648">
        <ele>285.4</ele>
        <time>2010-01-01T00:00:00Z</time>
      </trkpt>
      <trkpt lat="44.55249" lon="1.60673">
        <ele>286.2</ele>
        <time>2010-01-01T00:00:00Z</time>
      </trkpt>
      <trkpt lat="44.55258" lon="1.60689">
        <ele>285</ele>
        <time>2010-01-01T00:00:00Z</time>
      </trkpt>
      <trkpt lat="44.5526" lon="1.60694">
        <ele>285.2</ele>
        <time>2010-01-01T00:00:00Z</time>
      </trkpt>
      <trkpt lat="44.55267" lon="1.60708">
        <ele>285.9</ele>
        <time>2010-01-01T00:00:00Z</time>
      </trkpt>
      <trkpt lat="44.55273" lon="1.6073">
        <ele>287.1</ele>
        <time>2010-01-01T00:00:00Z</time>
      </trkpt>
      <trkpt lat="44.55276" lon="1.6075">
        <ele>287.8</ele>
        <time>2010-01-01T00:00:00Z</time>
      </trkpt>
      <trkpt lat="44.55278" lon="1.60764">
        <ele>290.9</ele>
        <time>2010-01-01T00:00:00Z</time>
      </trkpt>
      <trkpt lat="44.5528" lon="1.60766">
        <ele>290.8</ele>
        <time>2010-01-01T00:00:00Z</time>
      </trkpt>
      <trkpt lat="44.55282" lon="1.60769">
        <ele>290.6</ele>
        <time>2010-01-01T00:00:00Z</time>
      </trkpt>
      <trkpt lat="44.55286" lon="1.60772">
        <ele>290.3</ele>
        <time>2010-01-01T00:00:00Z</time>
      </trkpt>
      <trkpt lat="44.55293" lon="1.60772">
        <ele>289.7</ele>
        <time>2010-01-01T00:00:00Z</time>
      </trkpt>
      <trkpt lat="44.55298" lon="1.60772">
        <ele>289.2</ele>
        <time>2010-01-01T00:00:00Z</time>
      </trkpt>
      <trkpt lat="44.55311" lon="1.60769">
        <ele>287.7</ele>
        <time>2010-01-01T00:00:00Z</time>
      </trkpt>
      <trkpt lat="44.55349" lon="1.60754">
        <ele>283.8</ele>
        <time>2010-01-01T00:00:00Z</time>
      </trkpt>
      <trkpt lat="44.55375" lon="1.60741">
        <ele>283.5</ele>
        <time>2010-01-01T00:00:00Z</time>
      </trkpt>
      <trkpt lat="44.55387" lon="1.60731">
        <ele>284</ele>
        <time>2010-01-01T00:00:00Z</time>
      </trkpt>
      <trkpt lat="44.55391" lon="1.60726">
        <ele>284</ele>
        <time>2010-01-01T00:00:00Z</time>
      </trkpt>
      <trkpt lat="44.55398" lon="1.60717">
        <ele>284</ele>
        <time>2010-01-01T00:00:00Z</time>
      </trkpt>
      <trkpt lat="44.55422" lon="1.60701">
        <ele>287.4</ele>
        <time>2010-01-01T00:00:00Z</time>
      </trkpt>
      <trkpt lat="44.55436" lon="1.60694">
        <ele>287.5</ele>
        <time>2010-01-01T00:00:00Z</time>
      </trkpt>
      <trkpt lat="44.55455" lon="1.60685">
        <ele>288.2</ele>
        <time>2010-01-01T00:00:00Z</time>
      </trkpt>
      <trkpt lat="44.55474" lon="1.60678">
        <ele>289</ele>
        <time>2010-01-01T00:00:00Z</time>
      </trkpt>
      <trkpt lat="44.55483" lon="1.60677">
        <ele>289.3</ele>
        <time>2010-01-01T00:00:00Z</time>
      </trkpt>
      <trkpt lat="44.55491" lon="1.60676">
        <ele>289.6</ele>
        <time>2010-01-01T00:00:00Z</time>
      </trkpt>
      <trkpt lat="44.55519" lon="1.60676">
        <ele>291.8</ele>
        <time>2010-01-01T00:00:00Z</time>
      </trkpt>
      <trkpt lat="44.55541" lon="1.60676">
        <ele>292.3</ele>
        <time>2010-01-01T00:00:00Z</time>
      </trkpt>
      <trkpt lat="44.55554" lon="1.60676">
        <ele>292.4</ele>
        <time>2010-01-01T00:00:00Z</time>
      </trkpt>
      <trkpt lat="44.55561" lon="1.60676">
        <ele>292.3</ele>
        <time>2010-01-01T00:00:00Z</time>
      </trkpt>
      <trkpt lat="44.55576" lon="1.60676">
        <ele>291.9</ele>
        <time>2010-01-01T00:00:00Z</time>
      </trkpt>
      <trkpt lat="44.55583" lon="1.60679">
        <ele>291.9</ele>
        <time>2010-01-01T00:00:00Z</time>
      </trkpt>
      <trkpt lat="44.55588" lon="1.60685">
        <ele>293.1</ele>
        <time>2010-01-01T00:00:00Z</time>
      </trkpt>
      <trkpt lat="44.5559" lon="1.6069">
        <ele>293.5</ele>
        <time>2010-01-01T00:00:00Z</time>
      </trkpt>
      <trkpt lat="44.55593" lon="1.607">
        <ele>294.1</ele>
        <time>2010-01-01T00:00:00Z</time>
      </trkpt>
      <trkpt lat="44.55599" lon="1.60722">
        <ele>295.1</ele>
        <time>2010-01-01T00:00:00Z</time>
      </trkpt>
      <trkpt lat="44.55602" lon="1.6074">
        <ele>295.7</ele>
        <time>2010-01-01T00:00:00Z</time>
      </trkpt>
      <trkpt lat="44.55603" lon="1.60745">
        <ele>295.8</ele>
        <time>2010-01-01T00:00:00Z</time>
      </trkpt>
      <trkpt lat="44.55601" lon="1.60747">
        <ele>295.9</ele>
        <time>2010-01-01T00:00:00Z</time>
      </trkpt>
      <trkpt lat="44.55598" lon="1.60753">
        <ele>297.2</ele>
        <time>2010-01-01T00:00:00Z</time>
      </trkpt>
      <trkpt lat="44.55592" lon="1.60773">
        <ele>297.5</ele>
        <time>2010-01-01T00:00:00Z</time>
      </trkpt>
      <trkpt lat="44.55582" lon="1.60813">
        <ele>299.8</ele>
        <time>2010-01-01T00:00:00Z</time>
      </trkpt>
      <trkpt lat="44.55579" lon="1.60839">
        <ele>301.3</ele>
        <time>2010-01-01T00:00:00Z</time>
      </trkpt>
      <trkpt lat="44.55579" lon="1.60864">
        <ele>300.2</ele>
        <time>2010-01-01T00:00:00Z</time>
      </trkpt>
      <trkpt lat="44.5558" lon="1.60883">
        <ele>300</ele>
        <time>2010-01-01T00:00:00Z</time>
      </trkpt>
      <trkpt lat="44.55584" lon="1.60905">
        <ele>299.7</ele>
        <time>2010-01-01T00:00:00Z</time>
      </trkpt>
      <trkpt lat="44.55592" lon="1.60932">
        <ele>298.9</ele>
        <time>2010-01-01T00:00:00Z</time>
      </trkpt>
      <trkpt lat="44.55599" lon="1.60961">
        <ele>297.5</ele>
        <time>2010-01-01T00:00:00Z</time>
      </trkpt>
      <trkpt lat="44.55609" lon="1.60987">
        <ele>297.1</ele>
        <time>2010-01-01T00:00:00Z</time>
      </trkpt>
      <trkpt lat="44.5561" lon="1.60989">
        <ele>297.1</ele>
        <time>2010-01-01T00:00:00Z</time>
      </trkpt>
      <trkpt lat="44.55615" lon="1.60999">
        <ele>297.1</ele>
        <time>2010-01-01T00:00:00Z</time>
      </trkpt>
      <trkpt lat="44.55617" lon="1.61002">
        <ele>295.5</ele>
        <time>2010-01-01T00:00:00Z</time>
      </trkpt>
      <trkpt lat="44.55608" lon="1.61003">
        <ele>295.6</ele>
        <time>2010-01-01T00:00:00Z</time>
      </trkpt>
      <trkpt lat="44.55602" lon="1.61004">
        <ele>295.7</ele>
        <time>2010-01-01T00:00:00Z</time>
      </trkpt>
      <trkpt lat="44.55591" lon="1.61006">
        <ele>296.2</ele>
        <time>2010-01-01T00:00:00Z</time>
      </trkpt>
      <trkpt lat="44.55581" lon="1.61008">
        <ele>295.7</ele>
        <time>2010-01-01T00:00:00Z</time>
      </trkpt>
      <trkpt lat="44.5558" lon="1.61009">
        <ele>295.5</ele>
        <time>2010-01-01T00:00:00Z</time>
      </trkpt>
      <trkpt lat="44.55574" lon="1.61012">
        <ele>294.9</ele>
        <time>2010-01-01T00:00:00Z</time>
      </trkpt>
      <trkpt lat="44.55564" lon="1.61021">
        <ele>293.8</ele>
        <time>2010-01-01T00:00:00Z</time>
      </trkpt>
      <trkpt lat="44.55544" lon="1.61032">
        <ele>292.8</ele>
        <time>2010-01-01T00:00:00Z</time>
      </trkpt>
      <trkpt lat="44.55528" lon="1.61045">
        <ele>292.2</ele>
        <time>2010-01-01T00:00:00Z</time>
      </trkpt>
      <trkpt lat="44.55521" lon="1.6105">
        <ele>292</ele>
        <time>2010-01-01T00:00:00Z</time>
      </trkpt>
      <trkpt lat="44.55499" lon="1.61067">
        <ele>290.3</ele>
        <time>2010-01-01T00:00:00Z</time>
      </trkpt>
      <trkpt lat="44.55494" lon="1.6107">
        <ele>290.3</ele>
        <time>2010-01-01T00:00:00Z</time>
      </trkpt>
      <trkpt lat="44.55483" lon="1.61076">
        <ele>290.3</ele>
        <time>2010-01-01T00:00:00Z</time>
      </trkpt>
      <trkpt lat="44.55472" lon="1.61084">
        <ele>289.8</ele>
        <time>2010-01-01T00:00:00Z</time>
      </trkpt>
      <trkpt lat="44.55456" lon="1.61093">
        <ele>289.8</ele>
        <time>2010-01-01T00:00:00Z</time>
      </trkpt>
      <trkpt lat="44.55439" lon="1.61099">
        <ele>289.9</ele>
        <time>2010-01-01T00:00:00Z</time>
      </trkpt>
      <trkpt lat="44.55424" lon="1.61103">
        <ele>290</ele>
        <time>2010-01-01T00:00:00Z</time>
      </trkpt>
      <trkpt lat="44.55409" lon="1.61105">
        <ele>290.7</ele>
        <time>2010-01-01T00:00:00Z</time>
      </trkpt>
      <trkpt lat="44.55391" lon="1.61106">
        <ele>290.8</ele>
        <time>2010-01-01T00:00:00Z</time>
      </trkpt>
      <trkpt lat="44.55364" lon="1.61105">
        <ele>290.6</ele>
        <time>2010-01-01T00:00:00Z</time>
      </trkpt>
      <trkpt lat="44.55343" lon="1.61106">
        <ele>290.3</ele>
        <time>2010-01-01T00:00:00Z</time>
      </trkpt>
      <trkpt lat="44.55328" lon="1.6111">
        <ele>293.2</ele>
        <time>2010-01-01T00:00:00Z</time>
      </trkpt>
      <trkpt lat="44.55322" lon="1.61114">
        <ele>293.8</ele>
        <time>2010-01-01T00:00:00Z</time>
      </trkpt>
      <trkpt lat="44.55319" lon="1.61112">
        <ele>293.8</ele>
        <time>2010-01-01T00:00:00Z</time>
      </trkpt>
      <trkpt lat="44.55322" lon="1.61114">
        <ele>293.8</ele>
        <time>2010-01-01T00:00:00Z</time>
      </trkpt>
      <trkpt lat="44.55322" lon="1.61119">
        <ele>294.2</ele>
        <time>2010-01-01T00:00:00Z</time>
      </trkpt>
      <trkpt lat="44.55322" lon="1.61127">
        <ele>294.7</ele>
        <time>2010-01-01T00:00:00Z</time>
      </trkpt>
      <trkpt lat="44.55323" lon="1.6114">
        <ele>295.2</ele>
        <time>2010-01-01T00:00:00Z</time>
      </trkpt>
      <trkpt lat="44.55328" lon="1.61163">
        <ele>295.2</ele>
        <time>2010-01-01T00:00:00Z</time>
      </trkpt>
      <trkpt lat="44.55328" lon="1.61165">
        <ele>295.2</ele>
        <time>2010-01-01T00:00:00Z</time>
      </trkpt>
      <trkpt lat="44.55331" lon="1.61185">
        <ele>296.4</ele>
        <time>2010-01-01T00:00:00Z</time>
      </trkpt>
      <trkpt lat="44.55331" lon="1.61199">
        <ele>296.6</ele>
        <time>2010-01-01T00:00:00Z</time>
      </trkpt>
      <trkpt lat="44.55329" lon="1.61208">
        <ele>296.5</ele>
        <time>2010-01-01T00:00:00Z</time>
      </trkpt>
      <trkpt lat="44.55327" lon="1.61213">
        <ele>296.5</ele>
        <time>2010-01-01T00:00:00Z</time>
      </trkpt>
      <trkpt lat="44.55321" lon="1.61231">
        <ele>295.7</ele>
        <time>2010-01-01T00:00:00Z</time>
      </trkpt>
      <trkpt lat="44.55317" lon="1.61238">
        <ele>295.6</ele>
        <time>2010-01-01T00:00:00Z</time>
      </trkpt>
      <trkpt lat="44.55312" lon="1.61249">
        <ele>295.8</ele>
        <time>2010-01-01T00:00:00Z</time>
      </trkpt>
      <trkpt lat="44.55299" lon="1.61262">
        <ele>293.6</ele>
        <time>2010-01-01T00:00:00Z</time>
      </trkpt>
      <trkpt lat="44.55276" lon="1.61278">
        <ele>294.7</ele>
        <time>2010-01-01T00:00:00Z</time>
      </trkpt>
      <trkpt lat="44.55268" lon="1.61282">
        <ele>294.9</ele>
        <time>2010-01-01T00:00:00Z</time>
      </trkpt>
      <trkpt lat="44.5526" lon="1.61287">
        <ele>294.9</ele>
        <time>2010-01-01T00:00:00Z</time>
      </trkpt>
      <trkpt lat="44.55235" lon="1.61296">
        <ele>300.9</ele>
        <time>2010-01-01T00:00:00Z</time>
      </trkpt>
      <trkpt lat="44.55209" lon="1.6131">
        <ele>301.8</ele>
        <time>2010-01-01T00:00:00Z</time>
      </trkpt>
      <trkpt lat="44.55198" lon="1.61319">
        <ele>302.6</ele>
        <time>2010-01-01T00:00:00Z</time>
      </trkpt>
      <trkpt lat="44.55191" lon="1.61332">
        <ele>303.2</ele>
        <time>2010-01-01T00:00:00Z</time>
      </trkpt>
      <trkpt lat="44.55165" lon="1.6137">
        <ele>303.3</ele>
        <time>2010-01-01T00:00:00Z</time>
      </trkpt>
      <trkpt lat="44.5516" lon="1.61382">
        <ele>302.6</ele>
        <time>2010-01-01T00:00:00Z</time>
      </trkpt>
      <trkpt lat="44.55154" lon="1.61399">
        <ele>301.6</ele>
        <time>2010-01-01T00:00:00Z</time>
      </trkpt>
      <trkpt lat="44.55146" lon="1.61415">
        <ele>301.5</ele>
        <time>2010-01-01T00:00:00Z</time>
      </trkpt>
      <trkpt lat="44.55138" lon="1.61427">
        <ele>299.8</ele>
        <time>2010-01-01T00:00:00Z</time>
      </trkpt>
      <trkpt lat="44.55126" lon="1.61448">
        <ele>299.9</ele>
        <time>2010-01-01T00:00:00Z</time>
      </trkpt>
      <trkpt lat="44.55123" lon="1.6146">
        <ele>299.8</ele>
        <time>2010-01-01T00:00:00Z</time>
      </trkpt>
      <trkpt lat="44.55123" lon="1.61474">
        <ele>299.6</ele>
        <time>2010-01-01T00:00:00Z</time>
      </trkpt>
      <trkpt lat="44.55127" lon="1.61491">
        <ele>299</ele>
        <time>2010-01-01T00:00:00Z</time>
      </trkpt>
      <trkpt lat="44.55135" lon="1.61513">
        <ele>296.3</ele>
        <time>2010-01-01T00:00:00Z</time>
      </trkpt>
      <trkpt lat="44.55149" lon="1.6155">
        <ele>295.3</ele>
        <time>2010-01-01T00:00:00Z</time>
      </trkpt>
      <trkpt lat="44.55166" lon="1.61594">
        <ele>291.4</ele>
        <time>2010-01-01T00:00:00Z</time>
      </trkpt>
      <trkpt lat="44.5517" lon="1.61606">
        <ele>289.3</ele>
        <time>2010-01-01T00:00:00Z</time>
      </trkpt>
      <trkpt lat="44.55173" lon="1.61615">
        <ele>288.9</ele>
        <time>2010-01-01T00:00:00Z</time>
      </trkpt>
      <trkpt lat="44.55173" lon="1.61631">
        <ele>288.3</ele>
        <time>2010-01-01T00:00:00Z</time>
      </trkpt>
      <trkpt lat="44.55173" lon="1.61642">
        <ele>287.8</ele>
        <time>2010-01-01T00:00:00Z</time>
      </trkpt>
      <trkpt lat="44.55173" lon="1.61645">
        <ele>287.6</ele>
        <time>2010-01-01T00:00:00Z</time>
      </trkpt>
      <trkpt lat="44.55173" lon="1.61654">
        <ele>287.2</ele>
        <time>2010-01-01T00:00:00Z</time>
      </trkpt>
      <trkpt lat="44.55176" lon="1.61665">
        <ele>286.8</ele>
        <time>2010-01-01T00:00:00Z</time>
      </trkpt>
      <trkpt lat="44.55179" lon="1.61678">
        <ele>285</ele>
        <time>2010-01-01T00:00:00Z</time>
      </trkpt>
      <trkpt lat="44.5518" lon="1.6168">
        <ele>284.9</ele>
        <time>2010-01-01T00:00:00Z</time>
      </trkpt>
      <trkpt lat="44.55185" lon="1.61701">
        <ele>284</ele>
        <time>2010-01-01T00:00:00Z</time>
      </trkpt>
      <trkpt lat="44.55188" lon="1.61717">
        <ele>283.3</ele>
        <time>2010-01-01T00:00:00Z</time>
      </trkpt>
      <trkpt lat="44.55191" lon="1.61724">
        <ele>283.1</ele>
        <time>2010-01-01T00:00:00Z</time>
      </trkpt>
      <trkpt lat="44.55193" lon="1.61728">
        <ele>283</ele>
        <time>2010-01-01T00:00:00Z</time>
      </trkpt>
      <trkpt lat="44.55199" lon="1.61738">
        <ele>282.7</ele>
        <time>2010-01-01T00:00:00Z</time>
      </trkpt>
      <trkpt lat="44.55206" lon="1.61745">
        <ele>282.6</ele>
        <time>2010-01-01T00:00:00Z</time>
      </trkpt>
      <trkpt lat="44.55213" lon="1.61751">
        <ele>278.3</ele>
        <time>2010-01-01T00:00:00Z</time>
      </trkpt>
      <trkpt lat="44.5522" lon="1.61758">
        <ele>278.1</ele>
        <time>2010-01-01T00:00:00Z</time>
      </trkpt>
      <trkpt lat="44.55227" lon="1.61767">
        <ele>277.9</ele>
        <time>2010-01-01T00:00:00Z</time>
      </trkpt>
      <trkpt lat="44.55238" lon="1.61784">
        <ele>276.9</ele>
        <time>2010-01-01T00:00:00Z</time>
      </trkpt>
      <trkpt lat="44.55239" lon="1.61785">
        <ele>276.9</ele>
        <time>2010-01-01T00:00:00Z</time>
      </trkpt>
      <trkpt lat="44.55248" lon="1.61798">
        <ele>275.7</ele>
        <time>2010-01-01T00:00:00Z</time>
      </trkpt>
      <trkpt lat="44.55259" lon="1.61815">
        <ele>273.4</ele>
        <time>2010-01-01T00:00:00Z</time>
      </trkpt>
      <trkpt lat="44.5526" lon="1.61817">
        <ele>273.2</ele>
        <time>2010-01-01T00:00:00Z</time>
      </trkpt>
      <trkpt lat="44.55272" lon="1.6184">
        <ele>268.7</ele>
        <time>2010-01-01T00:00:00Z</time>
      </trkpt>
      <trkpt lat="44.55286" lon="1.61868">
        <ele>267.8</ele>
        <time>2010-01-01T00:00:00Z</time>
      </trkpt>
      <trkpt lat="44.55294" lon="1.61888">
        <ele>267</ele>
        <time>2010-01-01T00:00:00Z</time>
      </trkpt>
      <trkpt lat="44.553" lon="1.61904">
        <ele>266.4</ele>
        <time>2010-01-01T00:00:00Z</time>
      </trkpt>
      <trkpt lat="44.55305" lon="1.61917">
        <ele>261.2</ele>
        <time>2010-01-01T00:00:00Z</time>
      </trkpt>
      <trkpt lat="44.5532" lon="1.61951">
        <ele>259.7</ele>
        <time>2010-01-01T00:00:00Z</time>
      </trkpt>
      <trkpt lat="44.55323" lon="1.61965">
        <ele>258.7</ele>
        <time>2010-01-01T00:00:00Z</time>
      </trkpt>
      <trkpt lat="44.55325" lon="1.61978">
        <ele>257.7</ele>
        <time>2010-01-01T00:00:00Z</time>
      </trkpt>
      <trkpt lat="44.55326" lon="1.61994">
        <ele>256.3</ele>
        <time>2010-01-01T00:00:00Z</time>
      </trkpt>
      <trkpt lat="44.55326" lon="1.61995">
        <ele>256.2</ele>
        <time>2010-01-01T00:00:00Z</time>
      </trkpt>
      <trkpt lat="44.55324" lon="1.6201">
        <ele>252.7</ele>
        <time>2010-01-01T00:00:00Z</time>
      </trkpt>
      <trkpt lat="44.55323" lon="1.62018">
        <ele>251.9</ele>
        <time>2010-01-01T00:00:00Z</time>
      </trkpt>
      <trkpt lat="44.5532" lon="1.62034">
        <ele>250.5</ele>
        <time>2010-01-01T00:00:00Z</time>
      </trkpt>
      <trkpt lat="44.55313" lon="1.62051">
        <ele>249.3</ele>
        <time>2010-01-01T00:00:00Z</time>
      </trkpt>
      <trkpt lat="44.55298" lon="1.62077">
        <ele>248.1</ele>
        <time>2010-01-01T00:00:00Z</time>
      </trkpt>
      <trkpt lat="44.55293" lon="1.62087">
        <ele>246.6</ele>
        <time>2010-01-01T00:00:00Z</time>
      </trkpt>
      <trkpt lat="44.55293" lon="1.62089">
        <ele>246.6</ele>
        <time>2010-01-01T00:00:00Z</time>
      </trkpt>
      <trkpt lat="44.55291" lon="1.62099">
        <ele>246.8</ele>
        <time>2010-01-01T00:00:00Z</time>
      </trkpt>
      <trkpt lat="44.55291" lon="1.62117">
        <ele>247.3</ele>
        <time>2010-01-01T00:00:00Z</time>
      </trkpt>
      <trkpt lat="44.55289" lon="1.62141">
        <ele>248.1</ele>
        <time>2010-01-01T00:00:00Z</time>
      </trkpt>
      <trkpt lat="44.55289" lon="1.62143">
        <ele>248.1</ele>
        <time>2010-01-01T00:00:00Z</time>
      </trkpt>
      <trkpt lat="44.55296" lon="1.62147">
        <ele>247.9</ele>
        <time>2010-01-01T00:00:00Z</time>
      </trkpt>
      <trkpt lat="44.55298" lon="1.62148">
        <ele>247.9</ele>
        <time>2010-01-01T00:00:00Z</time>
      </trkpt>
      <trkpt lat="44.55314" lon="1.62162">
        <ele>247.2</ele>
        <time>2010-01-01T00:00:00Z</time>
      </trkpt>
      <trkpt lat="44.55333" lon="1.62183">
        <ele>251.6</ele>
        <time>2010-01-01T00:00:00Z</time>
      </trkpt>
      <trkpt lat="44.55335" lon="1.62186">
        <ele>248.7</ele>
        <time>2010-01-01T00:00:00Z</time>
      </trkpt>
      <trkpt lat="44.55351" lon="1.62207">
        <ele>250.8</ele>
        <time>2010-01-01T00:00:00Z</time>
      </trkpt>
      <trkpt lat="44.55361" lon="1.62221">
        <ele>251.7</ele>
        <time>2010-01-01T00:00:00Z</time>
      </trkpt>
      <trkpt lat="44.5537" lon="1.62234">
        <ele>251.8</ele>
        <time>2010-01-01T00:00:00Z</time>
      </trkpt>
      <trkpt lat="44.55385" lon="1.6225">
        <ele>253.6</ele>
        <time>2010-01-01T00:00:00Z</time>
      </trkpt>
      <trkpt lat="44.55399" lon="1.62258">
        <ele>255.3</ele>
        <time>2010-01-01T00:00:00Z</time>
      </trkpt>
      <trkpt lat="44.55418" lon="1.62266">
        <ele>250.6</ele>
        <time>2010-01-01T00:00:00Z</time>
      </trkpt>
      <trkpt lat="44.55438" lon="1.62272">
        <ele>251.1</ele>
        <time>2010-01-01T00:00:00Z</time>
      </trkpt>
      <trkpt lat="44.55463" lon="1.62274">
        <ele>250.6</ele>
        <time>2010-01-01T00:00:00Z</time>
      </trkpt>
      <trkpt lat="44.55467" lon="1.62274">
        <ele>250.5</ele>
        <time>2010-01-01T00:00:00Z</time>
      </trkpt>
      <trkpt lat="44.55476" lon="1.62276">
        <ele>250.2</ele>
        <time>2010-01-01T00:00:00Z</time>
      </trkpt>
      <trkpt lat="44.55484" lon="1.62283">
        <ele>250.4</ele>
        <time>2010-01-01T00:00:00Z</time>
      </trkpt>
      <trkpt lat="44.55487" lon="1.62287">
        <ele>250.6</ele>
        <time>2010-01-01T00:00:00Z</time>
      </trkpt>
      <trkpt lat="44.55494" lon="1.62298">
        <ele>251.2</ele>
        <time>2010-01-01T00:00:00Z</time>
      </trkpt>
      <trkpt lat="44.55501" lon="1.62306">
        <ele>250.2</ele>
        <time>2010-01-01T00:00:00Z</time>
      </trkpt>
      <trkpt lat="44.55507" lon="1.6231">
        <ele>250.5</ele>
        <time>2010-01-01T00:00:00Z</time>
      </trkpt>
      <trkpt lat="44.55511" lon="1.6231">
        <ele>250.4</ele>
        <time>2010-01-01T00:00:00Z</time>
      </trkpt>
      <trkpt lat="44.55516" lon="1.6231">
        <ele>250.3</ele>
        <time>2010-01-01T00:00:00Z</time>
      </trkpt>
      <trkpt lat="44.55528" lon="1.62309">
        <ele>250.1</ele>
        <time>2010-01-01T00:00:00Z</time>
      </trkpt>
      <trkpt lat="44.55541" lon="1.62308">
        <ele>250</ele>
        <time>2010-01-01T00:00:00Z</time>
      </trkpt>
      <trkpt lat="44.55558" lon="1.62309">
        <ele>250.1</ele>
        <time>2010-01-01T00:00:00Z</time>
      </trkpt>
      <trkpt lat="44.55571" lon="1.62311">
        <ele>250.5</ele>
        <time>2010-01-01T00:00:00Z</time>
      </trkpt>
      <trkpt lat="44.55579" lon="1.62311">
        <ele>250.6</ele>
        <time>2010-01-01T00:00:00Z</time>
      </trkpt>
      <trkpt lat="44.55584" lon="1.62311">
        <ele>251.2</ele>
        <time>2010-01-01T00:00:00Z</time>
      </trkpt>
      <trkpt lat="44.55589" lon="1.62307">
        <ele>250.9</ele>
        <time>2010-01-01T00:00:00Z</time>
      </trkpt>
      <trkpt lat="44.55592" lon="1.62302">
        <ele>250.7</ele>
        <time>2010-01-01T00:00:00Z</time>
      </trkpt>
      <trkpt lat="44.55594" lon="1.62295">
        <ele>250.3</ele>
        <time>2010-01-01T00:00:00Z</time>
      </trkpt>
      <trkpt lat="44.55594" lon="1.62304">
        <ele>250.8</ele>
        <time>2010-01-01T00:00:00Z</time>
      </trkpt>
      <trkpt lat="44.55595" lon="1.62308">
        <ele>250.9</ele>
        <time>2010-01-01T00:00:00Z</time>
      </trkpt>
      <trkpt lat="44.55602" lon="1.62318">
        <ele>251.2</ele>
        <time>2010-01-01T00:00:00Z</time>
      </trkpt>
      <trkpt lat="44.55637" lon="1.62333">
        <ele>250.7</ele>
        <time>2010-01-01T00:00:00Z</time>
      </trkpt>
      <trkpt lat="44.55654" lon="1.62341">
        <ele>253.3</ele>
        <time>2010-01-01T00:00:00Z</time>
      </trkpt>
      <trkpt lat="44.55658" lon="1.62344">
        <ele>253.2</ele>
        <time>2010-01-01T00:00:00Z</time>
      </trkpt>
      <trkpt lat="44.5566" lon="1.62348">
        <ele>253.6</ele>
        <time>2010-01-01T00:00:00Z</time>
      </trkpt>
      <trkpt lat="44.55664" lon="1.62356">
        <ele>254.6</ele>
        <time>2010-01-01T00:00:00Z</time>
      </trkpt>
      <trkpt lat="44.55666" lon="1.62364">
        <ele>255.5</ele>
        <time>2010-01-01T00:00:00Z</time>
      </trkpt>
      <trkpt lat="44.55667" lon="1.62371">
        <ele>257.2</ele>
        <time>2010-01-01T00:00:00Z</time>
      </trkpt>
      <trkpt lat="44.55667" lon="1.62408">
        <ele>258.5</ele>
        <time>2010-01-01T00:00:00Z</time>
      </trkpt>
      <trkpt lat="44.5567" lon="1.62408">
        <ele>258.5</ele>
        <time>2010-01-01T00:00:00Z</time>
      </trkpt>
      <trkpt lat="44.5569" lon="1.62409">
        <ele>259.8</ele>
        <time>2010-01-01T00:00:00Z</time>
      </trkpt>
      <trkpt lat="44.55694" lon="1.62408">
        <ele>260.1</ele>
        <time>2010-01-01T00:00:00Z</time>
      </trkpt>
      <trkpt lat="44.55697" lon="1.62405">
        <ele>260.3</ele>
        <time>2010-01-01T00:00:00Z</time>
      </trkpt>
      <trkpt lat="44.55698" lon="1.62402">
        <ele>260.3</ele>
        <time>2010-01-01T00:00:00Z</time>
      </trkpt>
      <trkpt lat="44.55701" lon="1.62391">
        <ele>260.1</ele>
        <time>2010-01-01T00:00:00Z</time>
      </trkpt>
      <trkpt lat="44.55711" lon="1.62334">
        <ele>258</ele>
        <time>2010-01-01T00:00:00Z</time>
      </trkpt>
      <trkpt lat="44.55713" lon="1.62321">
        <ele>254.5</ele>
        <time>2010-01-01T00:00:00Z</time>
      </trkpt>
      <trkpt lat="44.55715" lon="1.62313">
        <ele>254.5</ele>
        <time>2010-01-01T00:00:00Z</time>
      </trkpt>
      <trkpt lat="44.55718" lon="1.62308">
        <ele>254.6</ele>
        <time>2010-01-01T00:00:00Z</time>
      </trkpt>
      <trkpt lat="44.55723" lon="1.62303">
        <ele>254.7</ele>
        <time>2010-01-01T00:00:00Z</time>
      </trkpt>
      <trkpt lat="44.55729" lon="1.62298">
        <ele>254.8</ele>
        <time>2010-01-01T00:00:00Z</time>
      </trkpt>
      <trkpt lat="44.55738" lon="1.62293">
        <ele>254.8</ele>
        <time>2010-01-01T00:00:00Z</time>
      </trkpt>
      <trkpt lat="44.55744" lon="1.62293">
        <ele>254.9</ele>
        <time>2010-01-01T00:00:00Z</time>
      </trkpt>
      <trkpt lat="44.55756" lon="1.62292">
        <ele>256.7</ele>
        <time>2010-01-01T00:00:00Z</time>
      </trkpt>
      <trkpt lat="44.55768" lon="1.62293">
        <ele>256.7</ele>
        <time>2010-01-01T00:00:00Z</time>
      </trkpt>
      <trkpt lat="44.5578" lon="1.62297">
        <ele>256.9</ele>
        <time>2010-01-01T00:00:00Z</time>
      </trkpt>
      <trkpt lat="44.55799" lon="1.62309">
        <ele>257.1</ele>
        <time>2010-01-01T00:00:00Z</time>
      </trkpt>
      <trkpt lat="44.5582" lon="1.62324">
        <ele>257.5</ele>
        <time>2010-01-01T00:00:00Z</time>
      </trkpt>
      <trkpt lat="44.55823" lon="1.62327">
        <ele>257.6</ele>
        <time>2010-01-01T00:00:00Z</time>
      </trkpt>
      <trkpt lat="44.55836" lon="1.62335">
        <ele>259.5</ele>
        <time>2010-01-01T00:00:00Z</time>
      </trkpt>
      <trkpt lat="44.55843" lon="1.62336">
        <ele>261.9</ele>
        <time>2010-01-01T00:00:00Z</time>
      </trkpt>
      <trkpt lat="44.55852" lon="1.62338">
        <ele>264.1</ele>
        <time>2010-01-01T00:00:00Z</time>
      </trkpt>
      <trkpt lat="44.55863" lon="1.62341">
        <ele>265.7</ele>
        <time>2010-01-01T00:00:00Z</time>
      </trkpt>
      <trkpt lat="44.55872" lon="1.62341">
        <ele>266.2</ele>
        <time>2010-01-01T00:00:00Z</time>
      </trkpt>
      <trkpt lat="44.55879" lon="1.62341">
        <ele>266.3</ele>
        <time>2010-01-01T00:00:00Z</time>
      </trkpt>
      <trkpt lat="44.55888" lon="1.62339">
        <ele>265.8</ele>
        <time>2010-01-01T00:00:00Z</time>
      </trkpt>
      <trkpt lat="44.55897" lon="1.62337">
        <ele>264.9</ele>
        <time>2010-01-01T00:00:00Z</time>
      </trkpt>
      <trkpt lat="44.55912" lon="1.62334">
        <ele>261.7</ele>
        <time>2010-01-01T00:00:00Z</time>
      </trkpt>
      <trkpt lat="44.5592" lon="1.62332">
        <ele>260.6</ele>
        <time>2010-01-01T00:00:00Z</time>
      </trkpt>
      <trkpt lat="44.55928" lon="1.62326">
        <ele>261.8</ele>
        <time>2010-01-01T00:00:00Z</time>
      </trkpt>
      <trkpt lat="44.55936" lon="1.62321">
        <ele>262.6</ele>
        <time>2010-01-01T00:00:00Z</time>
      </trkpt>
      <trkpt lat="44.55942" lon="1.62317">
        <ele>263.2</ele>
        <time>2010-01-01T00:00:00Z</time>
      </trkpt>
      <trkpt lat="44.55948" lon="1.6231">
        <ele>263.7</ele>
        <time>2010-01-01T00:00:00Z</time>
      </trkpt>
      <trkpt lat="44.55951" lon="1.62307">
        <ele>263.9</ele>
        <time>2010-01-01T00:00:00Z</time>
      </trkpt>
      <trkpt lat="44.55957" lon="1.62302">
        <ele>264.3</ele>
        <time>2010-01-01T00:00:00Z</time>
      </trkpt>
      <trkpt lat="44.55964" lon="1.62292">
        <ele>264.7</ele>
        <time>2010-01-01T00:00:00Z</time>
      </trkpt>
      <trkpt lat="44.55967" lon="1.62292">
        <ele>264.9</ele>
        <time>2010-01-01T00:00:00Z</time>
      </trkpt>
      <trkpt lat="44.55964" lon="1.62292">
        <ele>264.7</ele>
        <time>2010-01-01T00:00:00Z</time>
      </trkpt>
      <trkpt lat="44.55958" lon="1.62278">
        <ele>264</ele>
        <time>2010-01-01T00:00:00Z</time>
      </trkpt>
      <trkpt lat="44.55955" lon="1.62273">
        <ele>263.7</ele>
        <time>2010-01-01T00:00:00Z</time>
      </trkpt>
      <trkpt lat="44.5595" lon="1.62261">
        <ele>262.9</ele>
        <time>2010-01-01T00:00:00Z</time>
      </trkpt>
      <trkpt lat="44.5594" lon="1.62236">
        <ele>263</ele>
        <time>2010-01-01T00:00:00Z</time>
      </trkpt>
      <trkpt lat="44.55936" lon="1.62213">
        <ele>264.3</ele>
        <time>2010-01-01T00:00:00Z</time>
      </trkpt>
      <trkpt lat="44.5593" lon="1.62181">
        <ele>264</ele>
        <time>2010-01-01T00:00:00Z</time>
      </trkpt>
      <trkpt lat="44.5593" lon="1.62149">
        <ele>266.3</ele>
        <time>2010-01-01T00:00:00Z</time>
      </trkpt>
      <trkpt lat="44.55938" lon="1.62114">
        <ele>268.3</ele>
        <time>2010-01-01T00:00:00Z</time>
      </trkpt>
      <trkpt lat="44.55948" lon="1.62082">
        <ele>268.5</ele>
        <time>2010-01-01T00:00:00Z</time>
      </trkpt>
      <trkpt lat="44.55964" lon="1.62052">
        <ele>269.2</ele>
        <time>2010-01-01T00:00:00Z</time>
      </trkpt>
      <trkpt lat="44.55983" lon="1.62021">
        <ele>268.1</ele>
        <time>2010-01-01T00:00:00Z</time>
      </trkpt>
      <trkpt lat="44.56004" lon="1.6199">
        <ele>266.8</ele>
        <time>2010-01-01T00:00:00Z</time>
      </trkpt>
      <trkpt lat="44.56022" lon="1.61961">
        <ele>268.8</ele>
        <time>2010-01-01T00:00:00Z</time>
      </trkpt>
      <trkpt lat="44.5603" lon="1.61952">
        <ele>269</ele>
        <time>2010-01-01T00:00:00Z</time>
      </trkpt>
      <trkpt lat="44.56035" lon="1.61945">
        <ele>268.9</ele>
        <time>2010-01-01T00:00:00Z</time>
      </trkpt>
      <trkpt lat="44.56045" lon="1.61936">
        <ele>268.6</ele>
        <time>2010-01-01T00:00:00Z</time>
      </trkpt>
      <trkpt lat="44.56063" lon="1.61922">
        <ele>267.3</ele>
        <time>2010-01-01T00:00:00Z</time>
      </trkpt>
      <trkpt lat="44.56083" lon="1.61908">
        <ele>266.9</ele>
        <time>2010-01-01T00:00:00Z</time>
      </trkpt>
      <trkpt lat="44.56101" lon="1.61901">
        <ele>268.1</ele>
        <time>2010-01-01T00:00:00Z</time>
      </trkpt>
      <trkpt lat="44.56114" lon="1.61899">
        <ele>268.9</ele>
        <time>2010-01-01T00:00:00Z</time>
      </trkpt>
      <trkpt lat="44.56124" lon="1.61899">
        <ele>269.1</ele>
        <time>2010-01-01T00:00:00Z</time>
      </trkpt>
      <trkpt lat="44.56134" lon="1.61903">
        <ele>268.8</ele>
        <time>2010-01-01T00:00:00Z</time>
      </trkpt>
      <trkpt lat="44.56146" lon="1.61912">
        <ele>267.9</ele>
        <time>2010-01-01T00:00:00Z</time>
      </trkpt>
      <trkpt lat="44.56153" lon="1.61918">
        <ele>268</ele>
        <time>2010-01-01T00:00:00Z</time>
      </trkpt>
      <trkpt lat="44.56157" lon="1.61925">
        <ele>268.1</ele>
        <time>2010-01-01T00:00:00Z</time>
      </trkpt>
      <trkpt lat="44.56162" lon="1.61933">
        <ele>269</ele>
        <time>2010-01-01T00:00:00Z</time>
      </trkpt>
      <trkpt lat="44.56167" lon="1.6194">
        <ele>270.7</ele>
        <time>2010-01-01T00:00:00Z</time>
      </trkpt>
      <trkpt lat="44.56174" lon="1.61949">
        <ele>272.2</ele>
        <time>2010-01-01T00:00:00Z</time>
      </trkpt>
      <trkpt lat="44.56179" lon="1.61956">
        <ele>273.2</ele>
        <time>2010-01-01T00:00:00Z</time>
      </trkpt>
      <trkpt lat="44.56186" lon="1.61964">
        <ele>274.2</ele>
        <time>2010-01-01T00:00:00Z</time>
      </trkpt>
      <trkpt lat="44.56195" lon="1.61968">
        <ele>274.5</ele>
        <time>2010-01-01T00:00:00Z</time>
      </trkpt>
      <trkpt lat="44.56204" lon="1.61973">
        <ele>274.8</ele>
        <time>2010-01-01T00:00:00Z</time>
      </trkpt>
      <trkpt lat="44.56212" lon="1.61974">
        <ele>274.8</ele>
        <time>2010-01-01T00:00:00Z</time>
      </trkpt>
      <trkpt lat="44.56218" lon="1.61974">
        <ele>274.8</ele>
        <time>2010-01-01T00:00:00Z</time>
      </trkpt>
      <trkpt lat="44.56226" lon="1.61973">
        <ele>274.8</ele>
        <time>2010-01-01T00:00:00Z</time>
      </trkpt>
      <trkpt lat="44.56233" lon="1.61971">
        <ele>274.8</ele>
        <time>2010-01-01T00:00:00Z</time>
      </trkpt>
      <trkpt lat="44.56251" lon="1.61965">
        <ele>277.7</ele>
        <time>2010-01-01T00:00:00Z</time>
      </trkpt>
      <trkpt lat="44.56281" lon="1.61947">
        <ele>277.7</ele>
        <time>2010-01-01T00:00:00Z</time>
      </trkpt>
      <trkpt lat="44.56299" lon="1.61934">
        <ele>277.7</ele>
        <time>2010-01-01T00:00:00Z</time>
      </trkpt>
      <trkpt lat="44.5631" lon="1.61921">
        <ele>277.1</ele>
        <time>2010-01-01T00:00:00Z</time>
      </trkpt>
      <trkpt lat="44.56321" lon="1.61909">
        <ele>275</ele>
        <time>2010-01-01T00:00:00Z</time>
      </trkpt>
      <trkpt lat="44.56334" lon="1.61893">
        <ele>277.2</ele>
        <time>2010-01-01T00:00:00Z</time>
      </trkpt>
      <trkpt lat="44.56342" lon="1.61886">
        <ele>277.5</ele>
        <time>2010-01-01T00:00:00Z</time>
      </trkpt>
      <trkpt lat="44.5635" lon="1.6188">
        <ele>277.8</ele>
        <time>2010-01-01T00:00:00Z</time>
      </trkpt>
      <trkpt lat="44.56358" lon="1.61873">
        <ele>278</ele>
        <time>2010-01-01T00:00:00Z</time>
      </trkpt>
      <trkpt lat="44.56366" lon="1.61867">
        <ele>278.1</ele>
        <time>2010-01-01T00:00:00Z</time>
      </trkpt>
      <trkpt lat="44.56374" lon="1.61859">
        <ele>278</ele>
        <time>2010-01-01T00:00:00Z</time>
      </trkpt>
      <trkpt lat="44.56382" lon="1.61852">
        <ele>277.9</ele>
        <time>2010-01-01T00:00:00Z</time>
      </trkpt>
      <trkpt lat="44.56389" lon="1.61846">
        <ele>277.6</ele>
        <time>2010-01-01T00:00:00Z</time>
      </trkpt>
      <trkpt lat="44.56397" lon="1.6184">
        <ele>277.2</ele>
        <time>2010-01-01T00:00:00Z</time>
      </trkpt>
      <trkpt lat="44.56409" lon="1.61833">
        <ele>276.1</ele>
        <time>2010-01-01T00:00:00Z</time>
      </trkpt>
      <trkpt lat="44.56417" lon="1.61829">
        <ele>275.4</ele>
        <time>2010-01-01T00:00:00Z</time>
      </trkpt>
      <trkpt lat="44.56424" lon="1.61826">
        <ele>275.9</ele>
        <time>2010-01-01T00:00:00Z</time>
      </trkpt>
      <trkpt lat="44.56434" lon="1.61824">
        <ele>276.4</ele>
        <time>2010-01-01T00:00:00Z</time>
      </trkpt>
      <trkpt lat="44.56442" lon="1.61822">
        <ele>276.7</ele>
        <time>2010-01-01T00:00:00Z</time>
      </trkpt>
      <trkpt lat="44.56449" lon="1.61821">
        <ele>276.8</ele>
        <time>2010-01-01T00:00:00Z</time>
      </trkpt>
      <trkpt lat="44.56459" lon="1.61821">
        <ele>276.9</ele>
        <time>2010-01-01T00:00:00Z</time>
      </trkpt>
      <trkpt lat="44.56469" lon="1.61822">
        <ele>276.9</ele>
        <time>2010-01-01T00:00:00Z</time>
      </trkpt>
      <trkpt lat="44.56472" lon="1.61824">
        <ele>276.8</ele>
        <time>2010-01-01T00:00:00Z</time>
      </trkpt>
      <trkpt lat="44.5648" lon="1.61826">
        <ele>276.7</ele>
        <time>2010-01-01T00:00:00Z</time>
      </trkpt>
      <trkpt lat="44.56487" lon="1.6183">
        <ele>276.5</ele>
        <time>2010-01-01T00:00:00Z</time>
      </trkpt>
      <trkpt lat="44.56495" lon="1.61836">
        <ele>277.3</ele>
        <time>2010-01-01T00:00:00Z</time>
      </trkpt>
      <trkpt lat="44.56503" lon="1.61841">
        <ele>278.9</ele>
        <time>2010-01-01T00:00:00Z</time>
      </trkpt>
      <trkpt lat="44.56509" lon="1.61847">
        <ele>281</ele>
        <time>2010-01-01T00:00:00Z</time>
      </trkpt>
      <trkpt lat="44.56515" lon="1.61851">
        <ele>282.3</ele>
        <time>2010-01-01T00:00:00Z</time>
      </trkpt>
      <trkpt lat="44.56522" lon="1.61858">
        <ele>283.8</ele>
        <time>2010-01-01T00:00:00Z</time>
      </trkpt>
      <trkpt lat="44.56528" lon="1.61871">
        <ele>285</ele>
        <time>2010-01-01T00:00:00Z</time>
      </trkpt>
      <trkpt lat="44.56529" lon="1.61874">
        <ele>285.2</ele>
        <time>2010-01-01T00:00:00Z</time>
      </trkpt>
      <trkpt lat="44.56529" lon="1.61879">
        <ele>285.5</ele>
        <time>2010-01-01T00:00:00Z</time>
      </trkpt>
      <trkpt lat="44.56531" lon="1.61887">
        <ele>285.8</ele>
        <time>2010-01-01T00:00:00Z</time>
      </trkpt>
      <trkpt lat="44.56532" lon="1.61895">
        <ele>286.1</ele>
        <time>2010-01-01T00:00:00Z</time>
      </trkpt>
      <trkpt lat="44.56534" lon="1.61902">
        <ele>286.3</ele>
        <time>2010-01-01T00:00:00Z</time>
      </trkpt>
      <trkpt lat="44.56539" lon="1.61914">
        <ele>286.4</ele>
        <time>2010-01-01T00:00:00Z</time>
      </trkpt>
      <trkpt lat="44.56542" lon="1.61921">
        <ele>289.6</ele>
        <time>2010-01-01T00:00:00Z</time>
      </trkpt>
      <trkpt lat="44.56545" lon="1.61928">
        <ele>289.6</ele>
        <time>2010-01-01T00:00:00Z</time>
      </trkpt>
      <trkpt lat="44.56551" lon="1.61943">
        <ele>289.8</ele>
        <time>2010-01-01T00:00:00Z</time>
      </trkpt>
      <trkpt lat="44.56554" lon="1.61952">
        <ele>289.9</ele>
        <time>2010-01-01T00:00:00Z</time>
      </trkpt>
      <trkpt lat="44.56557" lon="1.6196">
        <ele>290</ele>
        <time>2010-01-01T00:00:00Z</time>
      </trkpt>
      <trkpt lat="44.56565" lon="1.61976">
        <ele>289.8</ele>
        <time>2010-01-01T00:00:00Z</time>
      </trkpt>
      <trkpt lat="44.56576" lon="1.61992">
        <ele>288.5</ele>
        <time>2010-01-01T00:00:00Z</time>
      </trkpt>
      <trkpt lat="44.56592" lon="1.62011">
        <ele>289.3</ele>
        <time>2010-01-01T00:00:00Z</time>
      </trkpt>
      <trkpt lat="44.56595" lon="1.62013">
        <ele>289.6</ele>
        <time>2010-01-01T00:00:00Z</time>
      </trkpt>
      <trkpt lat="44.56595" lon="1.62014">
        <ele>289.7</ele>
        <time>2010-01-01T00:00:00Z</time>
      </trkpt>
      <trkpt lat="44.56604" lon="1.62023">
        <ele>290.8</ele>
        <time>2010-01-01T00:00:00Z</time>
      </trkpt>
      <trkpt lat="44.56608" lon="1.62028">
        <ele>291.2</ele>
        <time>2010-01-01T00:00:00Z</time>
      </trkpt>
      <trkpt lat="44.56612" lon="1.62032">
        <ele>291.4</ele>
        <time>2010-01-01T00:00:00Z</time>
      </trkpt>
      <trkpt lat="44.56615" lon="1.62037">
        <ele>291.7</ele>
        <time>2010-01-01T00:00:00Z</time>
      </trkpt>
      <trkpt lat="44.56619" lon="1.62043">
        <ele>292</ele>
        <time>2010-01-01T00:00:00Z</time>
      </trkpt>
      <trkpt lat="44.56623" lon="1.6205">
        <ele>292.2</ele>
        <time>2010-01-01T00:00:00Z</time>
      </trkpt>
      <trkpt lat="44.56627" lon="1.62058">
        <ele>292.5</ele>
        <time>2010-01-01T00:00:00Z</time>
      </trkpt>
      <trkpt lat="44.56629" lon="1.62065">
        <ele>292.7</ele>
        <time>2010-01-01T00:00:00Z</time>
      </trkpt>
      <trkpt lat="44.5663" lon="1.62072">
        <ele>292.8</ele>
        <time>2010-01-01T00:00:00Z</time>
      </trkpt>
      <trkpt lat="44.56631" lon="1.62081">
        <ele>292.9</ele>
        <time>2010-01-01T00:00:00Z</time>
      </trkpt>
      <trkpt lat="44.56631" lon="1.62099">
        <ele>295.5</ele>
        <time>2010-01-01T00:00:00Z</time>
      </trkpt>
      <trkpt lat="44.56631" lon="1.62109">
        <ele>295.7</ele>
        <time>2010-01-01T00:00:00Z</time>
      </trkpt>
      <trkpt lat="44.5663" lon="1.62117">
        <ele>295.8</ele>
        <time>2010-01-01T00:00:00Z</time>
      </trkpt>
      <trkpt lat="44.56629" lon="1.6213">
        <ele>296.1</ele>
        <time>2010-01-01T00:00:00Z</time>
      </trkpt>
      <trkpt lat="44.5663" lon="1.62135">
        <ele>296.2</ele>
        <time>2010-01-01T00:00:00Z</time>
      </trkpt>
      <trkpt lat="44.56633" lon="1.62138">
        <ele>296.3</ele>
        <time>2010-01-01T00:00:00Z</time>
      </trkpt>
      <trkpt lat="44.56636" lon="1.6214">
        <ele>296.3</ele>
        <time>2010-01-01T00:00:00Z</time>
      </trkpt>
      <trkpt lat="44.56647" lon="1.62141">
        <ele>296.4</ele>
        <time>2010-01-01T00:00:00Z</time>
      </trkpt>
      <trkpt lat="44.56652" lon="1.6214">
        <ele>296.5</ele>
        <time>2010-01-01T00:00:00Z</time>
      </trkpt>
      <trkpt lat="44.56656" lon="1.62134">
        <ele>296.3</ele>
        <time>2010-01-01T00:00:00Z</time>
      </trkpt>
      <trkpt lat="44.56656" lon="1.62129">
        <ele>296.1</ele>
        <time>2010-01-01T00:00:00Z</time>
      </trkpt>
      <trkpt lat="44.56659" lon="1.62118">
        <ele>295.8</ele>
        <time>2010-01-01T00:00:00Z</time>
      </trkpt>
      <trkpt lat="44.5666" lon="1.6211">
        <ele>295.5</ele>
        <time>2010-01-01T00:00:00Z</time>
      </trkpt>
      <trkpt lat="44.5666" lon="1.62106">
        <ele>295.3</ele>
        <time>2010-01-01T00:00:00Z</time>
      </trkpt>
      <trkpt lat="44.56664" lon="1.62098">
        <ele>295</ele>
        <time>2010-01-01T00:00:00Z</time>
      </trkpt>
      <trkpt lat="44.56669" lon="1.62085">
        <ele>295</ele>
        <time>2010-01-01T00:00:00Z</time>
      </trkpt>
      <trkpt lat="44.56675" lon="1.62056">
        <ele>298.9</ele>
        <time>2010-01-01T00:00:00Z</time>
      </trkpt>
      <trkpt lat="44.56679" lon="1.62038">
        <ele>299.3</ele>
        <time>2010-01-01T00:00:00Z</time>
      </trkpt>
      <trkpt lat="44.56687" lon="1.62014">
        <ele>298.7</ele>
        <time>2010-01-01T00:00:00Z</time>
      </trkpt>
      <trkpt lat="44.56702" lon="1.61979">
        <ele>300.5</ele>
        <time>2010-01-01T00:00:00Z</time>
      </trkpt>
      <trkpt lat="44.56711" lon="1.61965">
        <ele>301.5</ele>
        <time>2010-01-01T00:00:00Z</time>
      </trkpt>
      <trkpt lat="44.56723" lon="1.61952">
        <ele>302.2</ele>
        <time>2010-01-01T00:00:00Z</time>
      </trkpt>
      <trkpt lat="44.56743" lon="1.61939">
        <ele>303</ele>
        <time>2010-01-01T00:00:00Z</time>
      </trkpt>
      <trkpt lat="44.56751" lon="1.61937">
        <ele>308</ele>
        <time>2010-01-01T00:00:00Z</time>
      </trkpt>
      <trkpt lat="44.56764" lon="1.61934">
        <ele>308.4</ele>
        <time>2010-01-01T00:00:00Z</time>
      </trkpt>
      <trkpt lat="44.56775" lon="1.6193">
        <ele>309.1</ele>
        <time>2010-01-01T00:00:00Z</time>
      </trkpt>
      <trkpt lat="44.56778" lon="1.61933">
        <ele>309.6</ele>
        <time>2010-01-01T00:00:00Z</time>
      </trkpt>
      <trkpt lat="44.56783" lon="1.61937">
        <ele>310.1</ele>
        <time>2010-01-01T00:00:00Z</time>
      </trkpt>
      <trkpt lat="44.56785" lon="1.61944">
        <ele>310.5</ele>
        <time>2010-01-01T00:00:00Z</time>
      </trkpt>
      <trkpt lat="44.56791" lon="1.61986">
        <ele>311.9</ele>
        <time>2010-01-01T00:00:00Z</time>
      </trkpt>
      <trkpt lat="44.56795" lon="1.62009">
        <ele>313.8</ele>
        <time>2010-01-01T00:00:00Z</time>
      </trkpt>
      <trkpt lat="44.56797" lon="1.62009">
        <ele>313.9</ele>
        <time>2010-01-01T00:00:00Z</time>
      </trkpt>
      <trkpt lat="44.56804" lon="1.62008">
        <ele>314.2</ele>
        <time>2010-01-01T00:00:00Z</time>
      </trkpt>
      <trkpt lat="44.56815" lon="1.62009">
        <ele>314.7</ele>
        <time>2010-01-01T00:00:00Z</time>
      </trkpt>
      <trkpt lat="44.56823" lon="1.62011">
        <ele>315</ele>
        <time>2010-01-01T00:00:00Z</time>
      </trkpt>
      <trkpt lat="44.56841" lon="1.62019">
        <ele>316.9</ele>
        <time>2010-01-01T00:00:00Z</time>
      </trkpt>
      <trkpt lat="44.56856" lon="1.62029">
        <ele>317.3</ele>
        <time>2010-01-01T00:00:00Z</time>
      </trkpt>
      <trkpt lat="44.56859" lon="1.6203">
        <ele>317.4</ele>
        <time>2010-01-01T00:00:00Z</time>
      </trkpt>
      <trkpt lat="44.56867" lon="1.62034">
        <ele>317.6</ele>
        <time>2010-01-01T00:00:00Z</time>
      </trkpt>
      <trkpt lat="44.56884" lon="1.6204">
        <ele>317.9</ele>
        <time>2010-01-01T00:00:00Z</time>
      </trkpt>
      <trkpt lat="44.56903" lon="1.62048">
        <ele>318.3</ele>
        <time>2010-01-01T00:00:00Z</time>
      </trkpt>
      <trkpt lat="44.5691" lon="1.62053">
        <ele>318.5</ele>
        <time>2010-01-01T00:00:00Z</time>
      </trkpt>
      <trkpt lat="44.56921" lon="1.6206">
        <ele>320.1</ele>
        <time>2010-01-01T00:00:00Z</time>
      </trkpt>
      <trkpt lat="44.56925" lon="1.6206">
        <ele>320.2</ele>
        <time>2010-01-01T00:00:00Z</time>
      </trkpt>
      <trkpt lat="44.56928" lon="1.62059">
        <ele>320.2</ele>
        <time>2010-01-01T00:00:00Z</time>
      </trkpt>
      <trkpt lat="44.56929" lon="1.62059">
        <ele>320.2</ele>
        <time>2010-01-01T00:00:00Z</time>
      </trkpt>
      <trkpt lat="44.56932" lon="1.62056">
        <ele>320.2</ele>
        <time>2010-01-01T00:00:00Z</time>
      </trkpt>
      <trkpt lat="44.56937" lon="1.62047">
        <ele>320.3</ele>
        <time>2010-01-01T00:00:00Z</time>
      </trkpt>
      <trkpt lat="44.5695" lon="1.62057">
        <ele>320.3</ele>
        <time>2010-01-01T00:00:00Z</time>
      </trkpt>
      <trkpt lat="44.56981" lon="1.6208">
        <ele>319.9</ele>
        <time>2010-01-01T00:00:00Z</time>
      </trkpt>
      <trkpt lat="44.57014" lon="1.621">
        <ele>317.9</ele>
        <time>2010-01-01T00:00:00Z</time>
      </trkpt>
      <trkpt lat="44.57026" lon="1.62107">
        <ele>317.5</ele>
        <time>2010-01-01T00:00:00Z</time>
      </trkpt>
      <trkpt lat="44.57035" lon="1.62114">
        <ele>317.4</ele>
        <time>2010-01-01T00:00:00Z</time>
      </trkpt>
      <trkpt lat="44.57049" lon="1.62129">
        <ele>317.3</ele>
        <time>2010-01-01T00:00:00Z</time>
      </trkpt>
      <trkpt lat="44.57068" lon="1.62146">
        <ele>317.4</ele>
        <time>2010-01-01T00:00:00Z</time>
      </trkpt>
      <trkpt lat="44.57078" lon="1.62155">
        <ele>317.6</ele>
        <time>2010-01-01T00:00:00Z</time>
      </trkpt>
      <trkpt lat="44.57083" lon="1.6216">
        <ele>317.8</ele>
        <time>2010-01-01T00:00:00Z</time>
      </trkpt>
      <trkpt lat="44.57095" lon="1.62172">
        <ele>316.7</ele>
        <time>2010-01-01T00:00:00Z</time>
      </trkpt>
      <trkpt lat="44.5711" lon="1.62181">
        <ele>315.6</ele>
        <time>2010-01-01T00:00:00Z</time>
      </trkpt>
      <trkpt lat="44.57126" lon="1.62194">
        <ele>314.8</ele>
        <time>2010-01-01T00:00:00Z</time>
      </trkpt>
      <trkpt lat="44.57134" lon="1.62199">
        <ele>314.5</ele>
        <time>2010-01-01T00:00:00Z</time>
      </trkpt>
      <trkpt lat="44.57139" lon="1.62201">
        <ele>314.3</ele>
        <time>2010-01-01T00:00:00Z</time>
      </trkpt>
      <trkpt lat="44.57182" lon="1.622">
        <ele>310.3</ele>
        <time>2010-01-01T00:00:00Z</time>
      </trkpt>
      <trkpt lat="44.5719" lon="1.62197">
        <ele>310.1</ele>
        <time>2010-01-01T00:00:00Z</time>
      </trkpt>
      <trkpt lat="44.57198" lon="1.62194">
        <ele>309.9</ele>
        <time>2010-01-01T00:00:00Z</time>
      </trkpt>
      <trkpt lat="44.57204" lon="1.6219">
        <ele>309.7</ele>
        <time>2010-01-01T00:00:00Z</time>
      </trkpt>
      <trkpt lat="44.57213" lon="1.62186">
        <ele>309.5</ele>
        <time>2010-01-01T00:00:00Z</time>
      </trkpt>
      <trkpt lat="44.57244" lon="1.62178">
        <ele>308.5</ele>
        <time>2010-01-01T00:00:00Z</time>
      </trkpt>
      <trkpt lat="44.57266" lon="1.62177">
        <ele>305.7</ele>
        <time>2010-01-01T00:00:00Z</time>
      </trkpt>
      <trkpt lat="44.57309" lon="1.62175">
        <ele>303</ele>
        <time>2010-01-01T00:00:00Z</time>
      </trkpt>
      <trkpt lat="44.5731" lon="1.62179">
        <ele>303</ele>
        <time>2010-01-01T00:00:00Z</time>
      </trkpt>
      <trkpt lat="44.57312" lon="1.62184">
        <ele>302.9</ele>
        <time>2010-01-01T00:00:00Z</time>
      </trkpt>
      <trkpt lat="44.57316" lon="1.62222">
        <ele>302.6</ele>
        <time>2010-01-01T00:00:00Z</time>
      </trkpt>
      <trkpt lat="44.57323" lon="1.62295">
        <ele>302.4</ele>
        <time>2010-01-01T00:00:00Z</time>
      </trkpt>
      <trkpt lat="44.57327" lon="1.62318">
        <ele>302</ele>
        <time>2010-01-01T00:00:00Z</time>
      </trkpt>
      <trkpt lat="44.57332" lon="1.62339">
        <ele>301.4</ele>
        <time>2010-01-01T00:00:00Z</time>
      </trkpt>
      <trkpt lat="44.57341" lon="1.62369">
        <ele>300.7</ele>
        <time>2010-01-01T00:00:00Z</time>
      </trkpt>
      <trkpt lat="44.57344" lon="1.62379">
        <ele>300.7</ele>
        <time>2010-01-01T00:00:00Z</time>
      </trkpt>
      <trkpt lat="44.57354" lon="1.62398">
        <ele>300.6</ele>
        <time>2010-01-01T00:00:00Z</time>
      </trkpt>
      <trkpt lat="44.57361" lon="1.62412">
        <ele>300.7</ele>
        <time>2010-01-01T00:00:00Z</time>
      </trkpt>
      <trkpt lat="44.57372" lon="1.62437">
        <ele>303.1</ele>
        <time>2010-01-01T00:00:00Z</time>
      </trkpt>
      <trkpt lat="44.57379" lon="1.62465">
        <ele>304.1</ele>
        <time>2010-01-01T00:00:00Z</time>
      </trkpt>
      <trkpt lat="44.57383" lon="1.62485">
        <ele>305</ele>
        <time>2010-01-01T00:00:00Z</time>
      </trkpt>
      <trkpt lat="44.57389" lon="1.62514">
        <ele>307.7</ele>
        <time>2010-01-01T00:00:00Z</time>
      </trkpt>
      <trkpt lat="44.57398" lon="1.62545">
        <ele>308.3</ele>
        <time>2010-01-01T00:00:00Z</time>
      </trkpt>
      <trkpt lat="44.57403" lon="1.62563">
        <ele>309.5</ele>
        <time>2010-01-01T00:00:00Z</time>
      </trkpt>
      <trkpt lat="44.57407" lon="1.62573">
        <ele>310.8</ele>
        <time>2010-01-01T00:00:00Z</time>
      </trkpt>
      <trkpt lat="44.57423" lon="1.62606">
        <ele>316.8</ele>
        <time>2010-01-01T00:00:00Z</time>
      </trkpt>
      <trkpt lat="44.57427" lon="1.62618">
        <ele>317.3</ele>
        <time>2010-01-01T00:00:00Z</time>
      </trkpt>
      <trkpt lat="44.5743" lon="1.62632">
        <ele>317.5</ele>
        <time>2010-01-01T00:00:00Z</time>
      </trkpt>
      <trkpt lat="44.57431" lon="1.62647">
        <ele>317.1</ele>
        <time>2010-01-01T00:00:00Z</time>
      </trkpt>
      <trkpt lat="44.57431" lon="1.62664">
        <ele>316.3</ele>
        <time>2010-01-01T00:00:00Z</time>
      </trkpt>
      <trkpt lat="44.5743" lon="1.62677">
        <ele>316.5</ele>
        <time>2010-01-01T00:00:00Z</time>
      </trkpt>
      <trkpt lat="44.57429" lon="1.62689">
        <ele>317.1</ele>
        <time>2010-01-01T00:00:00Z</time>
      </trkpt>
      <trkpt lat="44.57429" lon="1.62697">
        <ele>317.4</ele>
        <time>2010-01-01T00:00:00Z</time>
      </trkpt>
      <trkpt lat="44.57434" lon="1.62711">
        <ele>317.8</ele>
        <time>2010-01-01T00:00:00Z</time>
      </trkpt>
      <trkpt lat="44.57444" lon="1.62727">
        <ele>318</ele>
        <time>2010-01-01T00:00:00Z</time>
      </trkpt>
      <trkpt lat="44.57452" lon="1.62742">
        <ele>318.2</ele>
        <time>2010-01-01T00:00:00Z</time>
      </trkpt>
      <trkpt lat="44.5746" lon="1.62763">
        <ele>317.2</ele>
        <time>2010-01-01T00:00:00Z</time>
      </trkpt>
      <trkpt lat="44.57461" lon="1.62765">
        <ele>317.2</ele>
        <time>2010-01-01T00:00:00Z</time>
      </trkpt>
      <trkpt lat="44.57461" lon="1.62762">
        <ele>317.2</ele>
        <time>2010-01-01T00:00:00Z</time>
      </trkpt>
      <trkpt lat="44.57462" lon="1.62754">
        <ele>317.3</ele>
        <time>2010-01-01T00:00:00Z</time>
      </trkpt>
      <trkpt lat="44.57472" lon="1.62739">
        <ele>319</ele>
        <time>2010-01-01T00:00:00Z</time>
      </trkpt>
      <trkpt lat="44.5749" lon="1.62719">
        <ele>319.7</ele>
        <time>2010-01-01T00:00:00Z</time>
      </trkpt>
      <trkpt lat="44.57497" lon="1.62711">
        <ele>320</ele>
        <time>2010-01-01T00:00:00Z</time>
      </trkpt>
      <trkpt lat="44.57505" lon="1.62701">
        <ele>322.4</ele>
        <time>2010-01-01T00:00:00Z</time>
      </trkpt>
      <trkpt lat="44.57516" lon="1.62685">
        <ele>323</ele>
        <time>2010-01-01T00:00:00Z</time>
      </trkpt>
      <trkpt lat="44.57524" lon="1.62674">
        <ele>323.1</ele>
        <time>2010-01-01T00:00:00Z</time>
      </trkpt>
      <trkpt lat="44.57531" lon="1.62663">
        <ele>324.6</ele>
        <time>2010-01-01T00:00:00Z</time>
      </trkpt>
      <trkpt lat="44.57542" lon="1.62642">
        <ele>324.5</ele>
        <time>2010-01-01T00:00:00Z</time>
      </trkpt>
      <trkpt lat="44.5755" lon="1.62624">
        <ele>324.6</ele>
        <time>2010-01-01T00:00:00Z</time>
      </trkpt>
      <trkpt lat="44.5756" lon="1.62603">
        <ele>324.8</ele>
        <time>2010-01-01T00:00:00Z</time>
      </trkpt>
      <trkpt lat="44.57564" lon="1.62598">
        <ele>325</ele>
        <time>2010-01-01T00:00:00Z</time>
      </trkpt>
      <trkpt lat="44.57567" lon="1.62594">
        <ele>325.1</ele>
        <time>2010-01-01T00:00:00Z</time>
      </trkpt>
      <trkpt lat="44.57572" lon="1.62592">
        <ele>325.3</ele>
        <time>2010-01-01T00:00:00Z</time>
      </trkpt>
      <trkpt lat="44.57581" lon="1.62589">
        <ele>325.6</ele>
        <time>2010-01-01T00:00:00Z</time>
      </trkpt>
      <trkpt lat="44.57597" lon="1.62586">
        <ele>324.9</ele>
        <time>2010-01-01T00:00:00Z</time>
      </trkpt>
      <trkpt lat="44.57603" lon="1.62583">
        <ele>324.1</ele>
        <time>2010-01-01T00:00:00Z</time>
      </trkpt>
      <trkpt lat="44.57603" lon="1.62582">
        <ele>324.1</ele>
        <time>2010-01-01T00:00:00Z</time>
      </trkpt>
      <trkpt lat="44.57607" lon="1.6258">
        <ele>323.9</ele>
        <time>2010-01-01T00:00:00Z</time>
      </trkpt>
      <trkpt lat="44.57613" lon="1.62565">
        <ele>323.3</ele>
        <time>2010-01-01T00:00:00Z</time>
      </trkpt>
      <trkpt lat="44.57614" lon="1.62563">
        <ele>323.2</ele>
        <time>2010-01-01T00:00:00Z</time>
      </trkpt>
      <trkpt lat="44.5762" lon="1.6255">
        <ele>322.8</ele>
        <time>2010-01-01T00:00:00Z</time>
      </trkpt>
      <trkpt lat="44.57626" lon="1.62545">
        <ele>322.6</ele>
        <time>2010-01-01T00:00:00Z</time>
      </trkpt>
      <trkpt lat="44.57635" lon="1.62543">
        <ele>322.5</ele>
        <time>2010-01-01T00:00:00Z</time>
      </trkpt>
      <trkpt lat="44.57642" lon="1.62542">
        <ele>322.4</ele>
        <time>2010-01-01T00:00:00Z</time>
      </trkpt>
      <trkpt lat="44.57672" lon="1.62539">
        <ele>321.6</ele>
        <time>2010-01-01T00:00:00Z</time>
      </trkpt>
      <trkpt lat="44.57701" lon="1.62539">
        <ele>321.5</ele>
        <time>2010-01-01T00:00:00Z</time>
      </trkpt>
      <trkpt lat="44.57717" lon="1.62538">
        <ele>321.5</ele>
        <time>2010-01-01T00:00:00Z</time>
      </trkpt>
      <trkpt lat="44.57721" lon="1.62537">
        <ele>321.5</ele>
        <time>2010-01-01T00:00:00Z</time>
      </trkpt>
      <trkpt lat="44.57723" lon="1.62537">
        <ele>321.4</ele>
        <time>2010-01-01T00:00:00Z</time>
      </trkpt>
      <trkpt lat="44.57727" lon="1.62535">
        <ele>321.4</ele>
        <time>2010-01-01T00:00:00Z</time>
      </trkpt>
      <trkpt lat="44.5773" lon="1.62534">
        <ele>321.4</ele>
        <time>2010-01-01T00:00:00Z</time>
      </trkpt>
      <trkpt lat="44.57735" lon="1.62531">
        <ele>321.5</ele>
        <time>2010-01-01T00:00:00Z</time>
      </trkpt>
      <trkpt lat="44.57748" lon="1.62519">
        <ele>321.6</ele>
        <time>2010-01-01T00:00:00Z</time>
      </trkpt>
      <trkpt lat="44.57764" lon="1.62499">
        <ele>321.8</ele>
        <time>2010-01-01T00:00:00Z</time>
      </trkpt>
      <trkpt lat="44.57777" lon="1.62477">
        <ele>321.8</ele>
        <time>2010-01-01T00:00:00Z</time>
      </trkpt>
      <trkpt lat="44.57789" lon="1.62453">
        <ele>322.2</ele>
        <time>2010-01-01T00:00:00Z</time>
      </trkpt>
      <trkpt lat="44.57802" lon="1.62436">
        <ele>322.7</ele>
        <time>2010-01-01T00:00:00Z</time>
      </trkpt>
      <trkpt lat="44.57812" lon="1.62423">
        <ele>323.2</ele>
        <time>2010-01-01T00:00:00Z</time>
      </trkpt>
      <trkpt lat="44.57814" lon="1.6242">
        <ele>323.4</ele>
        <time>2010-01-01T00:00:00Z</time>
      </trkpt>
      <trkpt lat="44.5783" lon="1.62422">
        <ele>324.3</ele>
        <time>2010-01-01T00:00:00Z</time>
      </trkpt>
      <trkpt lat="44.57843" lon="1.62423">
        <ele>323.7</ele>
        <time>2010-01-01T00:00:00Z</time>
      </trkpt>
      <trkpt lat="44.5788" lon="1.62432">
        <ele>322.4</ele>
        <time>2010-01-01T00:00:00Z</time>
      </trkpt>
      <trkpt lat="44.57902" lon="1.62437">
        <ele>322.5</ele>
        <time>2010-01-01T00:00:00Z</time>
      </trkpt>
      <trkpt lat="44.57921" lon="1.62445">
        <ele>321.6</ele>
        <time>2010-01-01T00:00:00Z</time>
      </trkpt>
      <trkpt lat="44.57935" lon="1.6245">
        <ele>321.1</ele>
        <time>2010-01-01T00:00:00Z</time>
      </trkpt>
      <trkpt lat="44.57954" lon="1.62456">
        <ele>320.6</ele>
        <time>2010-01-01T00:00:00Z</time>
      </trkpt>
      <trkpt lat="44.57959" lon="1.62457">
        <ele>320.5</ele>
        <time>2010-01-01T00:00:00Z</time>
      </trkpt>
      <trkpt lat="44.57964" lon="1.62458">
        <ele>320.4</ele>
        <time>2010-01-01T00:00:00Z</time>
      </trkpt>
      <trkpt lat="44.57993" lon="1.62462">
        <ele>319.9</ele>
        <time>2010-01-01T00:00:00Z</time>
      </trkpt>
      <trkpt lat="44.58008" lon="1.62463">
        <ele>320.4</ele>
        <time>2010-01-01T00:00:00Z</time>
      </trkpt>
      <trkpt lat="44.58019" lon="1.62467">
        <ele>320.6</ele>
        <time>2010-01-01T00:00:00Z</time>
      </trkpt>
      <trkpt lat="44.58051" lon="1.62476">
        <ele>321.7</ele>
        <time>2010-01-01T00:00:00Z</time>
      </trkpt>
      <trkpt lat="44.58081" lon="1.62485">
        <ele>323.3</ele>
        <time>2010-01-01T00:00:00Z</time>
      </trkpt>
      <trkpt lat="44.58098" lon="1.62491">
        <ele>325.5</ele>
        <time>2010-01-01T00:00:00Z</time>
      </trkpt>
      <trkpt lat="44.58101" lon="1.62493">
        <ele>325.6</ele>
        <time>2010-01-01T00:00:00Z</time>
      </trkpt>
      <trkpt lat="44.5812" lon="1.62502">
        <ele>327</ele>
        <time>2010-01-01T00:00:00Z</time>
      </trkpt>
      <trkpt lat="44.5813" lon="1.62507">
        <ele>327.4</ele>
        <time>2010-01-01T00:00:00Z</time>
      </trkpt>
      <trkpt lat="44.58142" lon="1.62509">
        <ele>328</ele>
        <time>2010-01-01T00:00:00Z</time>
      </trkpt>
      <trkpt lat="44.58149" lon="1.62511">
        <ele>328.3</ele>
        <time>2010-01-01T00:00:00Z</time>
      </trkpt>
      <trkpt lat="44.58152" lon="1.62511">
        <ele>328.4</ele>
        <time>2010-01-01T00:00:00Z</time>
      </trkpt>
      <trkpt lat="44.58162" lon="1.62517">
        <ele>328.6</ele>
        <time>2010-01-01T00:00:00Z</time>
      </trkpt>
      <trkpt lat="44.58169" lon="1.62521">
        <ele>329.7</ele>
        <time>2010-01-01T00:00:00Z</time>
      </trkpt>
      <trkpt lat="44.58173" lon="1.62522">
        <ele>329.7</ele>
        <time>2010-01-01T00:00:00Z</time>
      </trkpt>
      <trkpt lat="44.58181" lon="1.62526">
        <ele>329.7</ele>
        <time>2010-01-01T00:00:00Z</time>
      </trkpt>
      <trkpt lat="44.58196" lon="1.62526">
        <ele>329.7</ele>
        <time>2010-01-01T00:00:00Z</time>
      </trkpt>
      <trkpt lat="44.58197" lon="1.62526">
        <ele>329.7</ele>
        <time>2010-01-01T00:00:00Z</time>
      </trkpt>
      <trkpt lat="44.58225" lon="1.62524">
        <ele>329.8</ele>
        <time>2010-01-01T00:00:00Z</time>
      </trkpt>
      <trkpt lat="44.58248" lon="1.62518">
        <ele>330.2</ele>
        <time>2010-01-01T00:00:00Z</time>
      </trkpt>
      <trkpt lat="44.58284" lon="1.62509">
        <ele>329</ele>
        <time>2010-01-01T00:00:00Z</time>
      </trkpt>
      <trkpt lat="44.58286" lon="1.62509">
        <ele>328.9</ele>
        <time>2010-01-01T00:00:00Z</time>
      </trkpt>
      <trkpt lat="44.58316" lon="1.62505">
        <ele>328.7</ele>
        <time>2010-01-01T00:00:00Z</time>
      </trkpt>
      <trkpt lat="44.58335" lon="1.62503">
        <ele>329.1</ele>
        <time>2010-01-01T00:00:00Z</time>
      </trkpt>
      <trkpt lat="44.58355" lon="1.62501">
        <ele>329.4</ele>
        <time>2010-01-01T00:00:00Z</time>
      </trkpt>
      <trkpt lat="44.58402" lon="1.62501">
        <ele>331.5</ele>
        <time>2010-01-01T00:00:00Z</time>
      </trkpt>
      <trkpt lat="44.58439" lon="1.625">
        <ele>335.4</ele>
        <time>2010-01-01T00:00:00Z</time>
      </trkpt>
      <trkpt lat="44.5845" lon="1.62501">
        <ele>336.1</ele>
        <time>2010-01-01T00:00:00Z</time>
      </trkpt>
      <trkpt lat="44.58454" lon="1.62501">
        <ele>336.4</ele>
        <time>2010-01-01T00:00:00Z</time>
      </trkpt>
      <trkpt lat="44.58463" lon="1.62507">
        <ele>337.1</ele>
        <time>2010-01-01T00:00:00Z</time>
      </trkpt>
      <trkpt lat="44.58476" lon="1.62516">
        <ele>337.9</ele>
        <time>2010-01-01T00:00:00Z</time>
      </trkpt>
      <trkpt lat="44.5848" lon="1.62516">
        <ele>338.2</ele>
        <time>2010-01-01T00:00:00Z</time>
      </trkpt>
      <trkpt lat="44.58484" lon="1.62514">
        <ele>338.7</ele>
        <time>2010-01-01T00:00:00Z</time>
      </trkpt>
      <trkpt lat="44.58486" lon="1.62513">
        <ele>338.9</ele>
        <time>2010-01-01T00:00:00Z</time>
      </trkpt>
      <trkpt lat="44.58491" lon="1.62504">
        <ele>340.1</ele>
        <time>2010-01-01T00:00:00Z</time>
      </trkpt>
      <trkpt lat="44.58502" lon="1.62488">
        <ele>342.9</ele>
        <time>2010-01-01T00:00:00Z</time>
      </trkpt>
      <trkpt lat="44.58508" lon="1.62479">
        <ele>343.3</ele>
        <time>2010-01-01T00:00:00Z</time>
      </trkpt>
      <trkpt lat="44.58511" lon="1.62474">
        <ele>343.4</ele>
        <time>2010-01-01T00:00:00Z</time>
      </trkpt>
      <trkpt lat="44.58524" lon="1.62459">
        <ele>343.8</ele>
        <time>2010-01-01T00:00:00Z</time>
      </trkpt>
      <trkpt lat="44.58539" lon="1.62446">
        <ele>344.3</ele>
        <time>2010-01-01T00:00:00Z</time>
      </trkpt>
      <trkpt lat="44.58551" lon="1.62435">
        <ele>344.9</ele>
        <time>2010-01-01T00:00:00Z</time>
      </trkpt>
      <trkpt lat="44.58567" lon="1.62418">
        <ele>346.2</ele>
        <time>2010-01-01T00:00:00Z</time>
      </trkpt>
      <trkpt lat="44.58578" lon="1.62405">
        <ele>346.8</ele>
        <time>2010-01-01T00:00:00Z</time>
      </trkpt>
      <trkpt lat="44.58598" lon="1.6238">
        <ele>351</ele>
        <time>2010-01-01T00:00:00Z</time>
      </trkpt>
      <trkpt lat="44.58623" lon="1.62352">
        <ele>352.3</ele>
        <time>2010-01-01T00:00:00Z</time>
      </trkpt>
      <trkpt lat="44.58626" lon="1.62348">
        <ele>352.5</ele>
        <time>2010-01-01T00:00:00Z</time>
      </trkpt>
      <trkpt lat="44.58638" lon="1.62338">
        <ele>353.4</ele>
        <time>2010-01-01T00:00:00Z</time>
      </trkpt>
      <trkpt lat="44.58642" lon="1.62334">
        <ele>353.8</ele>
        <time>2010-01-01T00:00:00Z</time>
      </trkpt>
      <trkpt lat="44.58687" lon="1.62289">
        <ele>359.9</ele>
        <time>2010-01-01T00:00:00Z</time>
      </trkpt>
      <trkpt lat="44.587" lon="1.62277">
        <ele>360.5</ele>
        <time>2010-01-01T00:00:00Z</time>
      </trkpt>
      <trkpt lat="44.58714" lon="1.62261">
        <ele>361.4</ele>
        <time>2010-01-01T00:00:00Z</time>
      </trkpt>
      <trkpt lat="44.58721" lon="1.62253">
        <ele>362</ele>
        <time>2010-01-01T00:00:00Z</time>
      </trkpt>
      <trkpt lat="44.58726" lon="1.62246">
        <ele>366</ele>
        <time>2010-01-01T00:00:00Z</time>
      </trkpt>
      <trkpt lat="44.58733" lon="1.62239">
        <ele>366.3</ele>
        <time>2010-01-01T00:00:00Z</time>
      </trkpt>
      <trkpt lat="44.58739" lon="1.62235">
        <ele>366.4</ele>
        <time>2010-01-01T00:00:00Z</time>
      </trkpt>
      <trkpt lat="44.58756" lon="1.62222">
        <ele>368.8</ele>
        <time>2010-01-01T00:00:00Z</time>
      </trkpt>
      <trkpt lat="44.58783" lon="1.622">
        <ele>370</ele>
        <time>2010-01-01T00:00:00Z</time>
      </trkpt>
      <trkpt lat="44.58805" lon="1.62175">
        <ele>370.4</ele>
        <time>2010-01-01T00:00:00Z</time>
      </trkpt>
      <trkpt lat="44.58809" lon="1.62171">
        <ele>370.5</ele>
        <time>2010-01-01T00:00:00Z</time>
      </trkpt>
      <trkpt lat="44.58848" lon="1.62175">
        <ele>371.4</ele>
        <time>2010-01-01T00:00:00Z</time>
      </trkpt>
      <trkpt lat="44.58855" lon="1.62175">
        <ele>371.6</ele>
        <time>2010-01-01T00:00:00Z</time>
      </trkpt>
      <trkpt lat="44.58883" lon="1.62177">
        <ele>372.2</ele>
        <time>2010-01-01T00:00:00Z</time>
      </trkpt>
      <trkpt lat="44.58894" lon="1.62178">
        <ele>372.4</ele>
        <time>2010-01-01T00:00:00Z</time>
      </trkpt>
      <trkpt lat="44.58909" lon="1.62179">
        <ele>372.7</ele>
        <time>2010-01-01T00:00:00Z</time>
      </trkpt>
      <trkpt lat="44.58932" lon="1.62182">
        <ele>375.8</ele>
        <time>2010-01-01T00:00:00Z</time>
      </trkpt>
      <trkpt lat="44.58947" lon="1.6219">
        <ele>377</ele>
        <time>2010-01-01T00:00:00Z</time>
      </trkpt>
      <trkpt lat="44.58962" lon="1.62208">
        <ele>377.9</ele>
        <time>2010-01-01T00:00:00Z</time>
      </trkpt>
      <trkpt lat="44.58983" lon="1.62235">
        <ele>379.5</ele>
        <time>2010-01-01T00:00:00Z</time>
      </trkpt>
      <trkpt lat="44.58995" lon="1.62247">
        <ele>381.1</ele>
        <time>2010-01-01T00:00:00Z</time>
      </trkpt>
      <trkpt lat="44.59013" lon="1.62257">
        <ele>381.9</ele>
        <time>2010-01-01T00:00:00Z</time>
      </trkpt>
      <trkpt lat="44.59038" lon="1.62266">
        <ele>382.4</ele>
        <time>2010-01-01T00:00:00Z</time>
      </trkpt>
      <trkpt lat="44.59058" lon="1.62271">
        <ele>383.3</ele>
        <time>2010-01-01T00:00:00Z</time>
      </trkpt>
      <trkpt lat="44.59067" lon="1.62271">
        <ele>383.9</ele>
        <time>2010-01-01T00:00:00Z</time>
      </trkpt>
      <trkpt lat="44.59074" lon="1.6227">
        <ele>384.5</ele>
        <time>2010-01-01T00:00:00Z</time>
      </trkpt>
      <trkpt lat="44.5908" lon="1.62268">
        <ele>385</ele>
        <time>2010-01-01T00:00:00Z</time>
      </trkpt>
      <trkpt lat="44.59093" lon="1.62261">
        <ele>387.7</ele>
        <time>2010-01-01T00:00:00Z</time>
      </trkpt>
      <trkpt lat="44.59105" lon="1.62254">
        <ele>387.7</ele>
        <time>2010-01-01T00:00:00Z</time>
      </trkpt>
      <trkpt lat="44.59125" lon="1.62242">
        <ele>392.3</ele>
        <time>2010-01-01T00:00:00Z</time>
      </trkpt>
      <trkpt lat="44.59133" lon="1.62241">
        <ele>392.7</ele>
        <time>2010-01-01T00:00:00Z</time>
      </trkpt>
      <trkpt lat="44.59149" lon="1.6224">
        <ele>393.2</ele>
        <time>2010-01-01T00:00:00Z</time>
      </trkpt>
      <trkpt lat="44.59162" lon="1.62237">
        <ele>393.5</ele>
        <time>2010-01-01T00:00:00Z</time>
      </trkpt>
      <trkpt lat="44.59164" lon="1.62237">
        <ele>393.5</ele>
        <time>2010-01-01T00:00:00Z</time>
      </trkpt>
      <trkpt lat="44.59177" lon="1.62235">
        <ele>395.5</ele>
        <time>2010-01-01T00:00:00Z</time>
      </trkpt>
      <trkpt lat="44.59183" lon="1.62234">
        <ele>395.8</ele>
        <time>2010-01-01T00:00:00Z</time>
      </trkpt>
      <trkpt lat="44.59191" lon="1.62233">
        <ele>396.2</ele>
        <time>2010-01-01T00:00:00Z</time>
      </trkpt>
      <trkpt lat="44.59197" lon="1.62234">
        <ele>396.4</ele>
        <time>2010-01-01T00:00:00Z</time>
      </trkpt>
      <trkpt lat="44.59201" lon="1.62235">
        <ele>396.6</ele>
        <time>2010-01-01T00:00:00Z</time>
      </trkpt>
      <trkpt lat="44.59204" lon="1.62236">
        <ele>396.8</ele>
        <time>2010-01-01T00:00:00Z</time>
      </trkpt>
      <trkpt lat="44.59221" lon="1.6224">
        <ele>397.7</ele>
        <time>2010-01-01T00:00:00Z</time>
      </trkpt>
      <trkpt lat="44.59239" lon="1.62246">
        <ele>399.3</ele>
        <time>2010-01-01T00:00:00Z</time>
      </trkpt>
      <trkpt lat="44.59259" lon="1.62251">
        <ele>400.5</ele>
        <time>2010-01-01T00:00:00Z</time>
      </trkpt>
      <trkpt lat="44.59274" lon="1.62253">
        <ele>400.1</ele>
        <time>2010-01-01T00:00:00Z</time>
      </trkpt>
      <trkpt lat="44.59299" lon="1.62259">
        <ele>400.4</ele>
        <time>2010-01-01T00:00:00Z</time>
      </trkpt>
      <trkpt lat="44.59315" lon="1.62263">
        <ele>400.9</ele>
        <time>2010-01-01T00:00:00Z</time>
      </trkpt>
      <trkpt lat="44.59321" lon="1.62265">
        <ele>401.1</ele>
        <time>2010-01-01T00:00:00Z</time>
      </trkpt>
      <trkpt lat="44.5933" lon="1.62269">
        <ele>401.1</ele>
        <time>2010-01-01T00:00:00Z</time>
      </trkpt>
      <trkpt lat="44.59335" lon="1.62272">
        <ele>400.7</ele>
        <time>2010-01-01T00:00:00Z</time>
      </trkpt>
      <trkpt lat="44.59352" lon="1.62284">
        <ele>399.8</ele>
        <time>2010-01-01T00:00:00Z</time>
      </trkpt>
      <trkpt lat="44.59363" lon="1.62297">
        <ele>399.3</ele>
        <time>2010-01-01T00:00:00Z</time>
      </trkpt>
      <trkpt lat="44.59366" lon="1.62299">
        <ele>399.2</ele>
        <time>2010-01-01T00:00:00Z</time>
      </trkpt>
      <trkpt lat="44.5937" lon="1.62303">
        <ele>399.1</ele>
        <time>2010-01-01T00:00:00Z</time>
      </trkpt>
      <trkpt lat="44.59377" lon="1.62308">
        <ele>398.9</ele>
        <time>2010-01-01T00:00:00Z</time>
      </trkpt>
      <trkpt lat="44.5938" lon="1.62308">
        <ele>398.8</ele>
        <time>2010-01-01T00:00:00Z</time>
      </trkpt>
      <trkpt lat="44.59386" lon="1.62308">
        <ele>398.6</ele>
        <time>2010-01-01T00:00:00Z</time>
      </trkpt>
      <trkpt lat="44.59398" lon="1.62306">
        <ele>398.3</ele>
        <time>2010-01-01T00:00:00Z</time>
      </trkpt>
      <trkpt lat="44.59407" lon="1.62303">
        <ele>398.2</ele>
        <time>2010-01-01T00:00:00Z</time>
      </trkpt>
      <trkpt lat="44.59417" lon="1.62301">
        <ele>396</ele>
        <time>2010-01-01T00:00:00Z</time>
      </trkpt>
      <trkpt lat="44.59424" lon="1.62301">
        <ele>395.9</ele>
        <time>2010-01-01T00:00:00Z</time>
      </trkpt>
      <trkpt lat="44.59432" lon="1.623">
        <ele>395.8</ele>
        <time>2010-01-01T00:00:00Z</time>
      </trkpt>
      <trkpt lat="44.59442" lon="1.62301">
        <ele>395.7</ele>
        <time>2010-01-01T00:00:00Z</time>
      </trkpt>
      <trkpt lat="44.59451" lon="1.62301">
        <ele>395.6</ele>
        <time>2010-01-01T00:00:00Z</time>
      </trkpt>
      <trkpt lat="44.59465" lon="1.62302">
        <ele>395.3</ele>
        <time>2010-01-01T00:00:00Z</time>
      </trkpt>
      <trkpt lat="44.59475" lon="1.62303">
        <ele>395.1</ele>
        <time>2010-01-01T00:00:00Z</time>
      </trkpt>
      <trkpt lat="44.59483" lon="1.62303">
        <ele>395</ele>
        <time>2010-01-01T00:00:00Z</time>
      </trkpt>
      <trkpt lat="44.59496" lon="1.62302">
        <ele>394.9</ele>
        <time>2010-01-01T00:00:00Z</time>
      </trkpt>
      <trkpt lat="44.59502" lon="1.623">
        <ele>392.1</ele>
        <time>2010-01-01T00:00:00Z</time>
      </trkpt>
      <trkpt lat="44.59513" lon="1.62298">
        <ele>391.9</ele>
        <time>2010-01-01T00:00:00Z</time>
      </trkpt>
      <trkpt lat="44.59516" lon="1.62296">
        <ele>391.9</ele>
        <time>2010-01-01T00:00:00Z</time>
      </trkpt>
      <trkpt lat="44.59521" lon="1.62292">
        <ele>391.8</ele>
        <time>2010-01-01T00:00:00Z</time>
      </trkpt>
      <trkpt lat="44.59525" lon="1.62285">
        <ele>391.9</ele>
        <time>2010-01-01T00:00:00Z</time>
      </trkpt>
      <trkpt lat="44.5953" lon="1.62276">
        <ele>391.9</ele>
        <time>2010-01-01T00:00:00Z</time>
      </trkpt>
      <trkpt lat="44.59532" lon="1.62267">
        <ele>392</ele>
        <time>2010-01-01T00:00:00Z</time>
      </trkpt>
      <trkpt lat="44.59537" lon="1.62244">
        <ele>392.4</ele>
        <time>2010-01-01T00:00:00Z</time>
      </trkpt>
      <trkpt lat="44.59542" lon="1.62228">
        <ele>392</ele>
        <time>2010-01-01T00:00:00Z</time>
      </trkpt>
      <trkpt lat="44.59546" lon="1.62213">
        <ele>391.8</ele>
        <time>2010-01-01T00:00:00Z</time>
      </trkpt>
      <trkpt lat="44.59549" lon="1.62201">
        <ele>391.7</ele>
        <time>2010-01-01T00:00:00Z</time>
      </trkpt>
      <trkpt lat="44.59553" lon="1.62186">
        <ele>391.7</ele>
        <time>2010-01-01T00:00:00Z</time>
      </trkpt>
      <trkpt lat="44.59554" lon="1.62181">
        <ele>391.7</ele>
        <time>2010-01-01T00:00:00Z</time>
      </trkpt>
      <trkpt lat="44.59559" lon="1.62167">
        <ele>391.9</ele>
        <time>2010-01-01T00:00:00Z</time>
      </trkpt>
      <trkpt lat="44.59566" lon="1.62149">
        <ele>391</ele>
        <time>2010-01-01T00:00:00Z</time>
      </trkpt>
      <trkpt lat="44.59572" lon="1.62136">
        <ele>390.9</ele>
        <time>2010-01-01T00:00:00Z</time>
      </trkpt>
      <trkpt lat="44.59579" lon="1.62124">
        <ele>391.1</ele>
        <time>2010-01-01T00:00:00Z</time>
      </trkpt>
      <trkpt lat="44.59583" lon="1.62115">
        <ele>391.5</ele>
        <time>2010-01-01T00:00:00Z</time>
      </trkpt>
      <trkpt lat="44.59598" lon="1.62086">
        <ele>393</ele>
        <time>2010-01-01T00:00:00Z</time>
      </trkpt>
      <trkpt lat="44.59603" lon="1.62077">
        <ele>393.3</ele>
        <time>2010-01-01T00:00:00Z</time>
      </trkpt>
      <trkpt lat="44.59613" lon="1.62052">
        <ele>392.6</ele>
        <time>2010-01-01T00:00:00Z</time>
      </trkpt>
      <trkpt lat="44.59613" lon="1.62051">
        <ele>392.6</ele>
        <time>2010-01-01T00:00:00Z</time>
      </trkpt>
      <trkpt lat="44.59617" lon="1.62041">
        <ele>392.4</ele>
        <time>2010-01-01T00:00:00Z</time>
      </trkpt>
      <trkpt lat="44.59632" lon="1.62042">
        <ele>392.1</ele>
        <time>2010-01-01T00:00:00Z</time>
      </trkpt>
      <trkpt lat="44.59644" lon="1.62043">
        <ele>391.9</ele>
        <time>2010-01-01T00:00:00Z</time>
      </trkpt>
      <trkpt lat="44.59653" lon="1.62045">
        <ele>391.7</ele>
        <time>2010-01-01T00:00:00Z</time>
      </trkpt>
      <trkpt lat="44.59654" lon="1.62045">
        <ele>391.7</ele>
        <time>2010-01-01T00:00:00Z</time>
      </trkpt>
      <trkpt lat="44.59666" lon="1.62052">
        <ele>391.5</ele>
        <time>2010-01-01T00:00:00Z</time>
      </trkpt>
      <trkpt lat="44.59684" lon="1.62067">
        <ele>390.5</ele>
        <time>2010-01-01T00:00:00Z</time>
      </trkpt>
      <trkpt lat="44.59687" lon="1.6207">
        <ele>390.5</ele>
        <time>2010-01-01T00:00:00Z</time>
      </trkpt>
      <trkpt lat="44.59704" lon="1.62087">
        <ele>386.7</ele>
        <time>2010-01-01T00:00:00Z</time>
      </trkpt>
      <trkpt lat="44.59716" lon="1.62099">
        <ele>386.2</ele>
        <time>2010-01-01T00:00:00Z</time>
      </trkpt>
      <trkpt lat="44.59721" lon="1.62103">
        <ele>386.1</ele>
        <time>2010-01-01T00:00:00Z</time>
      </trkpt>
      <trkpt lat="44.59737" lon="1.62119">
        <ele>385.1</ele>
        <time>2010-01-01T00:00:00Z</time>
      </trkpt>
      <trkpt lat="44.59747" lon="1.62131">
        <ele>383.9</ele>
        <time>2010-01-01T00:00:00Z</time>
      </trkpt>
      <trkpt lat="44.59748" lon="1.62132">
        <ele>383.7</ele>
        <time>2010-01-01T00:00:00Z</time>
      </trkpt>
      <trkpt lat="44.59759" lon="1.62143">
        <ele>383.5</ele>
        <time>2010-01-01T00:00:00Z</time>
      </trkpt>
      <trkpt lat="44.59765" lon="1.62148">
        <ele>383.2</ele>
        <time>2010-01-01T00:00:00Z</time>
      </trkpt>
      <trkpt lat="44.59768" lon="1.62151">
        <ele>383.1</ele>
        <time>2010-01-01T00:00:00Z</time>
      </trkpt>
      <trkpt lat="44.59775" lon="1.62158">
        <ele>383.2</ele>
        <time>2010-01-01T00:00:00Z</time>
      </trkpt>
      <trkpt lat="44.59781" lon="1.6217">
        <ele>376.5</ele>
        <time>2010-01-01T00:00:00Z</time>
      </trkpt>
      <trkpt lat="44.59791" lon="1.62191">
        <ele>375.8</ele>
        <time>2010-01-01T00:00:00Z</time>
      </trkpt>
      <trkpt lat="44.59799" lon="1.62209">
        <ele>374.8</ele>
        <time>2010-01-01T00:00:00Z</time>
      </trkpt>
      <trkpt lat="44.598" lon="1.62209">
        <ele>374.8</ele>
        <time>2010-01-01T00:00:00Z</time>
      </trkpt>
      <trkpt lat="44.59806" lon="1.62218">
        <ele>374.3</ele>
        <time>2010-01-01T00:00:00Z</time>
      </trkpt>
      <trkpt lat="44.59815" lon="1.62226">
        <ele>373.6</ele>
        <time>2010-01-01T00:00:00Z</time>
      </trkpt>
      <trkpt lat="44.59828" lon="1.62235">
        <ele>372.4</ele>
        <time>2010-01-01T00:00:00Z</time>
      </trkpt>
      <trkpt lat="44.59835" lon="1.62243">
        <ele>371.6</ele>
        <time>2010-01-01T00:00:00Z</time>
      </trkpt>
      <trkpt lat="44.59841" lon="1.62251">
        <ele>368.7</ele>
        <time>2010-01-01T00:00:00Z</time>
      </trkpt>
      <trkpt lat="44.59845" lon="1.62256">
        <ele>368</ele>
        <time>2010-01-01T00:00:00Z</time>
      </trkpt>
      <trkpt lat="44.59846" lon="1.62257">
        <ele>367.9</ele>
        <time>2010-01-01T00:00:00Z</time>
      </trkpt>
      <trkpt lat="44.59859" lon="1.62266">
        <ele>366.7</ele>
        <time>2010-01-01T00:00:00Z</time>
      </trkpt>
      <trkpt lat="44.59861" lon="1.62268">
        <ele>366.5</ele>
        <time>2010-01-01T00:00:00Z</time>
      </trkpt>
      <trkpt lat="44.59877" lon="1.62279">
        <ele>365.8</ele>
        <time>2010-01-01T00:00:00Z</time>
      </trkpt>
      <trkpt lat="44.59895" lon="1.62291">
        <ele>365.2</ele>
        <time>2010-01-01T00:00:00Z</time>
      </trkpt>
      <trkpt lat="44.5991" lon="1.623">
        <ele>364.4</ele>
        <time>2010-01-01T00:00:00Z</time>
      </trkpt>
      <trkpt lat="44.59913" lon="1.62302">
        <ele>364.2</ele>
        <time>2010-01-01T00:00:00Z</time>
      </trkpt>
      <trkpt lat="44.59927" lon="1.62308">
        <ele>364.3</ele>
        <time>2010-01-01T00:00:00Z</time>
      </trkpt>
      <trkpt lat="44.59939" lon="1.62312">
        <ele>364.3</ele>
        <time>2010-01-01T00:00:00Z</time>
      </trkpt>
      <trkpt lat="44.59957" lon="1.62315">
        <ele>364.6</ele>
        <time>2010-01-01T00:00:00Z</time>
      </trkpt>
      <trkpt lat="44.59974" lon="1.62319">
        <ele>364.2</ele>
        <time>2010-01-01T00:00:00Z</time>
      </trkpt>
      <trkpt lat="44.5998" lon="1.62321">
        <ele>363.9</ele>
        <time>2010-01-01T00:00:00Z</time>
      </trkpt>
      <trkpt lat="44.59989" lon="1.62324">
        <ele>363.2</ele>
        <time>2010-01-01T00:00:00Z</time>
      </trkpt>
      <trkpt lat="44.60004" lon="1.62329">
        <ele>362.1</ele>
        <time>2010-01-01T00:00:00Z</time>
      </trkpt>
      <trkpt lat="44.60018" lon="1.62337">
        <ele>362</ele>
        <time>2010-01-01T00:00:00Z</time>
      </trkpt>
      <trkpt lat="44.60028" lon="1.62345">
        <ele>362.4</ele>
        <time>2010-01-01T00:00:00Z</time>
      </trkpt>
      <trkpt lat="44.6003" lon="1.62347">
        <ele>362.4</ele>
        <time>2010-01-01T00:00:00Z</time>
      </trkpt>
      <trkpt lat="44.60038" lon="1.62357">
        <ele>362.7</ele>
        <time>2010-01-01T00:00:00Z</time>
      </trkpt>
      <trkpt lat="44.60044" lon="1.62363">
        <ele>363</ele>
        <time>2010-01-01T00:00:00Z</time>
      </trkpt>
      <trkpt lat="44.60048" lon="1.62368">
        <ele>363.2</ele>
        <time>2010-01-01T00:00:00Z</time>
      </trkpt>
      <trkpt lat="44.6006" lon="1.62378">
        <ele>363.8</ele>
        <time>2010-01-01T00:00:00Z</time>
      </trkpt>
      <trkpt lat="44.60063" lon="1.62382">
        <ele>364</ele>
        <time>2010-01-01T00:00:00Z</time>
      </trkpt>
      <trkpt lat="44.6007" lon="1.62392">
        <ele>364.9</ele>
        <time>2010-01-01T00:00:00Z</time>
      </trkpt>
      <trkpt lat="44.60081" lon="1.62408">
        <ele>367.2</ele>
        <time>2010-01-01T00:00:00Z</time>
      </trkpt>
      <trkpt lat="44.60091" lon="1.62421">
        <ele>371.6</ele>
        <time>2010-01-01T00:00:00Z</time>
      </trkpt>
      <trkpt lat="44.60095" lon="1.62426">
        <ele>373</ele>
        <time>2010-01-01T00:00:00Z</time>
      </trkpt>
      <trkpt lat="44.60101" lon="1.62433">
        <ele>374.5</ele>
        <time>2010-01-01T00:00:00Z</time>
      </trkpt>
      <trkpt lat="44.60116" lon="1.62446">
        <ele>376.7</ele>
        <time>2010-01-01T00:00:00Z</time>
      </trkpt>
      <trkpt lat="44.60137" lon="1.62459">
        <ele>378.5</ele>
        <time>2010-01-01T00:00:00Z</time>
      </trkpt>
      <trkpt lat="44.60159" lon="1.62471">
        <ele>380.7</ele>
        <time>2010-01-01T00:00:00Z</time>
      </trkpt>
      <trkpt lat="44.60188" lon="1.62486">
        <ele>384.1</ele>
        <time>2010-01-01T00:00:00Z</time>
      </trkpt>
      <trkpt lat="44.60207" lon="1.62494">
        <ele>383.9</ele>
        <time>2010-01-01T00:00:00Z</time>
      </trkpt>
      <trkpt lat="44.60224" lon="1.62503">
        <ele>391</ele>
        <time>2010-01-01T00:00:00Z</time>
      </trkpt>
      <trkpt lat="44.60232" lon="1.62507">
        <ele>390.6</ele>
        <time>2010-01-01T00:00:00Z</time>
      </trkpt>
      <trkpt lat="44.60236" lon="1.6251">
        <ele>390.5</ele>
        <time>2010-01-01T00:00:00Z</time>
      </trkpt>
      <trkpt lat="44.60241" lon="1.62514">
        <ele>390.6</ele>
        <time>2010-01-01T00:00:00Z</time>
      </trkpt>
      <trkpt lat="44.60242" lon="1.62514">
        <ele>390.5</ele>
        <time>2010-01-01T00:00:00Z</time>
      </trkpt>
      <trkpt lat="44.60258" lon="1.62525">
        <ele>388.9</ele>
        <time>2010-01-01T00:00:00Z</time>
      </trkpt>
      <trkpt lat="44.60271" lon="1.62534">
        <ele>389.2</ele>
        <time>2010-01-01T00:00:00Z</time>
      </trkpt>
      <trkpt lat="44.60275" lon="1.62538">
        <ele>389.3</ele>
        <time>2010-01-01T00:00:00Z</time>
      </trkpt>
      <trkpt lat="44.60281" lon="1.62544">
        <ele>389.5</ele>
        <time>2010-01-01T00:00:00Z</time>
      </trkpt>
      <trkpt lat="44.60291" lon="1.6256">
        <ele>390.1</ele>
        <time>2010-01-01T00:00:00Z</time>
      </trkpt>
      <trkpt lat="44.60304" lon="1.62575">
        <ele>390.4</ele>
        <time>2010-01-01T00:00:00Z</time>
      </trkpt>
      <trkpt lat="44.60314" lon="1.62582">
        <ele>390.6</ele>
        <time>2010-01-01T00:00:00Z</time>
      </trkpt>
      <trkpt lat="44.6032" lon="1.62587">
        <ele>393.5</ele>
        <time>2010-01-01T00:00:00Z</time>
      </trkpt>
      <trkpt lat="44.60322" lon="1.62588">
        <ele>393.4</ele>
        <time>2010-01-01T00:00:00Z</time>
      </trkpt>
      <trkpt lat="44.60334" lon="1.62596">
        <ele>394.3</ele>
        <time>2010-01-01T00:00:00Z</time>
      </trkpt>
      <trkpt lat="44.60344" lon="1.62598">
        <ele>394.9</ele>
        <time>2010-01-01T00:00:00Z</time>
      </trkpt>
      <trkpt lat="44.60342" lon="1.626">
        <ele>395</ele>
        <time>2010-01-01T00:00:00Z</time>
      </trkpt>
      <trkpt lat="44.60342" lon="1.62605">
        <ele>395.5</ele>
        <time>2010-01-01T00:00:00Z</time>
      </trkpt>
      <trkpt lat="44.60344" lon="1.62612">
        <ele>396.2</ele>
        <time>2010-01-01T00:00:00Z</time>
      </trkpt>
      <trkpt lat="44.60349" lon="1.62618">
        <ele>396.8</ele>
        <time>2010-01-01T00:00:00Z</time>
      </trkpt>
      <trkpt lat="44.60357" lon="1.62626">
        <ele>397.5</ele>
        <time>2010-01-01T00:00:00Z</time>
      </trkpt>
      <trkpt lat="44.60369" lon="1.62635">
        <ele>398.4</ele>
        <time>2010-01-01T00:00:00Z</time>
      </trkpt>
      <trkpt lat="44.60382" lon="1.62643">
        <ele>399.5</ele>
        <time>2010-01-01T00:00:00Z</time>
      </trkpt>
      <trkpt lat="44.60394" lon="1.6265">
        <ele>401</ele>
        <time>2010-01-01T00:00:00Z</time>
      </trkpt>
      <trkpt lat="44.60403" lon="1.62658">
        <ele>403.1</ele>
        <time>2010-01-01T00:00:00Z</time>
      </trkpt>
      <trkpt lat="44.60406" lon="1.6266">
        <ele>403.9</ele>
        <time>2010-01-01T00:00:00Z</time>
      </trkpt>
      <trkpt lat="44.60416" lon="1.62672">
        <ele>407.9</ele>
        <time>2010-01-01T00:00:00Z</time>
      </trkpt>
      <trkpt lat="44.60425" lon="1.62687">
        <ele>410</ele>
        <time>2010-01-01T00:00:00Z</time>
      </trkpt>
      <trkpt lat="44.60428" lon="1.62695">
        <ele>410.6</ele>
        <time>2010-01-01T00:00:00Z</time>
      </trkpt>
      <trkpt lat="44.6043" lon="1.62698">
        <ele>410.8</ele>
        <time>2010-01-01T00:00:00Z</time>
      </trkpt>
      <trkpt lat="44.60433" lon="1.62708">
        <ele>411.4</ele>
        <time>2010-01-01T00:00:00Z</time>
      </trkpt>
      <trkpt lat="44.60436" lon="1.62723">
        <ele>412.4</ele>
        <time>2010-01-01T00:00:00Z</time>
      </trkpt>
      <trkpt lat="44.60439" lon="1.62739">
        <ele>413.2</ele>
        <time>2010-01-01T00:00:00Z</time>
      </trkpt>
      <trkpt lat="44.60444" lon="1.62762">
        <ele>418.1</ele>
        <time>2010-01-01T00:00:00Z</time>
      </trkpt>
      <trkpt lat="44.6045" lon="1.62784">
        <ele>418.9</ele>
        <time>2010-01-01T00:00:00Z</time>
      </trkpt>
      <trkpt lat="44.60457" lon="1.62809">
        <ele>419.9</ele>
        <time>2010-01-01T00:00:00Z</time>
      </trkpt>
      <trkpt lat="44.60466" lon="1.62832">
        <ele>420.6</ele>
        <time>2010-01-01T00:00:00Z</time>
      </trkpt>
      <trkpt lat="44.60468" lon="1.62836">
        <ele>422.8</ele>
        <time>2010-01-01T00:00:00Z</time>
      </trkpt>
      <trkpt lat="44.60479" lon="1.62859">
        <ele>423</ele>
        <time>2010-01-01T00:00:00Z</time>
      </trkpt>
      <trkpt lat="44.60489" lon="1.62876">
        <ele>423.5</ele>
        <time>2010-01-01T00:00:00Z</time>
      </trkpt>
      <trkpt lat="44.60494" lon="1.62885">
        <ele>423.9</ele>
        <time>2010-01-01T00:00:00Z</time>
      </trkpt>
      <trkpt lat="44.60503" lon="1.62905">
        <ele>426.7</ele>
        <time>2010-01-01T00:00:00Z</time>
      </trkpt>
      <trkpt lat="44.6051" lon="1.62921">
        <ele>428.3</ele>
        <time>2010-01-01T00:00:00Z</time>
      </trkpt>
      <trkpt lat="44.60515" lon="1.62934">
        <ele>429.1</ele>
        <time>2010-01-01T00:00:00Z</time>
      </trkpt>
      <trkpt lat="44.60518" lon="1.6294">
        <ele>429.4</ele>
        <time>2010-01-01T00:00:00Z</time>
      </trkpt>
      <trkpt lat="44.60524" lon="1.62954">
        <ele>429.9</ele>
        <time>2010-01-01T00:00:00Z</time>
      </trkpt>
      <trkpt lat="44.6053" lon="1.62966">
        <ele>430.3</ele>
        <time>2010-01-01T00:00:00Z</time>
      </trkpt>
      <trkpt lat="44.60537" lon="1.62974">
        <ele>430.7</ele>
        <time>2010-01-01T00:00:00Z</time>
      </trkpt>
      <trkpt lat="44.60546" lon="1.62983">
        <ele>431.4</ele>
        <time>2010-01-01T00:00:00Z</time>
      </trkpt>
      <trkpt lat="44.60561" lon="1.62991">
        <ele>432.9</ele>
        <time>2010-01-01T00:00:00Z</time>
      </trkpt>
      <trkpt lat="44.60565" lon="1.62994">
        <ele>433.5</ele>
        <time>2010-01-01T00:00:00Z</time>
      </trkpt>
      <trkpt lat="44.60586" lon="1.63007">
        <ele>437.6</ele>
        <time>2010-01-01T00:00:00Z</time>
      </trkpt>
      <trkpt lat="44.60591" lon="1.6301">
        <ele>438</ele>
        <time>2010-01-01T00:00:00Z</time>
      </trkpt>
      <trkpt lat="44.60614" lon="1.63025">
        <ele>439.3</ele>
        <time>2010-01-01T00:00:00Z</time>
      </trkpt>
      <trkpt lat="44.60638" lon="1.63043">
        <ele>440.5</ele>
        <time>2010-01-01T00:00:00Z</time>
      </trkpt>
      <trkpt lat="44.60646" lon="1.63049">
        <ele>441</ele>
        <time>2010-01-01T00:00:00Z</time>
      </trkpt>
      <trkpt lat="44.6066" lon="1.63058">
        <ele>441.9</ele>
        <time>2010-01-01T00:00:00Z</time>
      </trkpt>
      <trkpt lat="44.60679" lon="1.63073">
        <ele>446</ele>
        <time>2010-01-01T00:00:00Z</time>
      </trkpt>
      <trkpt lat="44.607" lon="1.63091">
        <ele>444.1</ele>
        <time>2010-01-01T00:00:00Z</time>
      </trkpt>
      <trkpt lat="44.60717" lon="1.63103">
        <ele>444.3</ele>
        <time>2010-01-01T00:00:00Z</time>
      </trkpt>
      <trkpt lat="44.60731" lon="1.63112">
        <ele>444.4</ele>
        <time>2010-01-01T00:00:00Z</time>
      </trkpt>
      <trkpt lat="44.60742" lon="1.63115">
        <ele>444.5</ele>
        <time>2010-01-01T00:00:00Z</time>
      </trkpt>
      <trkpt lat="44.60765" lon="1.63118">
        <ele>446.5</ele>
        <time>2010-01-01T00:00:00Z</time>
      </trkpt>
      <trkpt lat="44.60786" lon="1.63124">
        <ele>446.3</ele>
        <time>2010-01-01T00:00:00Z</time>
      </trkpt>
      <trkpt lat="44.60805" lon="1.63131">
        <ele>446</ele>
        <time>2010-01-01T00:00:00Z</time>
      </trkpt>
      <trkpt lat="44.6082" lon="1.63139">
        <ele>445.4</ele>
        <time>2010-01-01T00:00:00Z</time>
      </trkpt>
      <trkpt lat="44.6083" lon="1.63149">
        <ele>444.3</ele>
        <time>2010-01-01T00:00:00Z</time>
      </trkpt>
      <trkpt lat="44.6084" lon="1.63163">
        <ele>442.4</ele>
        <time>2010-01-01T00:00:00Z</time>
      </trkpt>
      <trkpt lat="44.60848" lon="1.63173">
        <ele>437.6</ele>
        <time>2010-01-01T00:00:00Z</time>
      </trkpt>
      <trkpt lat="44.60856" lon="1.63182">
        <ele>435.7</ele>
        <time>2010-01-01T00:00:00Z</time>
      </trkpt>
      <trkpt lat="44.60866" lon="1.63186">
        <ele>434.7</ele>
        <time>2010-01-01T00:00:00Z</time>
      </trkpt>
      <trkpt lat="44.60878" lon="1.63192">
        <ele>433.9</ele>
        <time>2010-01-01T00:00:00Z</time>
      </trkpt>
      <trkpt lat="44.6089" lon="1.63197">
        <ele>433.4</ele>
        <time>2010-01-01T00:00:00Z</time>
      </trkpt>
      <trkpt lat="44.60902" lon="1.63207">
        <ele>432.8</ele>
        <time>2010-01-01T00:00:00Z</time>
      </trkpt>
      <trkpt lat="44.60904" lon="1.6321">
        <ele>432.6</ele>
        <time>2010-01-01T00:00:00Z</time>
      </trkpt>
      <trkpt lat="44.60921" lon="1.6323">
        <ele>429.4</ele>
        <time>2010-01-01T00:00:00Z</time>
      </trkpt>
      <trkpt lat="44.60933" lon="1.63244">
        <ele>429.1</ele>
        <time>2010-01-01T00:00:00Z</time>
      </trkpt>
      <trkpt lat="44.60932" lon="1.63242">
        <ele>429.1</ele>
        <time>2010-01-01T00:00:00Z</time>
      </trkpt>
      <trkpt lat="44.60933" lon="1.63244">
        <ele>429.1</ele>
        <time>2010-01-01T00:00:00Z</time>
      </trkpt>
      <trkpt lat="44.60932" lon="1.63249">
        <ele>429.1</ele>
        <time>2010-01-01T00:00:00Z</time>
      </trkpt>
      <trkpt lat="44.60943" lon="1.63268">
        <ele>430.9</ele>
        <time>2010-01-01T00:00:00Z</time>
      </trkpt>
      <trkpt lat="44.60965" lon="1.6329">
        <ele>432</ele>
        <time>2010-01-01T00:00:00Z</time>
      </trkpt>
      <trkpt lat="44.60974" lon="1.633">
        <ele>432.8</ele>
        <time>2010-01-01T00:00:00Z</time>
      </trkpt>
      <trkpt lat="44.60977" lon="1.63304">
        <ele>433.1</ele>
        <time>2010-01-01T00:00:00Z</time>
      </trkpt>
      <trkpt lat="44.60992" lon="1.63323">
        <ele>436</ele>
        <time>2010-01-01T00:00:00Z</time>
      </trkpt>
      <trkpt lat="44.61" lon="1.63333">
        <ele>438.9</ele>
        <time>2010-01-01T00:00:00Z</time>
      </trkpt>
      <trkpt lat="44.61011" lon="1.63344">
        <ele>438.6</ele>
        <time>2010-01-01T00:00:00Z</time>
      </trkpt>
      <trkpt lat="44.61027" lon="1.63363">
        <ele>438.4</ele>
        <time>2010-01-01T00:00:00Z</time>
      </trkpt>
      <trkpt lat="44.61049" lon="1.63388">
        <ele>438.4</ele>
        <time>2010-01-01T00:00:00Z</time>
      </trkpt>
      <trkpt lat="44.61057" lon="1.63397">
        <ele>438.3</ele>
        <time>2010-01-01T00:00:00Z</time>
      </trkpt>
      <trkpt lat="44.61075" lon="1.63414">
        <ele>438.1</ele>
        <time>2010-01-01T00:00:00Z</time>
      </trkpt>
      <trkpt lat="44.61091" lon="1.63427">
        <ele>436.2</ele>
        <time>2010-01-01T00:00:00Z</time>
      </trkpt>
      <trkpt lat="44.61109" lon="1.63443">
        <ele>434.4</ele>
        <time>2010-01-01T00:00:00Z</time>
      </trkpt>
      <trkpt lat="44.61133" lon="1.63462">
        <ele>433.5</ele>
        <time>2010-01-01T00:00:00Z</time>
      </trkpt>
      <trkpt lat="44.6114" lon="1.63466">
        <ele>433.4</ele>
        <time>2010-01-01T00:00:00Z</time>
      </trkpt>
      <trkpt lat="44.61158" lon="1.63476">
        <ele>433.3</ele>
        <time>2010-01-01T00:00:00Z</time>
      </trkpt>
      <trkpt lat="44.61184" lon="1.63486">
        <ele>428.3</ele>
        <time>2010-01-01T00:00:00Z</time>
      </trkpt>
      <trkpt lat="44.61207" lon="1.63495">
        <ele>425.9</ele>
        <time>2010-01-01T00:00:00Z</time>
      </trkpt>
      <trkpt lat="44.61221" lon="1.63501">
        <ele>425.9</ele>
        <time>2010-01-01T00:00:00Z</time>
      </trkpt>
      <trkpt lat="44.61234" lon="1.63506">
        <ele>424.6</ele>
        <time>2010-01-01T00:00:00Z</time>
      </trkpt>
      <trkpt lat="44.6125" lon="1.63517">
        <ele>424.2</ele>
        <time>2010-01-01T00:00:00Z</time>
      </trkpt>
      <trkpt lat="44.61258" lon="1.63524">
        <ele>418.3</ele>
        <time>2010-01-01T00:00:00Z</time>
      </trkpt>
      <trkpt lat="44.6126" lon="1.63526">
        <ele>418.1</ele>
        <time>2010-01-01T00:00:00Z</time>
      </trkpt>
      <trkpt lat="44.61267" lon="1.63533">
        <ele>417.5</ele>
        <time>2010-01-01T00:00:00Z</time>
      </trkpt>
      <trkpt lat="44.61284" lon="1.63551">
        <ele>416.5</ele>
        <time>2010-01-01T00:00:00Z</time>
      </trkpt>
      <trkpt lat="44.61294" lon="1.6356">
        <ele>415.8</ele>
        <time>2010-01-01T00:00:00Z</time>
      </trkpt>
      <trkpt lat="44.61296" lon="1.63563">
        <ele>415.7</ele>
        <time>2010-01-01T00:00:00Z</time>
      </trkpt>
      <trkpt lat="44.6133" lon="1.63583">
        <ele>412.5</ele>
        <time>2010-01-01T00:00:00Z</time>
      </trkpt>
      <trkpt lat="44.61334" lon="1.63585">
        <ele>411.7</ele>
        <time>2010-01-01T00:00:00Z</time>
      </trkpt>
      <trkpt lat="44.61342" lon="1.63591">
        <ele>410.6</ele>
        <time>2010-01-01T00:00:00Z</time>
      </trkpt>
      <trkpt lat="44.61355" lon="1.63594">
        <ele>409.5</ele>
        <time>2010-01-01T00:00:00Z</time>
      </trkpt>
      <trkpt lat="44.61363" lon="1.63595">
        <ele>408.9</ele>
        <time>2010-01-01T00:00:00Z</time>
      </trkpt>
      <trkpt lat="44.61382" lon="1.63596">
        <ele>407.7</ele>
        <time>2010-01-01T00:00:00Z</time>
      </trkpt>
      <trkpt lat="44.61397" lon="1.63598">
        <ele>406.8</ele>
        <time>2010-01-01T00:00:00Z</time>
      </trkpt>
      <trkpt lat="44.61414" lon="1.63603">
        <ele>406.2</ele>
        <time>2010-01-01T00:00:00Z</time>
      </trkpt>
      <trkpt lat="44.61419" lon="1.63604">
        <ele>401.8</ele>
        <time>2010-01-01T00:00:00Z</time>
      </trkpt>
      <trkpt lat="44.6142" lon="1.63605">
        <ele>401.7</ele>
        <time>2010-01-01T00:00:00Z</time>
      </trkpt>
      <trkpt lat="44.61427" lon="1.63607">
        <ele>401.4</ele>
        <time>2010-01-01T00:00:00Z</time>
      </trkpt>
      <trkpt lat="44.6143" lon="1.63608">
        <ele>401.2</ele>
        <time>2010-01-01T00:00:00Z</time>
      </trkpt>
      <trkpt lat="44.61436" lon="1.6361">
        <ele>400.8</ele>
        <time>2010-01-01T00:00:00Z</time>
      </trkpt>
      <trkpt lat="44.61452" lon="1.63621">
        <ele>399.9</ele>
        <time>2010-01-01T00:00:00Z</time>
      </trkpt>
      <trkpt lat="44.6146" lon="1.63626">
        <ele>399.4</ele>
        <time>2010-01-01T00:00:00Z</time>
      </trkpt>
      <trkpt lat="44.61481" lon="1.63643">
        <ele>398.3</ele>
        <time>2010-01-01T00:00:00Z</time>
      </trkpt>
      <trkpt lat="44.61499" lon="1.6366">
        <ele>396.8</ele>
        <time>2010-01-01T00:00:00Z</time>
      </trkpt>
      <trkpt lat="44.61511" lon="1.63667">
        <ele>395.1</ele>
        <time>2010-01-01T00:00:00Z</time>
      </trkpt>
      <trkpt lat="44.61514" lon="1.63677">
        <ele>394.8</ele>
        <time>2010-01-01T00:00:00Z</time>
      </trkpt>
      <trkpt lat="44.6152" lon="1.63685">
        <ele>394.4</ele>
        <time>2010-01-01T00:00:00Z</time>
      </trkpt>
      <trkpt lat="44.61524" lon="1.63689">
        <ele>394.2</ele>
        <time>2010-01-01T00:00:00Z</time>
      </trkpt>
      <trkpt lat="44.6153" lon="1.63692">
        <ele>394</ele>
        <time>2010-01-01T00:00:00Z</time>
      </trkpt>
      <trkpt lat="44.61538" lon="1.63696">
        <ele>393.8</ele>
        <time>2010-01-01T00:00:00Z</time>
      </trkpt>
      <trkpt lat="44.61542" lon="1.637">
        <ele>393.7</ele>
        <time>2010-01-01T00:00:00Z</time>
      </trkpt>
      <trkpt lat="44.61544" lon="1.63705">
        <ele>393.7</ele>
        <time>2010-01-01T00:00:00Z</time>
      </trkpt>
      <trkpt lat="44.6155" lon="1.63712">
        <ele>393.6</ele>
        <time>2010-01-01T00:00:00Z</time>
      </trkpt>
      <trkpt lat="44.61556" lon="1.63719">
        <ele>393.5</ele>
        <time>2010-01-01T00:00:00Z</time>
      </trkpt>
      <trkpt lat="44.61563" lon="1.63726">
        <ele>393.4</ele>
        <time>2010-01-01T00:00:00Z</time>
      </trkpt>
      <trkpt lat="44.61572" lon="1.63734">
        <ele>393.3</ele>
        <time>2010-01-01T00:00:00Z</time>
      </trkpt>
      <trkpt lat="44.6158" lon="1.63742">
        <ele>393.2</ele>
        <time>2010-01-01T00:00:00Z</time>
      </trkpt>
      <trkpt lat="44.61586" lon="1.63748">
        <ele>392.3</ele>
        <time>2010-01-01T00:00:00Z</time>
      </trkpt>
      <trkpt lat="44.61588" lon="1.6375">
        <ele>392</ele>
        <time>2010-01-01T00:00:00Z</time>
      </trkpt>
      <trkpt lat="44.61592" lon="1.63754">
        <ele>391.2</ele>
        <time>2010-01-01T00:00:00Z</time>
      </trkpt>
      <trkpt lat="44.61595" lon="1.63758">
        <ele>390.6</ele>
        <time>2010-01-01T00:00:00Z</time>
      </trkpt>
      <trkpt lat="44.616" lon="1.63765">
        <ele>389.7</ele>
        <time>2010-01-01T00:00:00Z</time>
      </trkpt>
      <trkpt lat="44.61603" lon="1.63771">
        <ele>389.3</ele>
        <time>2010-01-01T00:00:00Z</time>
      </trkpt>
      <trkpt lat="44.61606" lon="1.63777">
        <ele>388.9</ele>
        <time>2010-01-01T00:00:00Z</time>
      </trkpt>
      <trkpt lat="44.61607" lon="1.63779">
        <ele>388.8</ele>
        <time>2010-01-01T00:00:00Z</time>
      </trkpt>
      <trkpt lat="44.61609" lon="1.63784">
        <ele>388.6</ele>
        <time>2010-01-01T00:00:00Z</time>
      </trkpt>
      <trkpt lat="44.61614" lon="1.6379">
        <ele>388.3</ele>
        <time>2010-01-01T00:00:00Z</time>
      </trkpt>
      <trkpt lat="44.61619" lon="1.63795">
        <ele>388</ele>
        <time>2010-01-01T00:00:00Z</time>
      </trkpt>
      <trkpt lat="44.61626" lon="1.63802">
        <ele>387.7</ele>
        <time>2010-01-01T00:00:00Z</time>
      </trkpt>
      <trkpt lat="44.61633" lon="1.63813">
        <ele>387.3</ele>
        <time>2010-01-01T00:00:00Z</time>
      </trkpt>
      <trkpt lat="44.61638" lon="1.63819">
        <ele>387.1</ele>
        <time>2010-01-01T00:00:00Z</time>
      </trkpt>
      <trkpt lat="44.6164" lon="1.63822">
        <ele>387</ele>
        <time>2010-01-01T00:00:00Z</time>
      </trkpt>
      <trkpt lat="44.6165" lon="1.63837">
        <ele>384.7</ele>
        <time>2010-01-01T00:00:00Z</time>
      </trkpt>
      <trkpt lat="44.6166" lon="1.6385">
        <ele>384.6</ele>
        <time>2010-01-01T00:00:00Z</time>
      </trkpt>
      <trkpt lat="44.61671" lon="1.63866">
        <ele>383</ele>
        <time>2010-01-01T00:00:00Z</time>
      </trkpt>
      <trkpt lat="44.61681" lon="1.63881">
        <ele>382.7</ele>
        <time>2010-01-01T00:00:00Z</time>
      </trkpt>
      <trkpt lat="44.6169" lon="1.63897">
        <ele>382.6</ele>
        <time>2010-01-01T00:00:00Z</time>
      </trkpt>
      <trkpt lat="44.61698" lon="1.63908">
        <ele>382.5</ele>
        <time>2010-01-01T00:00:00Z</time>
      </trkpt>
      <trkpt lat="44.61699" lon="1.6391">
        <ele>382.5</ele>
        <time>2010-01-01T00:00:00Z</time>
      </trkpt>
      <trkpt lat="44.61704" lon="1.63917">
        <ele>380.3</ele>
        <time>2010-01-01T00:00:00Z</time>
      </trkpt>
      <trkpt lat="44.6171" lon="1.63925">
        <ele>380</ele>
        <time>2010-01-01T00:00:00Z</time>
      </trkpt>
      <trkpt lat="44.61719" lon="1.63936">
        <ele>379.6</ele>
        <time>2010-01-01T00:00:00Z</time>
      </trkpt>
      <trkpt lat="44.61728" lon="1.63947">
        <ele>379.2</ele>
        <time>2010-01-01T00:00:00Z</time>
      </trkpt>
      <trkpt lat="44.61736" lon="1.63955">
        <ele>379</ele>
        <time>2010-01-01T00:00:00Z</time>
      </trkpt>
      <trkpt lat="44.61743" lon="1.63962">
        <ele>378.7</ele>
        <time>2010-01-01T00:00:00Z</time>
      </trkpt>
      <trkpt lat="44.61745" lon="1.63964">
        <ele>378.6</ele>
        <time>2010-01-01T00:00:00Z</time>
      </trkpt>
      <trkpt lat="44.61751" lon="1.63971">
        <ele>376.1</ele>
        <time>2010-01-01T00:00:00Z</time>
      </trkpt>
      <trkpt lat="44.6176" lon="1.63978">
        <ele>375.9</ele>
        <time>2010-01-01T00:00:00Z</time>
      </trkpt>
      <trkpt lat="44.61766" lon="1.63983">
        <ele>375.7</ele>
        <time>2010-01-01T00:00:00Z</time>
      </trkpt>
      <trkpt lat="44.61769" lon="1.63985">
        <ele>375.6</ele>
        <time>2010-01-01T00:00:00Z</time>
      </trkpt>
      <trkpt lat="44.61781" lon="1.63993">
        <ele>375</ele>
        <time>2010-01-01T00:00:00Z</time>
      </trkpt>
      <trkpt lat="44.61788" lon="1.63999">
        <ele>374.5</ele>
        <time>2010-01-01T00:00:00Z</time>
      </trkpt>
      <trkpt lat="44.61793" lon="1.64005">
        <ele>370.9</ele>
        <time>2010-01-01T00:00:00Z</time>
      </trkpt>
      <trkpt lat="44.61798" lon="1.64013">
        <ele>370.5</ele>
        <time>2010-01-01T00:00:00Z</time>
      </trkpt>
      <trkpt lat="44.61804" lon="1.64021">
        <ele>370.1</ele>
        <time>2010-01-01T00:00:00Z</time>
      </trkpt>
      <trkpt lat="44.61813" lon="1.64031">
        <ele>369.7</ele>
        <time>2010-01-01T00:00:00Z</time>
      </trkpt>
      <trkpt lat="44.61822" lon="1.6404">
        <ele>369.4</ele>
        <time>2010-01-01T00:00:00Z</time>
      </trkpt>
      <trkpt lat="44.6183" lon="1.64048">
        <ele>369.1</ele>
        <time>2010-01-01T00:00:00Z</time>
      </trkpt>
      <trkpt lat="44.61837" lon="1.64056">
        <ele>368.6</ele>
        <time>2010-01-01T00:00:00Z</time>
      </trkpt>
      <trkpt lat="44.61843" lon="1.64062">
        <ele>368.5</ele>
        <time>2010-01-01T00:00:00Z</time>
      </trkpt>
      <trkpt lat="44.61849" lon="1.64067">
        <ele>368.4</ele>
        <time>2010-01-01T00:00:00Z</time>
      </trkpt>
      <trkpt lat="44.61854" lon="1.64069">
        <ele>368.4</ele>
        <time>2010-01-01T00:00:00Z</time>
      </trkpt>
      <trkpt lat="44.61857" lon="1.64069">
        <ele>368.4</ele>
        <time>2010-01-01T00:00:00Z</time>
      </trkpt>
      <trkpt lat="44.61861" lon="1.64069">
        <ele>368.4</ele>
        <time>2010-01-01T00:00:00Z</time>
      </trkpt>
      <trkpt lat="44.61867" lon="1.64067">
        <ele>368.4</ele>
        <time>2010-01-01T00:00:00Z</time>
      </trkpt>
      <trkpt lat="44.61875" lon="1.64063">
        <ele>368.5</ele>
        <time>2010-01-01T00:00:00Z</time>
      </trkpt>
      <trkpt lat="44.61885" lon="1.64061">
        <ele>368.4</ele>
        <time>2010-01-01T00:00:00Z</time>
      </trkpt>
      <trkpt lat="44.61892" lon="1.6406">
        <ele>368.3</ele>
        <time>2010-01-01T00:00:00Z</time>
      </trkpt>
      <trkpt lat="44.61899" lon="1.6406">
        <ele>368.3</ele>
        <time>2010-01-01T00:00:00Z</time>
      </trkpt>
      <trkpt lat="44.61907" lon="1.64061">
        <ele>368.2</ele>
        <time>2010-01-01T00:00:00Z</time>
      </trkpt>
      <trkpt lat="44.61918" lon="1.64063">
        <ele>368.2</ele>
        <time>2010-01-01T00:00:00Z</time>
      </trkpt>
      <trkpt lat="44.61929" lon="1.64066">
        <ele>368.3</ele>
        <time>2010-01-01T00:00:00Z</time>
      </trkpt>
      <trkpt lat="44.61941" lon="1.64067">
        <ele>368.6</ele>
        <time>2010-01-01T00:00:00Z</time>
      </trkpt>
      <trkpt lat="44.61944" lon="1.64071">
        <ele>368.6</ele>
        <time>2010-01-01T00:00:00Z</time>
      </trkpt>
      <trkpt lat="44.6195" lon="1.64078">
        <ele>368.7</ele>
        <time>2010-01-01T00:00:00Z</time>
      </trkpt>
      <trkpt lat="44.61954" lon="1.64081">
        <ele>368.9</ele>
        <time>2010-01-01T00:00:00Z</time>
      </trkpt>
      <trkpt lat="44.6196" lon="1.64085">
        <ele>368</ele>
        <time>2010-01-01T00:00:00Z</time>
      </trkpt>
      <trkpt lat="44.6197" lon="1.64089">
        <ele>368.4</ele>
        <time>2010-01-01T00:00:00Z</time>
      </trkpt>
      <trkpt lat="44.61974" lon="1.64091">
        <ele>368.5</ele>
        <time>2010-01-01T00:00:00Z</time>
      </trkpt>
      <trkpt lat="44.61987" lon="1.64094">
        <ele>369.2</ele>
        <time>2010-01-01T00:00:00Z</time>
      </trkpt>
      <trkpt lat="44.62006" lon="1.64099">
        <ele>370.7</ele>
        <time>2010-01-01T00:00:00Z</time>
      </trkpt>
      <trkpt lat="44.62022" lon="1.64101">
        <ele>370.6</ele>
        <time>2010-01-01T00:00:00Z</time>
      </trkpt>
      <trkpt lat="44.62028" lon="1.64103">
        <ele>370.6</ele>
        <time>2010-01-01T00:00:00Z</time>
      </trkpt>
      <trkpt lat="44.6203" lon="1.64103">
        <ele>370.7</ele>
        <time>2010-01-01T00:00:00Z</time>
      </trkpt>
      <trkpt lat="44.62042" lon="1.64106">
        <ele>370.7</ele>
        <time>2010-01-01T00:00:00Z</time>
      </trkpt>
      <trkpt lat="44.62044" lon="1.64107">
        <ele>370.7</ele>
        <time>2010-01-01T00:00:00Z</time>
      </trkpt>
      <trkpt lat="44.62051" lon="1.64109">
        <ele>370.8</ele>
        <time>2010-01-01T00:00:00Z</time>
      </trkpt>
      <trkpt lat="44.62059" lon="1.64112">
        <ele>370.8</ele>
        <time>2010-01-01T00:00:00Z</time>
      </trkpt>
      <trkpt lat="44.62061" lon="1.64114">
        <ele>370.8</ele>
        <time>2010-01-01T00:00:00Z</time>
      </trkpt>
      <trkpt lat="44.62066" lon="1.64118">
        <ele>370.8</ele>
        <time>2010-01-01T00:00:00Z</time>
      </trkpt>
      <trkpt lat="44.62072" lon="1.64126">
        <ele>370.8</ele>
        <time>2010-01-01T00:00:00Z</time>
      </trkpt>
      <trkpt lat="44.6208" lon="1.6414">
        <ele>370.8</ele>
        <time>2010-01-01T00:00:00Z</time>
      </trkpt>
      <trkpt lat="44.62088" lon="1.64157">
        <ele>372.5</ele>
        <time>2010-01-01T00:00:00Z</time>
      </trkpt>
      <trkpt lat="44.62095" lon="1.6417">
        <ele>371.3</ele>
        <time>2010-01-01T00:00:00Z</time>
      </trkpt>
      <trkpt lat="44.62097" lon="1.64174">
        <ele>371.3</ele>
        <time>2010-01-01T00:00:00Z</time>
      </trkpt>
      <trkpt lat="44.62101" lon="1.64183">
        <ele>371.4</ele>
        <time>2010-01-01T00:00:00Z</time>
      </trkpt>
      <trkpt lat="44.62104" lon="1.64191">
        <ele>371.3</ele>
        <time>2010-01-01T00:00:00Z</time>
      </trkpt>
      <trkpt lat="44.62106" lon="1.64198">
        <ele>371.2</ele>
        <time>2010-01-01T00:00:00Z</time>
      </trkpt>
      <trkpt lat="44.62109" lon="1.64207">
        <ele>371.1</ele>
        <time>2010-01-01T00:00:00Z</time>
      </trkpt>
      <trkpt lat="44.62113" lon="1.64215">
        <ele>370.9</ele>
        <time>2010-01-01T00:00:00Z</time>
      </trkpt>
      <trkpt lat="44.62115" lon="1.64224">
        <ele>370.7</ele>
        <time>2010-01-01T00:00:00Z</time>
      </trkpt>
      <trkpt lat="44.62119" lon="1.64236">
        <ele>370.5</ele>
        <time>2010-01-01T00:00:00Z</time>
      </trkpt>
      <trkpt lat="44.62127" lon="1.64254">
        <ele>368.1</ele>
        <time>2010-01-01T00:00:00Z</time>
      </trkpt>
      <trkpt lat="44.6213" lon="1.64266">
        <ele>368.1</ele>
        <time>2010-01-01T00:00:00Z</time>
      </trkpt>
      <trkpt lat="44.62131" lon="1.64272">
        <ele>368</ele>
        <time>2010-01-01T00:00:00Z</time>
      </trkpt>
      <trkpt lat="44.62133" lon="1.64285">
        <ele>367.9</ele>
        <time>2010-01-01T00:00:00Z</time>
      </trkpt>
      <trkpt lat="44.62133" lon="1.64294">
        <ele>367.8</ele>
        <time>2010-01-01T00:00:00Z</time>
      </trkpt>
      <trkpt lat="44.62133" lon="1.64299">
        <ele>367.7</ele>
        <time>2010-01-01T00:00:00Z</time>
      </trkpt>
      <trkpt lat="44.62135" lon="1.64312">
        <ele>367.7</ele>
        <time>2010-01-01T00:00:00Z</time>
      </trkpt>
      <trkpt lat="44.62138" lon="1.64326">
        <ele>367.8</ele>
        <time>2010-01-01T00:00:00Z</time>
      </trkpt>
      <trkpt lat="44.62138" lon="1.64328">
        <ele>367.8</ele>
        <time>2010-01-01T00:00:00Z</time>
      </trkpt>
      <trkpt lat="44.62141" lon="1.6434">
        <ele>366.3</ele>
        <time>2010-01-01T00:00:00Z</time>
      </trkpt>
      <trkpt lat="44.62146" lon="1.64361">
        <ele>366</ele>
        <time>2010-01-01T00:00:00Z</time>
      </trkpt>
      <trkpt lat="44.62154" lon="1.644">
        <ele>366.4</ele>
        <time>2010-01-01T00:00:00Z</time>
      </trkpt>
      <trkpt lat="44.62156" lon="1.64423">
        <ele>366.4</ele>
        <time>2010-01-01T00:00:00Z</time>
      </trkpt>
      <trkpt lat="44.62156" lon="1.64428">
        <ele>366</ele>
        <time>2010-01-01T00:00:00Z</time>
      </trkpt>
      <trkpt lat="44.62156" lon="1.64433">
        <ele>365.6</ele>
        <time>2010-01-01T00:00:00Z</time>
      </trkpt>
      <trkpt lat="44.62156" lon="1.64435">
        <ele>365.4</ele>
        <time>2010-01-01T00:00:00Z</time>
      </trkpt>
      <trkpt lat="44.62155" lon="1.64452">
        <ele>364.4</ele>
        <time>2010-01-01T00:00:00Z</time>
      </trkpt>
      <trkpt lat="44.62152" lon="1.64467">
        <ele>364</ele>
        <time>2010-01-01T00:00:00Z</time>
      </trkpt>
      <trkpt lat="44.62151" lon="1.64484">
        <ele>364.2</ele>
        <time>2010-01-01T00:00:00Z</time>
      </trkpt>
      <trkpt lat="44.62152" lon="1.64497">
        <ele>364.5</ele>
        <time>2010-01-01T00:00:00Z</time>
      </trkpt>
      <trkpt lat="44.62154" lon="1.64502">
        <ele>364</ele>
        <time>2010-01-01T00:00:00Z</time>
      </trkpt>
      <trkpt lat="44.62156" lon="1.64507">
        <ele>364</ele>
        <time>2010-01-01T00:00:00Z</time>
      </trkpt>
      <trkpt lat="44.62161" lon="1.64516">
        <ele>363.6</ele>
        <time>2010-01-01T00:00:00Z</time>
      </trkpt>
      <trkpt lat="44.62167" lon="1.64525">
        <ele>367.1</ele>
        <time>2010-01-01T00:00:00Z</time>
      </trkpt>
      <trkpt lat="44.62175" lon="1.64535">
        <ele>367.2</ele>
        <time>2010-01-01T00:00:00Z</time>
      </trkpt>
      <trkpt lat="44.62177" lon="1.64537">
        <ele>367.2</ele>
        <time>2010-01-01T00:00:00Z</time>
      </trkpt>
      <trkpt lat="44.6218" lon="1.6454">
        <ele>367.2</ele>
        <time>2010-01-01T00:00:00Z</time>
      </trkpt>
      <trkpt lat="44.62187" lon="1.64545">
        <ele>367.3</ele>
        <time>2010-01-01T00:00:00Z</time>
      </trkpt>
      <trkpt lat="44.62195" lon="1.6455">
        <ele>367.5</ele>
        <time>2010-01-01T00:00:00Z</time>
      </trkpt>
      <trkpt lat="44.62201" lon="1.64554">
        <ele>367.7</ele>
        <time>2010-01-01T00:00:00Z</time>
      </trkpt>
      <trkpt lat="44.62209" lon="1.64558">
        <ele>368.1</ele>
        <time>2010-01-01T00:00:00Z</time>
      </trkpt>
      <trkpt lat="44.62214" lon="1.64563">
        <ele>368.2</ele>
        <time>2010-01-01T00:00:00Z</time>
      </trkpt>
      <trkpt lat="44.62216" lon="1.64566">
        <ele>368.3</ele>
        <time>2010-01-01T00:00:00Z</time>
      </trkpt>
      <trkpt lat="44.62218" lon="1.64569">
        <ele>368.4</ele>
        <time>2010-01-01T00:00:00Z</time>
      </trkpt>
      <trkpt lat="44.6222" lon="1.64574">
        <ele>368.4</ele>
        <time>2010-01-01T00:00:00Z</time>
      </trkpt>
      <trkpt lat="44.62222" lon="1.64579">
        <ele>368.5</ele>
        <time>2010-01-01T00:00:00Z</time>
      </trkpt>
      <trkpt lat="44.62222" lon="1.64581">
        <ele>368.5</ele>
        <time>2010-01-01T00:00:00Z</time>
      </trkpt>
      <trkpt lat="44.62223" lon="1.64587">
        <ele>367.3</ele>
        <time>2010-01-01T00:00:00Z</time>
      </trkpt>
      <trkpt lat="44.62223" lon="1.64594">
        <ele>367.2</ele>
        <time>2010-01-01T00:00:00Z</time>
      </trkpt>
      <trkpt lat="44.62223" lon="1.64601">
        <ele>367.2</ele>
        <time>2010-01-01T00:00:00Z</time>
      </trkpt>
      <trkpt lat="44.62221" lon="1.64608">
        <ele>367</ele>
        <time>2010-01-01T00:00:00Z</time>
      </trkpt>
      <trkpt lat="44.62225" lon="1.64611">
        <ele>367.2</ele>
        <time>2010-01-01T00:00:00Z</time>
      </trkpt>
      <trkpt lat="44.62229" lon="1.64616">
        <ele>367.4</ele>
        <time>2010-01-01T00:00:00Z</time>
      </trkpt>
      <trkpt lat="44.62239" lon="1.64623">
        <ele>367.9</ele>
        <time>2010-01-01T00:00:00Z</time>
      </trkpt>
      <trkpt lat="44.62247" lon="1.64631">
        <ele>368.4</ele>
        <time>2010-01-01T00:00:00Z</time>
      </trkpt>
      <trkpt lat="44.62247" lon="1.64632">
        <ele>368.4</ele>
        <time>2010-01-01T00:00:00Z</time>
      </trkpt>
      <trkpt lat="44.6225" lon="1.6464">
        <ele>376</ele>
        <time>2010-01-01T00:00:00Z</time>
      </trkpt>
      <trkpt lat="44.62255" lon="1.64656">
        <ele>375.1</ele>
        <time>2010-01-01T00:00:00Z</time>
      </trkpt>
      <trkpt lat="44.62263" lon="1.64677">
        <ele>376.3</ele>
        <time>2010-01-01T00:00:00Z</time>
      </trkpt>
      <trkpt lat="44.62264" lon="1.64678">
        <ele>376.5</ele>
        <time>2010-01-01T00:00:00Z</time>
      </trkpt>
      <trkpt lat="44.62264" lon="1.6468">
        <ele>376.6</ele>
        <time>2010-01-01T00:00:00Z</time>
      </trkpt>
      <trkpt lat="44.62273" lon="1.64699">
        <ele>378.2</ele>
        <time>2010-01-01T00:00:00Z</time>
      </trkpt>
      <trkpt lat="44.62286" lon="1.6472">
        <ele>379.2</ele>
        <time>2010-01-01T00:00:00Z</time>
      </trkpt>
      <trkpt lat="44.62286" lon="1.64721">
        <ele>379.2</ele>
        <time>2010-01-01T00:00:00Z</time>
      </trkpt>
      <trkpt lat="44.62295" lon="1.64734">
        <ele>380.1</ele>
        <time>2010-01-01T00:00:00Z</time>
      </trkpt>
      <trkpt lat="44.62299" lon="1.64738">
        <ele>380.6</ele>
        <time>2010-01-01T00:00:00Z</time>
      </trkpt>
      <trkpt lat="44.62306" lon="1.64746">
        <ele>381.6</ele>
        <time>2010-01-01T00:00:00Z</time>
      </trkpt>
      <trkpt lat="44.62316" lon="1.64764">
        <ele>382</ele>
        <time>2010-01-01T00:00:00Z</time>
      </trkpt>
      <trkpt lat="44.62328" lon="1.6479">
        <ele>381.5</ele>
        <time>2010-01-01T00:00:00Z</time>
      </trkpt>
      <trkpt lat="44.62333" lon="1.64809">
        <ele>382.4</ele>
        <time>2010-01-01T00:00:00Z</time>
      </trkpt>
      <trkpt lat="44.62337" lon="1.64826">
        <ele>389.4</ele>
        <time>2010-01-01T00:00:00Z</time>
      </trkpt>
      <trkpt lat="44.62338" lon="1.64844">
        <ele>390</ele>
        <time>2010-01-01T00:00:00Z</time>
      </trkpt>
      <trkpt lat="44.62338" lon="1.64861">
        <ele>391.8</ele>
        <time>2010-01-01T00:00:00Z</time>
      </trkpt>
      <trkpt lat="44.62341" lon="1.6488">
        <ele>392.2</ele>
        <time>2010-01-01T00:00:00Z</time>
      </trkpt>
      <trkpt lat="44.62349" lon="1.64909">
        <ele>390.7</ele>
        <time>2010-01-01T00:00:00Z</time>
      </trkpt>
      <trkpt lat="44.62352" lon="1.64919">
        <ele>390</ele>
        <time>2010-01-01T00:00:00Z</time>
      </trkpt>
      <trkpt lat="44.62354" lon="1.64926">
        <ele>390.5</ele>
        <time>2010-01-01T00:00:00Z</time>
      </trkpt>
      <trkpt lat="44.62361" lon="1.6494">
        <ele>391.6</ele>
        <time>2010-01-01T00:00:00Z</time>
      </trkpt>
      <trkpt lat="44.62361" lon="1.64941">
        <ele>391.7</ele>
        <time>2010-01-01T00:00:00Z</time>
      </trkpt>
      <trkpt lat="44.62371" lon="1.64953">
        <ele>392.5</ele>
        <time>2010-01-01T00:00:00Z</time>
      </trkpt>
      <trkpt lat="44.62381" lon="1.64959">
        <ele>393.2</ele>
        <time>2010-01-01T00:00:00Z</time>
      </trkpt>
      <trkpt lat="44.62393" lon="1.6497">
        <ele>393.8</ele>
        <time>2010-01-01T00:00:00Z</time>
      </trkpt>
      <trkpt lat="44.62395" lon="1.64973">
        <ele>393.9</ele>
        <time>2010-01-01T00:00:00Z</time>
      </trkpt>
      <trkpt lat="44.62403" lon="1.64982">
        <ele>394.3</ele>
        <time>2010-01-01T00:00:00Z</time>
      </trkpt>
      <trkpt lat="44.62415" lon="1.64993">
        <ele>395.3</ele>
        <time>2010-01-01T00:00:00Z</time>
      </trkpt>
      <trkpt lat="44.6243" lon="1.65002">
        <ele>394.5</ele>
        <time>2010-01-01T00:00:00Z</time>
      </trkpt>
      <trkpt lat="44.62445" lon="1.65012">
        <ele>393.6</ele>
        <time>2010-01-01T00:00:00Z</time>
      </trkpt>
      <trkpt lat="44.62446" lon="1.65013">
        <ele>393.5</ele>
        <time>2010-01-01T00:00:00Z</time>
      </trkpt>
      <trkpt lat="44.62455" lon="1.65018">
        <ele>393.3</ele>
        <time>2010-01-01T00:00:00Z</time>
      </trkpt>
      <trkpt lat="44.62468" lon="1.6502">
        <ele>393.4</ele>
        <time>2010-01-01T00:00:00Z</time>
      </trkpt>
      <trkpt lat="44.62483" lon="1.65026">
        <ele>393.5</ele>
        <time>2010-01-01T00:00:00Z</time>
      </trkpt>
      <trkpt lat="44.62498" lon="1.65034">
        <ele>392.9</ele>
        <time>2010-01-01T00:00:00Z</time>
      </trkpt>
      <trkpt lat="44.62512" lon="1.65041">
        <ele>393.6</ele>
        <time>2010-01-01T00:00:00Z</time>
      </trkpt>
      <trkpt lat="44.62518" lon="1.65044">
        <ele>393.4</ele>
        <time>2010-01-01T00:00:00Z</time>
      </trkpt>
      <trkpt lat="44.62527" lon="1.65049">
        <ele>393.2</ele>
        <time>2010-01-01T00:00:00Z</time>
      </trkpt>
      <trkpt lat="44.62542" lon="1.65057">
        <ele>393.1</ele>
        <time>2010-01-01T00:00:00Z</time>
      </trkpt>
      <trkpt lat="44.62555" lon="1.65063">
        <ele>393</ele>
        <time>2010-01-01T00:00:00Z</time>
      </trkpt>
      <trkpt lat="44.62563" lon="1.65068">
        <ele>392.8</ele>
        <time>2010-01-01T00:00:00Z</time>
      </trkpt>
      <trkpt lat="44.62583" lon="1.65077">
        <ele>391.7</ele>
        <time>2010-01-01T00:00:00Z</time>
      </trkpt>
      <trkpt lat="44.62599" lon="1.65084">
        <ele>388.8</ele>
        <time>2010-01-01T00:00:00Z</time>
      </trkpt>
      <trkpt lat="44.62615" lon="1.65087">
        <ele>387.8</ele>
        <time>2010-01-01T00:00:00Z</time>
      </trkpt>
      <trkpt lat="44.62629" lon="1.65086">
        <ele>387.7</ele>
        <time>2010-01-01T00:00:00Z</time>
      </trkpt>
      <trkpt lat="44.6264" lon="1.65083">
        <ele>393.4</ele>
        <time>2010-01-01T00:00:00Z</time>
      </trkpt>
      <trkpt lat="44.62646" lon="1.65079">
        <ele>393.2</ele>
        <time>2010-01-01T00:00:00Z</time>
      </trkpt>
      <trkpt lat="44.62653" lon="1.65076">
        <ele>392.9</ele>
        <time>2010-01-01T00:00:00Z</time>
      </trkpt>
      <trkpt lat="44.6267" lon="1.65072">
        <ele>390.4</ele>
        <time>2010-01-01T00:00:00Z</time>
      </trkpt>
      <trkpt lat="44.62685" lon="1.65069">
        <ele>389.8</ele>
        <time>2010-01-01T00:00:00Z</time>
      </trkpt>
      <trkpt lat="44.6269" lon="1.65068">
        <ele>389.5</ele>
        <time>2010-01-01T00:00:00Z</time>
      </trkpt>
      <trkpt lat="44.62705" lon="1.65061">
        <ele>388.6</ele>
        <time>2010-01-01T00:00:00Z</time>
      </trkpt>
      <trkpt lat="44.62728" lon="1.65053">
        <ele>387.2</ele>
        <time>2010-01-01T00:00:00Z</time>
      </trkpt>
      <trkpt lat="44.62751" lon="1.65049">
        <ele>378.2</ele>
        <time>2010-01-01T00:00:00Z</time>
      </trkpt>
      <trkpt lat="44.6276" lon="1.65047">
        <ele>377.8</ele>
        <time>2010-01-01T00:00:00Z</time>
      </trkpt>
      <trkpt lat="44.62775" lon="1.65044">
        <ele>376.9</ele>
        <time>2010-01-01T00:00:00Z</time>
      </trkpt>
      <trkpt lat="44.62789" lon="1.6504">
        <ele>375.8</ele>
        <time>2010-01-01T00:00:00Z</time>
      </trkpt>
      <trkpt lat="44.62801" lon="1.65032">
        <ele>374.8</ele>
        <time>2010-01-01T00:00:00Z</time>
      </trkpt>
      <trkpt lat="44.62804" lon="1.6503">
        <ele>374.5</ele>
        <time>2010-01-01T00:00:00Z</time>
      </trkpt>
      <trkpt lat="44.62814" lon="1.6502">
        <ele>373.4</ele>
        <time>2010-01-01T00:00:00Z</time>
      </trkpt>
      <trkpt lat="44.62822" lon="1.65009">
        <ele>371.9</ele>
        <time>2010-01-01T00:00:00Z</time>
      </trkpt>
      <trkpt lat="44.62825" lon="1.65004">
        <ele>371.1</ele>
        <time>2010-01-01T00:00:00Z</time>
      </trkpt>
      <trkpt lat="44.62831" lon="1.64993">
        <ele>371.6</ele>
        <time>2010-01-01T00:00:00Z</time>
      </trkpt>
      <trkpt lat="44.62841" lon="1.6498">
        <ele>369.6</ele>
        <time>2010-01-01T00:00:00Z</time>
      </trkpt>
      <trkpt lat="44.62845" lon="1.64973">
        <ele>369.8</ele>
        <time>2010-01-01T00:00:00Z</time>
      </trkpt>
      <trkpt lat="44.6285" lon="1.64963">
        <ele>370.2</ele>
        <time>2010-01-01T00:00:00Z</time>
      </trkpt>
      <trkpt lat="44.62866" lon="1.64937">
        <ele>371.2</ele>
        <time>2010-01-01T00:00:00Z</time>
      </trkpt>
      <trkpt lat="44.62873" lon="1.64929">
        <ele>371.5</ele>
        <time>2010-01-01T00:00:00Z</time>
      </trkpt>
      <trkpt lat="44.62879" lon="1.64927">
        <ele>371.7</ele>
        <time>2010-01-01T00:00:00Z</time>
      </trkpt>
      <trkpt lat="44.62883" lon="1.64925">
        <ele>371.8</ele>
        <time>2010-01-01T00:00:00Z</time>
      </trkpt>
      <trkpt lat="44.62895" lon="1.64923">
        <ele>372.5</ele>
        <time>2010-01-01T00:00:00Z</time>
      </trkpt>
      <trkpt lat="44.62906" lon="1.64922">
        <ele>373.6</ele>
        <time>2010-01-01T00:00:00Z</time>
      </trkpt>
      <trkpt lat="44.62923" lon="1.64924">
        <ele>374.1</ele>
        <time>2010-01-01T00:00:00Z</time>
      </trkpt>
      <trkpt lat="44.62941" lon="1.64923">
        <ele>372.8</ele>
        <time>2010-01-01T00:00:00Z</time>
      </trkpt>
      <trkpt lat="44.62952" lon="1.64921">
        <ele>372.6</ele>
        <time>2010-01-01T00:00:00Z</time>
      </trkpt>
      <trkpt lat="44.62953" lon="1.64921">
        <ele>372.6</ele>
        <time>2010-01-01T00:00:00Z</time>
      </trkpt>
      <trkpt lat="44.62963" lon="1.64914">
        <ele>381.3</ele>
        <time>2010-01-01T00:00:00Z</time>
      </trkpt>
      <trkpt lat="44.62966" lon="1.64911">
        <ele>381.4</ele>
        <time>2010-01-01T00:00:00Z</time>
      </trkpt>
      <trkpt lat="44.62974" lon="1.64902">
        <ele>381.7</ele>
        <time>2010-01-01T00:00:00Z</time>
      </trkpt>
      <trkpt lat="44.62984" lon="1.6489">
        <ele>382.4</ele>
        <time>2010-01-01T00:00:00Z</time>
      </trkpt>
      <trkpt lat="44.62995" lon="1.64882">
        <ele>383.1</ele>
        <time>2010-01-01T00:00:00Z</time>
      </trkpt>
      <trkpt lat="44.62996" lon="1.64881">
        <ele>383.2</ele>
        <time>2010-01-01T00:00:00Z</time>
      </trkpt>
      <trkpt lat="44.63001" lon="1.64874">
        <ele>382.1</ele>
        <time>2010-01-01T00:00:00Z</time>
      </trkpt>
      <trkpt lat="44.63005" lon="1.64866">
        <ele>382.9</ele>
        <time>2010-01-01T00:00:00Z</time>
      </trkpt>
      <trkpt lat="44.63012" lon="1.64857">
        <ele>383.8</ele>
        <time>2010-01-01T00:00:00Z</time>
      </trkpt>
      <trkpt lat="44.63021" lon="1.64844">
        <ele>384.4</ele>
        <time>2010-01-01T00:00:00Z</time>
      </trkpt>
      <trkpt lat="44.6303" lon="1.6483">
        <ele>391</ele>
        <time>2010-01-01T00:00:00Z</time>
      </trkpt>
      <trkpt lat="44.63038" lon="1.64818">
        <ele>391.1</ele>
        <time>2010-01-01T00:00:00Z</time>
      </trkpt>
      <trkpt lat="44.63047" lon="1.64804">
        <ele>391.6</ele>
        <time>2010-01-01T00:00:00Z</time>
      </trkpt>
      <trkpt lat="44.63053" lon="1.64796">
        <ele>392</ele>
        <time>2010-01-01T00:00:00Z</time>
      </trkpt>
      <trkpt lat="44.63056" lon="1.64792">
        <ele>392.3</ele>
        <time>2010-01-01T00:00:00Z</time>
      </trkpt>
      <trkpt lat="44.63062" lon="1.64786">
        <ele>392.7</ele>
        <time>2010-01-01T00:00:00Z</time>
      </trkpt>
      <trkpt lat="44.6307" lon="1.64778">
        <ele>393.3</ele>
        <time>2010-01-01T00:00:00Z</time>
      </trkpt>
      <trkpt lat="44.63079" lon="1.6477">
        <ele>394.2</ele>
        <time>2010-01-01T00:00:00Z</time>
      </trkpt>
      <trkpt lat="44.63085" lon="1.64762">
        <ele>394.3</ele>
        <time>2010-01-01T00:00:00Z</time>
      </trkpt>
      <trkpt lat="44.63088" lon="1.64754">
        <ele>395.5</ele>
        <time>2010-01-01T00:00:00Z</time>
      </trkpt>
      <trkpt lat="44.63088" lon="1.64748">
        <ele>397.4</ele>
        <time>2010-01-01T00:00:00Z</time>
      </trkpt>
      <trkpt lat="44.63087" lon="1.64746">
        <ele>397.5</ele>
        <time>2010-01-01T00:00:00Z</time>
      </trkpt>
      <trkpt lat="44.63087" lon="1.6474">
        <ele>397.8</ele>
        <time>2010-01-01T00:00:00Z</time>
      </trkpt>
      <trkpt lat="44.63086" lon="1.64737">
        <ele>398</ele>
        <time>2010-01-01T00:00:00Z</time>
      </trkpt>
      <trkpt lat="44.63085" lon="1.64729">
        <ele>398.4</ele>
        <time>2010-01-01T00:00:00Z</time>
      </trkpt>
      <trkpt lat="44.63085" lon="1.64719">
        <ele>398.8</ele>
        <time>2010-01-01T00:00:00Z</time>
      </trkpt>
      <trkpt lat="44.63085" lon="1.64716">
        <ele>398.9</ele>
        <time>2010-01-01T00:00:00Z</time>
      </trkpt>
      <trkpt lat="44.63089" lon="1.64708">
        <ele>399.2</ele>
        <time>2010-01-01T00:00:00Z</time>
      </trkpt>
      <trkpt lat="44.63092" lon="1.64705">
        <ele>399.3</ele>
        <time>2010-01-01T00:00:00Z</time>
      </trkpt>
      <trkpt lat="44.63098" lon="1.64699">
        <ele>399.4</ele>
        <time>2010-01-01T00:00:00Z</time>
      </trkpt>
      <trkpt lat="44.63104" lon="1.64691">
        <ele>399.6</ele>
        <time>2010-01-01T00:00:00Z</time>
      </trkpt>
      <trkpt lat="44.63109" lon="1.6468">
        <ele>399.8</ele>
        <time>2010-01-01T00:00:00Z</time>
      </trkpt>
      <trkpt lat="44.63115" lon="1.6467">
        <ele>400</ele>
        <time>2010-01-01T00:00:00Z</time>
      </trkpt>
      <trkpt lat="44.6312" lon="1.64666">
        <ele>399.8</ele>
        <time>2010-01-01T00:00:00Z</time>
      </trkpt>
      <trkpt lat="44.63127" lon="1.64662">
        <ele>400</ele>
        <time>2010-01-01T00:00:00Z</time>
      </trkpt>
      <trkpt lat="44.63134" lon="1.64657">
        <ele>400.1</ele>
        <time>2010-01-01T00:00:00Z</time>
      </trkpt>
      <trkpt lat="44.6314" lon="1.64647">
        <ele>400.1</ele>
        <time>2010-01-01T00:00:00Z</time>
      </trkpt>
      <trkpt lat="44.63145" lon="1.64628">
        <ele>399.6</ele>
        <time>2010-01-01T00:00:00Z</time>
      </trkpt>
      <trkpt lat="44.63147" lon="1.64622">
        <ele>399.4</ele>
        <time>2010-01-01T00:00:00Z</time>
      </trkpt>
      <trkpt lat="44.63151" lon="1.64614">
        <ele>399.2</ele>
        <time>2010-01-01T00:00:00Z</time>
      </trkpt>
      <trkpt lat="44.63156" lon="1.64606">
        <ele>399.1</ele>
        <time>2010-01-01T00:00:00Z</time>
      </trkpt>
      <trkpt lat="44.63162" lon="1.64598">
        <ele>399.1</ele>
        <time>2010-01-01T00:00:00Z</time>
      </trkpt>
      <trkpt lat="44.63174" lon="1.64588">
        <ele>400</ele>
        <time>2010-01-01T00:00:00Z</time>
      </trkpt>
      <trkpt lat="44.6318" lon="1.64584">
        <ele>400.4</ele>
        <time>2010-01-01T00:00:00Z</time>
      </trkpt>
      <trkpt lat="44.63193" lon="1.64579">
        <ele>398.7</ele>
        <time>2010-01-01T00:00:00Z</time>
      </trkpt>
      <trkpt lat="44.632" lon="1.64578">
        <ele>398.9</ele>
        <time>2010-01-01T00:00:00Z</time>
      </trkpt>
      <trkpt lat="44.63201" lon="1.64578">
        <ele>398.9</ele>
        <time>2010-01-01T00:00:00Z</time>
      </trkpt>
      <trkpt lat="44.63223" lon="1.64575">
        <ele>400.1</ele>
        <time>2010-01-01T00:00:00Z</time>
      </trkpt>
      <trkpt lat="44.63229" lon="1.64574">
        <ele>400.5</ele>
        <time>2010-01-01T00:00:00Z</time>
      </trkpt>
      <trkpt lat="44.63236" lon="1.64573">
        <ele>401.1</ele>
        <time>2010-01-01T00:00:00Z</time>
      </trkpt>
      <trkpt lat="44.63243" lon="1.64571">
        <ele>401.5</ele>
        <time>2010-01-01T00:00:00Z</time>
      </trkpt>
      <trkpt lat="44.63246" lon="1.6457">
        <ele>401.6</ele>
        <time>2010-01-01T00:00:00Z</time>
      </trkpt>
      <trkpt lat="44.63251" lon="1.64568">
        <ele>402.9</ele>
        <time>2010-01-01T00:00:00Z</time>
      </trkpt>
      <trkpt lat="44.63254" lon="1.64568">
        <ele>402.9</ele>
        <time>2010-01-01T00:00:00Z</time>
      </trkpt>
      <trkpt lat="44.6326" lon="1.64568">
        <ele>402.8</ele>
        <time>2010-01-01T00:00:00Z</time>
      </trkpt>
      <trkpt lat="44.6328" lon="1.64558">
        <ele>402.2</ele>
        <time>2010-01-01T00:00:00Z</time>
      </trkpt>
      <trkpt lat="44.63285" lon="1.64553">
        <ele>402.1</ele>
        <time>2010-01-01T00:00:00Z</time>
      </trkpt>
      <trkpt lat="44.63287" lon="1.6455">
        <ele>402</ele>
        <time>2010-01-01T00:00:00Z</time>
      </trkpt>
      <trkpt lat="44.63292" lon="1.64541">
        <ele>402</ele>
        <time>2010-01-01T00:00:00Z</time>
      </trkpt>
      <trkpt lat="44.63301" lon="1.64522">
        <ele>402.2</ele>
        <time>2010-01-01T00:00:00Z</time>
      </trkpt>
      <trkpt lat="44.63305" lon="1.64509">
        <ele>402.4</ele>
        <time>2010-01-01T00:00:00Z</time>
      </trkpt>
      <trkpt lat="44.63306" lon="1.64503">
        <ele>402.4</ele>
        <time>2010-01-01T00:00:00Z</time>
      </trkpt>
      <trkpt lat="44.63308" lon="1.64495">
        <ele>401.4</ele>
        <time>2010-01-01T00:00:00Z</time>
      </trkpt>
      <trkpt lat="44.63309" lon="1.64477">
        <ele>401</ele>
        <time>2010-01-01T00:00:00Z</time>
      </trkpt>
      <trkpt lat="44.63313" lon="1.64465">
        <ele>400.8</ele>
        <time>2010-01-01T00:00:00Z</time>
      </trkpt>
      <trkpt lat="44.63314" lon="1.64462">
        <ele>400.8</ele>
        <time>2010-01-01T00:00:00Z</time>
      </trkpt>
      <trkpt lat="44.63319" lon="1.64452">
        <ele>400.8</ele>
        <time>2010-01-01T00:00:00Z</time>
      </trkpt>
      <trkpt lat="44.63326" lon="1.64439">
        <ele>401.1</ele>
        <time>2010-01-01T00:00:00Z</time>
      </trkpt>
      <trkpt lat="44.63331" lon="1.64429">
        <ele>401.7</ele>
        <time>2010-01-01T00:00:00Z</time>
      </trkpt>
      <trkpt lat="44.63332" lon="1.64426">
        <ele>402</ele>
        <time>2010-01-01T00:00:00Z</time>
      </trkpt>
      <trkpt lat="44.63336" lon="1.64417">
        <ele>402.7</ele>
        <time>2010-01-01T00:00:00Z</time>
      </trkpt>
      <trkpt lat="44.6334" lon="1.64408">
        <ele>401.4</ele>
        <time>2010-01-01T00:00:00Z</time>
      </trkpt>
      <trkpt lat="44.63341" lon="1.64403">
        <ele>400.9</ele>
        <time>2010-01-01T00:00:00Z</time>
      </trkpt>
      <trkpt lat="44.63344" lon="1.64393">
        <ele>400</ele>
        <time>2010-01-01T00:00:00Z</time>
      </trkpt>
      <trkpt lat="44.63347" lon="1.64383">
        <ele>399.4</ele>
        <time>2010-01-01T00:00:00Z</time>
      </trkpt>
      <trkpt lat="44.63353" lon="1.6437">
        <ele>398.8</ele>
        <time>2010-01-01T00:00:00Z</time>
      </trkpt>
      <trkpt lat="44.63354" lon="1.64366">
        <ele>398.7</ele>
        <time>2010-01-01T00:00:00Z</time>
      </trkpt>
      <trkpt lat="44.63356" lon="1.64359">
        <ele>398.5</ele>
        <time>2010-01-01T00:00:00Z</time>
      </trkpt>
      <trkpt lat="44.63358" lon="1.64345">
        <ele>398.2</ele>
        <time>2010-01-01T00:00:00Z</time>
      </trkpt>
      <trkpt lat="44.6336" lon="1.64334">
        <ele>398.1</ele>
        <time>2010-01-01T00:00:00Z</time>
      </trkpt>
      <trkpt lat="44.6336" lon="1.64328">
        <ele>396.4</ele>
        <time>2010-01-01T00:00:00Z</time>
      </trkpt>
      <trkpt lat="44.63364" lon="1.64312">
        <ele>396.1</ele>
        <time>2010-01-01T00:00:00Z</time>
      </trkpt>
      <trkpt lat="44.63368" lon="1.643">
        <ele>395.8</ele>
        <time>2010-01-01T00:00:00Z</time>
      </trkpt>
      <trkpt lat="44.63374" lon="1.64282">
        <ele>395.7</ele>
        <time>2010-01-01T00:00:00Z</time>
      </trkpt>
      <trkpt lat="44.63381" lon="1.64262">
        <ele>395.7</ele>
        <time>2010-01-01T00:00:00Z</time>
      </trkpt>
      <trkpt lat="44.63389" lon="1.64245">
        <ele>395</ele>
        <time>2010-01-01T00:00:00Z</time>
      </trkpt>
      <trkpt lat="44.63405" lon="1.64228">
        <ele>395.3</ele>
        <time>2010-01-01T00:00:00Z</time>
      </trkpt>
      <trkpt lat="44.63421" lon="1.64206">
        <ele>395.8</ele>
        <time>2010-01-01T00:00:00Z</time>
      </trkpt>
      <trkpt lat="44.63437" lon="1.64193">
        <ele>395.9</ele>
        <time>2010-01-01T00:00:00Z</time>
      </trkpt>
      <trkpt lat="44.63443" lon="1.64187">
        <ele>395.9</ele>
        <time>2010-01-01T00:00:00Z</time>
      </trkpt>
      <trkpt lat="44.6345" lon="1.64181">
        <ele>396</ele>
        <time>2010-01-01T00:00:00Z</time>
      </trkpt>
      <trkpt lat="44.63461" lon="1.64173">
        <ele>396.1</ele>
        <time>2010-01-01T00:00:00Z</time>
      </trkpt>
      <trkpt lat="44.63477" lon="1.64167">
        <ele>396.6</ele>
        <time>2010-01-01T00:00:00Z</time>
      </trkpt>
      <trkpt lat="44.6349" lon="1.64165">
        <ele>398.5</ele>
        <time>2010-01-01T00:00:00Z</time>
      </trkpt>
      <trkpt lat="44.63494" lon="1.64164">
        <ele>398.7</ele>
        <time>2010-01-01T00:00:00Z</time>
      </trkpt>
      <trkpt lat="44.63502" lon="1.64164">
        <ele>398.2</ele>
        <time>2010-01-01T00:00:00Z</time>
      </trkpt>
      <trkpt lat="44.63513" lon="1.64164">
        <ele>396.4</ele>
        <time>2010-01-01T00:00:00Z</time>
      </trkpt>
      <trkpt lat="44.63528" lon="1.64166">
        <ele>394.5</ele>
        <time>2010-01-01T00:00:00Z</time>
      </trkpt>
      <trkpt lat="44.63534" lon="1.64167">
        <ele>390.9</ele>
        <time>2010-01-01T00:00:00Z</time>
      </trkpt>
      <trkpt lat="44.6354" lon="1.64168">
        <ele>390.2</ele>
        <time>2010-01-01T00:00:00Z</time>
      </trkpt>
      <trkpt lat="44.63556" lon="1.6417">
        <ele>388.9</ele>
        <time>2010-01-01T00:00:00Z</time>
      </trkpt>
      <trkpt lat="44.63569" lon="1.64171">
        <ele>388.3</ele>
        <time>2010-01-01T00:00:00Z</time>
      </trkpt>
      <trkpt lat="44.63583" lon="1.64172">
        <ele>388</ele>
        <time>2010-01-01T00:00:00Z</time>
      </trkpt>
      <trkpt lat="44.63594" lon="1.6417">
        <ele>386.2</ele>
        <time>2010-01-01T00:00:00Z</time>
      </trkpt>
      <trkpt lat="44.636" lon="1.64168">
        <ele>385.6</ele>
        <time>2010-01-01T00:00:00Z</time>
      </trkpt>
      <trkpt lat="44.63606" lon="1.64167">
        <ele>385.1</ele>
        <time>2010-01-01T00:00:00Z</time>
      </trkpt>
      <trkpt lat="44.63617" lon="1.64163">
        <ele>384.4</ele>
        <time>2010-01-01T00:00:00Z</time>
      </trkpt>
      <trkpt lat="44.63639" lon="1.64154">
        <ele>383.1</ele>
        <time>2010-01-01T00:00:00Z</time>
      </trkpt>
      <trkpt lat="44.63665" lon="1.64143">
        <ele>382.3</ele>
        <time>2010-01-01T00:00:00Z</time>
      </trkpt>
      <trkpt lat="44.63683" lon="1.64137">
        <ele>379.5</ele>
        <time>2010-01-01T00:00:00Z</time>
      </trkpt>
      <trkpt lat="44.63705" lon="1.64132">
        <ele>379</ele>
        <time>2010-01-01T00:00:00Z</time>
      </trkpt>
      <trkpt lat="44.63722" lon="1.64128">
        <ele>378.7</ele>
        <time>2010-01-01T00:00:00Z</time>
      </trkpt>
      <trkpt lat="44.63734" lon="1.64124">
        <ele>378.5</ele>
        <time>2010-01-01T00:00:00Z</time>
      </trkpt>
      <trkpt lat="44.63745" lon="1.64122">
        <ele>378.3</ele>
        <time>2010-01-01T00:00:00Z</time>
      </trkpt>
      <trkpt lat="44.63753" lon="1.6412">
        <ele>376</ele>
        <time>2010-01-01T00:00:00Z</time>
      </trkpt>
      <trkpt lat="44.63759" lon="1.64119">
        <ele>375.9</ele>
        <time>2010-01-01T00:00:00Z</time>
      </trkpt>
      <trkpt lat="44.63765" lon="1.64118">
        <ele>375.8</ele>
        <time>2010-01-01T00:00:00Z</time>
      </trkpt>
      <trkpt lat="44.63775" lon="1.64116">
        <ele>375.5</ele>
        <time>2010-01-01T00:00:00Z</time>
      </trkpt>
      <trkpt lat="44.6378" lon="1.64115">
        <ele>375.3</ele>
        <time>2010-01-01T00:00:00Z</time>
      </trkpt>
      <trkpt lat="44.63786" lon="1.64113">
        <ele>375.1</ele>
        <time>2010-01-01T00:00:00Z</time>
      </trkpt>
      <trkpt lat="44.63798" lon="1.6411">
        <ele>374.6</ele>
        <time>2010-01-01T00:00:00Z</time>
      </trkpt>
      <trkpt lat="44.6381" lon="1.64106">
        <ele>374.1</ele>
        <time>2010-01-01T00:00:00Z</time>
      </trkpt>
      <trkpt lat="44.6382" lon="1.64105">
        <ele>373.6</ele>
        <time>2010-01-01T00:00:00Z</time>
      </trkpt>
      <trkpt lat="44.63835" lon="1.64104">
        <ele>368.3</ele>
        <time>2010-01-01T00:00:00Z</time>
      </trkpt>
      <trkpt lat="44.63845" lon="1.64104">
        <ele>367.8</ele>
        <time>2010-01-01T00:00:00Z</time>
      </trkpt>
      <trkpt lat="44.63848" lon="1.64104">
        <ele>367.6</ele>
        <time>2010-01-01T00:00:00Z</time>
      </trkpt>
      <trkpt lat="44.63859" lon="1.64104">
        <ele>366.7</ele>
        <time>2010-01-01T00:00:00Z</time>
      </trkpt>
      <trkpt lat="44.63875" lon="1.64104">
        <ele>365.2</ele>
        <time>2010-01-01T00:00:00Z</time>
      </trkpt>
      <trkpt lat="44.63886" lon="1.64106">
        <ele>364.2</ele>
        <time>2010-01-01T00:00:00Z</time>
      </trkpt>
      <trkpt lat="44.63896" lon="1.64109">
        <ele>363.4</ele>
        <time>2010-01-01T00:00:00Z</time>
      </trkpt>
      <trkpt lat="44.63907" lon="1.64113">
        <ele>362.8</ele>
        <time>2010-01-01T00:00:00Z</time>
      </trkpt>
      <trkpt lat="44.63916" lon="1.64115">
        <ele>362.5</ele>
        <time>2010-01-01T00:00:00Z</time>
      </trkpt>
      <trkpt lat="44.63924" lon="1.64117">
        <ele>354.8</ele>
        <time>2010-01-01T00:00:00Z</time>
      </trkpt>
      <trkpt lat="44.63933" lon="1.64119">
        <ele>354.3</ele>
        <time>2010-01-01T00:00:00Z</time>
      </trkpt>
      <trkpt lat="44.63934" lon="1.64119">
        <ele>354.3</ele>
        <time>2010-01-01T00:00:00Z</time>
      </trkpt>
      <trkpt lat="44.63939" lon="1.6412">
        <ele>354</ele>
        <time>2010-01-01T00:00:00Z</time>
      </trkpt>
      <trkpt lat="44.63947" lon="1.64121">
        <ele>353.5</ele>
        <time>2010-01-01T00:00:00Z</time>
      </trkpt>
      <trkpt lat="44.63966" lon="1.64124">
        <ele>352.3</ele>
        <time>2010-01-01T00:00:00Z</time>
      </trkpt>
      <trkpt lat="44.63978" lon="1.64126">
        <ele>351.6</ele>
        <time>2010-01-01T00:00:00Z</time>
      </trkpt>
      <trkpt lat="44.63988" lon="1.64126">
        <ele>351.1</ele>
        <time>2010-01-01T00:00:00Z</time>
      </trkpt>
      <trkpt lat="44.63996" lon="1.64125">
        <ele>350.8</ele>
        <time>2010-01-01T00:00:00Z</time>
      </trkpt>
      <trkpt lat="44.63997" lon="1.64125">
        <ele>350.8</ele>
        <time>2010-01-01T00:00:00Z</time>
      </trkpt>
      <trkpt lat="44.64008" lon="1.64124">
        <ele>346.5</ele>
        <time>2010-01-01T00:00:00Z</time>
      </trkpt>
      <trkpt lat="44.64024" lon="1.64122">
        <ele>346.4</ele>
        <time>2010-01-01T00:00:00Z</time>
      </trkpt>
      <trkpt lat="44.64042" lon="1.64122">
        <ele>346</ele>
        <time>2010-01-01T00:00:00Z</time>
      </trkpt>
      <trkpt lat="44.64051" lon="1.64122">
        <ele>345.9</ele>
        <time>2010-01-01T00:00:00Z</time>
      </trkpt>
      <trkpt lat="44.64058" lon="1.64123">
        <ele>345.8</ele>
        <time>2010-01-01T00:00:00Z</time>
      </trkpt>
      <trkpt lat="44.64063" lon="1.64124">
        <ele>345.7</ele>
        <time>2010-01-01T00:00:00Z</time>
      </trkpt>
      <trkpt lat="44.64068" lon="1.64125">
        <ele>345.6</ele>
        <time>2010-01-01T00:00:00Z</time>
      </trkpt>
      <trkpt lat="44.64072" lon="1.64126">
        <ele>345.5</ele>
        <time>2010-01-01T00:00:00Z</time>
      </trkpt>
      <trkpt lat="44.64078" lon="1.64127">
        <ele>345.4</ele>
        <time>2010-01-01T00:00:00Z</time>
      </trkpt>
      <trkpt lat="44.64083" lon="1.64127">
        <ele>345.4</ele>
        <time>2010-01-01T00:00:00Z</time>
      </trkpt>
      <trkpt lat="44.64088" lon="1.64128">
        <ele>344.4</ele>
        <time>2010-01-01T00:00:00Z</time>
      </trkpt>
      <trkpt lat="44.64094" lon="1.64129">
        <ele>344.4</ele>
        <time>2010-01-01T00:00:00Z</time>
      </trkpt>
      <trkpt lat="44.641" lon="1.6413">
        <ele>344.4</ele>
        <time>2010-01-01T00:00:00Z</time>
      </trkpt>
      <trkpt lat="44.64109" lon="1.64131">
        <ele>344.4</ele>
        <time>2010-01-01T00:00:00Z</time>
      </trkpt>
      <trkpt lat="44.64116" lon="1.64132">
        <ele>344.4</ele>
        <time>2010-01-01T00:00:00Z</time>
      </trkpt>
      <trkpt lat="44.64128" lon="1.64132">
        <ele>344.4</ele>
        <time>2010-01-01T00:00:00Z</time>
      </trkpt>
      <trkpt lat="44.6415" lon="1.64133">
        <ele>344.3</ele>
        <time>2010-01-01T00:00:00Z</time>
      </trkpt>
      <trkpt lat="44.64173" lon="1.64133">
        <ele>344.8</ele>
        <time>2010-01-01T00:00:00Z</time>
      </trkpt>
      <trkpt lat="44.64192" lon="1.64132">
        <ele>345</ele>
        <time>2010-01-01T00:00:00Z</time>
      </trkpt>
      <trkpt lat="44.64185" lon="1.6413">
        <ele>344.9</ele>
        <time>2010-01-01T00:00:00Z</time>
      </trkpt>
      <trkpt lat="44.64182" lon="1.64129">
        <ele>344.9</ele>
        <time>2010-01-01T00:00:00Z</time>
      </trkpt>
      <trkpt lat="44.64185" lon="1.6413">
        <ele>344.9</ele>
        <time>2010-01-01T00:00:00Z</time>
      </trkpt>
      <trkpt lat="44.64192" lon="1.64132">
        <ele>345</ele>
        <time>2010-01-01T00:00:00Z</time>
      </trkpt>
      <trkpt lat="44.64195" lon="1.64133">
        <ele>345</ele>
        <time>2010-01-01T00:00:00Z</time>
      </trkpt>
      <trkpt lat="44.64206" lon="1.64136">
        <ele>345.1</ele>
        <time>2010-01-01T00:00:00Z</time>
      </trkpt>
      <trkpt lat="44.64215" lon="1.6414">
        <ele>345.1</ele>
        <time>2010-01-01T00:00:00Z</time>
      </trkpt>
      <trkpt lat="44.64231" lon="1.64147">
        <ele>345.1</ele>
        <time>2010-01-01T00:00:00Z</time>
      </trkpt>
      <trkpt lat="44.64244" lon="1.64154">
        <ele>345.1</ele>
        <time>2010-01-01T00:00:00Z</time>
      </trkpt>
      <trkpt lat="44.64251" lon="1.64159">
        <ele>345.3</ele>
        <time>2010-01-01T00:00:00Z</time>
      </trkpt>
      <trkpt lat="44.64255" lon="1.64162">
        <ele>345.2</ele>
        <time>2010-01-01T00:00:00Z</time>
      </trkpt>
      <trkpt lat="44.64268" lon="1.64173">
        <ele>344.6</ele>
        <time>2010-01-01T00:00:00Z</time>
      </trkpt>
      <trkpt lat="44.64282" lon="1.64184">
        <ele>344.5</ele>
        <time>2010-01-01T00:00:00Z</time>
      </trkpt>
      <trkpt lat="44.64296" lon="1.64194">
        <ele>344.4</ele>
        <time>2010-01-01T00:00:00Z</time>
      </trkpt>
      <trkpt lat="44.64306" lon="1.64204">
        <ele>344.3</ele>
        <time>2010-01-01T00:00:00Z</time>
      </trkpt>
      <trkpt lat="44.64308" lon="1.64206">
        <ele>344.3</ele>
        <time>2010-01-01T00:00:00Z</time>
      </trkpt>
      <trkpt lat="44.6432" lon="1.64213">
        <ele>344.3</ele>
        <time>2010-01-01T00:00:00Z</time>
      </trkpt>
      <trkpt lat="44.64338" lon="1.64226">
        <ele>344.4</ele>
        <time>2010-01-01T00:00:00Z</time>
      </trkpt>
      <trkpt lat="44.64364" lon="1.64243">
        <ele>344.4</ele>
        <time>2010-01-01T00:00:00Z</time>
      </trkpt>
      <trkpt lat="44.64381" lon="1.64253">
        <ele>345.5</ele>
        <time>2010-01-01T00:00:00Z</time>
      </trkpt>
      <trkpt lat="44.64394" lon="1.6426">
        <ele>345.6</ele>
        <time>2010-01-01T00:00:00Z</time>
      </trkpt>
      <trkpt lat="44.64403" lon="1.64265">
        <ele>345.6</ele>
        <time>2010-01-01T00:00:00Z</time>
      </trkpt>
      <trkpt lat="44.64415" lon="1.64269">
        <ele>345.7</ele>
        <time>2010-01-01T00:00:00Z</time>
      </trkpt>
      <trkpt lat="44.64435" lon="1.64275">
        <ele>347</ele>
        <time>2010-01-01T00:00:00Z</time>
      </trkpt>
      <trkpt lat="44.64471" lon="1.64282">
        <ele>347.7</ele>
        <time>2010-01-01T00:00:00Z</time>
      </trkpt>
      <trkpt lat="44.64497" lon="1.64287">
        <ele>347.9</ele>
        <time>2010-01-01T00:00:00Z</time>
      </trkpt>
      <trkpt lat="44.64517" lon="1.64292">
        <ele>350</ele>
        <time>2010-01-01T00:00:00Z</time>
      </trkpt>
      <trkpt lat="44.64529" lon="1.64295">
        <ele>350.3</ele>
        <time>2010-01-01T00:00:00Z</time>
      </trkpt>
      <trkpt lat="44.64538" lon="1.64296">
        <ele>350.5</ele>
        <time>2010-01-01T00:00:00Z</time>
      </trkpt>
      <trkpt lat="44.64542" lon="1.64294">
        <ele>350.5</ele>
        <time>2010-01-01T00:00:00Z</time>
      </trkpt>
      <trkpt lat="44.64548" lon="1.6429">
        <ele>350.6</ele>
        <time>2010-01-01T00:00:00Z</time>
      </trkpt>
      <trkpt lat="44.64552" lon="1.64286">
        <ele>350.7</ele>
        <time>2010-01-01T00:00:00Z</time>
      </trkpt>
      <trkpt lat="44.64548" lon="1.6429">
        <ele>350.6</ele>
        <time>2010-01-01T00:00:00Z</time>
      </trkpt>
      <trkpt lat="44.64542" lon="1.64294">
        <ele>350.5</ele>
        <time>2010-01-01T00:00:00Z</time>
      </trkpt>
      <trkpt lat="44.64551" lon="1.64296">
        <ele>350.8</ele>
        <time>2010-01-01T00:00:00Z</time>
      </trkpt>
      <trkpt lat="44.64558" lon="1.64297">
        <ele>350.9</ele>
        <time>2010-01-01T00:00:00Z</time>
      </trkpt>
      <trkpt lat="44.64567" lon="1.64297">
        <ele>351.1</ele>
        <time>2010-01-01T00:00:00Z</time>
      </trkpt>
      <trkpt lat="44.64577" lon="1.64296">
        <ele>351.3</ele>
        <time>2010-01-01T00:00:00Z</time>
      </trkpt>
      <trkpt lat="44.64592" lon="1.64293">
        <ele>354.5</ele>
        <time>2010-01-01T00:00:00Z</time>
      </trkpt>
      <trkpt lat="44.64607" lon="1.64289">
        <ele>354.9</ele>
        <time>2010-01-01T00:00:00Z</time>
      </trkpt>
      <trkpt lat="44.6462" lon="1.64282">
        <ele>355.3</ele>
        <time>2010-01-01T00:00:00Z</time>
      </trkpt>
      <trkpt lat="44.64646" lon="1.64272">
        <ele>356.2</ele>
        <time>2010-01-01T00:00:00Z</time>
      </trkpt>
      <trkpt lat="44.64661" lon="1.64268">
        <ele>356.8</ele>
        <time>2010-01-01T00:00:00Z</time>
      </trkpt>
      <trkpt lat="44.64683" lon="1.64264">
        <ele>359.5</ele>
        <time>2010-01-01T00:00:00Z</time>
      </trkpt>
      <trkpt lat="44.6471" lon="1.64261">
        <ele>360.4</ele>
        <time>2010-01-01T00:00:00Z</time>
      </trkpt>
      <trkpt lat="44.64732" lon="1.64257">
        <ele>361.1</ele>
        <time>2010-01-01T00:00:00Z</time>
      </trkpt>
      <trkpt lat="44.64744" lon="1.64257">
        <ele>361.5</ele>
        <time>2010-01-01T00:00:00Z</time>
      </trkpt>
      <trkpt lat="44.64751" lon="1.64258">
        <ele>362.2</ele>
        <time>2010-01-01T00:00:00Z</time>
      </trkpt>
      <trkpt lat="44.64758" lon="1.64259">
        <ele>362.3</ele>
        <time>2010-01-01T00:00:00Z</time>
      </trkpt>
      <trkpt lat="44.64764" lon="1.64262">
        <ele>362.4</ele>
        <time>2010-01-01T00:00:00Z</time>
      </trkpt>
      <trkpt lat="44.64773" lon="1.64267">
        <ele>362.5</ele>
        <time>2010-01-01T00:00:00Z</time>
      </trkpt>
      <trkpt lat="44.64788" lon="1.64278">
        <ele>362.6</ele>
        <time>2010-01-01T00:00:00Z</time>
      </trkpt>
      <trkpt lat="44.64798" lon="1.64283">
        <ele>362.7</ele>
        <time>2010-01-01T00:00:00Z</time>
      </trkpt>
      <trkpt lat="44.64817" lon="1.6429">
        <ele>362.8</ele>
        <time>2010-01-01T00:00:00Z</time>
      </trkpt>
      <trkpt lat="44.64864" lon="1.64309">
        <ele>361.9</ele>
        <time>2010-01-01T00:00:00Z</time>
      </trkpt>
      <trkpt lat="44.64881" lon="1.64317">
        <ele>361.6</ele>
        <time>2010-01-01T00:00:00Z</time>
      </trkpt>
      <trkpt lat="44.64887" lon="1.6432">
        <ele>361.5</ele>
        <time>2010-01-01T00:00:00Z</time>
      </trkpt>
      <trkpt lat="44.64914" lon="1.64334">
        <ele>361.1</ele>
        <time>2010-01-01T00:00:00Z</time>
      </trkpt>
      <trkpt lat="44.64942" lon="1.64348">
        <ele>359</ele>
        <time>2010-01-01T00:00:00Z</time>
      </trkpt>
      <trkpt lat="44.64952" lon="1.64353">
        <ele>358.6</ele>
        <time>2010-01-01T00:00:00Z</time>
      </trkpt>
      <trkpt lat="44.64961" lon="1.64355">
        <ele>358.2</ele>
        <time>2010-01-01T00:00:00Z</time>
      </trkpt>
      <trkpt lat="44.64968" lon="1.64355">
        <ele>357.9</ele>
        <time>2010-01-01T00:00:00Z</time>
      </trkpt>
      <trkpt lat="44.64974" lon="1.64353">
        <ele>357.7</ele>
        <time>2010-01-01T00:00:00Z</time>
      </trkpt>
      <trkpt lat="44.64984" lon="1.64351">
        <ele>357.3</ele>
        <time>2010-01-01T00:00:00Z</time>
      </trkpt>
      <trkpt lat="44.64998" lon="1.64347">
        <ele>356.9</ele>
        <time>2010-01-01T00:00:00Z</time>
      </trkpt>
      <trkpt lat="44.65007" lon="1.64345">
        <ele>355.2</ele>
        <time>2010-01-01T00:00:00Z</time>
      </trkpt>
      <trkpt lat="44.65014" lon="1.64344">
        <ele>355</ele>
        <time>2010-01-01T00:00:00Z</time>
      </trkpt>
      <trkpt lat="44.65028" lon="1.64345">
        <ele>354.5</ele>
        <time>2010-01-01T00:00:00Z</time>
      </trkpt>
      <trkpt lat="44.65043" lon="1.64346">
        <ele>354.1</ele>
        <time>2010-01-01T00:00:00Z</time>
      </trkpt>
      <trkpt lat="44.65059" lon="1.64349">
        <ele>353.8</ele>
        <time>2010-01-01T00:00:00Z</time>
      </trkpt>
      <trkpt lat="44.65074" lon="1.64351">
        <ele>353.5</ele>
        <time>2010-01-01T00:00:00Z</time>
      </trkpt>
      <trkpt lat="44.65098" lon="1.64355">
        <ele>352.5</ele>
        <time>2010-01-01T00:00:00Z</time>
      </trkpt>
      <trkpt lat="44.6513" lon="1.64359">
        <ele>352.3</ele>
        <time>2010-01-01T00:00:00Z</time>
      </trkpt>
      <trkpt lat="44.65143" lon="1.64361">
        <ele>352.2</ele>
        <time>2010-01-01T00:00:00Z</time>
      </trkpt>
      <trkpt lat="44.65151" lon="1.64362">
        <ele>352.2</ele>
        <time>2010-01-01T00:00:00Z</time>
      </trkpt>
      <trkpt lat="44.65177" lon="1.64366">
        <ele>352.3</ele>
        <time>2010-01-01T00:00:00Z</time>
      </trkpt>
      <trkpt lat="44.65196" lon="1.64367">
        <ele>352.4</ele>
        <time>2010-01-01T00:00:00Z</time>
      </trkpt>
      <trkpt lat="44.65196" lon="1.64366">
        <ele>352.4</ele>
        <time>2010-01-01T00:00:00Z</time>
      </trkpt>
      <trkpt lat="44.65248" lon="1.64383">
        <ele>353</ele>
        <time>2010-01-01T00:00:00Z</time>
      </trkpt>
      <trkpt lat="44.65245" lon="1.64384">
        <ele>352.9</ele>
        <time>2010-01-01T00:00:00Z</time>
      </trkpt>
      <trkpt lat="44.65244" lon="1.64378">
        <ele>352.9</ele>
        <time>2010-01-01T00:00:00Z</time>
      </trkpt>
      <trkpt lat="44.65249" lon="1.64379">
        <ele>353</ele>
        <time>2010-01-01T00:00:00Z</time>
      </trkpt>
      <trkpt lat="44.65256" lon="1.6438">
        <ele>353</ele>
        <time>2010-01-01T00:00:00Z</time>
      </trkpt>
      <trkpt lat="44.65264" lon="1.64379">
        <ele>352.9</ele>
        <time>2010-01-01T00:00:00Z</time>
      </trkpt>
      <trkpt lat="44.65274" lon="1.64379">
        <ele>352.9</ele>
        <time>2010-01-01T00:00:00Z</time>
      </trkpt>
      <trkpt lat="44.65283" lon="1.64378">
        <ele>352.8</ele>
        <time>2010-01-01T00:00:00Z</time>
      </trkpt>
      <trkpt lat="44.65292" lon="1.64378">
        <ele>352.8</ele>
        <time>2010-01-01T00:00:00Z</time>
      </trkpt>
      <trkpt lat="44.65299" lon="1.64378">
        <ele>352.7</ele>
        <time>2010-01-01T00:00:00Z</time>
      </trkpt>
      <trkpt lat="44.6531" lon="1.64379">
        <ele>352.7</ele>
        <time>2010-01-01T00:00:00Z</time>
      </trkpt>
      <trkpt lat="44.65326" lon="1.64382">
        <ele>352.6</ele>
        <time>2010-01-01T00:00:00Z</time>
      </trkpt>
      <trkpt lat="44.65347" lon="1.64386">
        <ele>352.6</ele>
        <time>2010-01-01T00:00:00Z</time>
      </trkpt>
      <trkpt lat="44.65373" lon="1.64391">
        <ele>352.5</ele>
        <time>2010-01-01T00:00:00Z</time>
      </trkpt>
      <trkpt lat="44.65398" lon="1.64398">
        <ele>352.3</ele>
        <time>2010-01-01T00:00:00Z</time>
      </trkpt>
      <trkpt lat="44.65422" lon="1.64404">
        <ele>352.3</ele>
        <time>2010-01-01T00:00:00Z</time>
      </trkpt>
      <trkpt lat="44.65454" lon="1.64413">
        <ele>352.9</ele>
        <time>2010-01-01T00:00:00Z</time>
      </trkpt>
      <trkpt lat="44.65497" lon="1.64425">
        <ele>353.7</ele>
        <time>2010-01-01T00:00:00Z</time>
      </trkpt>
      <trkpt lat="44.65532" lon="1.64436">
        <ele>353.3</ele>
        <time>2010-01-01T00:00:00Z</time>
      </trkpt>
      <trkpt lat="44.65555" lon="1.64442">
        <ele>353.1</ele>
        <time>2010-01-01T00:00:00Z</time>
      </trkpt>
      <trkpt lat="44.65578" lon="1.64448">
        <ele>353</ele>
        <time>2010-01-01T00:00:00Z</time>
      </trkpt>
      <trkpt lat="44.65598" lon="1.64453">
        <ele>353.4</ele>
        <time>2010-01-01T00:00:00Z</time>
      </trkpt>
      <trkpt lat="44.65615" lon="1.64457">
        <ele>353.8</ele>
        <time>2010-01-01T00:00:00Z</time>
      </trkpt>
      <trkpt lat="44.65629" lon="1.64463">
        <ele>354.1</ele>
        <time>2010-01-01T00:00:00Z</time>
      </trkpt>
      <trkpt lat="44.65635" lon="1.64465">
        <ele>354.2</ele>
        <time>2010-01-01T00:00:00Z</time>
      </trkpt>
      <trkpt lat="44.65642" lon="1.64466">
        <ele>354.4</ele>
        <time>2010-01-01T00:00:00Z</time>
      </trkpt>
      <trkpt lat="44.65647" lon="1.64467">
        <ele>354.5</ele>
        <time>2010-01-01T00:00:00Z</time>
      </trkpt>
      <trkpt lat="44.65652" lon="1.64468">
        <ele>354.6</ele>
        <time>2010-01-01T00:00:00Z</time>
      </trkpt>
      <trkpt lat="44.65655" lon="1.64468">
        <ele>354.7</ele>
        <time>2010-01-01T00:00:00Z</time>
      </trkpt>
      <trkpt lat="44.65658" lon="1.64468">
        <ele>354.8</ele>
        <time>2010-01-01T00:00:00Z</time>
      </trkpt>
      <trkpt lat="44.65661" lon="1.64468">
        <ele>354.9</ele>
        <time>2010-01-01T00:00:00Z</time>
      </trkpt>
      <trkpt lat="44.65665" lon="1.64468">
        <ele>355</ele>
        <time>2010-01-01T00:00:00Z</time>
      </trkpt>
      <trkpt lat="44.65671" lon="1.64467">
        <ele>355</ele>
        <time>2010-01-01T00:00:00Z</time>
      </trkpt>
      <trkpt lat="44.65678" lon="1.64465">
        <ele>354.9</ele>
        <time>2010-01-01T00:00:00Z</time>
      </trkpt>
      <trkpt lat="44.65689" lon="1.6446">
        <ele>354.9</ele>
        <time>2010-01-01T00:00:00Z</time>
      </trkpt>
      <trkpt lat="44.65707" lon="1.64452">
        <ele>354.8</ele>
        <time>2010-01-01T00:00:00Z</time>
      </trkpt>
      <trkpt lat="44.65715" lon="1.64447">
        <ele>354.8</ele>
        <time>2010-01-01T00:00:00Z</time>
      </trkpt>
      <trkpt lat="44.65721" lon="1.64443">
        <ele>354.8</ele>
        <time>2010-01-01T00:00:00Z</time>
      </trkpt>
      <trkpt lat="44.65728" lon="1.6444">
        <ele>354.8</ele>
        <time>2010-01-01T00:00:00Z</time>
      </trkpt>
      <trkpt lat="44.65737" lon="1.64438">
        <ele>354.8</ele>
        <time>2010-01-01T00:00:00Z</time>
      </trkpt>
      <trkpt lat="44.65743" lon="1.64436">
        <ele>354.8</ele>
        <time>2010-01-01T00:00:00Z</time>
      </trkpt>
      <trkpt lat="44.65746" lon="1.64436">
        <ele>354.8</ele>
        <time>2010-01-01T00:00:00Z</time>
      </trkpt>
      <trkpt lat="44.6575" lon="1.64435">
        <ele>354.8</ele>
        <time>2010-01-01T00:00:00Z</time>
      </trkpt>
      <trkpt lat="44.65753" lon="1.64434">
        <ele>354.7</ele>
        <time>2010-01-01T00:00:00Z</time>
      </trkpt>
      <trkpt lat="44.65756" lon="1.64434">
        <ele>354.5</ele>
        <time>2010-01-01T00:00:00Z</time>
      </trkpt>
      <trkpt lat="44.6576" lon="1.64434">
        <ele>354.3</ele>
        <time>2010-01-01T00:00:00Z</time>
      </trkpt>
      <trkpt lat="44.65763" lon="1.64435">
        <ele>354.2</ele>
        <time>2010-01-01T00:00:00Z</time>
      </trkpt>
      <trkpt lat="44.65766" lon="1.64435">
        <ele>354.1</ele>
        <time>2010-01-01T00:00:00Z</time>
      </trkpt>
      <trkpt lat="44.6578" lon="1.64437">
        <ele>353.4</ele>
        <time>2010-01-01T00:00:00Z</time>
      </trkpt>
      <trkpt lat="44.65786" lon="1.64441">
        <ele>353.1</ele>
        <time>2010-01-01T00:00:00Z</time>
      </trkpt>
      <trkpt lat="44.65795" lon="1.64443">
        <ele>352.7</ele>
        <time>2010-01-01T00:00:00Z</time>
      </trkpt>
      <trkpt lat="44.658" lon="1.64444">
        <ele>352.5</ele>
        <time>2010-01-01T00:00:00Z</time>
      </trkpt>
      <trkpt lat="44.65808" lon="1.64446">
        <ele>352.1</ele>
        <time>2010-01-01T00:00:00Z</time>
      </trkpt>
      <trkpt lat="44.65818" lon="1.64448">
        <ele>351.7</ele>
        <time>2010-01-01T00:00:00Z</time>
      </trkpt>
      <trkpt lat="44.65831" lon="1.64452">
        <ele>351.1</ele>
        <time>2010-01-01T00:00:00Z</time>
      </trkpt>
      <trkpt lat="44.65846" lon="1.64457">
        <ele>351.2</ele>
        <time>2010-01-01T00:00:00Z</time>
      </trkpt>
      <trkpt lat="44.65865" lon="1.64465">
        <ele>351.6</ele>
        <time>2010-01-01T00:00:00Z</time>
      </trkpt>
      <trkpt lat="44.6588" lon="1.64472">
        <ele>351.9</ele>
        <time>2010-01-01T00:00:00Z</time>
      </trkpt>
      <trkpt lat="44.65892" lon="1.64477">
        <ele>352.2</ele>
        <time>2010-01-01T00:00:00Z</time>
      </trkpt>
      <trkpt lat="44.65905" lon="1.6448">
        <ele>352.5</ele>
        <time>2010-01-01T00:00:00Z</time>
      </trkpt>
      <trkpt lat="44.65925" lon="1.64482">
        <ele>353</ele>
        <time>2010-01-01T00:00:00Z</time>
      </trkpt>
      <trkpt lat="44.65945" lon="1.64486">
        <ele>353.6</ele>
        <time>2010-01-01T00:00:00Z</time>
      </trkpt>
      <trkpt lat="44.65963" lon="1.6449">
        <ele>354.1</ele>
        <time>2010-01-01T00:00:00Z</time>
      </trkpt>
      <trkpt lat="44.65978" lon="1.64495">
        <ele>354.5</ele>
        <time>2010-01-01T00:00:00Z</time>
      </trkpt>
      <trkpt lat="44.65991" lon="1.64498">
        <ele>354.8</ele>
        <time>2010-01-01T00:00:00Z</time>
      </trkpt>
      <trkpt lat="44.66006" lon="1.64501">
        <ele>355</ele>
        <time>2010-01-01T00:00:00Z</time>
      </trkpt>
      <trkpt lat="44.66034" lon="1.64506">
        <ele>354.9</ele>
        <time>2010-01-01T00:00:00Z</time>
      </trkpt>
      <trkpt lat="44.66055" lon="1.6451">
        <ele>354.9</ele>
        <time>2010-01-01T00:00:00Z</time>
      </trkpt>
      <trkpt lat="44.66075" lon="1.64514">
        <ele>354.8</ele>
        <time>2010-01-01T00:00:00Z</time>
      </trkpt>
      <trkpt lat="44.66087" lon="1.64518">
        <ele>354.8</ele>
        <time>2010-01-01T00:00:00Z</time>
      </trkpt>
      <trkpt lat="44.66104" lon="1.64525">
        <ele>354.7</ele>
        <time>2010-01-01T00:00:00Z</time>
      </trkpt>
      <trkpt lat="44.66115" lon="1.64529">
        <ele>354.7</ele>
        <time>2010-01-01T00:00:00Z</time>
      </trkpt>
      <trkpt lat="44.66156" lon="1.64557">
        <ele>355.2</ele>
        <time>2010-01-01T00:00:00Z</time>
      </trkpt>
      <trkpt lat="44.66175" lon="1.64569">
        <ele>355.7</ele>
        <time>2010-01-01T00:00:00Z</time>
      </trkpt>
      <trkpt lat="44.66198" lon="1.64583">
        <ele>356</ele>
        <time>2010-01-01T00:00:00Z</time>
      </trkpt>
      <trkpt lat="44.66209" lon="1.64589">
        <ele>355.9</ele>
        <time>2010-01-01T00:00:00Z</time>
      </trkpt>
      <trkpt lat="44.66215" lon="1.64591">
        <ele>355.9</ele>
        <time>2010-01-01T00:00:00Z</time>
      </trkpt>
      <trkpt lat="44.66225" lon="1.64594">
        <ele>355.8</ele>
        <time>2010-01-01T00:00:00Z</time>
      </trkpt>
      <trkpt lat="44.66236" lon="1.64595">
        <ele>355.8</ele>
        <time>2010-01-01T00:00:00Z</time>
      </trkpt>
      <trkpt lat="44.66245" lon="1.64597">
        <ele>355.8</ele>
        <time>2010-01-01T00:00:00Z</time>
      </trkpt>
      <trkpt lat="44.66266" lon="1.64602">
        <ele>356.4</ele>
        <time>2010-01-01T00:00:00Z</time>
      </trkpt>
      <trkpt lat="44.66276" lon="1.64605">
        <ele>356.8</ele>
        <time>2010-01-01T00:00:00Z</time>
      </trkpt>
      <trkpt lat="44.66283" lon="1.64606">
        <ele>357</ele>
        <time>2010-01-01T00:00:00Z</time>
      </trkpt>
      <trkpt lat="44.6629" lon="1.64605">
        <ele>357.3</ele>
        <time>2010-01-01T00:00:00Z</time>
      </trkpt>
      <trkpt lat="44.66297" lon="1.64602">
        <ele>357.6</ele>
        <time>2010-01-01T00:00:00Z</time>
      </trkpt>
      <trkpt lat="44.66322" lon="1.6459">
        <ele>358.6</ele>
        <time>2010-01-01T00:00:00Z</time>
      </trkpt>
      <trkpt lat="44.66332" lon="1.64587">
        <ele>359</ele>
        <time>2010-01-01T00:00:00Z</time>
      </trkpt>
      <trkpt lat="44.66338" lon="1.64586">
        <ele>359.1</ele>
        <time>2010-01-01T00:00:00Z</time>
      </trkpt>
      <trkpt lat="44.66345" lon="1.64586">
        <ele>359.3</ele>
        <time>2010-01-01T00:00:00Z</time>
      </trkpt>
      <trkpt lat="44.66352" lon="1.64587">
        <ele>359.4</ele>
        <time>2010-01-01T00:00:00Z</time>
      </trkpt>
      <trkpt lat="44.66371" lon="1.64589">
        <ele>359.8</ele>
        <time>2010-01-01T00:00:00Z</time>
      </trkpt>
      <trkpt lat="44.66387" lon="1.64591">
        <ele>360.2</ele>
        <time>2010-01-01T00:00:00Z</time>
      </trkpt>
      <trkpt lat="44.66399" lon="1.64591">
        <ele>360.4</ele>
        <time>2010-01-01T00:00:00Z</time>
      </trkpt>
      <trkpt lat="44.6641" lon="1.64593">
        <ele>360.6</ele>
        <time>2010-01-01T00:00:00Z</time>
      </trkpt>
      <trkpt lat="44.66434" lon="1.64599">
        <ele>361.1</ele>
        <time>2010-01-01T00:00:00Z</time>
      </trkpt>
      <trkpt lat="44.66473" lon="1.64607">
        <ele>362.2</ele>
        <time>2010-01-01T00:00:00Z</time>
      </trkpt>
      <trkpt lat="44.665" lon="1.64614">
        <ele>363</ele>
        <time>2010-01-01T00:00:00Z</time>
      </trkpt>
      <trkpt lat="44.6652" lon="1.64619">
        <ele>363.6</ele>
        <time>2010-01-01T00:00:00Z</time>
      </trkpt>
      <trkpt lat="44.66531" lon="1.6462">
        <ele>364</ele>
        <time>2010-01-01T00:00:00Z</time>
      </trkpt>
      <trkpt lat="44.66543" lon="1.64622">
        <ele>364.3</ele>
        <time>2010-01-01T00:00:00Z</time>
      </trkpt>
      <trkpt lat="44.66553" lon="1.64622">
        <ele>364.6</ele>
        <time>2010-01-01T00:00:00Z</time>
      </trkpt>
      <trkpt lat="44.66568" lon="1.64622">
        <ele>365.1</ele>
        <time>2010-01-01T00:00:00Z</time>
      </trkpt>
      <trkpt lat="44.66574" lon="1.64621">
        <ele>365.3</ele>
        <time>2010-01-01T00:00:00Z</time>
      </trkpt>
      <trkpt lat="44.66582" lon="1.64621">
        <ele>365.5</ele>
        <time>2010-01-01T00:00:00Z</time>
      </trkpt>
      <trkpt lat="44.66596" lon="1.64625">
        <ele>365.8</ele>
        <time>2010-01-01T00:00:00Z</time>
      </trkpt>
      <trkpt lat="44.66607" lon="1.64627">
        <ele>366.1</ele>
        <time>2010-01-01T00:00:00Z</time>
      </trkpt>
      <trkpt lat="44.66615" lon="1.64628">
        <ele>366.3</ele>
        <time>2010-01-01T00:00:00Z</time>
      </trkpt>
      <trkpt lat="44.66619" lon="1.64627">
        <ele>366.4</ele>
        <time>2010-01-01T00:00:00Z</time>
      </trkpt>
      <trkpt lat="44.66624" lon="1.64625">
        <ele>366.5</ele>
        <time>2010-01-01T00:00:00Z</time>
      </trkpt>
      <trkpt lat="44.66628" lon="1.64621">
        <ele>366.6</ele>
        <time>2010-01-01T00:00:00Z</time>
      </trkpt>
      <trkpt lat="44.66634" lon="1.64618">
        <ele>366.7</ele>
        <time>2010-01-01T00:00:00Z</time>
      </trkpt>
      <trkpt lat="44.66644" lon="1.64614">
        <ele>366.9</ele>
        <time>2010-01-01T00:00:00Z</time>
      </trkpt>
      <trkpt lat="44.66665" lon="1.64611">
        <ele>367.3</ele>
        <time>2010-01-01T00:00:00Z</time>
      </trkpt>
      <trkpt lat="44.66687" lon="1.64605">
        <ele>367.5</ele>
        <time>2010-01-01T00:00:00Z</time>
      </trkpt>
      <trkpt lat="44.66697" lon="1.64601">
        <ele>367.6</ele>
        <time>2010-01-01T00:00:00Z</time>
      </trkpt>
      <trkpt lat="44.66704" lon="1.64595">
        <ele>367.6</ele>
        <time>2010-01-01T00:00:00Z</time>
      </trkpt>
      <trkpt lat="44.6671" lon="1.64585">
        <ele>367.5</ele>
        <time>2010-01-01T00:00:00Z</time>
      </trkpt>
      <trkpt lat="44.66717" lon="1.64569">
        <ele>367.8</ele>
        <time>2010-01-01T00:00:00Z</time>
      </trkpt>
      <trkpt lat="44.66727" lon="1.64548">
        <ele>368.3</ele>
        <time>2010-01-01T00:00:00Z</time>
      </trkpt>
      <trkpt lat="44.66734" lon="1.64538">
        <ele>368.5</ele>
        <time>2010-01-01T00:00:00Z</time>
      </trkpt>
      <trkpt lat="44.66749" lon="1.6452">
        <ele>368.8</ele>
        <time>2010-01-01T00:00:00Z</time>
      </trkpt>
      <trkpt lat="44.66758" lon="1.64511">
        <ele>369</ele>
        <time>2010-01-01T00:00:00Z</time>
      </trkpt>
      <trkpt lat="44.66765" lon="1.64508">
        <ele>369.1</ele>
        <time>2010-01-01T00:00:00Z</time>
      </trkpt>
      <trkpt lat="44.6676" lon="1.64506">
        <ele>369</ele>
        <time>2010-01-01T00:00:00Z</time>
      </trkpt>
      <trkpt lat="44.66759" lon="1.64505">
        <ele>369</ele>
        <time>2010-01-01T00:00:00Z</time>
      </trkpt>
      <trkpt lat="44.6676" lon="1.64506">
        <ele>369</ele>
        <time>2010-01-01T00:00:00Z</time>
      </trkpt>
      <trkpt lat="44.66765" lon="1.64508">
        <ele>369.1</ele>
        <time>2010-01-01T00:00:00Z</time>
      </trkpt>
      <trkpt lat="44.66771" lon="1.64509">
        <ele>369.1</ele>
        <time>2010-01-01T00:00:00Z</time>
      </trkpt>
      <trkpt lat="44.66781" lon="1.64512">
        <ele>369.2</ele>
        <time>2010-01-01T00:00:00Z</time>
      </trkpt>
      <trkpt lat="44.66788" lon="1.64513">
        <ele>369.3</ele>
        <time>2010-01-01T00:00:00Z</time>
      </trkpt>
      <trkpt lat="44.66797" lon="1.64517">
        <ele>369.4</ele>
        <time>2010-01-01T00:00:00Z</time>
      </trkpt>
      <trkpt lat="44.66809" lon="1.64525">
        <ele>369.4</ele>
        <time>2010-01-01T00:00:00Z</time>
      </trkpt>
      <trkpt lat="44.66818" lon="1.64531">
        <ele>369.4</ele>
        <time>2010-01-01T00:00:00Z</time>
      </trkpt>
      <trkpt lat="44.66827" lon="1.64538">
        <ele>369.5</ele>
        <time>2010-01-01T00:00:00Z</time>
      </trkpt>
      <trkpt lat="44.66836" lon="1.64543">
        <ele>369.6</ele>
        <time>2010-01-01T00:00:00Z</time>
      </trkpt>
      <trkpt lat="44.66846" lon="1.6455">
        <ele>369.9</ele>
        <time>2010-01-01T00:00:00Z</time>
      </trkpt>
      <trkpt lat="44.66856" lon="1.64558">
        <ele>370.3</ele>
        <time>2010-01-01T00:00:00Z</time>
      </trkpt>
      <trkpt lat="44.66874" lon="1.64573">
        <ele>371</ele>
        <time>2010-01-01T00:00:00Z</time>
      </trkpt>
      <trkpt lat="44.6689" lon="1.6459">
        <ele>371.7</ele>
        <time>2010-01-01T00:00:00Z</time>
      </trkpt>
      <trkpt lat="44.66908" lon="1.64607">
        <ele>372.6</ele>
        <time>2010-01-01T00:00:00Z</time>
      </trkpt>
      <trkpt lat="44.66922" lon="1.64621">
        <ele>373.2</ele>
        <time>2010-01-01T00:00:00Z</time>
      </trkpt>
      <trkpt lat="44.66933" lon="1.6463">
        <ele>373.6</ele>
        <time>2010-01-01T00:00:00Z</time>
      </trkpt>
      <trkpt lat="44.66946" lon="1.64641">
        <ele>374.1</ele>
        <time>2010-01-01T00:00:00Z</time>
      </trkpt>
      <trkpt lat="44.66956" lon="1.64648">
        <ele>374.4</ele>
        <time>2010-01-01T00:00:00Z</time>
      </trkpt>
      <trkpt lat="44.66991" lon="1.64686">
        <ele>375.7</ele>
        <time>2010-01-01T00:00:00Z</time>
      </trkpt>
      <trkpt lat="44.6702" lon="1.64715">
        <ele>376.1</ele>
        <time>2010-01-01T00:00:00Z</time>
      </trkpt>
      <trkpt lat="44.67039" lon="1.64736">
        <ele>376.4</ele>
        <time>2010-01-01T00:00:00Z</time>
      </trkpt>
      <trkpt lat="44.67047" lon="1.64743">
        <ele>376.5</ele>
        <time>2010-01-01T00:00:00Z</time>
      </trkpt>
      <trkpt lat="44.67053" lon="1.64746">
        <ele>376.6</ele>
        <time>2010-01-01T00:00:00Z</time>
      </trkpt>
      <trkpt lat="44.67059" lon="1.6475">
        <ele>376.7</ele>
        <time>2010-01-01T00:00:00Z</time>
      </trkpt>
      <trkpt lat="44.67068" lon="1.64753">
        <ele>376.9</ele>
        <time>2010-01-01T00:00:00Z</time>
      </trkpt>
      <trkpt lat="44.67075" lon="1.64757">
        <ele>377.1</ele>
        <time>2010-01-01T00:00:00Z</time>
      </trkpt>
      <trkpt lat="44.67087" lon="1.64765">
        <ele>377.7</ele>
        <time>2010-01-01T00:00:00Z</time>
      </trkpt>
      <trkpt lat="44.67096" lon="1.64771">
        <ele>378.5</ele>
        <time>2010-01-01T00:00:00Z</time>
      </trkpt>
      <trkpt lat="44.67111" lon="1.6478">
        <ele>379.8</ele>
        <time>2010-01-01T00:00:00Z</time>
      </trkpt>
      <trkpt lat="44.67111" lon="1.64782">
        <ele>379.8</ele>
        <time>2010-01-01T00:00:00Z</time>
      </trkpt>
      <trkpt lat="44.67111" lon="1.6478">
        <ele>379.8</ele>
        <time>2010-01-01T00:00:00Z</time>
      </trkpt>
      <trkpt lat="44.67112" lon="1.64774">
        <ele>379.8</ele>
        <time>2010-01-01T00:00:00Z</time>
      </trkpt>
      <trkpt lat="44.67118" lon="1.64762">
        <ele>380.1</ele>
        <time>2010-01-01T00:00:00Z</time>
      </trkpt>
      <trkpt lat="44.67134" lon="1.64727">
        <ele>381</ele>
        <time>2010-01-01T00:00:00Z</time>
      </trkpt>
      <trkpt lat="44.67153" lon="1.64689">
        <ele>382.1</ele>
        <time>2010-01-01T00:00:00Z</time>
      </trkpt>
      <trkpt lat="44.67162" lon="1.64676">
        <ele>382.7</ele>
        <time>2010-01-01T00:00:00Z</time>
      </trkpt>
      <trkpt lat="44.67169" lon="1.64671">
        <ele>383.1</ele>
        <time>2010-01-01T00:00:00Z</time>
      </trkpt>
      <trkpt lat="44.67192" lon="1.64657">
        <ele>383</ele>
        <time>2010-01-01T00:00:00Z</time>
      </trkpt>
      <trkpt lat="44.67204" lon="1.64649">
        <ele>383</ele>
        <time>2010-01-01T00:00:00Z</time>
      </trkpt>
      <trkpt lat="44.67206" lon="1.64648">
        <ele>383</ele>
        <time>2010-01-01T00:00:00Z</time>
      </trkpt>
      <trkpt lat="44.67211" lon="1.64647">
        <ele>383</ele>
        <time>2010-01-01T00:00:00Z</time>
      </trkpt>
      <trkpt lat="44.67218" lon="1.64646">
        <ele>383.1</ele>
        <time>2010-01-01T00:00:00Z</time>
      </trkpt>
      <trkpt lat="44.67225" lon="1.64645">
        <ele>383.1</ele>
        <time>2010-01-01T00:00:00Z</time>
      </trkpt>
      <trkpt lat="44.67232" lon="1.64644">
        <ele>383.2</ele>
        <time>2010-01-01T00:00:00Z</time>
      </trkpt>
      <trkpt lat="44.67238" lon="1.64643">
        <ele>383.2</ele>
        <time>2010-01-01T00:00:00Z</time>
      </trkpt>
      <trkpt lat="44.67245" lon="1.64643">
        <ele>383.2</ele>
        <time>2010-01-01T00:00:00Z</time>
      </trkpt>
      <trkpt lat="44.6725" lon="1.64644">
        <ele>383.3</ele>
        <time>2010-01-01T00:00:00Z</time>
      </trkpt>
      <trkpt lat="44.67253" lon="1.64645">
        <ele>383.3</ele>
        <time>2010-01-01T00:00:00Z</time>
      </trkpt>
      <trkpt lat="44.67254" lon="1.64646">
        <ele>383.3</ele>
        <time>2010-01-01T00:00:00Z</time>
      </trkpt>
      <trkpt lat="44.67255" lon="1.64647">
        <ele>383.4</ele>
        <time>2010-01-01T00:00:00Z</time>
      </trkpt>
      <trkpt lat="44.67259" lon="1.64652">
        <ele>383.4</ele>
        <time>2010-01-01T00:00:00Z</time>
      </trkpt>
      <trkpt lat="44.67265" lon="1.64662">
        <ele>383.4</ele>
        <time>2010-01-01T00:00:00Z</time>
      </trkpt>
      <trkpt lat="44.67302" lon="1.64718">
        <ele>384.5</ele>
        <time>2010-01-01T00:00:00Z</time>
      </trkpt>
      <trkpt lat="44.67314" lon="1.64737">
        <ele>384.7</ele>
        <time>2010-01-01T00:00:00Z</time>
      </trkpt>
      <trkpt lat="44.67318" lon="1.64742">
        <ele>384.8</ele>
        <time>2010-01-01T00:00:00Z</time>
      </trkpt>
      <trkpt lat="44.67314" lon="1.64737">
        <ele>384.7</ele>
        <time>2010-01-01T00:00:00Z</time>
      </trkpt>
      <trkpt lat="44.67317" lon="1.64735">
        <ele>384.8</ele>
        <time>2010-01-01T00:00:00Z</time>
      </trkpt>
      <trkpt lat="44.67323" lon="1.64727">
        <ele>384.8</ele>
        <time>2010-01-01T00:00:00Z</time>
      </trkpt>
      <trkpt lat="44.67333" lon="1.64709">
        <ele>385</ele>
        <time>2010-01-01T00:00:00Z</time>
      </trkpt>
      <trkpt lat="44.6736" lon="1.64656">
        <ele>385.4</ele>
        <time>2010-01-01T00:00:00Z</time>
      </trkpt>
      <trkpt lat="44.67388" lon="1.64599">
        <ele>385.9</ele>
        <time>2010-01-01T00:00:00Z</time>
      </trkpt>
      <trkpt lat="44.67403" lon="1.64568">
        <ele>386.2</ele>
        <time>2010-01-01T00:00:00Z</time>
      </trkpt>
      <trkpt lat="44.67408" lon="1.64554">
        <ele>386.4</ele>
        <time>2010-01-01T00:00:00Z</time>
      </trkpt>
      <trkpt lat="44.6741" lon="1.64546">
        <ele>386.4</ele>
        <time>2010-01-01T00:00:00Z</time>
      </trkpt>
      <trkpt lat="44.67411" lon="1.64537">
        <ele>386.6</ele>
        <time>2010-01-01T00:00:00Z</time>
      </trkpt>
      <trkpt lat="44.67412" lon="1.64527">
        <ele>386.7</ele>
        <time>2010-01-01T00:00:00Z</time>
      </trkpt>
      <trkpt lat="44.67411" lon="1.64517">
        <ele>386.8</ele>
        <time>2010-01-01T00:00:00Z</time>
      </trkpt>
      <trkpt lat="44.67411" lon="1.64498">
        <ele>387</ele>
        <time>2010-01-01T00:00:00Z</time>
      </trkpt>
      <trkpt lat="44.67413" lon="1.64488">
        <ele>387.3</ele>
        <time>2010-01-01T00:00:00Z</time>
      </trkpt>
      <trkpt lat="44.67415" lon="1.64477">
        <ele>387.5</ele>
        <time>2010-01-01T00:00:00Z</time>
      </trkpt>
      <trkpt lat="44.67422" lon="1.64462">
        <ele>387.9</ele>
        <time>2010-01-01T00:00:00Z</time>
      </trkpt>
      <trkpt lat="44.6743" lon="1.64449">
        <ele>388.1</ele>
        <time>2010-01-01T00:00:00Z</time>
      </trkpt>
      <trkpt lat="44.67436" lon="1.64437">
        <ele>388.3</ele>
        <time>2010-01-01T00:00:00Z</time>
      </trkpt>
      <trkpt lat="44.67453" lon="1.64394">
        <ele>388.7</ele>
        <time>2010-01-01T00:00:00Z</time>
      </trkpt>
      <trkpt lat="44.67459" lon="1.64379">
        <ele>388.7</ele>
        <time>2010-01-01T00:00:00Z</time>
      </trkpt>
      <trkpt lat="44.67461" lon="1.64373">
        <ele>388.7</ele>
        <time>2010-01-01T00:00:00Z</time>
      </trkpt>
      <trkpt lat="44.67467" lon="1.64354">
        <ele>388.9</ele>
        <time>2010-01-01T00:00:00Z</time>
      </trkpt>
      <trkpt lat="44.67472" lon="1.64333">
        <ele>389</ele>
        <time>2010-01-01T00:00:00Z</time>
      </trkpt>
      <trkpt lat="44.67473" lon="1.64328">
        <ele>388.9</ele>
        <time>2010-01-01T00:00:00Z</time>
      </trkpt>
      <trkpt lat="44.67475" lon="1.64318">
        <ele>388.6</ele>
        <time>2010-01-01T00:00:00Z</time>
      </trkpt>
      <trkpt lat="44.67478" lon="1.64298">
        <ele>388</ele>
        <time>2010-01-01T00:00:00Z</time>
      </trkpt>
      <trkpt lat="44.67482" lon="1.64281">
        <ele>387.6</ele>
        <time>2010-01-01T00:00:00Z</time>
      </trkpt>
      <trkpt lat="44.67487" lon="1.64268">
        <ele>387.3</ele>
        <time>2010-01-01T00:00:00Z</time>
      </trkpt>
      <trkpt lat="44.67493" lon="1.64258">
        <ele>387.1</ele>
        <time>2010-01-01T00:00:00Z</time>
      </trkpt>
      <trkpt lat="44.67501" lon="1.64242">
        <ele>386.7</ele>
        <time>2010-01-01T00:00:00Z</time>
      </trkpt>
      <trkpt lat="44.67516" lon="1.64216">
        <ele>385.2</ele>
        <time>2010-01-01T00:00:00Z</time>
      </trkpt>
      <trkpt lat="44.67523" lon="1.64201">
        <ele>384.6</ele>
        <time>2010-01-01T00:00:00Z</time>
      </trkpt>
      <trkpt lat="44.67538" lon="1.64157">
        <ele>383</ele>
        <time>2010-01-01T00:00:00Z</time>
      </trkpt>
      <trkpt lat="44.67545" lon="1.64136">
        <ele>381.8</ele>
        <time>2010-01-01T00:00:00Z</time>
      </trkpt>
      <trkpt lat="44.6755" lon="1.6414">
        <ele>382</ele>
        <time>2010-01-01T00:00:00Z</time>
      </trkpt>
      <trkpt lat="44.67554" lon="1.64143">
        <ele>382.1</ele>
        <time>2010-01-01T00:00:00Z</time>
      </trkpt>
      <trkpt lat="44.67566" lon="1.64151">
        <ele>382.4</ele>
        <time>2010-01-01T00:00:00Z</time>
      </trkpt>
      <trkpt lat="44.67572" lon="1.64157">
        <ele>382.7</ele>
        <time>2010-01-01T00:00:00Z</time>
      </trkpt>
      <trkpt lat="44.67581" lon="1.64166">
        <ele>383</ele>
        <time>2010-01-01T00:00:00Z</time>
      </trkpt>
      <trkpt lat="44.67585" lon="1.64169">
        <ele>382.9</ele>
        <time>2010-01-01T00:00:00Z</time>
      </trkpt>
      <trkpt lat="44.6759" lon="1.6417">
        <ele>382.5</ele>
        <time>2010-01-01T00:00:00Z</time>
      </trkpt>
      <trkpt lat="44.67599" lon="1.6417">
        <ele>381.9</ele>
        <time>2010-01-01T00:00:00Z</time>
      </trkpt>
      <trkpt lat="44.67612" lon="1.64169">
        <ele>380.9</ele>
        <time>2010-01-01T00:00:00Z</time>
      </trkpt>
      <trkpt lat="44.67621" lon="1.6417">
        <ele>380.3</ele>
        <time>2010-01-01T00:00:00Z</time>
      </trkpt>
      <trkpt lat="44.67635" lon="1.64176">
        <ele>379.3</ele>
        <time>2010-01-01T00:00:00Z</time>
      </trkpt>
      <trkpt lat="44.67644" lon="1.64177">
        <ele>378.6</ele>
        <time>2010-01-01T00:00:00Z</time>
      </trkpt>
      <trkpt lat="44.67649" lon="1.64176">
        <ele>378.3</ele>
        <time>2010-01-01T00:00:00Z</time>
      </trkpt>
      <trkpt lat="44.67657" lon="1.64171">
        <ele>377.7</ele>
        <time>2010-01-01T00:00:00Z</time>
      </trkpt>
      <trkpt lat="44.67665" lon="1.64162">
        <ele>377</ele>
        <time>2010-01-01T00:00:00Z</time>
      </trkpt>
      <trkpt lat="44.67672" lon="1.64151">
        <ele>376.3</ele>
        <time>2010-01-01T00:00:00Z</time>
      </trkpt>
      <trkpt lat="44.67677" lon="1.64147">
        <ele>375.9</ele>
        <time>2010-01-01T00:00:00Z</time>
      </trkpt>
      <trkpt lat="44.67683" lon="1.64145">
        <ele>375.6</ele>
        <time>2010-01-01T00:00:00Z</time>
      </trkpt>
      <trkpt lat="44.67691" lon="1.64144">
        <ele>375.1</ele>
        <time>2010-01-01T00:00:00Z</time>
      </trkpt>
      <trkpt lat="44.67703" lon="1.64145">
        <ele>374.4</ele>
        <time>2010-01-01T00:00:00Z</time>
      </trkpt>
      <trkpt lat="44.67728" lon="1.64152">
        <ele>373.1</ele>
        <time>2010-01-01T00:00:00Z</time>
      </trkpt>
      <trkpt lat="44.67756" lon="1.64156">
        <ele>371.5</ele>
        <time>2010-01-01T00:00:00Z</time>
      </trkpt>
      <trkpt lat="44.67785" lon="1.64159">
        <ele>369.9</ele>
        <time>2010-01-01T00:00:00Z</time>
      </trkpt>
      <trkpt lat="44.67794" lon="1.6416">
        <ele>369.4</ele>
        <time>2010-01-01T00:00:00Z</time>
      </trkpt>
      <trkpt lat="44.67811" lon="1.64162">
        <ele>368.4</ele>
        <time>2010-01-01T00:00:00Z</time>
      </trkpt>
      <trkpt lat="44.67819" lon="1.64163">
        <ele>367.9</ele>
        <time>2010-01-01T00:00:00Z</time>
      </trkpt>
      <trkpt lat="44.67821" lon="1.64163">
        <ele>367.8</ele>
        <time>2010-01-01T00:00:00Z</time>
      </trkpt>
      <trkpt lat="44.67853" lon="1.64166">
        <ele>366.1</ele>
        <time>2010-01-01T00:00:00Z</time>
      </trkpt>
      <trkpt lat="44.67893" lon="1.64171">
        <ele>364.1</ele>
        <time>2010-01-01T00:00:00Z</time>
      </trkpt>
      <trkpt lat="44.6792" lon="1.64173">
        <ele>363.2</ele>
        <time>2010-01-01T00:00:00Z</time>
      </trkpt>
      <trkpt lat="44.67934" lon="1.64174">
        <ele>364</ele>
        <time>2010-01-01T00:00:00Z</time>
      </trkpt>
      <trkpt lat="44.67939" lon="1.64174">
        <ele>364.2</ele>
        <time>2010-01-01T00:00:00Z</time>
      </trkpt>
      <trkpt lat="44.67945" lon="1.64173">
        <ele>364.5</ele>
        <time>2010-01-01T00:00:00Z</time>
      </trkpt>
      <trkpt lat="44.67951" lon="1.6417">
        <ele>364.7</ele>
        <time>2010-01-01T00:00:00Z</time>
      </trkpt>
      <trkpt lat="44.67954" lon="1.64167">
        <ele>364.8</ele>
        <time>2010-01-01T00:00:00Z</time>
      </trkpt>
      <trkpt lat="44.67962" lon="1.64159">
        <ele>365</ele>
        <time>2010-01-01T00:00:00Z</time>
      </trkpt>
      <trkpt lat="44.67969" lon="1.64152">
        <ele>365.1</ele>
        <time>2010-01-01T00:00:00Z</time>
      </trkpt>
      <trkpt lat="44.67977" lon="1.64147">
        <ele>365.2</ele>
        <time>2010-01-01T00:00:00Z</time>
      </trkpt>
      <trkpt lat="44.67986" lon="1.64145">
        <ele>365.5</ele>
        <time>2010-01-01T00:00:00Z</time>
      </trkpt>
      <trkpt lat="44.67997" lon="1.64143">
        <ele>365.8</ele>
        <time>2010-01-01T00:00:00Z</time>
      </trkpt>
      <trkpt lat="44.68007" lon="1.64142">
        <ele>366.2</ele>
        <time>2010-01-01T00:00:00Z</time>
      </trkpt>
      <trkpt lat="44.68017" lon="1.64136">
        <ele>366.5</ele>
        <time>2010-01-01T00:00:00Z</time>
      </trkpt>
      <trkpt lat="44.68025" lon="1.64131">
        <ele>366.8</ele>
        <time>2010-01-01T00:00:00Z</time>
      </trkpt>
      <trkpt lat="44.68035" lon="1.64122">
        <ele>367</ele>
        <time>2010-01-01T00:00:00Z</time>
      </trkpt>
      <trkpt lat="44.68048" lon="1.64112">
        <ele>367.3</ele>
        <time>2010-01-01T00:00:00Z</time>
      </trkpt>
      <trkpt lat="44.68068" lon="1.64098">
        <ele>367.8</ele>
        <time>2010-01-01T00:00:00Z</time>
      </trkpt>
      <trkpt lat="44.6809" lon="1.64086">
        <ele>368.5</ele>
        <time>2010-01-01T00:00:00Z</time>
      </trkpt>
      <trkpt lat="44.68106" lon="1.64076">
        <ele>369.1</ele>
        <time>2010-01-01T00:00:00Z</time>
      </trkpt>
      <trkpt lat="44.68122" lon="1.64066">
        <ele>369.7</ele>
        <time>2010-01-01T00:00:00Z</time>
      </trkpt>
      <trkpt lat="44.68137" lon="1.6406">
        <ele>370.5</ele>
        <time>2010-01-01T00:00:00Z</time>
      </trkpt>
      <trkpt lat="44.68159" lon="1.64049">
        <ele>371.6</ele>
        <time>2010-01-01T00:00:00Z</time>
      </trkpt>
      <trkpt lat="44.68172" lon="1.64041">
        <ele>372.3</ele>
        <time>2010-01-01T00:00:00Z</time>
      </trkpt>
      <trkpt lat="44.68179" lon="1.64034">
        <ele>372.7</ele>
        <time>2010-01-01T00:00:00Z</time>
      </trkpt>
      <trkpt lat="44.68187" lon="1.64023">
        <ele>373.1</ele>
        <time>2010-01-01T00:00:00Z</time>
      </trkpt>
      <trkpt lat="44.68196" lon="1.64012">
        <ele>373.6</ele>
        <time>2010-01-01T00:00:00Z</time>
      </trkpt>
      <trkpt lat="44.68206" lon="1.64004">
        <ele>374.3</ele>
        <time>2010-01-01T00:00:00Z</time>
      </trkpt>
      <trkpt lat="44.68219" lon="1.63996">
        <ele>375.4</ele>
        <time>2010-01-01T00:00:00Z</time>
      </trkpt>
      <trkpt lat="44.68239" lon="1.63989">
        <ele>377.1</ele>
        <time>2010-01-01T00:00:00Z</time>
      </trkpt>
      <trkpt lat="44.68257" lon="1.63984">
        <ele>377.8</ele>
        <time>2010-01-01T00:00:00Z</time>
      </trkpt>
      <trkpt lat="44.6827" lon="1.6398">
        <ele>377.6</ele>
        <time>2010-01-01T00:00:00Z</time>
      </trkpt>
      <trkpt lat="44.68285" lon="1.63977">
        <ele>377.3</ele>
        <time>2010-01-01T00:00:00Z</time>
      </trkpt>
      <trkpt lat="44.68303" lon="1.63972">
        <ele>376.9</ele>
        <time>2010-01-01T00:00:00Z</time>
      </trkpt>
      <trkpt lat="44.68323" lon="1.63965">
        <ele>376.6</ele>
        <time>2010-01-01T00:00:00Z</time>
      </trkpt>
      <trkpt lat="44.68326" lon="1.63962">
        <ele>376.6</ele>
        <time>2010-01-01T00:00:00Z</time>
      </trkpt>
      <trkpt lat="44.68329" lon="1.63956">
        <ele>376.6</ele>
        <time>2010-01-01T00:00:00Z</time>
      </trkpt>
      <trkpt lat="44.68331" lon="1.6393">
        <ele>376.9</ele>
        <time>2010-01-01T00:00:00Z</time>
      </trkpt>
      <trkpt lat="44.68335" lon="1.63904">
        <ele>376.8</ele>
        <time>2010-01-01T00:00:00Z</time>
      </trkpt>
      <trkpt lat="44.68342" lon="1.63873">
        <ele>376.2</ele>
        <time>2010-01-01T00:00:00Z</time>
      </trkpt>
      <trkpt lat="44.68352" lon="1.63831">
        <ele>375.5</ele>
        <time>2010-01-01T00:00:00Z</time>
      </trkpt>
      <trkpt lat="44.68371" lon="1.63754">
        <ele>373.5</ele>
        <time>2010-01-01T00:00:00Z</time>
      </trkpt>
      <trkpt lat="44.68387" lon="1.63704">
        <ele>373.5</ele>
        <time>2010-01-01T00:00:00Z</time>
      </trkpt>
      <trkpt lat="44.68396" lon="1.63681">
        <ele>373.3</ele>
        <time>2010-01-01T00:00:00Z</time>
      </trkpt>
      <trkpt lat="44.68401" lon="1.63668">
        <ele>373.2</ele>
        <time>2010-01-01T00:00:00Z</time>
      </trkpt>
      <trkpt lat="44.68433" lon="1.63633">
        <ele>371.2</ele>
        <time>2010-01-01T00:00:00Z</time>
      </trkpt>
      <trkpt lat="44.68462" lon="1.63601">
        <ele>368.4</ele>
        <time>2010-01-01T00:00:00Z</time>
      </trkpt>
      <trkpt lat="44.68478" lon="1.6358">
        <ele>366.5</ele>
        <time>2010-01-01T00:00:00Z</time>
      </trkpt>
      <trkpt lat="44.68482" lon="1.63592">
        <ele>366.7</ele>
        <time>2010-01-01T00:00:00Z</time>
      </trkpt>
      <trkpt lat="44.68478" lon="1.6358">
        <ele>366.5</ele>
        <time>2010-01-01T00:00:00Z</time>
      </trkpt>
      <trkpt lat="44.68497" lon="1.63562">
        <ele>365</ele>
        <time>2010-01-01T00:00:00Z</time>
      </trkpt>
      <trkpt lat="44.68522" lon="1.63546">
        <ele>363.1</ele>
        <time>2010-01-01T00:00:00Z</time>
      </trkpt>
      <trkpt lat="44.68543" lon="1.63532">
        <ele>361.6</ele>
        <time>2010-01-01T00:00:00Z</time>
      </trkpt>
      <trkpt lat="44.68575" lon="1.63509">
        <ele>359.5</ele>
        <time>2010-01-01T00:00:00Z</time>
      </trkpt>
      <trkpt lat="44.68615" lon="1.63476">
        <ele>357.1</ele>
        <time>2010-01-01T00:00:00Z</time>
      </trkpt>
      <trkpt lat="44.6865" lon="1.63448">
        <ele>355</ele>
        <time>2010-01-01T00:00:00Z</time>
      </trkpt>
      <trkpt lat="44.68671" lon="1.6343">
        <ele>353.9</ele>
        <time>2010-01-01T00:00:00Z</time>
      </trkpt>
      <trkpt lat="44.68685" lon="1.63418">
        <ele>353.3</ele>
        <time>2010-01-01T00:00:00Z</time>
      </trkpt>
      <trkpt lat="44.68704" lon="1.63402">
        <ele>353.1</ele>
        <time>2010-01-01T00:00:00Z</time>
      </trkpt>
      <trkpt lat="44.68716" lon="1.63389">
        <ele>353</ele>
        <time>2010-01-01T00:00:00Z</time>
      </trkpt>
      <trkpt lat="44.68717" lon="1.63382">
        <ele>353.2</ele>
        <time>2010-01-01T00:00:00Z</time>
      </trkpt>
      <trkpt lat="44.68721" lon="1.63359">
        <ele>353.7</ele>
        <time>2010-01-01T00:00:00Z</time>
      </trkpt>
      <trkpt lat="44.68741" lon="1.63263">
        <ele>355.3</ele>
        <time>2010-01-01T00:00:00Z</time>
      </trkpt>
      <trkpt lat="44.68764" lon="1.63139">
        <ele>353.1</ele>
        <time>2010-01-01T00:00:00Z</time>
      </trkpt>
      <trkpt lat="44.68779" lon="1.63063">
        <ele>351.6</ele>
        <time>2010-01-01T00:00:00Z</time>
      </trkpt>
      <trkpt lat="44.68787" lon="1.63018">
        <ele>351.2</ele>
        <time>2010-01-01T00:00:00Z</time>
      </trkpt>
      <trkpt lat="44.68798" lon="1.62956">
        <ele>352</ele>
        <time>2010-01-01T00:00:00Z</time>
      </trkpt>
      <trkpt lat="44.68813" lon="1.62882">
        <ele>353.5</ele>
        <time>2010-01-01T00:00:00Z</time>
      </trkpt>
      <trkpt lat="44.68822" lon="1.62836">
        <ele>354.6</ele>
        <time>2010-01-01T00:00:00Z</time>
      </trkpt>
      <trkpt lat="44.68839" lon="1.62752">
        <ele>358.7</ele>
        <time>2010-01-01T00:00:00Z</time>
      </trkpt>
      <trkpt lat="44.68855" lon="1.62671">
        <ele>358.7</ele>
        <time>2010-01-01T00:00:00Z</time>
      </trkpt>
      <trkpt lat="44.6887" lon="1.62592">
        <ele>355.8</ele>
        <time>2010-01-01T00:00:00Z</time>
      </trkpt>
      <trkpt lat="44.68881" lon="1.62532">
        <ele>353.5</ele>
        <time>2010-01-01T00:00:00Z</time>
      </trkpt>
      <trkpt lat="44.68895" lon="1.62458">
        <ele>351.2</ele>
        <time>2010-01-01T00:00:00Z</time>
      </trkpt>
      <trkpt lat="44.68897" lon="1.62451">
        <ele>350.9</ele>
        <time>2010-01-01T00:00:00Z</time>
      </trkpt>
      <trkpt lat="44.68915" lon="1.62364">
        <ele>349.1</ele>
        <time>2010-01-01T00:00:00Z</time>
      </trkpt>
      <trkpt lat="44.68936" lon="1.62262">
        <ele>349.6</ele>
        <time>2010-01-01T00:00:00Z</time>
      </trkpt>
      <trkpt lat="44.68951" lon="1.62187">
        <ele>350</ele>
        <time>2010-01-01T00:00:00Z</time>
      </trkpt>
      <trkpt lat="44.68964" lon="1.62132">
        <ele>349.4</ele>
        <time>2010-01-01T00:00:00Z</time>
      </trkpt>
      <trkpt lat="44.68969" lon="1.62103">
        <ele>348.9</ele>
        <time>2010-01-01T00:00:00Z</time>
      </trkpt>
      <trkpt lat="44.68985" lon="1.62031">
        <ele>347</ele>
        <time>2010-01-01T00:00:00Z</time>
      </trkpt>
      <trkpt lat="44.68991" lon="1.62038">
        <ele>347.1</ele>
        <time>2010-01-01T00:00:00Z</time>
      </trkpt>
      <trkpt lat="44.69017" lon="1.6207">
        <ele>346.5</ele>
        <time>2010-01-01T00:00:00Z</time>
      </trkpt>
      <trkpt lat="44.69054" lon="1.62111">
        <ele>344.1</ele>
        <time>2010-01-01T00:00:00Z</time>
      </trkpt>
      <trkpt lat="44.69076" lon="1.62137">
        <ele>342.5</ele>
        <time>2010-01-01T00:00:00Z</time>
      </trkpt>
      <trkpt lat="44.69112" lon="1.62179">
        <ele>341.2</ele>
        <time>2010-01-01T00:00:00Z</time>
      </trkpt>
      <trkpt lat="44.69137" lon="1.6221">
        <ele>340.9</ele>
        <time>2010-01-01T00:00:00Z</time>
      </trkpt>
      <trkpt lat="44.69159" lon="1.62235">
        <ele>340.8</ele>
        <time>2010-01-01T00:00:00Z</time>
      </trkpt>
      <trkpt lat="44.69188" lon="1.62269">
        <ele>343.3</ele>
        <time>2010-01-01T00:00:00Z</time>
      </trkpt>
      <trkpt lat="44.69228" lon="1.62314">
        <ele>346.8</ele>
        <time>2010-01-01T00:00:00Z</time>
      </trkpt>
      <trkpt lat="44.69256" lon="1.62345">
        <ele>348.2</ele>
        <time>2010-01-01T00:00:00Z</time>
      </trkpt>
      <trkpt lat="44.69295" lon="1.62389">
        <ele>349.3</ele>
        <time>2010-01-01T00:00:00Z</time>
      </trkpt>
      <trkpt lat="44.69315" lon="1.6241">
        <ele>349.6</ele>
        <time>2010-01-01T00:00:00Z</time>
      </trkpt>
      <trkpt lat="44.69378" lon="1.62482">
        <ele>349.9</ele>
        <time>2010-01-01T00:00:00Z</time>
      </trkpt>
      <trkpt lat="44.69384" lon="1.62488">
        <ele>350</ele>
        <time>2010-01-01T00:00:00Z</time>
      </trkpt>
      <trkpt lat="44.69378" lon="1.62482">
        <ele>349.9</ele>
        <time>2010-01-01T00:00:00Z</time>
      </trkpt>
      <trkpt lat="44.69374" lon="1.62493">
        <ele>350.3</ele>
        <time>2010-01-01T00:00:00Z</time>
      </trkpt>
      <trkpt lat="44.69365" lon="1.62515">
        <ele>351.3</ele>
        <time>2010-01-01T00:00:00Z</time>
      </trkpt>
      <trkpt lat="44.6935" lon="1.62543">
        <ele>352.6</ele>
        <time>2010-01-01T00:00:00Z</time>
      </trkpt>
      <trkpt lat="44.69316" lon="1.62627">
        <ele>354.8</ele>
        <time>2010-01-01T00:00:00Z</time>
      </trkpt>
      <trkpt lat="44.69297" lon="1.62678">
        <ele>355.5</ele>
        <time>2010-01-01T00:00:00Z</time>
      </trkpt>
      <trkpt lat="44.69275" lon="1.62728">
        <ele>355.7</ele>
        <time>2010-01-01T00:00:00Z</time>
      </trkpt>
      <trkpt lat="44.69259" lon="1.62767">
        <ele>356.5</ele>
        <time>2010-01-01T00:00:00Z</time>
      </trkpt>
      <trkpt lat="44.69221" lon="1.6286">
        <ele>358.3</ele>
        <time>2010-01-01T00:00:00Z</time>
      </trkpt>
      <trkpt lat="44.69226" lon="1.62864">
        <ele>359</ele>
        <time>2010-01-01T00:00:00Z</time>
      </trkpt>
      <trkpt lat="44.69281" lon="1.62911">
        <ele>364.9</ele>
        <time>2010-01-01T00:00:00Z</time>
      </trkpt>
      <trkpt lat="44.69329" lon="1.62952">
        <ele>368.5</ele>
        <time>2010-01-01T00:00:00Z</time>
      </trkpt>
      <trkpt lat="44.69353" lon="1.62974">
        <ele>370.3</ele>
        <time>2010-01-01T00:00:00Z</time>
      </trkpt>
      <trkpt lat="44.69358" lon="1.62976">
        <ele>370.5</ele>
        <time>2010-01-01T00:00:00Z</time>
      </trkpt>
      <trkpt lat="44.69363" lon="1.62976">
        <ele>370.7</ele>
        <time>2010-01-01T00:00:00Z</time>
      </trkpt>
      <trkpt lat="44.69382" lon="1.62965">
        <ele>370.7</ele>
        <time>2010-01-01T00:00:00Z</time>
      </trkpt>
      <trkpt lat="44.69407" lon="1.62948">
        <ele>370.8</ele>
        <time>2010-01-01T00:00:00Z</time>
      </trkpt>
      <trkpt lat="44.69443" lon="1.62925">
        <ele>370.2</ele>
        <time>2010-01-01T00:00:00Z</time>
      </trkpt>
      <trkpt lat="44.69464" lon="1.62912">
        <ele>369.7</ele>
        <time>2010-01-01T00:00:00Z</time>
      </trkpt>
      <trkpt lat="44.69489" lon="1.62901">
        <ele>369.1</ele>
        <time>2010-01-01T00:00:00Z</time>
      </trkpt>
      <trkpt lat="44.69541" lon="1.6289">
        <ele>368.5</ele>
        <time>2010-01-01T00:00:00Z</time>
      </trkpt>
      <trkpt lat="44.69573" lon="1.62885">
        <ele>368.6</ele>
        <time>2010-01-01T00:00:00Z</time>
      </trkpt>
      <trkpt lat="44.69581" lon="1.62883">
        <ele>368.6</ele>
        <time>2010-01-01T00:00:00Z</time>
      </trkpt>
      <trkpt lat="44.69584" lon="1.62883">
        <ele>368.6</ele>
        <time>2010-01-01T00:00:00Z</time>
      </trkpt>
      <trkpt lat="44.69585" lon="1.62875">
        <ele>368.6</ele>
        <time>2010-01-01T00:00:00Z</time>
      </trkpt>
      <trkpt lat="44.6959" lon="1.62837">
        <ele>368.4</ele>
        <time>2010-01-01T00:00:00Z</time>
      </trkpt>
      <trkpt lat="44.69593" lon="1.62799">
        <ele>367.3</ele>
        <time>2010-01-01T00:00:00Z</time>
      </trkpt>
      <trkpt lat="44.69595" lon="1.62769">
        <ele>366.5</ele>
        <time>2010-01-01T00:00:00Z</time>
      </trkpt>
      <trkpt lat="44.69596" lon="1.6275">
        <ele>365.9</ele>
        <time>2010-01-01T00:00:00Z</time>
      </trkpt>
      <trkpt lat="44.69598" lon="1.62735">
        <ele>365.8</ele>
        <time>2010-01-01T00:00:00Z</time>
      </trkpt>
      <trkpt lat="44.69598" lon="1.62718">
        <ele>365.6</ele>
        <time>2010-01-01T00:00:00Z</time>
      </trkpt>
      <trkpt lat="44.69602" lon="1.62675">
        <ele>365.2</ele>
        <time>2010-01-01T00:00:00Z</time>
      </trkpt>
      <trkpt lat="44.69608" lon="1.62628">
        <ele>365.5</ele>
        <time>2010-01-01T00:00:00Z</time>
      </trkpt>
      <trkpt lat="44.69612" lon="1.62578">
        <ele>365.4</ele>
        <time>2010-01-01T00:00:00Z</time>
      </trkpt>
      <trkpt lat="44.69616" lon="1.62525">
        <ele>363</ele>
        <time>2010-01-01T00:00:00Z</time>
      </trkpt>
      <trkpt lat="44.69622" lon="1.62444">
        <ele>359.9</ele>
        <time>2010-01-01T00:00:00Z</time>
      </trkpt>
      <trkpt lat="44.69627" lon="1.62371">
        <ele>357.2</ele>
        <time>2010-01-01T00:00:00Z</time>
      </trkpt>
      <trkpt lat="44.69631" lon="1.62341">
        <ele>356.2</ele>
        <time>2010-01-01T00:00:00Z</time>
      </trkpt>
      <trkpt lat="44.69635" lon="1.62309">
        <ele>355.4</ele>
        <time>2010-01-01T00:00:00Z</time>
      </trkpt>
      <trkpt lat="44.69636" lon="1.62277">
        <ele>354.6</ele>
        <time>2010-01-01T00:00:00Z</time>
      </trkpt>
      <trkpt lat="44.69641" lon="1.62209">
        <ele>354</ele>
        <time>2010-01-01T00:00:00Z</time>
      </trkpt>
      <trkpt lat="44.69648" lon="1.62134">
        <ele>353.6</ele>
        <time>2010-01-01T00:00:00Z</time>
      </trkpt>
      <trkpt lat="44.69657" lon="1.62012">
        <ele>349.9</ele>
        <time>2010-01-01T00:00:00Z</time>
      </trkpt>
      <trkpt lat="44.69664" lon="1.61924">
        <ele>347.1</ele>
        <time>2010-01-01T00:00:00Z</time>
      </trkpt>
      <trkpt lat="44.69671" lon="1.61853">
        <ele>347</ele>
        <time>2010-01-01T00:00:00Z</time>
      </trkpt>
      <trkpt lat="44.69676" lon="1.61829">
        <ele>346.9</ele>
        <time>2010-01-01T00:00:00Z</time>
      </trkpt>
      <trkpt lat="44.69677" lon="1.6183">
        <ele>347</ele>
        <time>2010-01-01T00:00:00Z</time>
      </trkpt>
      <trkpt lat="44.69676" lon="1.61829">
        <ele>346.9</ele>
        <time>2010-01-01T00:00:00Z</time>
      </trkpt>
      <trkpt lat="44.6958" lon="1.61621">
        <ele>343.8</ele>
        <time>2010-01-01T00:00:00Z</time>
      </trkpt>
      <trkpt lat="44.69589" lon="1.61608">
        <ele>344.1</ele>
        <time>2010-01-01T00:00:00Z</time>
      </trkpt>
      <trkpt lat="44.69588" lon="1.61601">
        <ele>344.1</ele>
        <time>2010-01-01T00:00:00Z</time>
      </trkpt>
      <trkpt lat="44.69586" lon="1.61595">
        <ele>344</ele>
        <time>2010-01-01T00:00:00Z</time>
      </trkpt>
      <trkpt lat="44.69575" lon="1.61575">
        <ele>343.7</ele>
        <time>2010-01-01T00:00:00Z</time>
      </trkpt>
      <trkpt lat="44.69572" lon="1.61565">
        <ele>343.6</ele>
        <time>2010-01-01T00:00:00Z</time>
      </trkpt>
      <trkpt lat="44.69572" lon="1.61557">
        <ele>343.6</ele>
        <time>2010-01-01T00:00:00Z</time>
      </trkpt>
      <trkpt lat="44.69572" lon="1.6155">
        <ele>343.7</ele>
        <time>2010-01-01T00:00:00Z</time>
      </trkpt>
      <trkpt lat="44.69586" lon="1.61456">
        <ele>343.5</ele>
        <time>2010-01-01T00:00:00Z</time>
      </trkpt>
      <trkpt lat="44.69595" lon="1.61406">
        <ele>342.1</ele>
        <time>2010-01-01T00:00:00Z</time>
      </trkpt>
      <trkpt lat="44.69605" lon="1.61326">
        <ele>340.9</ele>
        <time>2010-01-01T00:00:00Z</time>
      </trkpt>
      <trkpt lat="44.69611" lon="1.6127">
        <ele>339.7</ele>
        <time>2010-01-01T00:00:00Z</time>
      </trkpt>
      <trkpt lat="44.69616" lon="1.61229">
        <ele>338.9</ele>
        <time>2010-01-01T00:00:00Z</time>
      </trkpt>
      <trkpt lat="44.69632" lon="1.61129">
        <ele>336.8</ele>
        <time>2010-01-01T00:00:00Z</time>
      </trkpt>
      <trkpt lat="44.69653" lon="1.60961">
        <ele>333.6</ele>
        <time>2010-01-01T00:00:00Z</time>
      </trkpt>
      <trkpt lat="44.69663" lon="1.60888">
        <ele>333.5</ele>
        <time>2010-01-01T00:00:00Z</time>
      </trkpt>
      <trkpt lat="44.69681" lon="1.60758">
        <ele>334</ele>
        <time>2010-01-01T00:00:00Z</time>
      </trkpt>
      <trkpt lat="44.69705" lon="1.60572">
        <ele>332.3</ele>
        <time>2010-01-01T00:00:00Z</time>
      </trkpt>
      <trkpt lat="44.69727" lon="1.60425">
        <ele>327.8</ele>
        <time>2010-01-01T00:00:00Z</time>
      </trkpt>
      <trkpt lat="44.69738" lon="1.60323">
        <ele>327.1</ele>
        <time>2010-01-01T00:00:00Z</time>
      </trkpt>
      <trkpt lat="44.69747" lon="1.60262">
        <ele>327.8</ele>
        <time>2010-01-01T00:00:00Z</time>
      </trkpt>
      <trkpt lat="44.69759" lon="1.60189">
        <ele>329.6</ele>
        <time>2010-01-01T00:00:00Z</time>
      </trkpt>
      <trkpt lat="44.69763" lon="1.60193">
        <ele>329.6</ele>
        <time>2010-01-01T00:00:00Z</time>
      </trkpt>
      <trkpt lat="44.69771" lon="1.60202">
        <ele>329.5</ele>
        <time>2010-01-01T00:00:00Z</time>
      </trkpt>
      <trkpt lat="44.6978" lon="1.60217">
        <ele>329.4</ele>
        <time>2010-01-01T00:00:00Z</time>
      </trkpt>
      <trkpt lat="44.6979" lon="1.60233">
        <ele>329.3</ele>
        <time>2010-01-01T00:00:00Z</time>
      </trkpt>
      <trkpt lat="44.69797" lon="1.6024">
        <ele>329.3</ele>
        <time>2010-01-01T00:00:00Z</time>
      </trkpt>
      <trkpt lat="44.69801" lon="1.60243">
        <ele>329.3</ele>
        <time>2010-01-01T00:00:00Z</time>
      </trkpt>
      <trkpt lat="44.69838" lon="1.60271">
        <ele>330.4</ele>
        <time>2010-01-01T00:00:00Z</time>
      </trkpt>
      <trkpt lat="44.69859" lon="1.60288">
        <ele>332.5</ele>
        <time>2010-01-01T00:00:00Z</time>
      </trkpt>
      <trkpt lat="44.69873" lon="1.60306">
        <ele>333.8</ele>
        <time>2010-01-01T00:00:00Z</time>
      </trkpt>
      <trkpt lat="44.69891" lon="1.60332">
        <ele>335.5</ele>
        <time>2010-01-01T00:00:00Z</time>
      </trkpt>
      <trkpt lat="44.69908" lon="1.60353">
        <ele>336.3</ele>
        <time>2010-01-01T00:00:00Z</time>
      </trkpt>
      <trkpt lat="44.69921" lon="1.60367">
        <ele>336.4</ele>
        <time>2010-01-01T00:00:00Z</time>
      </trkpt>
      <trkpt lat="44.69959" lon="1.60394">
        <ele>335.1</ele>
        <time>2010-01-01T00:00:00Z</time>
      </trkpt>
      <trkpt lat="44.69983" lon="1.60415">
        <ele>334.1</ele>
        <time>2010-01-01T00:00:00Z</time>
      </trkpt>
      <trkpt lat="44.70001" lon="1.60434">
        <ele>333.8</ele>
        <time>2010-01-01T00:00:00Z</time>
      </trkpt>
      <trkpt lat="44.70004" lon="1.60438">
        <ele>333.9</ele>
        <time>2010-01-01T00:00:00Z</time>
      </trkpt>
      <trkpt lat="44.70022" lon="1.60454">
        <ele>334.6</ele>
        <time>2010-01-01T00:00:00Z</time>
      </trkpt>
      <trkpt lat="44.70035" lon="1.60461">
        <ele>335.1</ele>
        <time>2010-01-01T00:00:00Z</time>
      </trkpt>
      <trkpt lat="44.70045" lon="1.60462">
        <ele>335.6</ele>
        <time>2010-01-01T00:00:00Z</time>
      </trkpt>
      <trkpt lat="44.70079" lon="1.6046">
        <ele>337.3</ele>
        <time>2010-01-01T00:00:00Z</time>
      </trkpt>
      <trkpt lat="44.70127" lon="1.60461">
        <ele>340.1</ele>
        <time>2010-01-01T00:00:00Z</time>
      </trkpt>
      <trkpt lat="44.70158" lon="1.60465">
        <ele>341.9</ele>
        <time>2010-01-01T00:00:00Z</time>
      </trkpt>
      <trkpt lat="44.70189" lon="1.60475">
        <ele>343.4</ele>
        <time>2010-01-01T00:00:00Z</time>
      </trkpt>
      <trkpt lat="44.70227" lon="1.60495">
        <ele>345</ele>
        <time>2010-01-01T00:00:00Z</time>
      </trkpt>
      <trkpt lat="44.70264" lon="1.60519">
        <ele>345.2</ele>
        <time>2010-01-01T00:00:00Z</time>
      </trkpt>
      <trkpt lat="44.70306" lon="1.60555">
        <ele>344.7</ele>
        <time>2010-01-01T00:00:00Z</time>
      </trkpt>
      <trkpt lat="44.70321" lon="1.60569">
        <ele>344.8</ele>
        <time>2010-01-01T00:00:00Z</time>
      </trkpt>
      <trkpt lat="44.70322" lon="1.6057">
        <ele>344.8</ele>
        <time>2010-01-01T00:00:00Z</time>
      </trkpt>
      <trkpt lat="44.70331" lon="1.60575">
        <ele>345</ele>
        <time>2010-01-01T00:00:00Z</time>
      </trkpt>
      <trkpt lat="44.70335" lon="1.60578">
        <ele>345.1</ele>
        <time>2010-01-01T00:00:00Z</time>
      </trkpt>
      <trkpt lat="44.7036" lon="1.60585">
        <ele>345.3</ele>
        <time>2010-01-01T00:00:00Z</time>
      </trkpt>
      <trkpt lat="44.70376" lon="1.6059">
        <ele>345.5</ele>
        <time>2010-01-01T00:00:00Z</time>
      </trkpt>
      <trkpt lat="44.70391" lon="1.60597">
        <ele>345.6</ele>
        <time>2010-01-01T00:00:00Z</time>
      </trkpt>
      <trkpt lat="44.70423" lon="1.60623">
        <ele>346.1</ele>
        <time>2010-01-01T00:00:00Z</time>
      </trkpt>
      <trkpt lat="44.70454" lon="1.6065">
        <ele>346.8</ele>
        <time>2010-01-01T00:00:00Z</time>
      </trkpt>
      <trkpt lat="44.70468" lon="1.6066">
        <ele>347.2</ele>
        <time>2010-01-01T00:00:00Z</time>
      </trkpt>
      <trkpt lat="44.70522" lon="1.6069">
        <ele>347.1</ele>
        <time>2010-01-01T00:00:00Z</time>
      </trkpt>
      <trkpt lat="44.70582" lon="1.60722">
        <ele>347</ele>
        <time>2010-01-01T00:00:00Z</time>
      </trkpt>
      <trkpt lat="44.70604" lon="1.60737">
        <ele>346.6</ele>
        <time>2010-01-01T00:00:00Z</time>
      </trkpt>
      <trkpt lat="44.70627" lon="1.60757">
        <ele>346.5</ele>
        <time>2010-01-01T00:00:00Z</time>
      </trkpt>
      <trkpt lat="44.70652" lon="1.60784">
        <ele>346.4</ele>
        <time>2010-01-01T00:00:00Z</time>
      </trkpt>
      <trkpt lat="44.7067" lon="1.60801">
        <ele>346.6</ele>
        <time>2010-01-01T00:00:00Z</time>
      </trkpt>
      <trkpt lat="44.70686" lon="1.6081">
        <ele>346.5</ele>
        <time>2010-01-01T00:00:00Z</time>
      </trkpt>
      <trkpt lat="44.70706" lon="1.60817">
        <ele>346.1</ele>
        <time>2010-01-01T00:00:00Z</time>
      </trkpt>
      <trkpt lat="44.70726" lon="1.60822">
        <ele>345.7</ele>
        <time>2010-01-01T00:00:00Z</time>
      </trkpt>
      <trkpt lat="44.70745" lon="1.6083">
        <ele>345.2</ele>
        <time>2010-01-01T00:00:00Z</time>
      </trkpt>
      <trkpt lat="44.70801" lon="1.60865">
        <ele>344.8</ele>
        <time>2010-01-01T00:00:00Z</time>
      </trkpt>
      <trkpt lat="44.70862" lon="1.60901">
        <ele>346.8</ele>
        <time>2010-01-01T00:00:00Z</time>
      </trkpt>
      <trkpt lat="44.70912" lon="1.6093">
        <ele>348.8</ele>
        <time>2010-01-01T00:00:00Z</time>
      </trkpt>
      <trkpt lat="44.70952" lon="1.60947">
        <ele>349.7</ele>
        <time>2010-01-01T00:00:00Z</time>
      </trkpt>
      <trkpt lat="44.70983" lon="1.60963">
        <ele>350.1</ele>
        <time>2010-01-01T00:00:00Z</time>
      </trkpt>
      <trkpt lat="44.71055" lon="1.61011">
        <ele>350.2</ele>
        <time>2010-01-01T00:00:00Z</time>
      </trkpt>
      <trkpt lat="44.71125" lon="1.61058">
        <ele>351</ele>
        <time>2010-01-01T00:00:00Z</time>
      </trkpt>
      <trkpt lat="44.71152" lon="1.61074">
        <ele>351</ele>
        <time>2010-01-01T00:00:00Z</time>
      </trkpt>
      <trkpt lat="44.7117" lon="1.61082">
        <ele>350.9</ele>
        <time>2010-01-01T00:00:00Z</time>
      </trkpt>
      <trkpt lat="44.71188" lon="1.61088">
        <ele>350.5</ele>
        <time>2010-01-01T00:00:00Z</time>
      </trkpt>
      <trkpt lat="44.71206" lon="1.6109">
        <ele>350</ele>
        <time>2010-01-01T00:00:00Z</time>
      </trkpt>
      <trkpt lat="44.71239" lon="1.61089">
        <ele>349.1</ele>
        <time>2010-01-01T00:00:00Z</time>
      </trkpt>
      <trkpt lat="44.71288" lon="1.61089">
        <ele>346.9</ele>
        <time>2010-01-01T00:00:00Z</time>
      </trkpt>
      <trkpt lat="44.71322" lon="1.6109">
        <ele>345.1</ele>
        <time>2010-01-01T00:00:00Z</time>
      </trkpt>
      <trkpt lat="44.71338" lon="1.61093">
        <ele>344</ele>
        <time>2010-01-01T00:00:00Z</time>
      </trkpt>
      <trkpt lat="44.71351" lon="1.611">
        <ele>342.8</ele>
        <time>2010-01-01T00:00:00Z</time>
      </trkpt>
      <trkpt lat="44.71374" lon="1.61113">
        <ele>341</ele>
        <time>2010-01-01T00:00:00Z</time>
      </trkpt>
      <trkpt lat="44.71422" lon="1.61144">
        <ele>339</ele>
        <time>2010-01-01T00:00:00Z</time>
      </trkpt>
      <trkpt lat="44.71449" lon="1.6116">
        <ele>339</ele>
        <time>2010-01-01T00:00:00Z</time>
      </trkpt>
      <trkpt lat="44.71473" lon="1.61172">
        <ele>339</ele>
        <time>2010-01-01T00:00:00Z</time>
      </trkpt>
      <trkpt lat="44.71516" lon="1.61187">
        <ele>337.8</ele>
        <time>2010-01-01T00:00:00Z</time>
      </trkpt>
      <trkpt lat="44.71534" lon="1.61199">
        <ele>336.7</ele>
        <time>2010-01-01T00:00:00Z</time>
      </trkpt>
      <trkpt lat="44.71555" lon="1.61215">
        <ele>335.5</ele>
        <time>2010-01-01T00:00:00Z</time>
      </trkpt>
      <trkpt lat="44.71573" lon="1.61227">
        <ele>334.5</ele>
        <time>2010-01-01T00:00:00Z</time>
      </trkpt>
      <trkpt lat="44.71587" lon="1.61232">
        <ele>333.6</ele>
        <time>2010-01-01T00:00:00Z</time>
      </trkpt>
      <trkpt lat="44.71611" lon="1.61237">
        <ele>331.1</ele>
        <time>2010-01-01T00:00:00Z</time>
      </trkpt>
      <trkpt lat="44.71622" lon="1.61238">
        <ele>329.9</ele>
        <time>2010-01-01T00:00:00Z</time>
      </trkpt>
      <trkpt lat="44.71628" lon="1.6124">
        <ele>329.2</ele>
        <time>2010-01-01T00:00:00Z</time>
      </trkpt>
      <trkpt lat="44.71622" lon="1.61238">
        <ele>329.9</ele>
        <time>2010-01-01T00:00:00Z</time>
      </trkpt>
      <trkpt lat="44.71668" lon="1.61148">
        <ele>325.8</ele>
        <time>2010-01-01T00:00:00Z</time>
      </trkpt>
      <trkpt lat="44.71671" lon="1.61136">
        <ele>325.5</ele>
        <time>2010-01-01T00:00:00Z</time>
      </trkpt>
      <trkpt lat="44.71671" lon="1.61125">
        <ele>325.5</ele>
        <time>2010-01-01T00:00:00Z</time>
      </trkpt>
      <trkpt lat="44.71669" lon="1.61114">
        <ele>325.7</ele>
        <time>2010-01-01T00:00:00Z</time>
      </trkpt>
      <trkpt lat="44.71663" lon="1.61094">
        <ele>326.4</ele>
        <time>2010-01-01T00:00:00Z</time>
      </trkpt>
      <trkpt lat="44.71662" lon="1.61084">
        <ele>326.4</ele>
        <time>2010-01-01T00:00:00Z</time>
      </trkpt>
      <trkpt lat="44.71664" lon="1.61074">
        <ele>326.5</ele>
        <time>2010-01-01T00:00:00Z</time>
      </trkpt>
      <trkpt lat="44.71669" lon="1.61067">
        <ele>326.1</ele>
        <time>2010-01-01T00:00:00Z</time>
      </trkpt>
      <trkpt lat="44.71678" lon="1.61063">
        <ele>324.8</ele>
        <time>2010-01-01T00:00:00Z</time>
      </trkpt>
      <trkpt lat="44.71711" lon="1.6105">
        <ele>320.2</ele>
        <time>2010-01-01T00:00:00Z</time>
      </trkpt>
      <trkpt lat="44.71718" lon="1.61043">
        <ele>319.3</ele>
        <time>2010-01-01T00:00:00Z</time>
      </trkpt>
      <trkpt lat="44.71724" lon="1.61032">
        <ele>318.6</ele>
        <time>2010-01-01T00:00:00Z</time>
      </trkpt>
      <trkpt lat="44.71726" lon="1.61019">
        <ele>318.5</ele>
        <time>2010-01-01T00:00:00Z</time>
      </trkpt>
      <trkpt lat="44.71726" lon="1.61002">
        <ele>318.7</ele>
        <time>2010-01-01T00:00:00Z</time>
      </trkpt>
      <trkpt lat="44.7172" lon="1.60985">
        <ele>319.6</ele>
        <time>2010-01-01T00:00:00Z</time>
      </trkpt>
      <trkpt lat="44.71695" lon="1.60949">
        <ele>322.6</ele>
        <time>2010-01-01T00:00:00Z</time>
      </trkpt>
      <trkpt lat="44.71691" lon="1.6094">
        <ele>322.9</ele>
        <time>2010-01-01T00:00:00Z</time>
      </trkpt>
      <trkpt lat="44.71689" lon="1.6093">
        <ele>322.9</ele>
        <time>2010-01-01T00:00:00Z</time>
      </trkpt>
      <trkpt lat="44.71691" lon="1.60917">
        <ele>322.4</ele>
        <time>2010-01-01T00:00:00Z</time>
      </trkpt>
      <trkpt lat="44.71697" lon="1.60906">
        <ele>322.3</ele>
        <time>2010-01-01T00:00:00Z</time>
      </trkpt>
      <trkpt lat="44.717" lon="1.60904">
        <ele>322.1</ele>
        <time>2010-01-01T00:00:00Z</time>
      </trkpt>
      <trkpt lat="44.71705" lon="1.60903">
        <ele>321.6</ele>
        <time>2010-01-01T00:00:00Z</time>
      </trkpt>
      <trkpt lat="44.71736" lon="1.60915">
        <ele>317.6</ele>
        <time>2010-01-01T00:00:00Z</time>
      </trkpt>
      <trkpt lat="44.71747" lon="1.60916">
        <ele>316.4</ele>
        <time>2010-01-01T00:00:00Z</time>
      </trkpt>
      <trkpt lat="44.71757" lon="1.60913">
        <ele>316.5</ele>
        <time>2010-01-01T00:00:00Z</time>
      </trkpt>
      <trkpt lat="44.71762" lon="1.60908">
        <ele>317.1</ele>
        <time>2010-01-01T00:00:00Z</time>
      </trkpt>
      <trkpt lat="44.71765" lon="1.60902">
        <ele>317.5</ele>
        <time>2010-01-01T00:00:00Z</time>
      </trkpt>
      <trkpt lat="44.71776" lon="1.60842">
        <ele>320.9</ele>
        <time>2010-01-01T00:00:00Z</time>
      </trkpt>
      <trkpt lat="44.71777" lon="1.60836">
        <ele>321.2</ele>
        <time>2010-01-01T00:00:00Z</time>
      </trkpt>
      <trkpt lat="44.71781" lon="1.6083">
        <ele>321.5</ele>
        <time>2010-01-01T00:00:00Z</time>
      </trkpt>
      <trkpt lat="44.71789" lon="1.60828">
        <ele>321.7</ele>
        <time>2010-01-01T00:00:00Z</time>
      </trkpt>
      <trkpt lat="44.71798" lon="1.60833">
        <ele>321.6</ele>
        <time>2010-01-01T00:00:00Z</time>
      </trkpt>
      <trkpt lat="44.71805" lon="1.60834">
        <ele>321.6</ele>
        <time>2010-01-01T00:00:00Z</time>
      </trkpt>
      <trkpt lat="44.71806" lon="1.60821">
        <ele>322.2</ele>
        <time>2010-01-01T00:00:00Z</time>
      </trkpt>
      <trkpt lat="44.71811" lon="1.60766">
        <ele>324.4</ele>
        <time>2010-01-01T00:00:00Z</time>
      </trkpt>
      <trkpt lat="44.71821" lon="1.60708">
        <ele>326.7</ele>
        <time>2010-01-01T00:00:00Z</time>
      </trkpt>
      <trkpt lat="44.71825" lon="1.60675">
        <ele>327.9</ele>
        <time>2010-01-01T00:00:00Z</time>
      </trkpt>
      <trkpt lat="44.71823" lon="1.60657">
        <ele>328.3</ele>
        <time>2010-01-01T00:00:00Z</time>
      </trkpt>
      <trkpt lat="44.71818" lon="1.60632">
        <ele>328.7</ele>
        <time>2010-01-01T00:00:00Z</time>
      </trkpt>
      <trkpt lat="44.71814" lon="1.60594">
        <ele>329.1</ele>
        <time>2010-01-01T00:00:00Z</time>
      </trkpt>
      <trkpt lat="44.71815" lon="1.6056">
        <ele>329.5</ele>
        <time>2010-01-01T00:00:00Z</time>
      </trkpt>
      <trkpt lat="44.71821" lon="1.60524">
        <ele>329.7</ele>
        <time>2010-01-01T00:00:00Z</time>
      </trkpt>
      <trkpt lat="44.71833" lon="1.60489">
        <ele>329.8</ele>
        <time>2010-01-01T00:00:00Z</time>
      </trkpt>
      <trkpt lat="44.71848" lon="1.60459">
        <ele>333.7</ele>
        <time>2010-01-01T00:00:00Z</time>
      </trkpt>
      <trkpt lat="44.7187" lon="1.60428">
        <ele>336.7</ele>
        <time>2010-01-01T00:00:00Z</time>
      </trkpt>
      <trkpt lat="44.71898" lon="1.60406">
        <ele>338.5</ele>
        <time>2010-01-01T00:00:00Z</time>
      </trkpt>
      <trkpt lat="44.71929" lon="1.60394">
        <ele>340.7</ele>
        <time>2010-01-01T00:00:00Z</time>
      </trkpt>
      <trkpt lat="44.71957" lon="1.60388">
        <ele>343.2</ele>
        <time>2010-01-01T00:00:00Z</time>
      </trkpt>
      <trkpt lat="44.71971" lon="1.60379">
        <ele>344.3</ele>
        <time>2010-01-01T00:00:00Z</time>
      </trkpt>
      <trkpt lat="44.71986" lon="1.6036">
        <ele>345</ele>
        <time>2010-01-01T00:00:00Z</time>
      </trkpt>
      <trkpt lat="44.72003" lon="1.60315">
        <ele>347.2</ele>
        <time>2010-01-01T00:00:00Z</time>
      </trkpt>
      <trkpt lat="44.72093" lon="1.60121">
        <ele>364.2</ele>
        <time>2010-01-01T00:00:00Z</time>
      </trkpt>
      <trkpt lat="44.72091" lon="1.60122">
        <ele>363.9</ele>
        <time>2010-01-01T00:00:00Z</time>
      </trkpt>
      <trkpt lat="44.72092" lon="1.60123">
        <ele>364</ele>
        <time>2010-01-01T00:00:00Z</time>
      </trkpt>
      <trkpt lat="44.72108" lon="1.60176">
        <ele>362.6</ele>
        <time>2010-01-01T00:00:00Z</time>
      </trkpt>
      <trkpt lat="44.72112" lon="1.60196">
        <ele>362.9</ele>
        <time>2010-01-01T00:00:00Z</time>
      </trkpt>
      <trkpt lat="44.72113" lon="1.60213">
        <ele>362.8</ele>
        <time>2010-01-01T00:00:00Z</time>
      </trkpt>
      <trkpt lat="44.72112" lon="1.60231">
        <ele>362.6</ele>
        <time>2010-01-01T00:00:00Z</time>
      </trkpt>
      <trkpt lat="44.7211" lon="1.6024">
        <ele>362.3</ele>
        <time>2010-01-01T00:00:00Z</time>
      </trkpt>
      <trkpt lat="44.72108" lon="1.6026">
        <ele>362</ele>
        <time>2010-01-01T00:00:00Z</time>
      </trkpt>
      <trkpt lat="44.72109" lon="1.60267">
        <ele>362.2</ele>
        <time>2010-01-01T00:00:00Z</time>
      </trkpt>
      <trkpt lat="44.72109" lon="1.60275">
        <ele>362.3</ele>
        <time>2010-01-01T00:00:00Z</time>
      </trkpt>
      <trkpt lat="44.72111" lon="1.60283">
        <ele>362.6</ele>
        <time>2010-01-01T00:00:00Z</time>
      </trkpt>
      <trkpt lat="44.72113" lon="1.60292">
        <ele>362.9</ele>
        <time>2010-01-01T00:00:00Z</time>
      </trkpt>
      <trkpt lat="44.72117" lon="1.603">
        <ele>363.4</ele>
        <time>2010-01-01T00:00:00Z</time>
      </trkpt>
      <trkpt lat="44.72121" lon="1.60306">
        <ele>363.9</ele>
        <time>2010-01-01T00:00:00Z</time>
      </trkpt>
      <trkpt lat="44.72126" lon="1.60313">
        <ele>364.5</ele>
        <time>2010-01-01T00:00:00Z</time>
      </trkpt>
      <trkpt lat="44.72131" lon="1.60317">
        <ele>365.1</ele>
        <time>2010-01-01T00:00:00Z</time>
      </trkpt>
      <trkpt lat="44.72134" lon="1.6031">
        <ele>365.4</ele>
        <time>2010-01-01T00:00:00Z</time>
      </trkpt>
      <trkpt lat="44.72131" lon="1.60317">
        <ele>365.1</ele>
        <time>2010-01-01T00:00:00Z</time>
      </trkpt>
      <trkpt lat="44.7214" lon="1.60323">
        <ele>366.1</ele>
        <time>2010-01-01T00:00:00Z</time>
      </trkpt>
      <trkpt lat="44.72148" lon="1.60329">
        <ele>367</ele>
        <time>2010-01-01T00:00:00Z</time>
      </trkpt>
      <trkpt lat="44.72173" lon="1.60347">
        <ele>368.7</ele>
        <time>2010-01-01T00:00:00Z</time>
      </trkpt>
      <trkpt lat="44.72191" lon="1.6036">
        <ele>368.6</ele>
        <time>2010-01-01T00:00:00Z</time>
      </trkpt>
      <trkpt lat="44.72202" lon="1.60369">
        <ele>368.4</ele>
        <time>2010-01-01T00:00:00Z</time>
      </trkpt>
      <trkpt lat="44.7221" lon="1.60377">
        <ele>368.2</ele>
        <time>2010-01-01T00:00:00Z</time>
      </trkpt>
      <trkpt lat="44.72221" lon="1.60387">
        <ele>367.9</ele>
        <time>2010-01-01T00:00:00Z</time>
      </trkpt>
      <trkpt lat="44.7223" lon="1.60391">
        <ele>367.9</ele>
        <time>2010-01-01T00:00:00Z</time>
      </trkpt>
      <trkpt lat="44.72238" lon="1.60393">
        <ele>367.8</ele>
        <time>2010-01-01T00:00:00Z</time>
      </trkpt>
      <trkpt lat="44.72247" lon="1.60394">
        <ele>367.8</ele>
        <time>2010-01-01T00:00:00Z</time>
      </trkpt>
      <trkpt lat="44.72254" lon="1.60394">
        <ele>367.5</ele>
        <time>2010-01-01T00:00:00Z</time>
      </trkpt>
      <trkpt lat="44.72272" lon="1.60392">
        <ele>366.1</ele>
        <time>2010-01-01T00:00:00Z</time>
      </trkpt>
      <trkpt lat="44.72297" lon="1.60388">
        <ele>364.3</ele>
        <time>2010-01-01T00:00:00Z</time>
      </trkpt>
      <trkpt lat="44.72312" lon="1.60386">
        <ele>363.2</ele>
        <time>2010-01-01T00:00:00Z</time>
      </trkpt>
      <trkpt lat="44.72328" lon="1.60382">
        <ele>362.3</ele>
        <time>2010-01-01T00:00:00Z</time>
      </trkpt>
      <trkpt lat="44.72345" lon="1.60378">
        <ele>360.7</ele>
        <time>2010-01-01T00:00:00Z</time>
      </trkpt>
      <trkpt lat="44.72358" lon="1.60374">
        <ele>359.3</ele>
        <time>2010-01-01T00:00:00Z</time>
      </trkpt>
      <trkpt lat="44.72371" lon="1.60371">
        <ele>357.9</ele>
        <time>2010-01-01T00:00:00Z</time>
      </trkpt>
      <trkpt lat="44.72385" lon="1.60368">
        <ele>356.3</ele>
        <time>2010-01-01T00:00:00Z</time>
      </trkpt>
      <trkpt lat="44.72393" lon="1.60367">
        <ele>355.3</ele>
        <time>2010-01-01T00:00:00Z</time>
      </trkpt>
      <trkpt lat="44.72398" lon="1.60368">
        <ele>354.6</ele>
        <time>2010-01-01T00:00:00Z</time>
      </trkpt>
      <trkpt lat="44.72402" lon="1.60372">
        <ele>353.7</ele>
        <time>2010-01-01T00:00:00Z</time>
      </trkpt>
      <trkpt lat="44.72403" lon="1.60376">
        <ele>353.2</ele>
        <time>2010-01-01T00:00:00Z</time>
      </trkpt>
      <trkpt lat="44.72404" lon="1.60384">
        <ele>352.4</ele>
        <time>2010-01-01T00:00:00Z</time>
      </trkpt>
      <trkpt lat="44.72404" lon="1.60393">
        <ele>351.7</ele>
        <time>2010-01-01T00:00:00Z</time>
      </trkpt>
      <trkpt lat="44.72402" lon="1.60402">
        <ele>351.2</ele>
        <time>2010-01-01T00:00:00Z</time>
      </trkpt>
      <trkpt lat="44.72393" lon="1.60434">
        <ele>350</ele>
        <time>2010-01-01T00:00:00Z</time>
      </trkpt>
      <trkpt lat="44.7239" lon="1.60451">
        <ele>349.2</ele>
        <time>2010-01-01T00:00:00Z</time>
      </trkpt>
      <trkpt lat="44.72389" lon="1.60464">
        <ele>348.4</ele>
        <time>2010-01-01T00:00:00Z</time>
      </trkpt>
      <trkpt lat="44.72389" lon="1.60473">
        <ele>347.8</ele>
        <time>2010-01-01T00:00:00Z</time>
      </trkpt>
      <trkpt lat="44.72391" lon="1.60483">
        <ele>347</ele>
        <time>2010-01-01T00:00:00Z</time>
      </trkpt>
      <trkpt lat="44.72394" lon="1.60491">
        <ele>346.2</ele>
        <time>2010-01-01T00:00:00Z</time>
      </trkpt>
      <trkpt lat="44.72407" lon="1.60511">
        <ele>344.4</ele>
        <time>2010-01-01T00:00:00Z</time>
      </trkpt>
      <trkpt lat="44.72423" lon="1.60532">
        <ele>342.8</ele>
        <time>2010-01-01T00:00:00Z</time>
      </trkpt>
      <trkpt lat="44.72438" lon="1.60551">
        <ele>341.8</ele>
        <time>2010-01-01T00:00:00Z</time>
      </trkpt>
      <trkpt lat="44.72442" lon="1.60555">
        <ele>341.6</ele>
        <time>2010-01-01T00:00:00Z</time>
      </trkpt>
      <trkpt lat="44.72445" lon="1.6056">
        <ele>341.4</ele>
        <time>2010-01-01T00:00:00Z</time>
      </trkpt>
      <trkpt lat="44.72451" lon="1.60542">
        <ele>341.1</ele>
        <time>2010-01-01T00:00:00Z</time>
      </trkpt>
      <trkpt lat="44.72459" lon="1.60519">
        <ele>340.6</ele>
        <time>2010-01-01T00:00:00Z</time>
      </trkpt>
      <trkpt lat="44.72471" lon="1.60486">
        <ele>339.7</ele>
        <time>2010-01-01T00:00:00Z</time>
      </trkpt>
      <trkpt lat="44.72482" lon="1.60455">
        <ele>339</ele>
        <time>2010-01-01T00:00:00Z</time>
      </trkpt>
      <trkpt lat="44.72489" lon="1.60432">
        <ele>338.4</ele>
        <time>2010-01-01T00:00:00Z</time>
      </trkpt>
      <trkpt lat="44.72495" lon="1.60414">
        <ele>337.7</ele>
        <time>2010-01-01T00:00:00Z</time>
      </trkpt>
      <trkpt lat="44.72499" lon="1.60401">
        <ele>337.3</ele>
        <time>2010-01-01T00:00:00Z</time>
      </trkpt>
      <trkpt lat="44.72503" lon="1.60383">
        <ele>337.1</ele>
        <time>2010-01-01T00:00:00Z</time>
      </trkpt>
      <trkpt lat="44.7251" lon="1.60346">
        <ele>336.9</ele>
        <time>2010-01-01T00:00:00Z</time>
      </trkpt>
      <trkpt lat="44.72516" lon="1.60324">
        <ele>337.3</ele>
        <time>2010-01-01T00:00:00Z</time>
      </trkpt>
      <trkpt lat="44.72522" lon="1.60305">
        <ele>338.4</ele>
        <time>2010-01-01T00:00:00Z</time>
      </trkpt>
      <trkpt lat="44.72529" lon="1.60286">
        <ele>339.4</ele>
        <time>2010-01-01T00:00:00Z</time>
      </trkpt>
      <trkpt lat="44.72536" lon="1.60269">
        <ele>340.1</ele>
        <time>2010-01-01T00:00:00Z</time>
      </trkpt>
      <trkpt lat="44.7254" lon="1.60258">
        <ele>340.5</ele>
        <time>2010-01-01T00:00:00Z</time>
      </trkpt>
      <trkpt lat="44.72544" lon="1.6025">
        <ele>340.7</ele>
        <time>2010-01-01T00:00:00Z</time>
      </trkpt>
      <trkpt lat="44.7255" lon="1.60245">
        <ele>340.1</ele>
        <time>2010-01-01T00:00:00Z</time>
      </trkpt>
      <trkpt lat="44.72556" lon="1.6024">
        <ele>339.5</ele>
        <time>2010-01-01T00:00:00Z</time>
      </trkpt>
      <trkpt lat="44.72564" lon="1.60235">
        <ele>338.6</ele>
        <time>2010-01-01T00:00:00Z</time>
      </trkpt>
      <trkpt lat="44.7257" lon="1.60231">
        <ele>337.9</ele>
        <time>2010-01-01T00:00:00Z</time>
      </trkpt>
      <trkpt lat="44.72577" lon="1.60224">
        <ele>337.1</ele>
        <time>2010-01-01T00:00:00Z</time>
      </trkpt>
      <trkpt lat="44.72583" lon="1.60214">
        <ele>336.5</ele>
        <time>2010-01-01T00:00:00Z</time>
      </trkpt>
      <trkpt lat="44.72586" lon="1.60203">
        <ele>336.2</ele>
        <time>2010-01-01T00:00:00Z</time>
      </trkpt>
      <trkpt lat="44.72591" lon="1.60185">
        <ele>335.8</ele>
        <time>2010-01-01T00:00:00Z</time>
      </trkpt>
      <trkpt lat="44.72595" lon="1.60173">
        <ele>335.5</ele>
        <time>2010-01-01T00:00:00Z</time>
      </trkpt>
      <trkpt lat="44.726" lon="1.6016">
        <ele>335.6</ele>
        <time>2010-01-01T00:00:00Z</time>
      </trkpt>
      <trkpt lat="44.72606" lon="1.6015">
        <ele>335.7</ele>
        <time>2010-01-01T00:00:00Z</time>
      </trkpt>
      <trkpt lat="44.72615" lon="1.60141">
        <ele>335.5</ele>
        <time>2010-01-01T00:00:00Z</time>
      </trkpt>
      <trkpt lat="44.72638" lon="1.60119">
        <ele>334.8</ele>
        <time>2010-01-01T00:00:00Z</time>
      </trkpt>
      <trkpt lat="44.72661" lon="1.60097">
        <ele>334.3</ele>
        <time>2010-01-01T00:00:00Z</time>
      </trkpt>
      <trkpt lat="44.72673" lon="1.60085">
        <ele>334.2</ele>
        <time>2010-01-01T00:00:00Z</time>
      </trkpt>
      <trkpt lat="44.72685" lon="1.60073">
        <ele>333.5</ele>
        <time>2010-01-01T00:00:00Z</time>
      </trkpt>
      <trkpt lat="44.72689" lon="1.60072">
        <ele>333.1</ele>
        <time>2010-01-01T00:00:00Z</time>
      </trkpt>
      <trkpt lat="44.72696" lon="1.60071">
        <ele>332.3</ele>
        <time>2010-01-01T00:00:00Z</time>
      </trkpt>
      <trkpt lat="44.72707" lon="1.6007">
        <ele>331.1</ele>
        <time>2010-01-01T00:00:00Z</time>
      </trkpt>
      <trkpt lat="44.72736" lon="1.60065">
        <ele>328</ele>
        <time>2010-01-01T00:00:00Z</time>
      </trkpt>
      <trkpt lat="44.72755" lon="1.60062">
        <ele>326</ele>
        <time>2010-01-01T00:00:00Z</time>
      </trkpt>
      <trkpt lat="44.72769" lon="1.60059">
        <ele>324.6</ele>
        <time>2010-01-01T00:00:00Z</time>
      </trkpt>
      <trkpt lat="44.72783" lon="1.60055">
        <ele>323.1</ele>
        <time>2010-01-01T00:00:00Z</time>
      </trkpt>
      <trkpt lat="44.72797" lon="1.60047">
        <ele>321.6</ele>
        <time>2010-01-01T00:00:00Z</time>
      </trkpt>
      <trkpt lat="44.72813" lon="1.60035">
        <ele>319.8</ele>
        <time>2010-01-01T00:00:00Z</time>
      </trkpt>
      <trkpt lat="44.72828" lon="1.60023">
        <ele>317.9</ele>
        <time>2010-01-01T00:00:00Z</time>
      </trkpt>
      <trkpt lat="44.72844" lon="1.60004">
        <ele>316</ele>
        <time>2010-01-01T00:00:00Z</time>
      </trkpt>
      <trkpt lat="44.72856" lon="1.5999">
        <ele>314.9</ele>
        <time>2010-01-01T00:00:00Z</time>
      </trkpt>
      <trkpt lat="44.72865" lon="1.59976">
        <ele>314.1</ele>
        <time>2010-01-01T00:00:00Z</time>
      </trkpt>
      <trkpt lat="44.72873" lon="1.59961">
        <ele>313.4</ele>
        <time>2010-01-01T00:00:00Z</time>
      </trkpt>
      <trkpt lat="44.72881" lon="1.59947">
        <ele>312.8</ele>
        <time>2010-01-01T00:00:00Z</time>
      </trkpt>
      <trkpt lat="44.72887" lon="1.59932">
        <ele>312.4</ele>
        <time>2010-01-01T00:00:00Z</time>
      </trkpt>
      <trkpt lat="44.72891" lon="1.59919">
        <ele>312.1</ele>
        <time>2010-01-01T00:00:00Z</time>
      </trkpt>
      <trkpt lat="44.72895" lon="1.59906">
        <ele>311.8</ele>
        <time>2010-01-01T00:00:00Z</time>
      </trkpt>
      <trkpt lat="44.72898" lon="1.5989">
        <ele>311.6</ele>
        <time>2010-01-01T00:00:00Z</time>
      </trkpt>
      <trkpt lat="44.72899" lon="1.59876">
        <ele>311.5</ele>
        <time>2010-01-01T00:00:00Z</time>
      </trkpt>
      <trkpt lat="44.72899" lon="1.59864">
        <ele>311.5</ele>
        <time>2010-01-01T00:00:00Z</time>
      </trkpt>
      <trkpt lat="44.72898" lon="1.59852">
        <ele>311.6</ele>
        <time>2010-01-01T00:00:00Z</time>
      </trkpt>
      <trkpt lat="44.72895" lon="1.59835">
        <ele>311.8</ele>
        <time>2010-01-01T00:00:00Z</time>
      </trkpt>
      <trkpt lat="44.72893" lon="1.59826">
        <ele>312.5</ele>
        <time>2010-01-01T00:00:00Z</time>
      </trkpt>
      <trkpt lat="44.72892" lon="1.59821">
        <ele>312.9</ele>
        <time>2010-01-01T00:00:00Z</time>
      </trkpt>
      <trkpt lat="44.72893" lon="1.59816">
        <ele>313.1</ele>
        <time>2010-01-01T00:00:00Z</time>
      </trkpt>
      <trkpt lat="44.72894" lon="1.59813">
        <ele>313.2</ele>
        <time>2010-01-01T00:00:00Z</time>
      </trkpt>
      <trkpt lat="44.72891" lon="1.59813">
        <ele>313.5</ele>
        <time>2010-01-01T00:00:00Z</time>
      </trkpt>
      <trkpt lat="44.72894" lon="1.59813">
        <ele>313.2</ele>
        <time>2010-01-01T00:00:00Z</time>
      </trkpt>
      <trkpt lat="44.72898" lon="1.59812">
        <ele>312.9</ele>
        <time>2010-01-01T00:00:00Z</time>
      </trkpt>
      <trkpt lat="44.72903" lon="1.5981">
        <ele>312.6</ele>
        <time>2010-01-01T00:00:00Z</time>
      </trkpt>
      <trkpt lat="44.72931" lon="1.59803">
        <ele>310.6</ele>
        <time>2010-01-01T00:00:00Z</time>
      </trkpt>
      <trkpt lat="44.72943" lon="1.598">
        <ele>309.7</ele>
        <time>2010-01-01T00:00:00Z</time>
      </trkpt>
      <trkpt lat="44.72955" lon="1.59796">
        <ele>308.9</ele>
        <time>2010-01-01T00:00:00Z</time>
      </trkpt>
      <trkpt lat="44.72965" lon="1.59792">
        <ele>308.1</ele>
        <time>2010-01-01T00:00:00Z</time>
      </trkpt>
      <trkpt lat="44.72973" lon="1.59787">
        <ele>307.6</ele>
        <time>2010-01-01T00:00:00Z</time>
      </trkpt>
      <trkpt lat="44.72979" lon="1.59777">
        <ele>307.4</ele>
        <time>2010-01-01T00:00:00Z</time>
      </trkpt>
      <trkpt lat="44.72989" lon="1.59755">
        <ele>307</ele>
        <time>2010-01-01T00:00:00Z</time>
      </trkpt>
      <trkpt lat="44.73" lon="1.59727">
        <ele>306.6</ele>
        <time>2010-01-01T00:00:00Z</time>
      </trkpt>
      <trkpt lat="44.73011" lon="1.59701">
        <ele>306.5</ele>
        <time>2010-01-01T00:00:00Z</time>
      </trkpt>
      <trkpt lat="44.73023" lon="1.59672">
        <ele>306</ele>
        <time>2010-01-01T00:00:00Z</time>
      </trkpt>
      <trkpt lat="44.73039" lon="1.59632">
        <ele>305.2</ele>
        <time>2010-01-01T00:00:00Z</time>
      </trkpt>
      <trkpt lat="44.7305" lon="1.59606">
        <ele>304.4</ele>
        <time>2010-01-01T00:00:00Z</time>
      </trkpt>
      <trkpt lat="44.73056" lon="1.5959">
        <ele>303.9</ele>
        <time>2010-01-01T00:00:00Z</time>
      </trkpt>
      <trkpt lat="44.73062" lon="1.59581">
        <ele>303.3</ele>
        <time>2010-01-01T00:00:00Z</time>
      </trkpt>
      <trkpt lat="44.73066" lon="1.59577">
        <ele>302.8</ele>
        <time>2010-01-01T00:00:00Z</time>
      </trkpt>
      <trkpt lat="44.73069" lon="1.59575">
        <ele>302.5</ele>
        <time>2010-01-01T00:00:00Z</time>
      </trkpt>
      <trkpt lat="44.73071" lon="1.59573">
        <ele>302.3</ele>
        <time>2010-01-01T00:00:00Z</time>
      </trkpt>
      <trkpt lat="44.73074" lon="1.59572">
        <ele>302</ele>
        <time>2010-01-01T00:00:00Z</time>
      </trkpt>
      <trkpt lat="44.73077" lon="1.59571">
        <ele>301.7</ele>
        <time>2010-01-01T00:00:00Z</time>
      </trkpt>
      <trkpt lat="44.73079" lon="1.59571">
        <ele>301.4</ele>
        <time>2010-01-01T00:00:00Z</time>
      </trkpt>
      <trkpt lat="44.73082" lon="1.5957">
        <ele>301.1</ele>
        <time>2010-01-01T00:00:00Z</time>
      </trkpt>
      <trkpt lat="44.73086" lon="1.5957">
        <ele>301.1</ele>
        <time>2010-01-01T00:00:00Z</time>
      </trkpt>
      <trkpt lat="44.73089" lon="1.5957">
        <ele>301.3</ele>
        <time>2010-01-01T00:00:00Z</time>
      </trkpt>
      <trkpt lat="44.73092" lon="1.59571">
        <ele>301.5</ele>
        <time>2010-01-01T00:00:00Z</time>
      </trkpt>
      <trkpt lat="44.73107" lon="1.59576">
        <ele>302.3</ele>
        <time>2010-01-01T00:00:00Z</time>
      </trkpt>
      <trkpt lat="44.73113" lon="1.59577">
        <ele>302.7</ele>
        <time>2010-01-01T00:00:00Z</time>
      </trkpt>
      <trkpt lat="44.73116" lon="1.59578">
        <ele>302.9</ele>
        <time>2010-01-01T00:00:00Z</time>
      </trkpt>
      <trkpt lat="44.7312" lon="1.59578">
        <ele>303.1</ele>
        <time>2010-01-01T00:00:00Z</time>
      </trkpt>
      <trkpt lat="44.73122" lon="1.59577">
        <ele>303.2</ele>
        <time>2010-01-01T00:00:00Z</time>
      </trkpt>
      <trkpt lat="44.73123" lon="1.59577">
        <ele>303.2</ele>
        <time>2010-01-01T00:00:00Z</time>
      </trkpt>
      <trkpt lat="44.73125" lon="1.59576">
        <ele>303.3</ele>
        <time>2010-01-01T00:00:00Z</time>
      </trkpt>
      <trkpt lat="44.73127" lon="1.59574">
        <ele>303.4</ele>
        <time>2010-01-01T00:00:00Z</time>
      </trkpt>
      <trkpt lat="44.73129" lon="1.59572">
        <ele>303.4</ele>
        <time>2010-01-01T00:00:00Z</time>
      </trkpt>
      <trkpt lat="44.73131" lon="1.5957">
        <ele>303.5</ele>
        <time>2010-01-01T00:00:00Z</time>
      </trkpt>
      <trkpt lat="44.73135" lon="1.59563">
        <ele>303.5</ele>
        <time>2010-01-01T00:00:00Z</time>
      </trkpt>
      <trkpt lat="44.73142" lon="1.59544">
        <ele>303.2</ele>
        <time>2010-01-01T00:00:00Z</time>
      </trkpt>
      <trkpt lat="44.73147" lon="1.5953">
        <ele>302.9</ele>
        <time>2010-01-01T00:00:00Z</time>
      </trkpt>
      <trkpt lat="44.73153" lon="1.59518">
        <ele>302.6</ele>
        <time>2010-01-01T00:00:00Z</time>
      </trkpt>
      <trkpt lat="44.73162" lon="1.59504">
        <ele>302.1</ele>
        <time>2010-01-01T00:00:00Z</time>
      </trkpt>
      <trkpt lat="44.73173" lon="1.59492">
        <ele>302.8</ele>
        <time>2010-01-01T00:00:00Z</time>
      </trkpt>
      <trkpt lat="44.73183" lon="1.59475">
        <ele>303.8</ele>
        <time>2010-01-01T00:00:00Z</time>
      </trkpt>
      <trkpt lat="44.73201" lon="1.59447">
        <ele>305.3</ele>
        <time>2010-01-01T00:00:00Z</time>
      </trkpt>
      <trkpt lat="44.73226" lon="1.59403">
        <ele>305.7</ele>
        <time>2010-01-01T00:00:00Z</time>
      </trkpt>
      <trkpt lat="44.73248" lon="1.5937">
        <ele>304.4</ele>
        <time>2010-01-01T00:00:00Z</time>
      </trkpt>
      <trkpt lat="44.7326" lon="1.59352">
        <ele>304.6</ele>
        <time>2010-01-01T00:00:00Z</time>
      </trkpt>
      <trkpt lat="44.73271" lon="1.59337">
        <ele>305.1</ele>
        <time>2010-01-01T00:00:00Z</time>
      </trkpt>
      <trkpt lat="44.73291" lon="1.59314">
        <ele>306.3</ele>
        <time>2010-01-01T00:00:00Z</time>
      </trkpt>
      <trkpt lat="44.73306" lon="1.59298">
        <ele>307</ele>
        <time>2010-01-01T00:00:00Z</time>
      </trkpt>
      <trkpt lat="44.73328" lon="1.59277">
        <ele>307.8</ele>
        <time>2010-01-01T00:00:00Z</time>
      </trkpt>
      <trkpt lat="44.73355" lon="1.59251">
        <ele>309</ele>
        <time>2010-01-01T00:00:00Z</time>
      </trkpt>
      <trkpt lat="44.73394" lon="1.59207">
        <ele>311.3</ele>
        <time>2010-01-01T00:00:00Z</time>
      </trkpt>
      <trkpt lat="44.73435" lon="1.59158">
        <ele>312.7</ele>
        <time>2010-01-01T00:00:00Z</time>
      </trkpt>
      <trkpt lat="44.73455" lon="1.59136">
        <ele>313.7</ele>
        <time>2010-01-01T00:00:00Z</time>
      </trkpt>
      <trkpt lat="44.73462" lon="1.5913">
        <ele>314.3</ele>
        <time>2010-01-01T00:00:00Z</time>
      </trkpt>
      <trkpt lat="44.73466" lon="1.59126">
        <ele>314.7</ele>
        <time>2010-01-01T00:00:00Z</time>
      </trkpt>
      <trkpt lat="44.73472" lon="1.59117">
        <ele>315</ele>
        <time>2010-01-01T00:00:00Z</time>
      </trkpt>
      <trkpt lat="44.73477" lon="1.59109">
        <ele>315.3</ele>
        <time>2010-01-01T00:00:00Z</time>
      </trkpt>
      <trkpt lat="44.73485" lon="1.59095">
        <ele>315.8</ele>
        <time>2010-01-01T00:00:00Z</time>
      </trkpt>
      <trkpt lat="44.73493" lon="1.59076">
        <ele>315.9</ele>
        <time>2010-01-01T00:00:00Z</time>
      </trkpt>
      <trkpt lat="44.735" lon="1.5906">
        <ele>316</ele>
        <time>2010-01-01T00:00:00Z</time>
      </trkpt>
      <trkpt lat="44.73511" lon="1.59037">
        <ele>315.5</ele>
        <time>2010-01-01T00:00:00Z</time>
      </trkpt>
      <trkpt lat="44.73516" lon="1.59025">
        <ele>315.2</ele>
        <time>2010-01-01T00:00:00Z</time>
      </trkpt>
      <trkpt lat="44.7353" lon="1.59002">
        <ele>315.5</ele>
        <time>2010-01-01T00:00:00Z</time>
      </trkpt>
      <trkpt lat="44.73538" lon="1.5899">
        <ele>315.4</ele>
        <time>2010-01-01T00:00:00Z</time>
      </trkpt>
      <trkpt lat="44.73565" lon="1.58963">
        <ele>317</ele>
        <time>2010-01-01T00:00:00Z</time>
      </trkpt>
      <trkpt lat="44.73584" lon="1.58945">
        <ele>318.4</ele>
        <time>2010-01-01T00:00:00Z</time>
      </trkpt>
      <trkpt lat="44.73613" lon="1.58916">
        <ele>319.1</ele>
        <time>2010-01-01T00:00:00Z</time>
      </trkpt>
      <trkpt lat="44.73628" lon="1.58901">
        <ele>319.4</ele>
        <time>2010-01-01T00:00:00Z</time>
      </trkpt>
      <trkpt lat="44.73645" lon="1.5888">
        <ele>319.5</ele>
        <time>2010-01-01T00:00:00Z</time>
      </trkpt>
      <trkpt lat="44.73666" lon="1.58854">
        <ele>319.7</ele>
        <time>2010-01-01T00:00:00Z</time>
      </trkpt>
      <trkpt lat="44.73684" lon="1.58834">
        <ele>318.9</ele>
        <time>2010-01-01T00:00:00Z</time>
      </trkpt>
      <trkpt lat="44.73695" lon="1.58824">
        <ele>318.6</ele>
        <time>2010-01-01T00:00:00Z</time>
      </trkpt>
      <trkpt lat="44.73706" lon="1.58816">
        <ele>318.6</ele>
        <time>2010-01-01T00:00:00Z</time>
      </trkpt>
      <trkpt lat="44.73726" lon="1.58804">
        <ele>319</ele>
        <time>2010-01-01T00:00:00Z</time>
      </trkpt>
      <trkpt lat="44.73756" lon="1.58793">
        <ele>319.7</ele>
        <time>2010-01-01T00:00:00Z</time>
      </trkpt>
      <trkpt lat="44.73779" lon="1.58783">
        <ele>318.2</ele>
        <time>2010-01-01T00:00:00Z</time>
      </trkpt>
      <trkpt lat="44.738" lon="1.58774">
        <ele>317.1</ele>
        <time>2010-01-01T00:00:00Z</time>
      </trkpt>
      <trkpt lat="44.73819" lon="1.58764">
        <ele>316.3</ele>
        <time>2010-01-01T00:00:00Z</time>
      </trkpt>
      <trkpt lat="44.73837" lon="1.58753">
        <ele>315.7</ele>
        <time>2010-01-01T00:00:00Z</time>
      </trkpt>
      <trkpt lat="44.73849" lon="1.58746">
        <ele>314.7</ele>
        <time>2010-01-01T00:00:00Z</time>
      </trkpt>
      <trkpt lat="44.73856" lon="1.58742">
        <ele>314</ele>
        <time>2010-01-01T00:00:00Z</time>
      </trkpt>
      <trkpt lat="44.73862" lon="1.58741">
        <ele>313.5</ele>
        <time>2010-01-01T00:00:00Z</time>
      </trkpt>
      <trkpt lat="44.7387" lon="1.5874">
        <ele>312.9</ele>
        <time>2010-01-01T00:00:00Z</time>
      </trkpt>
      <trkpt lat="44.73886" lon="1.58744">
        <ele>312</ele>
        <time>2010-01-01T00:00:00Z</time>
      </trkpt>
      <trkpt lat="44.73891" lon="1.58744">
        <ele>311.6</ele>
        <time>2010-01-01T00:00:00Z</time>
      </trkpt>
      <trkpt lat="44.7391" lon="1.58747">
        <ele>310.4</ele>
        <time>2010-01-01T00:00:00Z</time>
      </trkpt>
      <trkpt lat="44.7393" lon="1.58751">
        <ele>308.5</ele>
        <time>2010-01-01T00:00:00Z</time>
      </trkpt>
      <trkpt lat="44.73941" lon="1.58753">
        <ele>307.3</ele>
        <time>2010-01-01T00:00:00Z</time>
      </trkpt>
      <trkpt lat="44.73945" lon="1.58753">
        <ele>306.9</ele>
        <time>2010-01-01T00:00:00Z</time>
      </trkpt>
      <trkpt lat="44.7395" lon="1.58752">
        <ele>306.3</ele>
        <time>2010-01-01T00:00:00Z</time>
      </trkpt>
      <trkpt lat="44.73954" lon="1.58751">
        <ele>305.9</ele>
        <time>2010-01-01T00:00:00Z</time>
      </trkpt>
      <trkpt lat="44.73957" lon="1.5875">
        <ele>305.6</ele>
        <time>2010-01-01T00:00:00Z</time>
      </trkpt>
      <trkpt lat="44.73962" lon="1.58748">
        <ele>305.1</ele>
        <time>2010-01-01T00:00:00Z</time>
      </trkpt>
      <trkpt lat="44.73969" lon="1.58744">
        <ele>304.3</ele>
        <time>2010-01-01T00:00:00Z</time>
      </trkpt>
      <trkpt lat="44.73985" lon="1.58733">
        <ele>302.7</ele>
        <time>2010-01-01T00:00:00Z</time>
      </trkpt>
      <trkpt lat="44.74003" lon="1.58719">
        <ele>301.1</ele>
        <time>2010-01-01T00:00:00Z</time>
      </trkpt>
      <trkpt lat="44.74019" lon="1.58709">
        <ele>299.8</ele>
        <time>2010-01-01T00:00:00Z</time>
      </trkpt>
      <trkpt lat="44.74026" lon="1.58704">
        <ele>299.2</ele>
        <time>2010-01-01T00:00:00Z</time>
      </trkpt>
      <trkpt lat="44.74032" lon="1.58702">
        <ele>298.7</ele>
        <time>2010-01-01T00:00:00Z</time>
      </trkpt>
      <trkpt lat="44.74035" lon="1.58701">
        <ele>298.5</ele>
        <time>2010-01-01T00:00:00Z</time>
      </trkpt>
      <trkpt lat="44.74042" lon="1.587">
        <ele>297.9</ele>
        <time>2010-01-01T00:00:00Z</time>
      </trkpt>
      <trkpt lat="44.74046" lon="1.58701">
        <ele>297.5</ele>
        <time>2010-01-01T00:00:00Z</time>
      </trkpt>
      <trkpt lat="44.74052" lon="1.58702">
        <ele>296.9</ele>
        <time>2010-01-01T00:00:00Z</time>
      </trkpt>
      <trkpt lat="44.74059" lon="1.58704">
        <ele>296.3</ele>
        <time>2010-01-01T00:00:00Z</time>
      </trkpt>
      <trkpt lat="44.74071" lon="1.58707">
        <ele>295.1</ele>
        <time>2010-01-01T00:00:00Z</time>
      </trkpt>
      <trkpt lat="44.74085" lon="1.58712">
        <ele>293.9</ele>
        <time>2010-01-01T00:00:00Z</time>
      </trkpt>
      <trkpt lat="44.74108" lon="1.58719">
        <ele>293.4</ele>
        <time>2010-01-01T00:00:00Z</time>
      </trkpt>
      <trkpt lat="44.74128" lon="1.58724">
        <ele>293.1</ele>
        <time>2010-01-01T00:00:00Z</time>
      </trkpt>
      <trkpt lat="44.74149" lon="1.5873">
        <ele>292.9</ele>
        <time>2010-01-01T00:00:00Z</time>
      </trkpt>
      <trkpt lat="44.74162" lon="1.58733">
        <ele>292.8</ele>
        <time>2010-01-01T00:00:00Z</time>
      </trkpt>
      <trkpt lat="44.74177" lon="1.58747">
        <ele>293.7</ele>
        <time>2010-01-01T00:00:00Z</time>
      </trkpt>
      <trkpt lat="44.74194" lon="1.58761">
        <ele>294.7</ele>
        <time>2010-01-01T00:00:00Z</time>
      </trkpt>
      <trkpt lat="44.74212" lon="1.58773">
        <ele>295.6</ele>
        <time>2010-01-01T00:00:00Z</time>
      </trkpt>
      <trkpt lat="44.74242" lon="1.58792">
        <ele>297</ele>
        <time>2010-01-01T00:00:00Z</time>
      </trkpt>
      <trkpt lat="44.74284" lon="1.58818">
        <ele>301</ele>
        <time>2010-01-01T00:00:00Z</time>
      </trkpt>
      <trkpt lat="44.74316" lon="1.58836">
        <ele>304.5</ele>
        <time>2010-01-01T00:00:00Z</time>
      </trkpt>
      <trkpt lat="44.74344" lon="1.58851">
        <ele>306.8</ele>
        <time>2010-01-01T00:00:00Z</time>
      </trkpt>
      <trkpt lat="44.74374" lon="1.58867">
        <ele>309.1</ele>
        <time>2010-01-01T00:00:00Z</time>
      </trkpt>
      <trkpt lat="44.74391" lon="1.58876">
        <ele>310.3</ele>
        <time>2010-01-01T00:00:00Z</time>
      </trkpt>
      <trkpt lat="44.74399" lon="1.5888">
        <ele>311</ele>
        <time>2010-01-01T00:00:00Z</time>
      </trkpt>
      <trkpt lat="44.74422" lon="1.58888">
        <ele>312.7</ele>
        <time>2010-01-01T00:00:00Z</time>
      </trkpt>
      <trkpt lat="44.74451" lon="1.58898">
        <ele>313.7</ele>
        <time>2010-01-01T00:00:00Z</time>
      </trkpt>
      <trkpt lat="44.74473" lon="1.58905">
        <ele>314.7</ele>
        <time>2010-01-01T00:00:00Z</time>
      </trkpt>
      <trkpt lat="44.74477" lon="1.58906">
        <ele>314.9</ele>
        <time>2010-01-01T00:00:00Z</time>
      </trkpt>
      <trkpt lat="44.7449" lon="1.5891">
        <ele>315.6</ele>
        <time>2010-01-01T00:00:00Z</time>
      </trkpt>
      <trkpt lat="44.74521" lon="1.58918">
        <ele>315.4</ele>
        <time>2010-01-01T00:00:00Z</time>
      </trkpt>
      <trkpt lat="44.74533" lon="1.58921">
        <ele>314.8</ele>
        <time>2010-01-01T00:00:00Z</time>
      </trkpt>
      <trkpt lat="44.74543" lon="1.58922">
        <ele>314.5</ele>
        <time>2010-01-01T00:00:00Z</time>
      </trkpt>
      <trkpt lat="44.74564" lon="1.58924">
        <ele>313.8</ele>
        <time>2010-01-01T00:00:00Z</time>
      </trkpt>
      <trkpt lat="44.7457" lon="1.58925">
        <ele>313.6</ele>
        <time>2010-01-01T00:00:00Z</time>
      </trkpt>
      <trkpt lat="44.7458" lon="1.58928">
        <ele>313.1</ele>
        <time>2010-01-01T00:00:00Z</time>
      </trkpt>
      <trkpt lat="44.7459" lon="1.58931">
        <ele>313</ele>
        <time>2010-01-01T00:00:00Z</time>
      </trkpt>
      <trkpt lat="44.74599" lon="1.58936">
        <ele>313</ele>
        <time>2010-01-01T00:00:00Z</time>
      </trkpt>
      <trkpt lat="44.74608" lon="1.5894">
        <ele>313.1</ele>
        <time>2010-01-01T00:00:00Z</time>
      </trkpt>
      <trkpt lat="44.74612" lon="1.58944">
        <ele>313.1</ele>
        <time>2010-01-01T00:00:00Z</time>
      </trkpt>
      <trkpt lat="44.74621" lon="1.5896">
        <ele>312.7</ele>
        <time>2010-01-01T00:00:00Z</time>
      </trkpt>
      <trkpt lat="44.74635" lon="1.58984">
        <ele>312.6</ele>
        <time>2010-01-01T00:00:00Z</time>
      </trkpt>
      <trkpt lat="44.74641" lon="1.58997">
        <ele>312.6</ele>
        <time>2010-01-01T00:00:00Z</time>
      </trkpt>
      <trkpt lat="44.74646" lon="1.59009">
        <ele>312.8</ele>
        <time>2010-01-01T00:00:00Z</time>
      </trkpt>
      <trkpt lat="44.74656" lon="1.59034">
        <ele>313.3</ele>
        <time>2010-01-01T00:00:00Z</time>
      </trkpt>
      <trkpt lat="44.74662" lon="1.5905">
        <ele>313.8</ele>
        <time>2010-01-01T00:00:00Z</time>
      </trkpt>
      <trkpt lat="44.74672" lon="1.59069">
        <ele>314.5</ele>
        <time>2010-01-01T00:00:00Z</time>
      </trkpt>
      <trkpt lat="44.74679" lon="1.59079">
        <ele>314.8</ele>
        <time>2010-01-01T00:00:00Z</time>
      </trkpt>
      <trkpt lat="44.74685" lon="1.5909">
        <ele>315.2</ele>
        <time>2010-01-01T00:00:00Z</time>
      </trkpt>
      <trkpt lat="44.74696" lon="1.59109">
        <ele>316.2</ele>
        <time>2010-01-01T00:00:00Z</time>
      </trkpt>
      <trkpt lat="44.74707" lon="1.5913">
        <ele>317.3</ele>
        <time>2010-01-01T00:00:00Z</time>
      </trkpt>
      <trkpt lat="44.74712" lon="1.59142">
        <ele>317.8</ele>
        <time>2010-01-01T00:00:00Z</time>
      </trkpt>
      <trkpt lat="44.74715" lon="1.59149">
        <ele>318.1</ele>
        <time>2010-01-01T00:00:00Z</time>
      </trkpt>
      <trkpt lat="44.7472" lon="1.59156">
        <ele>318.6</ele>
        <time>2010-01-01T00:00:00Z</time>
      </trkpt>
      <trkpt lat="44.74728" lon="1.59167">
        <ele>319.4</ele>
        <time>2010-01-01T00:00:00Z</time>
      </trkpt>
      <trkpt lat="44.74736" lon="1.59174">
        <ele>319.9</ele>
        <time>2010-01-01T00:00:00Z</time>
      </trkpt>
      <trkpt lat="44.74746" lon="1.59184">
        <ele>320.5</ele>
        <time>2010-01-01T00:00:00Z</time>
      </trkpt>
      <trkpt lat="44.74752" lon="1.59191">
        <ele>320.6</ele>
        <time>2010-01-01T00:00:00Z</time>
      </trkpt>
      <trkpt lat="44.74753" lon="1.59193">
        <ele>320.6</ele>
        <time>2010-01-01T00:00:00Z</time>
      </trkpt>
      <trkpt lat="44.74759" lon="1.59203">
        <ele>320.2</ele>
        <time>2010-01-01T00:00:00Z</time>
      </trkpt>
      <trkpt lat="44.74767" lon="1.5921">
        <ele>319.9</ele>
        <time>2010-01-01T00:00:00Z</time>
      </trkpt>
      <trkpt lat="44.74788" lon="1.59231">
        <ele>319.1</ele>
        <time>2010-01-01T00:00:00Z</time>
      </trkpt>
      <trkpt lat="44.74804" lon="1.59245">
        <ele>318.7</ele>
        <time>2010-01-01T00:00:00Z</time>
      </trkpt>
      <trkpt lat="44.74825" lon="1.59257">
        <ele>317.5</ele>
        <time>2010-01-01T00:00:00Z</time>
      </trkpt>
      <trkpt lat="44.74844" lon="1.59272">
        <ele>315.1</ele>
        <time>2010-01-01T00:00:00Z</time>
      </trkpt>
      <trkpt lat="44.74854" lon="1.59278">
        <ele>314</ele>
        <time>2010-01-01T00:00:00Z</time>
      </trkpt>
      <trkpt lat="44.74871" lon="1.59285">
        <ele>312.6</ele>
        <time>2010-01-01T00:00:00Z</time>
      </trkpt>
      <trkpt lat="44.74882" lon="1.59291">
        <ele>311.8</ele>
        <time>2010-01-01T00:00:00Z</time>
      </trkpt>
      <trkpt lat="44.74894" lon="1.59296">
        <ele>311.1</ele>
        <time>2010-01-01T00:00:00Z</time>
      </trkpt>
      <trkpt lat="44.74914" lon="1.59309">
        <ele>309.9</ele>
        <time>2010-01-01T00:00:00Z</time>
      </trkpt>
      <trkpt lat="44.74928" lon="1.59314">
        <ele>309</ele>
        <time>2010-01-01T00:00:00Z</time>
      </trkpt>
      <trkpt lat="44.74946" lon="1.59318">
        <ele>307.8</ele>
        <time>2010-01-01T00:00:00Z</time>
      </trkpt>
      <trkpt lat="44.74992" lon="1.59336">
        <ele>304.3</ele>
        <time>2010-01-01T00:00:00Z</time>
      </trkpt>
      <trkpt lat="44.75031" lon="1.5935">
        <ele>299.7</ele>
        <time>2010-01-01T00:00:00Z</time>
      </trkpt>
      <trkpt lat="44.75047" lon="1.59358">
        <ele>297.5</ele>
        <time>2010-01-01T00:00:00Z</time>
      </trkpt>
      <trkpt lat="44.7505" lon="1.5936">
        <ele>297.1</ele>
        <time>2010-01-01T00:00:00Z</time>
      </trkpt>
      <trkpt lat="44.75054" lon="1.59367">
        <ele>296.1</ele>
        <time>2010-01-01T00:00:00Z</time>
      </trkpt>
      <trkpt lat="44.75059" lon="1.59382">
        <ele>294.4</ele>
        <time>2010-01-01T00:00:00Z</time>
      </trkpt>
      <trkpt lat="44.75065" lon="1.59404">
        <ele>292</ele>
        <time>2010-01-01T00:00:00Z</time>
      </trkpt>
      <trkpt lat="44.75068" lon="1.5941">
        <ele>291.2</ele>
        <time>2010-01-01T00:00:00Z</time>
      </trkpt>
      <trkpt lat="44.75077" lon="1.59424">
        <ele>289.1</ele>
        <time>2010-01-01T00:00:00Z</time>
      </trkpt>
      <trkpt lat="44.75111" lon="1.59463">
        <ele>282.2</ele>
        <time>2010-01-01T00:00:00Z</time>
      </trkpt>
      <trkpt lat="44.75133" lon="1.59494">
        <ele>277.9</ele>
        <time>2010-01-01T00:00:00Z</time>
      </trkpt>
      <trkpt lat="44.75147" lon="1.59518">
        <ele>275.3</ele>
        <time>2010-01-01T00:00:00Z</time>
      </trkpt>
      <trkpt lat="44.75159" lon="1.59546">
        <ele>273</ele>
        <time>2010-01-01T00:00:00Z</time>
      </trkpt>
      <trkpt lat="44.75164" lon="1.59563">
        <ele>271.9</ele>
        <time>2010-01-01T00:00:00Z</time>
      </trkpt>
      <trkpt lat="44.75172" lon="1.59573">
        <ele>271.1</ele>
        <time>2010-01-01T00:00:00Z</time>
      </trkpt>
      <trkpt lat="44.75189" lon="1.59587">
        <ele>269.2</ele>
        <time>2010-01-01T00:00:00Z</time>
      </trkpt>
      <trkpt lat="44.75212" lon="1.59606">
        <ele>265.1</ele>
        <time>2010-01-01T00:00:00Z</time>
      </trkpt>
      <trkpt lat="44.75255" lon="1.59654">
        <ele>258.7</ele>
        <time>2010-01-01T00:00:00Z</time>
      </trkpt>
      <trkpt lat="44.75275" lon="1.5968">
        <ele>255.1</ele>
        <time>2010-01-01T00:00:00Z</time>
      </trkpt>
      <trkpt lat="44.75294" lon="1.59716">
        <ele>248.6</ele>
        <time>2010-01-01T00:00:00Z</time>
      </trkpt>
      <trkpt lat="44.75317" lon="1.59769">
        <ele>240.7</ele>
        <time>2010-01-01T00:00:00Z</time>
      </trkpt>
      <trkpt lat="44.75332" lon="1.59806">
        <ele>236.4</ele>
        <time>2010-01-01T00:00:00Z</time>
      </trkpt>
      <trkpt lat="44.7534" lon="1.59829">
        <ele>233</ele>
        <time>2010-01-01T00:00:00Z</time>
      </trkpt>
      <trkpt lat="44.75343" lon="1.59853">
        <ele>230.2</ele>
        <time>2010-01-01T00:00:00Z</time>
      </trkpt>
      <trkpt lat="44.75347" lon="1.59881">
        <ele>227.3</ele>
        <time>2010-01-01T00:00:00Z</time>
      </trkpt>
      <trkpt lat="44.75351" lon="1.59891">
        <ele>226.5</ele>
        <time>2010-01-01T00:00:00Z</time>
      </trkpt>
      <trkpt lat="44.75353" lon="1.59895">
        <ele>226.2</ele>
        <time>2010-01-01T00:00:00Z</time>
      </trkpt>
      <trkpt lat="44.75359" lon="1.59903">
        <ele>225.9</ele>
        <time>2010-01-01T00:00:00Z</time>
      </trkpt>
      <trkpt lat="44.75369" lon="1.59915">
        <ele>225.6</ele>
        <time>2010-01-01T00:00:00Z</time>
      </trkpt>
      <trkpt lat="44.75377" lon="1.59924">
        <ele>225.3</ele>
        <time>2010-01-01T00:00:00Z</time>
      </trkpt>
      <trkpt lat="44.75387" lon="1.59951">
        <ele>223.2</ele>
        <time>2010-01-01T00:00:00Z</time>
      </trkpt>
      <trkpt lat="44.75392" lon="1.59966">
        <ele>222</ele>
        <time>2010-01-01T00:00:00Z</time>
      </trkpt>
      <trkpt lat="44.75413" lon="1.60018">
        <ele>218.4</ele>
        <time>2010-01-01T00:00:00Z</time>
      </trkpt>
      <trkpt lat="44.75436" lon="1.60067">
        <ele>215.4</ele>
        <time>2010-01-01T00:00:00Z</time>
      </trkpt>
      <trkpt lat="44.75461" lon="1.60105">
        <ele>212.9</ele>
        <time>2010-01-01T00:00:00Z</time>
      </trkpt>
      <trkpt lat="44.75468" lon="1.6012">
        <ele>211.3</ele>
        <time>2010-01-01T00:00:00Z</time>
      </trkpt>
      <trkpt lat="44.7548" lon="1.60145">
        <ele>208.2</ele>
        <time>2010-01-01T00:00:00Z</time>
      </trkpt>
      <trkpt lat="44.75483" lon="1.60149">
        <ele>207.6</ele>
        <time>2010-01-01T00:00:00Z</time>
      </trkpt>
      <trkpt lat="44.75505" lon="1.60173">
        <ele>205.5</ele>
        <time>2010-01-01T00:00:00Z</time>
      </trkpt>
      <trkpt lat="44.75539" lon="1.60213">
        <ele>206.2</ele>
        <time>2010-01-01T00:00:00Z</time>
      </trkpt>
      <trkpt lat="44.75552" lon="1.60231">
        <ele>204.7</ele>
        <time>2010-01-01T00:00:00Z</time>
      </trkpt>
      <trkpt lat="44.75554" lon="1.60237">
        <ele>203.9</ele>
        <time>2010-01-01T00:00:00Z</time>
      </trkpt>
      <trkpt lat="44.75554" lon="1.60245">
        <ele>202.7</ele>
        <time>2010-01-01T00:00:00Z</time>
      </trkpt>
      <trkpt lat="44.75553" lon="1.60253">
        <ele>202</ele>
        <time>2010-01-01T00:00:00Z</time>
      </trkpt>
      <trkpt lat="44.75549" lon="1.60266">
        <ele>202.4</ele>
        <time>2010-01-01T00:00:00Z</time>
      </trkpt>
      <trkpt lat="44.75538" lon="1.60281">
        <ele>203.6</ele>
        <time>2010-01-01T00:00:00Z</time>
      </trkpt>
      <trkpt lat="44.75527" lon="1.60291">
        <ele>205.2</ele>
        <time>2010-01-01T00:00:00Z</time>
      </trkpt>
      <trkpt lat="44.75522" lon="1.60298">
        <ele>206.3</ele>
        <time>2010-01-01T00:00:00Z</time>
      </trkpt>
      <trkpt lat="44.75523" lon="1.60306">
        <ele>206.9</ele>
        <time>2010-01-01T00:00:00Z</time>
      </trkpt>
      <trkpt lat="44.75524" lon="1.60314">
        <ele>207.5</ele>
        <time>2010-01-01T00:00:00Z</time>
      </trkpt>
      <trkpt lat="44.75541" lon="1.60341">
        <ele>205.5</ele>
        <time>2010-01-01T00:00:00Z</time>
      </trkpt>
      <trkpt lat="44.7555" lon="1.60363">
        <ele>203.4</ele>
        <time>2010-01-01T00:00:00Z</time>
      </trkpt>
      <trkpt lat="44.75552" lon="1.60379">
        <ele>202.8</ele>
        <time>2010-01-01T00:00:00Z</time>
      </trkpt>
      <trkpt lat="44.75551" lon="1.60392">
        <ele>202.8</ele>
        <time>2010-01-01T00:00:00Z</time>
      </trkpt>
      <trkpt lat="44.75549" lon="1.60399">
        <ele>203</ele>
        <time>2010-01-01T00:00:00Z</time>
      </trkpt>
      <trkpt lat="44.75548" lon="1.60414">
        <ele>203</ele>
        <time>2010-01-01T00:00:00Z</time>
      </trkpt>
      <trkpt lat="44.75549" lon="1.60421">
        <ele>203.1</ele>
        <time>2010-01-01T00:00:00Z</time>
      </trkpt>
      <trkpt lat="44.75551" lon="1.60424">
        <ele>203</ele>
        <time>2010-01-01T00:00:00Z</time>
      </trkpt>
      <trkpt lat="44.75559" lon="1.60431">
        <ele>202.5</ele>
        <time>2010-01-01T00:00:00Z</time>
      </trkpt>
      <trkpt lat="44.75562" lon="1.6043">
        <ele>202</ele>
        <time>2010-01-01T00:00:00Z</time>
      </trkpt>
      <trkpt lat="44.75583" lon="1.60422">
        <ele>197.9</ele>
        <time>2010-01-01T00:00:00Z</time>
      </trkpt>
      <trkpt lat="44.75607" lon="1.60414">
        <ele>196.2</ele>
        <time>2010-01-01T00:00:00Z</time>
      </trkpt>
      <trkpt lat="44.75634" lon="1.60409">
        <ele>195.5</ele>
        <time>2010-01-01T00:00:00Z</time>
      </trkpt>
      <trkpt lat="44.75672" lon="1.60403">
        <ele>195</ele>
        <time>2010-01-01T00:00:00Z</time>
      </trkpt>
      <trkpt lat="44.75727" lon="1.60392">
        <ele>196.6</ele>
        <time>2010-01-01T00:00:00Z</time>
      </trkpt>
      <trkpt lat="44.75733" lon="1.6039">
        <ele>196.7</ele>
        <time>2010-01-01T00:00:00Z</time>
      </trkpt>
      <trkpt lat="44.75757" lon="1.60385">
        <ele>197.3</ele>
        <time>2010-01-01T00:00:00Z</time>
      </trkpt>
      <trkpt lat="44.75772" lon="1.60379">
        <ele>197.8</ele>
        <time>2010-01-01T00:00:00Z</time>
      </trkpt>
      <trkpt lat="44.7578" lon="1.60373">
        <ele>197.8</ele>
        <time>2010-01-01T00:00:00Z</time>
      </trkpt>
      <trkpt lat="44.75796" lon="1.60362">
        <ele>197.4</ele>
        <time>2010-01-01T00:00:00Z</time>
      </trkpt>
      <trkpt lat="44.75817" lon="1.60341">
        <ele>195.4</ele>
        <time>2010-01-01T00:00:00Z</time>
      </trkpt>
      <trkpt lat="44.7583" lon="1.60326">
        <ele>194.2</ele>
        <time>2010-01-01T00:00:00Z</time>
      </trkpt>
      <trkpt lat="44.75837" lon="1.6031">
        <ele>194.7</ele>
        <time>2010-01-01T00:00:00Z</time>
      </trkpt>
      <trkpt lat="44.7584" lon="1.60304">
        <ele>195.1</ele>
        <time>2010-01-01T00:00:00Z</time>
      </trkpt>
      <trkpt lat="44.7584" lon="1.60303">
        <ele>195.1</ele>
        <time>2010-01-01T00:00:00Z</time>
      </trkpt>
      <trkpt lat="44.75848" lon="1.60279">
        <ele>196.2</ele>
        <time>2010-01-01T00:00:00Z</time>
      </trkpt>
      <trkpt lat="44.75853" lon="1.60245">
        <ele>196.9</ele>
        <time>2010-01-01T00:00:00Z</time>
      </trkpt>
      <trkpt lat="44.75854" lon="1.60226">
        <ele>197.3</ele>
        <time>2010-01-01T00:00:00Z</time>
      </trkpt>
      <trkpt lat="44.75855" lon="1.60219">
        <ele>197.5</ele>
        <time>2010-01-01T00:00:00Z</time>
      </trkpt>
      <trkpt lat="44.75856" lon="1.60182">
        <ele>198</ele>
        <time>2010-01-01T00:00:00Z</time>
      </trkpt>
      <trkpt lat="44.75856" lon="1.60128">
        <ele>197.5</ele>
        <time>2010-01-01T00:00:00Z</time>
      </trkpt>
      <trkpt lat="44.75855" lon="1.60085">
        <ele>196.8</ele>
        <time>2010-01-01T00:00:00Z</time>
      </trkpt>
      <trkpt lat="44.75855" lon="1.6007">
        <ele>196.6</ele>
        <time>2010-01-01T00:00:00Z</time>
      </trkpt>
      <trkpt lat="44.75856" lon="1.60055">
        <ele>196.4</ele>
        <time>2010-01-01T00:00:00Z</time>
      </trkpt>
      <trkpt lat="44.7586" lon="1.6003">
        <ele>196</ele>
        <time>2010-01-01T00:00:00Z</time>
      </trkpt>
      <trkpt lat="44.75867" lon="1.60003">
        <ele>195.1</ele>
        <time>2010-01-01T00:00:00Z</time>
      </trkpt>
      <trkpt lat="44.75881" lon="1.59962">
        <ele>194.2</ele>
        <time>2010-01-01T00:00:00Z</time>
      </trkpt>
      <trkpt lat="44.75903" lon="1.59904">
        <ele>191.3</ele>
        <time>2010-01-01T00:00:00Z</time>
      </trkpt>
      <trkpt lat="44.75919" lon="1.59866">
        <ele>188.3</ele>
        <time>2010-01-01T00:00:00Z</time>
      </trkpt>
      <trkpt lat="44.75934" lon="1.5984">
        <ele>187.7</ele>
        <time>2010-01-01T00:00:00Z</time>
      </trkpt>
      <trkpt lat="44.75941" lon="1.59826">
        <ele>188</ele>
        <time>2010-01-01T00:00:00Z</time>
      </trkpt>
      <trkpt lat="44.75946" lon="1.59816">
        <ele>188.6</ele>
        <time>2010-01-01T00:00:00Z</time>
      </trkpt>
      <trkpt lat="44.75962" lon="1.59788">
        <ele>189.1</ele>
        <time>2010-01-01T00:00:00Z</time>
      </trkpt>
      <trkpt lat="44.75976" lon="1.59769">
        <ele>188.2</ele>
        <time>2010-01-01T00:00:00Z</time>
      </trkpt>
      <trkpt lat="44.75993" lon="1.59747">
        <ele>186</ele>
        <time>2010-01-01T00:00:00Z</time>
      </trkpt>
      <trkpt lat="44.75997" lon="1.59742">
        <ele>185.6</ele>
        <time>2010-01-01T00:00:00Z</time>
      </trkpt>
      <trkpt lat="44.76008" lon="1.59728">
        <ele>186.2</ele>
        <time>2010-01-01T00:00:00Z</time>
      </trkpt>
      <trkpt lat="44.76023" lon="1.59702">
        <ele>187.2</ele>
        <time>2010-01-01T00:00:00Z</time>
      </trkpt>
      <trkpt lat="44.76027" lon="1.59692">
        <ele>187.3</ele>
        <time>2010-01-01T00:00:00Z</time>
      </trkpt>
      <trkpt lat="44.76028" lon="1.5969">
        <ele>187.3</ele>
        <time>2010-01-01T00:00:00Z</time>
      </trkpt>
      <trkpt lat="44.76039" lon="1.59667">
        <ele>187</ele>
        <time>2010-01-01T00:00:00Z</time>
      </trkpt>
      <trkpt lat="44.76047" lon="1.59646">
        <ele>187.1</ele>
        <time>2010-01-01T00:00:00Z</time>
      </trkpt>
      <trkpt lat="44.76051" lon="1.5965">
        <ele>187</ele>
        <time>2010-01-01T00:00:00Z</time>
      </trkpt>
      <trkpt lat="44.76049" lon="1.59648">
        <ele>187.1</ele>
      </trkpt>
      <trkpt lat="44.76047" lon="1.59646">
        <ele>187.1</ele>
      </trkpt>
      <trkpt lat="44.76055" lon="1.59627">
        <ele>186.9</ele>
      </trkpt>
      <trkpt lat="44.76067" lon="1.59596">
        <ele>185.8</ele>
      </trkpt>
      <trkpt lat="44.76073" lon="1.59581">
        <ele>184.9</ele>
      </trkpt>
      <trkpt lat="44.76089" lon="1.59532">
        <ele>183.2</ele>
      </trkpt>
      <trkpt lat="44.76093" lon="1.59518">
        <ele>183.3</ele>
      </trkpt>
      <trkpt lat="44.76095" lon="1.5951">
        <ele>183.3</ele>
      </trkpt>
      <trkpt lat="44.76099" lon="1.59492">
        <ele>183.5</ele>
      </trkpt>
      <trkpt lat="44.76105" lon="1.59463">
        <ele>184.5</ele>
      </trkpt>
      <trkpt lat="44.76108" lon="1.59436">
        <ele>184.8</ele>
      </trkpt>
      <trkpt lat="44.76108" lon="1.59408">
        <ele>184.9</ele>
      </trkpt>
      <trkpt lat="44.76109" lon="1.59392">
        <ele>185.1</ele>
      </trkpt>
      <trkpt lat="44.76111" lon="1.59386">
        <ele>185.4</ele>
      </trkpt>
      <trkpt lat="44.76114" lon="1.59379">
        <ele>185.7</ele>
      </trkpt>
      <trkpt lat="44.76118" lon="1.59372">
        <ele>186</ele>
      </trkpt>
      <trkpt lat="44.76122" lon="1.59368">
        <ele>186.4</ele>
      </trkpt>
      <trkpt lat="44.76132" lon="1.59366">
        <ele>187.1</ele>
      </trkpt>
      <trkpt lat="44.76141" lon="1.59367">
        <ele>187.7</ele>
      </trkpt>
      <trkpt lat="44.76151" lon="1.59369">
        <ele>188.4</ele>
      </trkpt>
      <trkpt lat="44.7616" lon="1.59367">
        <ele>189.1</ele>
      </trkpt>
      <trkpt lat="44.76164" lon="1.59366">
        <ele>189.4</ele>
      </trkpt>
      <trkpt lat="44.76168" lon="1.59362">
        <ele>190.2</ele>
      </trkpt>
      <trkpt lat="44.76181" lon="1.59364">
        <ele>196</ele>
      </trkpt>
      <trkpt lat="44.76186" lon="1.59357">
        <ele>198.2</ele>
      </trkpt>
      <trkpt lat="44.76195" lon="1.59331">
        <ele>201.8</ele>
      </trkpt>
      <trkpt lat="44.76207" lon="1.59279">
        <ele>205</ele>
      </trkpt>
      <trkpt lat="44.76227" lon="1.59188">
        <ele>208.7</ele>
      </trkpt>
      <trkpt lat="44.76247" lon="1.59124">
        <ele>211.8</ele>
      </trkpt>
      <trkpt lat="44.76251" lon="1.59084">
        <ele>209.5</ele>
      </trkpt>
      <trkpt lat="44.76255" lon="1.59053">
        <ele>208.3</ele>
      </trkpt>
      <trkpt lat="44.76259" lon="1.59023">
        <ele>207.2</ele>
      </trkpt>
      <trkpt lat="44.7627" lon="1.58973">
        <ele>206.7</ele>
      </trkpt>
      <trkpt lat="44.76281" lon="1.58915">
        <ele>205</ele>
      </trkpt>
      <trkpt lat="44.76289" lon="1.58863">
        <ele>204.3</ele>
      </trkpt>
      <trkpt lat="44.76292" lon="1.58835">
        <ele>203.3</ele>
      </trkpt>
      <trkpt lat="44.76294" lon="1.58807">
        <ele>202.6</ele>
      </trkpt>
      <trkpt lat="44.76295" lon="1.58787">
        <ele>201.9</ele>
      </trkpt>
      <trkpt lat="44.76295" lon="1.58768">
        <ele>200.8</ele>
      </trkpt>
      <trkpt lat="44.76294" lon="1.58743">
        <ele>198.8</ele>
      </trkpt>
      <trkpt lat="44.76294" lon="1.58724">
        <ele>197</ele>
      </trkpt>
      <trkpt lat="44.76292" lon="1.58696">
        <ele>193.8</ele>
      </trkpt>
      <trkpt lat="44.76292" lon="1.58686">
        <ele>192.9</ele>
      </trkpt>
      <trkpt lat="44.76293" lon="1.58678">
        <ele>192.5</ele>
      </trkpt>
      <trkpt lat="44.76294" lon="1.58668">
        <ele>191.9</ele>
      </trkpt>
      <trkpt lat="44.76298" lon="1.58649">
        <ele>191.2</ele>
      </trkpt>
      <trkpt lat="44.76309" lon="1.586">
        <ele>188.1</ele>
      </trkpt>
      <trkpt lat="44.76313" lon="1.58585">
        <ele>186.8</ele>
      </trkpt>
      <trkpt lat="44.76318" lon="1.5857">
        <ele>186</ele>
      </trkpt>
      <trkpt lat="44.76324" lon="1.58559">
        <ele>185.4</ele>
      </trkpt>
      <trkpt lat="44.7633" lon="1.5855">
        <ele>184.5</ele>
      </trkpt>
      <trkpt lat="44.76339" lon="1.58542">
        <ele>184</ele>
      </trkpt>
      <trkpt lat="44.76395" lon="1.58508">
        <ele>180</ele>
      </trkpt>
      <trkpt lat="44.76439" lon="1.5848">
        <ele>177.4</ele>
      </trkpt>
      <trkpt lat="44.76475" lon="1.58453">
        <ele>175.3</ele>
      </trkpt>
      <trkpt lat="44.76509" lon="1.58431">
        <ele>173.1</ele>
      </trkpt>
      <trkpt lat="44.76502" lon="1.58431">
        <ele>172.9</ele>
      </trkpt>
      <trkpt lat="44.76509" lon="1.58431">
        <ele>173.1</ele>
      </trkpt>
      <trkpt lat="44.76517" lon="1.58426">
        <ele>173</ele>
      </trkpt>
      <trkpt lat="44.76532" lon="1.58415">
        <ele>172.9</ele>
      </trkpt>
      <trkpt lat="44.7654" lon="1.58408">
        <ele>173.5</ele>
      </trkpt>
      <trkpt lat="44.76547" lon="1.58403">
        <ele>173.9</ele>
      </trkpt>
      <trkpt lat="44.76554" lon="1.58396">
        <ele>174.3</ele>
      </trkpt>
      <trkpt lat="44.76597" lon="1.58405">
        <ele>174.4</ele>
      </trkpt>
      <trkpt lat="44.7664" lon="1.58404">
        <ele>174.7</ele>
      </trkpt>
      <trkpt lat="44.76676" lon="1.58391">
        <ele>176.8</ele>
      </trkpt>
      <trkpt lat="44.76689" lon="1.58393">
        <ele>178</ele>
      </trkpt>
      <trkpt lat="44.76717" lon="1.5841">
        <ele>179.9</ele>
      </trkpt>
      <trkpt lat="44.76724" lon="1.58423">
        <ele>180.1</ele>
      </trkpt>
      <trkpt lat="44.76729" lon="1.58433">
        <ele>180.4</ele>
      </trkpt>
      <trkpt lat="44.7673" lon="1.58438">
        <ele>180.4</ele>
      </trkpt>
      <trkpt lat="44.76735" lon="1.58461">
        <ele>180.4</ele>
      </trkpt>
      <trkpt lat="44.76734" lon="1.58482">
        <ele>179.8</ele>
      </trkpt>
      <trkpt lat="44.7673" lon="1.58504">
        <ele>179.2</ele>
      </trkpt>
      <trkpt lat="44.76718" lon="1.5855">
        <ele>178</ele>
      </trkpt>
      <trkpt lat="44.76712" lon="1.58595">
        <ele>177.5</ele>
      </trkpt>
      <trkpt lat="44.76705" lon="1.58671">
        <ele>177.8</ele>
      </trkpt>
      <trkpt lat="44.76704" lon="1.58691">
        <ele>177.4</ele>
      </trkpt>
      <trkpt lat="44.76702" lon="1.5873">
        <ele>176.7</ele>
      </trkpt>
      <trkpt lat="44.76703" lon="1.58779">
        <ele>176.5</ele>
      </trkpt>
      <trkpt lat="44.76701" lon="1.58798">
        <ele>175.9</ele>
      </trkpt>
      <trkpt lat="44.76699" lon="1.58807">
        <ele>175.4</ele>
      </trkpt>
      <trkpt lat="44.76749" lon="1.58963">
        <ele>173.6</ele>
      </trkpt>
      <trkpt lat="44.76883" lon="1.591">
        <ele>170.4</ele>
      </trkpt>
      <trkpt lat="44.7712" lon="1.59225">
        <ele>163.8</ele>
      </trkpt>
      <trkpt lat="44.7723" lon="1.59383">
        <ele>159.4</ele>
      </trkpt>
      <trkpt lat="44.77404" lon="1.59615">
        <ele>156.6</ele>
      </trkpt>
      <trkpt lat="44.77404" lon="1.59617">
        <ele>156.5</ele>
      </trkpt>
      <trkpt lat="44.77401" lon="1.59618">
        <ele>156.4</ele>
      </trkpt>
      <trkpt lat="44.77411" lon="1.59626">
        <ele>155.9</ele>
      </trkpt>
      <trkpt lat="44.77452" lon="1.59658">
        <ele>154.2</ele>
      </trkpt>
      <trkpt lat="44.775" lon="1.5969">
        <ele>155.1</ele>
      </trkpt>
      <trkpt lat="44.77524" lon="1.59703">
        <ele>155.9</ele>
      </trkpt>
      <trkpt lat="44.77541" lon="1.59705">
        <ele>156</ele>
      </trkpt>
      <trkpt lat="44.77572" lon="1.59702">
        <ele>156.1</ele>
      </trkpt>
      <trkpt lat="44.77609" lon="1.59698">
        <ele>157.7</ele>
      </trkpt>
      <trkpt lat="44.7768" lon="1.59685">
        <ele>161</ele>
      </trkpt>
      <trkpt lat="44.77762" lon="1.59666">
        <ele>158.9</ele>
      </trkpt>
      <trkpt lat="44.77778" lon="1.59661">
        <ele>159.9</ele>
      </trkpt>
      <trkpt lat="44.77787" lon="1.59652">
        <ele>162.3</ele>
      </trkpt>
      <trkpt lat="44.77795" lon="1.59643">
        <ele>164.8</ele>
      </trkpt>
      <trkpt lat="44.77801" lon="1.59638">
        <ele>166.1</ele>
      </trkpt>
      <trkpt lat="44.77818" lon="1.59633">
        <ele>167.3</ele>
      </trkpt>
      <trkpt lat="44.77831" lon="1.59634">
        <ele>166.8</ele>
      </trkpt>
      <trkpt lat="44.77839" lon="1.59641">
        <ele>166.1</ele>
      </trkpt>
      <trkpt lat="44.77847" lon="1.59653">
        <ele>164.7</ele>
      </trkpt>
      <trkpt lat="44.7785" lon="1.59666">
        <ele>161.8</ele>
      </trkpt>
      <trkpt lat="44.77851" lon="1.59682">
        <ele>160.9</ele>
      </trkpt>
      <trkpt lat="44.77851" lon="1.59693">
        <ele>160.3</ele>
      </trkpt>
      <trkpt lat="44.77851" lon="1.59716">
        <ele>158.9</ele>
      </trkpt>
      <trkpt lat="44.77851" lon="1.59762">
        <ele>156.7</ele>
      </trkpt>
      <trkpt lat="44.77849" lon="1.5978">
        <ele>156.2</ele>
      </trkpt>
      <trkpt lat="44.77848" lon="1.59798">
        <ele>155.9</ele>
      </trkpt>
      <trkpt lat="44.77849" lon="1.59809">
        <ele>156</ele>
      </trkpt>
      <trkpt lat="44.77851" lon="1.59819">
        <ele>156.2</ele>
      </trkpt>
      <trkpt lat="44.77853" lon="1.59835">
        <ele>156.3</ele>
      </trkpt>
      <trkpt lat="44.77862" lon="1.59874">
        <ele>155.9</ele>
      </trkpt>
      <trkpt lat="44.77874" lon="1.59917">
        <ele>155</ele>
      </trkpt>
      <trkpt lat="44.7788" lon="1.59934">
        <ele>155.5</ele>
      </trkpt>
      <trkpt lat="44.77882" lon="1.59941">
        <ele>155.7</ele>
      </trkpt>
      <trkpt lat="44.77886" lon="1.59962">
        <ele>156.1</ele>
      </trkpt>
      <trkpt lat="44.77902" lon="1.60002">
        <ele>156.7</ele>
      </trkpt>
      <trkpt lat="44.77919" lon="1.60035">
        <ele>155.4</ele>
      </trkpt>
      <trkpt lat="44.77926" lon="1.60055">
        <ele>156.7</ele>
      </trkpt>
      <trkpt lat="44.77932" lon="1.6007">
        <ele>157.9</ele>
      </trkpt>
      <trkpt lat="44.77938" lon="1.60098">
        <ele>158.4</ele>
      </trkpt>
      <trkpt lat="44.77948" lon="1.60156">
        <ele>158.8</ele>
      </trkpt>
      <trkpt lat="44.77951" lon="1.60178">
        <ele>158.6</ele>
      </trkpt>
      <trkpt lat="44.77951" lon="1.60194">
        <ele>157.9</ele>
      </trkpt>
      <trkpt lat="44.77955" lon="1.60219">
        <ele>157.8</ele>
      </trkpt>
      <trkpt lat="44.77951" lon="1.60237">
        <ele>156</ele>
      </trkpt>
      <trkpt lat="44.77948" lon="1.60256">
        <ele>154.4</ele>
      </trkpt>
      <trkpt lat="44.77955" lon="1.60284">
        <ele>153.6</ele>
      </trkpt>
      <trkpt lat="44.77964" lon="1.6033">
        <ele>150.9</ele>
      </trkpt>
      <trkpt lat="44.77977" lon="1.60373">
        <ele>148.6</ele>
      </trkpt>
      <trkpt lat="44.77998" lon="1.60412">
        <ele>144.6</ele>
      </trkpt>
      <trkpt lat="44.78007" lon="1.60432">
        <ele>145.2</ele>
      </trkpt>
      <trkpt lat="44.78019" lon="1.60467">
        <ele>147.1</ele>
      </trkpt>
      <trkpt lat="44.78031" lon="1.60492">
        <ele>148.3</ele>
      </trkpt>
      <trkpt lat="44.78043" lon="1.60512">
        <ele>151.9</ele>
      </trkpt>
      <trkpt lat="44.78045" lon="1.60515">
        <ele>152.7</ele>
      </trkpt>
      <trkpt lat="44.78045" lon="1.60509">
        <ele>151.3</ele>
      </trkpt>
      <trkpt lat="44.78041" lon="1.60502">
        <ele>149.4</ele>
      </trkpt>
      <trkpt lat="44.78205" lon="1.60396">
        <ele>148</ele>
      </trkpt>
      <trkpt lat="44.78263" lon="1.60173">
        <ele>151.3</ele>
      </trkpt>
      <trkpt lat="44.78272" lon="1.59958">
        <ele>152.5</ele>
      </trkpt>
      <trkpt lat="44.78299" lon="1.59817">
        <ele>152</ele>
      </trkpt>
      <trkpt lat="44.78381" lon="1.59645">
        <ele>149.6</ele>
      </trkpt>
      <trkpt lat="44.78382" lon="1.59645">
        <ele>149.6</ele>
      </trkpt>
      <trkpt lat="44.78403" lon="1.59491">
        <ele>145</ele>
      </trkpt>
      <trkpt lat="44.7857" lon="1.59375">
        <ele>138.5</ele>
      </trkpt>
      <trkpt lat="44.7872" lon="1.59379">
        <ele>140.3</ele>
      </trkpt>
      <trkpt lat="44.78719" lon="1.59379">
        <ele>140.3</ele>
      </trkpt>
      <trkpt lat="44.7872" lon="1.59381">
        <ele>140.4</ele>
      </trkpt>
      <trkpt lat="44.7875" lon="1.59383">
        <ele>141.6</ele>
      </trkpt>
      <trkpt lat="44.78779" lon="1.59385">
        <ele>139.2</ele>
      </trkpt>
      <trkpt lat="44.78799" lon="1.59391">
        <ele>137.5</ele>
      </trkpt>
      <trkpt lat="44.7883" lon="1.59399">
        <ele>134.6</ele>
      </trkpt>
      <trkpt lat="44.78831" lon="1.59392">
        <ele>134.5</ele>
      </trkpt>
      <trkpt lat="44.78835" lon="1.59376">
        <ele>134.5</ele>
      </trkpt>
      <trkpt lat="44.78838" lon="1.59366">
        <ele>134.6</ele>
      </trkpt>
      <trkpt lat="44.78842" lon="1.59359">
        <ele>134.7</ele>
      </trkpt>
      <trkpt lat="44.78845" lon="1.59351">
        <ele>134.8</ele>
      </trkpt>
      <trkpt lat="44.78849" lon="1.59346">
        <ele>134.8</ele>
      </trkpt>
      <trkpt lat="44.7885" lon="1.59345">
        <ele>134.8</ele>
      </trkpt>
      <trkpt lat="44.78853" lon="1.59344">
        <ele>134.8</ele>
      </trkpt>
      <trkpt lat="44.7886" lon="1.59344">
        <ele>134.7</ele>
      </trkpt>
      <trkpt lat="44.78873" lon="1.59346">
        <ele>134.7</ele>
      </trkpt>
      <trkpt lat="44.78883" lon="1.59344">
        <ele>134.6</ele>
      </trkpt>
      <trkpt lat="44.78892" lon="1.59341">
        <ele>134.5</ele>
      </trkpt>
      <trkpt lat="44.78905" lon="1.59337">
        <ele>134.2</ele>
      </trkpt>
      <trkpt lat="44.78913" lon="1.59334">
        <ele>134.1</ele>
      </trkpt>
      <trkpt lat="44.78922" lon="1.5933">
        <ele>134.6</ele>
      </trkpt>
      <trkpt lat="44.78933" lon="1.59327">
        <ele>134.8</ele>
      </trkpt>
      <trkpt lat="44.78944" lon="1.59326">
        <ele>134.4</ele>
      </trkpt>
      <trkpt lat="44.78957" lon="1.59326">
        <ele>133.8</ele>
      </trkpt>
      <trkpt lat="44.78965" lon="1.59326">
        <ele>133.4</ele>
      </trkpt>
      <trkpt lat="44.78973" lon="1.59331">
        <ele>131.8</ele>
      </trkpt>
      <trkpt lat="44.78986" lon="1.59334">
        <ele>130.7</ele>
      </trkpt>
      <trkpt lat="44.78999" lon="1.59335">
        <ele>130.3</ele>
      </trkpt>
      <trkpt lat="44.79026" lon="1.59334">
        <ele>130.4</ele>
      </trkpt>
      <trkpt lat="44.79035" lon="1.59335">
        <ele>130.7</ele>
      </trkpt>
      <trkpt lat="44.7904" lon="1.59331">
        <ele>130.7</ele>
      </trkpt>
      <trkpt lat="44.79048" lon="1.59322">
        <ele>131.6</ele>
      </trkpt>
      <trkpt lat="44.79061" lon="1.59303">
        <ele>132.5</ele>
      </trkpt>
      <trkpt lat="44.7907" lon="1.59289">
        <ele>132.4</ele>
      </trkpt>
      <trkpt lat="44.79076" lon="1.59286">
        <ele>131.8</ele>
      </trkpt>
      <trkpt lat="44.79084" lon="1.59285">
        <ele>131.1</ele>
      </trkpt>
      <trkpt lat="44.7909" lon="1.59284">
        <ele>132.5</ele>
      </trkpt>
      <trkpt lat="44.79093" lon="1.59282">
        <ele>133.1</ele>
      </trkpt>
      <trkpt lat="44.79097" lon="1.59272">
        <ele>133.7</ele>
      </trkpt>
      <trkpt lat="44.79102" lon="1.5925">
        <ele>133.9</ele>
      </trkpt>
      <trkpt lat="44.79107" lon="1.59238">
        <ele>135</ele>
      </trkpt>
      <trkpt lat="44.7911" lon="1.59221">
        <ele>135.8</ele>
      </trkpt>
      <trkpt lat="44.79115" lon="1.59208">
        <ele>136.4</ele>
      </trkpt>
      <trkpt lat="44.7912" lon="1.5919">
        <ele>136.7</ele>
      </trkpt>
      <trkpt lat="44.79122" lon="1.59178">
        <ele>136.7</ele>
      </trkpt>
      <trkpt lat="44.79133" lon="1.59152">
        <ele>136.4</ele>
      </trkpt>
      <trkpt lat="44.79136" lon="1.59137">
        <ele>136.2</ele>
      </trkpt>
      <trkpt lat="44.7914" lon="1.59124">
        <ele>135.7</ele>
      </trkpt>
      <trkpt lat="44.79142" lon="1.59114">
        <ele>135.3</ele>
      </trkpt>
      <trkpt lat="44.7915" lon="1.59104">
        <ele>133.6</ele>
      </trkpt>
      <trkpt lat="44.79156" lon="1.59095">
        <ele>132.1</ele>
      </trkpt>
      <trkpt lat="44.79163" lon="1.59086">
        <ele>130</ele>
      </trkpt>
      <trkpt lat="44.79174" lon="1.59073">
        <ele>130.4</ele>
      </trkpt>
      <trkpt lat="44.79182" lon="1.59061">
        <ele>131.9</ele>
      </trkpt>
      <trkpt lat="44.79189" lon="1.59043">
        <ele>132.9</ele>
      </trkpt>
      <trkpt lat="44.79189" lon="1.59042">
        <ele>132.9</ele>
      </trkpt>
      <trkpt lat="44.79193" lon="1.59029">
        <ele>133.3</ele>
      </trkpt>
      <trkpt lat="44.79194" lon="1.59018">
        <ele>133.3</ele>
      </trkpt>
      <trkpt lat="44.79192" lon="1.59006">
        <ele>132.8</ele>
      </trkpt>
      <trkpt lat="44.79187" lon="1.5899">
        <ele>132</ele>
      </trkpt>
      <trkpt lat="44.79184" lon="1.58978">
        <ele>131.7</ele>
      </trkpt>
      <trkpt lat="44.79182" lon="1.58967">
        <ele>131.5</ele>
      </trkpt>
      <trkpt lat="44.79178" lon="1.58953">
        <ele>131</ele>
      </trkpt>
      <trkpt lat="44.79175" lon="1.58938">
        <ele>130.8</ele>
      </trkpt>
      <trkpt lat="44.79172" lon="1.58927">
        <ele>130.5</ele>
      </trkpt>
      <trkpt lat="44.79174" lon="1.58913">
        <ele>131</ele>
      </trkpt>
      <trkpt lat="44.79171" lon="1.589">
        <ele>131.3</ele>
      </trkpt>
      <trkpt lat="44.7917" lon="1.5888">
        <ele>132.1</ele>
      </trkpt>
      <trkpt lat="44.79169" lon="1.58865">
        <ele>132.7</ele>
      </trkpt>
      <trkpt lat="44.7917" lon="1.5885">
        <ele>133.5</ele>
      </trkpt>
      <trkpt lat="44.79172" lon="1.58831">
        <ele>134.3</ele>
      </trkpt>
      <trkpt lat="44.79174" lon="1.58814">
        <ele>134.1</ele>
      </trkpt>
      <trkpt lat="44.79177" lon="1.58798">
        <ele>133.9</ele>
      </trkpt>
      <trkpt lat="44.79178" lon="1.5878">
        <ele>133.5</ele>
      </trkpt>
      <trkpt lat="44.7918" lon="1.58751">
        <ele>133</ele>
      </trkpt>
      <trkpt lat="44.79177" lon="1.58722">
        <ele>131.4</ele>
      </trkpt>
      <trkpt lat="44.79176" lon="1.58692">
        <ele>129.9</ele>
      </trkpt>
      <trkpt lat="44.79173" lon="1.58676">
        <ele>128.6</ele>
      </trkpt>
      <trkpt lat="44.79167" lon="1.58663">
        <ele>127</ele>
      </trkpt>
      <trkpt lat="44.79164" lon="1.58655">
        <ele>127.4</ele>
      </trkpt>
      <trkpt lat="44.79159" lon="1.58648">
        <ele>128.2</ele>
      </trkpt>
      <trkpt lat="44.79156" lon="1.58644">
        <ele>128.6</ele>
      </trkpt>
      <trkpt lat="44.79156" lon="1.58635">
        <ele>128.3</ele>
      </trkpt>
      <trkpt lat="44.79156" lon="1.58629">
        <ele>128.1</ele>
      </trkpt>
      <trkpt lat="44.79155" lon="1.58626">
        <ele>128.1</ele>
      </trkpt>
      <trkpt lat="44.7915" lon="1.58618">
        <ele>128.5</ele>
      </trkpt>
      <trkpt lat="44.79144" lon="1.58604">
        <ele>128.3</ele>
      </trkpt>
      <trkpt lat="44.79139" lon="1.58596">
        <ele>128.2</ele>
      </trkpt>
      <trkpt lat="44.79137" lon="1.58597">
        <ele>128.5</ele>
      </trkpt>
      <trkpt lat="44.79127" lon="1.58611">
        <ele>130.6</ele>
      </trkpt>
      <trkpt lat="44.79122" lon="1.58615">
        <ele>131.6</ele>
      </trkpt>
      <trkpt lat="44.79118" lon="1.58616">
        <ele>132.2</ele>
      </trkpt>
      <trkpt lat="44.79117" lon="1.58614">
        <ele>132</ele>
      </trkpt>
      <trkpt lat="44.79117" lon="1.58608">
        <ele>131.3</ele>
      </trkpt>
      <trkpt lat="44.7911" lon="1.58604">
        <ele>131.5</ele>
      </trkpt>
      <trkpt lat="44.79109" lon="1.58592">
        <ele>130</ele>
      </trkpt>
      <trkpt lat="44.79106" lon="1.58582">
        <ele>128.9</ele>
      </trkpt>
      <trkpt lat="44.791" lon="1.58576">
        <ele>128.8</ele>
      </trkpt>
      <trkpt lat="44.79091" lon="1.5857">
        <ele>128.7</ele>
      </trkpt>
      <trkpt lat="44.79086" lon="1.58563">
        <ele>128.3</ele>
      </trkpt>
      <trkpt lat="44.79082" lon="1.58551">
        <ele>127.7</ele>
      </trkpt>
      <trkpt lat="44.79078" lon="1.58538">
        <ele>127.9</ele>
      </trkpt>
      <trkpt lat="44.79076" lon="1.58527">
        <ele>127.4</ele>
      </trkpt>
      <trkpt lat="44.79076" lon="1.58511">
        <ele>125.8</ele>
      </trkpt>
      <trkpt lat="44.79073" lon="1.58499">
        <ele>125.4</ele>
      </trkpt>
      <trkpt lat="44.7907" lon="1.58486">
        <ele>125.3</ele>
      </trkpt>
      <trkpt lat="44.79067" lon="1.58475">
        <ele>125.1</ele>
      </trkpt>
      <trkpt lat="44.79065" lon="1.58465">
        <ele>124.8</ele>
      </trkpt>
      <trkpt lat="44.79062" lon="1.5846">
        <ele>124.8</ele>
      </trkpt>
      <trkpt lat="44.7906" lon="1.58457">
        <ele>124.9</ele>
      </trkpt>
      <trkpt lat="44.79051" lon="1.58458">
        <ele>126.3</ele>
      </trkpt>
      <trkpt lat="44.79044" lon="1.58456">
        <ele>127.1</ele>
      </trkpt>
      <trkpt lat="44.79051" lon="1.58458">
        <ele>126.3</ele>
      </trkpt>
      <trkpt lat="44.7906" lon="1.58457">
        <ele>124.9</ele>
      </trkpt>
      <trkpt lat="44.79056" lon="1.58447">
        <ele>124.5</ele>
      </trkpt>
      <trkpt lat="44.79052" lon="1.58441">
        <ele>124.4</ele>
      </trkpt>
      <trkpt lat="44.79044" lon="1.58438">
        <ele>124.9</ele>
      </trkpt>
      <trkpt lat="44.79039" lon="1.58428">
        <ele>124.2</ele>
      </trkpt>
      <trkpt lat="44.79037" lon="1.58412">
        <ele>122.8</ele>
      </trkpt>
      <trkpt lat="44.79037" lon="1.58405">
        <ele>122.9</ele>
      </trkpt>
      <trkpt lat="44.79038" lon="1.58403">
        <ele>122.9</ele>
      </trkpt>
      <trkpt lat="44.7904" lon="1.58402">
        <ele>122.7</ele>
      </trkpt>
      <trkpt lat="44.79043" lon="1.58402">
        <ele>122.5</ele>
      </trkpt>
      <trkpt lat="44.79046" lon="1.58403">
        <ele>122.3</ele>
      </trkpt>
      <trkpt lat="44.79049" lon="1.58404">
        <ele>122</ele>
      </trkpt>
      <trkpt lat="44.79053" lon="1.58409">
        <ele>121.8</ele>
      </trkpt>
      <trkpt lat="44.79057" lon="1.58412">
        <ele>121.5</ele>
      </trkpt>
      <trkpt lat="44.79064" lon="1.58417">
        <ele>121.2</ele>
      </trkpt>
      <trkpt lat="44.79068" lon="1.5842">
        <ele>121.2</ele>
      </trkpt>
      <trkpt lat="44.79071" lon="1.58422">
        <ele>121.1</ele>
      </trkpt>
      <trkpt lat="44.79087" lon="1.58432">
        <ele>121.2</ele>
      </trkpt>
      <trkpt lat="44.79107" lon="1.58444">
        <ele>124.9</ele>
      </trkpt>
      <trkpt lat="44.79122" lon="1.58456">
        <ele>127.3</ele>
      </trkpt>
      <trkpt lat="44.79126" lon="1.58459">
        <ele>127.9</ele>
      </trkpt>
      <trkpt lat="44.79131" lon="1.58464">
        <ele>128.6</ele>
      </trkpt>
      <trkpt lat="44.79138" lon="1.58473">
        <ele>129.4</ele>
      </trkpt>
      <trkpt lat="44.79141" lon="1.5848">
        <ele>129.7</ele>
      </trkpt>
      <trkpt lat="44.79145" lon="1.58488">
        <ele>130</ele>
      </trkpt>
      <trkpt lat="44.79148" lon="1.58496">
        <ele>130.1</ele>
      </trkpt>
      <trkpt lat="44.79153" lon="1.58504">
        <ele>130.3</ele>
      </trkpt>
      <trkpt lat="44.79158" lon="1.58513">
        <ele>130.3</ele>
      </trkpt>
      <trkpt lat="44.79172" lon="1.58534">
        <ele>131.1</ele>
      </trkpt>
      <trkpt lat="44.79176" lon="1.58539">
        <ele>131.8</ele>
      </trkpt>
      <trkpt lat="44.7918" lon="1.58545">
        <ele>132.5</ele>
      </trkpt>
      <trkpt lat="44.79184" lon="1.58548">
        <ele>133.4</ele>
      </trkpt>
      <trkpt lat="44.79189" lon="1.58551">
        <ele>134.6</ele>
      </trkpt>
      <trkpt lat="44.79193" lon="1.58553">
        <ele>135.6</ele>
      </trkpt>
      <trkpt lat="44.79198" lon="1.58554">
        <ele>136.9</ele>
      </trkpt>
      <trkpt lat="44.79205" lon="1.58558">
        <ele>138.5</ele>
      </trkpt>
      <trkpt lat="44.79211" lon="1.58562">
        <ele>139.9</ele>
      </trkpt>
      <trkpt lat="44.79214" lon="1.58567">
        <ele>140.4</ele>
      </trkpt>
      <trkpt lat="44.79223" lon="1.58582">
        <ele>141.7</ele>
      </trkpt>
      <trkpt lat="44.79231" lon="1.58593">
        <ele>143.2</ele>
      </trkpt>
      <trkpt lat="44.79235" lon="1.58601">
        <ele>143.7</ele>
      </trkpt>
      <trkpt lat="44.79239" lon="1.58615">
        <ele>143.7</ele>
      </trkpt>
      <trkpt lat="44.79244" lon="1.58628">
        <ele>143.9</ele>
      </trkpt>
      <trkpt lat="44.79249" lon="1.58663">
        <ele>142.1</ele>
      </trkpt>
      <trkpt lat="44.79255" lon="1.58693">
        <ele>142.8</ele>
      </trkpt>
      <trkpt lat="44.7926" lon="1.58724">
        <ele>143.5</ele>
      </trkpt>
      <trkpt lat="44.79264" lon="1.58761">
        <ele>144.3</ele>
      </trkpt>
      <trkpt lat="44.79269" lon="1.58797">
        <ele>147.1</ele>
      </trkpt>
      <trkpt lat="44.79272" lon="1.58833">
        <ele>149</ele>
      </trkpt>
      <trkpt lat="44.79273" lon="1.5885">
        <ele>149.3</ele>
      </trkpt>
      <trkpt lat="44.79274" lon="1.58868">
        <ele>149.7</ele>
      </trkpt>
      <trkpt lat="44.79275" lon="1.58887">
        <ele>150</ele>
      </trkpt>
      <trkpt lat="44.79275" lon="1.58935">
        <ele>149.8</ele>
      </trkpt>
      <trkpt lat="44.79275" lon="1.58948">
        <ele>149.7</ele>
      </trkpt>
      <trkpt lat="44.79276" lon="1.58961">
        <ele>150</ele>
      </trkpt>
      <trkpt lat="44.79278" lon="1.58976">
        <ele>150.6</ele>
      </trkpt>
      <trkpt lat="44.7928" lon="1.58992">
        <ele>151.2</ele>
      </trkpt>
      <trkpt lat="44.79281" lon="1.59004">
        <ele>151.4</ele>
      </trkpt>
      <trkpt lat="44.79281" lon="1.59018">
        <ele>151.2</ele>
      </trkpt>
      <trkpt lat="44.79281" lon="1.5904">
        <ele>151</ele>
      </trkpt>
      <trkpt lat="44.79281" lon="1.59058">
        <ele>150.8</ele>
      </trkpt>
      <trkpt lat="44.79279" lon="1.59075">
        <ele>150.2</ele>
      </trkpt>
      <trkpt lat="44.79277" lon="1.59091">
        <ele>149.9</ele>
      </trkpt>
      <trkpt lat="44.79275" lon="1.59098">
        <ele>149.8</ele>
      </trkpt>
      <trkpt lat="44.79278" lon="1.59114">
        <ele>150.1</ele>
      </trkpt>
      <trkpt lat="44.79283" lon="1.59135">
        <ele>149.9</ele>
      </trkpt>
      <trkpt lat="44.79284" lon="1.59133">
        <ele>149.9</ele>
      </trkpt>
      <trkpt lat="44.79285" lon="1.59132">
        <ele>149.9</ele>
      </trkpt>
      <trkpt lat="44.79289" lon="1.59127">
        <ele>150</ele>
      </trkpt>
      <trkpt lat="44.79292" lon="1.59123">
        <ele>150.1</ele>
      </trkpt>
      <trkpt lat="44.79297" lon="1.59114">
        <ele>150.7</ele>
      </trkpt>
      <trkpt lat="44.79313" lon="1.59079">
        <ele>155.4</ele>
      </trkpt>
      <trkpt lat="44.79328" lon="1.59043">
        <ele>162.1</ele>
      </trkpt>
      <trkpt lat="44.79354" lon="1.59022">
        <ele>165.2</ele>
      </trkpt>
      <trkpt lat="44.7937" lon="1.59015">
        <ele>166.2</ele>
      </trkpt>
      <trkpt lat="44.79399" lon="1.59012">
        <ele>166.6</ele>
      </trkpt>
      <trkpt lat="44.79423" lon="1.5901">
        <ele>166.5</ele>
      </trkpt>
      <trkpt lat="44.79428" lon="1.59009">
        <ele>166.4</ele>
      </trkpt>
      <trkpt lat="44.79436" lon="1.5901">
        <ele>165.2</ele>
      </trkpt>
      <trkpt lat="44.79442" lon="1.59011">
        <ele>164.3</ele>
      </trkpt>
      <trkpt lat="44.79452" lon="1.59013">
        <ele>162.6</ele>
      </trkpt>
      <trkpt lat="44.79466" lon="1.59018">
        <ele>159.5</ele>
      </trkpt>
      <trkpt lat="44.79476" lon="1.59023">
        <ele>156.9</ele>
      </trkpt>
      <trkpt lat="44.79481" lon="1.59025">
        <ele>155.8</ele>
      </trkpt>
      <trkpt lat="44.79486" lon="1.59026">
        <ele>155.1</ele>
      </trkpt>
      <trkpt lat="44.7949" lon="1.59026">
        <ele>154.7</ele>
      </trkpt>
      <trkpt lat="44.79495" lon="1.59027">
        <ele>154</ele>
      </trkpt>
      <trkpt lat="44.795" lon="1.59027">
        <ele>153.6</ele>
      </trkpt>
      <trkpt lat="44.79502" lon="1.59027">
        <ele>153.2</ele>
      </trkpt>
      <trkpt lat="44.79505" lon="1.59027">
        <ele>152.5</ele>
      </trkpt>
      <trkpt lat="44.79508" lon="1.59026">
        <ele>152.2</ele>
      </trkpt>
      <trkpt lat="44.79512" lon="1.59023">
        <ele>152.2</ele>
      </trkpt>
      <trkpt lat="44.79515" lon="1.59022">
        <ele>151.8</ele>
      </trkpt>
      <trkpt lat="44.79518" lon="1.59019">
        <ele>151.9</ele>
      </trkpt>
      <trkpt lat="44.79522" lon="1.59012">
        <ele>152.7</ele>
      </trkpt>
      <trkpt lat="44.79528" lon="1.58998">
        <ele>154.5</ele>
      </trkpt>
      <trkpt lat="44.79534" lon="1.58976">
        <ele>158.3</ele>
      </trkpt>
      <trkpt lat="44.79536" lon="1.58972">
        <ele>158.7</ele>
      </trkpt>
      <trkpt lat="44.7954" lon="1.58973">
        <ele>157.2</ele>
      </trkpt>
      <trkpt lat="44.79543" lon="1.58994">
        <ele>151.1</ele>
      </trkpt>
      <trkpt lat="44.79547" lon="1.59016">
        <ele>145.7</ele>
      </trkpt>
      <trkpt lat="44.79549" lon="1.59043">
        <ele>140.8</ele>
      </trkpt>
      <trkpt lat="44.79552" lon="1.5906">
        <ele>137.7</ele>
      </trkpt>
      <trkpt lat="44.79551" lon="1.59074">
        <ele>135.6</ele>
      </trkpt>
      <trkpt lat="44.79544" lon="1.59089">
        <ele>134.9</ele>
      </trkpt>
      <trkpt lat="44.79537" lon="1.59101">
        <ele>136</ele>
      </trkpt>
      <trkpt lat="44.79533" lon="1.59106">
        <ele>136.3</ele>
      </trkpt>
      <trkpt lat="44.79529" lon="1.59109">
        <ele>136.5</ele>
      </trkpt>
      <trkpt lat="44.7953" lon="1.59114">
        <ele>136.8</ele>
      </trkpt>
      <trkpt lat="44.7954" lon="1.59119">
        <ele>137.4</ele>
      </trkpt>
      <trkpt lat="44.79551" lon="1.59114">
        <ele>137.3</ele>
      </trkpt>
      <trkpt lat="44.7956" lon="1.59102">
        <ele>136.1</ele>
      </trkpt>
      <trkpt lat="44.79564" lon="1.59085">
        <ele>133.9</ele>
      </trkpt>
      <trkpt lat="44.79567" lon="1.59068">
        <ele>135.3</ele>
      </trkpt>
      <trkpt lat="44.7957" lon="1.5904">
        <ele>137.8</ele>
      </trkpt>
      <trkpt lat="44.7957" lon="1.59013">
        <ele>140.5</ele>
      </trkpt>
      <trkpt lat="44.79572" lon="1.58993">
        <ele>142.8</ele>
      </trkpt>
      <trkpt lat="44.79577" lon="1.58978">
        <ele>144.5</ele>
      </trkpt>
      <trkpt lat="44.79584" lon="1.58966">
        <ele>144.9</ele>
      </trkpt>
      <trkpt lat="44.79593" lon="1.58959">
        <ele>145.2</ele>
      </trkpt>
      <trkpt lat="44.7961" lon="1.58956">
        <ele>143.7</ele>
      </trkpt>
      <trkpt lat="44.79641" lon="1.58952">
        <ele>140.5</ele>
      </trkpt>
      <trkpt lat="44.79663" lon="1.58956">
        <ele>137.2</ele>
      </trkpt>
      <trkpt lat="44.79683" lon="1.58966">
        <ele>135.4</ele>
      </trkpt>
      <trkpt lat="44.79701" lon="1.58971">
        <ele>134.6</ele>
      </trkpt>
      <trkpt lat="44.79715" lon="1.58972">
        <ele>134.2</ele>
      </trkpt>
      <trkpt lat="44.7972" lon="1.58969">
        <ele>134.4</ele>
      </trkpt>
      <trkpt lat="44.79747" lon="1.58953">
        <ele>134.9</ele>
      </trkpt>
      <trkpt lat="44.79757" lon="1.58948">
        <ele>135.2</ele>
      </trkpt>
      <trkpt lat="44.79761" lon="1.58946">
        <ele>135.3</ele>
      </trkpt>
      <trkpt lat="44.79766" lon="1.58946">
        <ele>135.3</ele>
      </trkpt>
      <trkpt lat="44.79769" lon="1.58946">
        <ele>135.3</ele>
      </trkpt>
      <trkpt lat="44.79773" lon="1.58947">
        <ele>135.3</ele>
      </trkpt>
      <trkpt lat="44.79791" lon="1.58959">
        <ele>135.5</ele>
      </trkpt>
      <trkpt lat="44.79796" lon="1.58963">
        <ele>135.7</ele>
      </trkpt>
      <trkpt lat="44.79802" lon="1.58967">
        <ele>136</ele>
      </trkpt>
      <trkpt lat="44.79811" lon="1.58966">
        <ele>136.3</ele>
      </trkpt>
      <trkpt lat="44.79818" lon="1.58962">
        <ele>136.3</ele>
      </trkpt>
      <trkpt lat="44.79826" lon="1.5896">
        <ele>136.4</ele>
      </trkpt>
      <trkpt lat="44.79833" lon="1.58958">
        <ele>136.5</ele>
      </trkpt>
      <trkpt lat="44.79842" lon="1.58956">
        <ele>136.5</ele>
      </trkpt>
      <trkpt lat="44.79867" lon="1.58954">
        <ele>136.9</ele>
      </trkpt>
      <trkpt lat="44.79893" lon="1.58953">
        <ele>137.3</ele>
      </trkpt>
      <trkpt lat="44.79917" lon="1.58948">
        <ele>136.8</ele>
      </trkpt>
      <trkpt lat="44.79942" lon="1.5894">
        <ele>136.7</ele>
      </trkpt>
      <trkpt lat="44.79957" lon="1.58933">
        <ele>135.9</ele>
      </trkpt>
      <trkpt lat="44.79967" lon="1.58926">
        <ele>134.8</ele>
      </trkpt>
      <trkpt lat="44.79975" lon="1.58917">
        <ele>132.9</ele>
      </trkpt>
      <trkpt lat="44.79981" lon="1.58905">
        <ele>133</ele>
      </trkpt>
      <trkpt lat="44.79987" lon="1.58887">
        <ele>133.1</ele>
      </trkpt>
      <trkpt lat="44.79989" lon="1.58877">
        <ele>133</ele>
      </trkpt>
      <trkpt lat="44.7999" lon="1.58867">
        <ele>132.8</ele>
      </trkpt>
      <trkpt lat="44.79991" lon="1.58839">
        <ele>132.4</ele>
      </trkpt>
      <trkpt lat="44.79991" lon="1.58806">
        <ele>131.5</ele>
      </trkpt>
      <trkpt lat="44.79991" lon="1.58795">
        <ele>131.2</ele>
      </trkpt>
      <trkpt lat="44.79993" lon="1.58791">
        <ele>131</ele>
      </trkpt>
      <trkpt lat="44.79995" lon="1.5879">
        <ele>131</ele>
      </trkpt>
      <trkpt lat="44.79998" lon="1.58791">
        <ele>131</ele>
      </trkpt>
      <trkpt lat="44.8" lon="1.58793">
        <ele>131</ele>
      </trkpt>
      <trkpt lat="44.80001" lon="1.58797">
        <ele>131.4</ele>
      </trkpt>
      <trkpt lat="44.80003" lon="1.58804">
        <ele>132.2</ele>
      </trkpt>
      <trkpt lat="44.80006" lon="1.58826">
        <ele>133.7</ele>
      </trkpt>
      <trkpt lat="44.80007" lon="1.58843">
        <ele>134.3</ele>
      </trkpt>
      <trkpt lat="44.80008" lon="1.58852">
        <ele>134.8</ele>
      </trkpt>
      <trkpt lat="44.8001" lon="1.58859">
        <ele>135.5</ele>
      </trkpt>
      <trkpt lat="44.80015" lon="1.58867">
        <ele>137</ele>
      </trkpt>
      <trkpt lat="44.80042" lon="1.58902">
        <ele>143.8</ele>
      </trkpt>
      <trkpt lat="44.80062" lon="1.58925">
        <ele>149.6</ele>
      </trkpt>
      <trkpt lat="44.80075" lon="1.58938">
        <ele>154.5</ele>
      </trkpt>
      <trkpt lat="44.80084" lon="1.58947">
        <ele>157.5</ele>
      </trkpt>
      <trkpt lat="44.80108" lon="1.58963">
        <ele>164.1</ele>
      </trkpt>
      <trkpt lat="44.80128" lon="1.58979">
        <ele>168.2</ele>
      </trkpt>
      <trkpt lat="44.8014" lon="1.58989">
        <ele>169.8</ele>
      </trkpt>
      <trkpt lat="44.80153" lon="1.58997">
        <ele>171</ele>
      </trkpt>
      <trkpt lat="44.80162" lon="1.59">
        <ele>171.6</ele>
      </trkpt>
      <trkpt lat="44.80173" lon="1.59004">
        <ele>174.1</ele>
      </trkpt>
      <trkpt lat="44.80185" lon="1.59007">
        <ele>177</ele>
      </trkpt>
      <trkpt lat="44.80195" lon="1.59012">
        <ele>179.4</ele>
      </trkpt>
      <trkpt lat="44.80205" lon="1.59018">
        <ele>181.7</ele>
      </trkpt>
      <trkpt lat="44.8022" lon="1.59028">
        <ele>184.3</ele>
      </trkpt>
      <trkpt lat="44.80222" lon="1.59031">
        <ele>184.6</ele>
      </trkpt>
      <trkpt lat="44.80223" lon="1.59035">
        <ele>184.8</ele>
      </trkpt>
      <trkpt lat="44.80225" lon="1.59044">
        <ele>185.1</ele>
      </trkpt>
      <trkpt lat="44.8023" lon="1.59046">
        <ele>185.4</ele>
      </trkpt>
      <trkpt lat="44.80234" lon="1.59049">
        <ele>185.6</ele>
      </trkpt>
      <trkpt lat="44.80238" lon="1.59052">
        <ele>185.7</ele>
      </trkpt>
      <trkpt lat="44.80246" lon="1.59062">
        <ele>185.5</ele>
      </trkpt>
      <trkpt lat="44.80253" lon="1.59072">
        <ele>185.4</ele>
      </trkpt>
      <trkpt lat="44.80259" lon="1.59078">
        <ele>186.2</ele>
      </trkpt>
      <trkpt lat="44.80271" lon="1.59087">
        <ele>189.1</ele>
      </trkpt>
      <trkpt lat="44.80297" lon="1.59101">
        <ele>196.8</ele>
      </trkpt>
      <trkpt lat="44.80306" lon="1.59105">
        <ele>199</ele>
      </trkpt>
      <trkpt lat="44.80319" lon="1.59108">
        <ele>201.5</ele>
      </trkpt>
      <trkpt lat="44.80329" lon="1.59109">
        <ele>203.1</ele>
      </trkpt>
      <trkpt lat="44.80343" lon="1.59109">
        <ele>205.6</ele>
      </trkpt>
      <trkpt lat="44.80363" lon="1.59105">
        <ele>208.9</ele>
      </trkpt>
      <trkpt lat="44.80377" lon="1.59104">
        <ele>211.5</ele>
      </trkpt>
      <trkpt lat="44.80387" lon="1.59105">
        <ele>213.5</ele>
      </trkpt>
      <trkpt lat="44.80396" lon="1.59107">
        <ele>215.3</ele>
      </trkpt>
      <trkpt lat="44.80407" lon="1.5911">
        <ele>217.5</ele>
      </trkpt>
      <trkpt lat="44.80413" lon="1.59112">
        <ele>218.7</ele>
      </trkpt>
      <trkpt lat="44.80417" lon="1.59112">
        <ele>219.4</ele>
      </trkpt>
      <trkpt lat="44.80419" lon="1.59109">
        <ele>219.5</ele>
      </trkpt>
      <trkpt lat="44.80419" lon="1.59108">
        <ele>219.5</ele>
      </trkpt>
      <trkpt lat="44.8042" lon="1.59105">
        <ele>219.5</ele>
      </trkpt>
      <trkpt lat="44.8042" lon="1.59102">
        <ele>219.3</ele>
      </trkpt>
      <trkpt lat="44.80418" lon="1.591">
        <ele>219</ele>
      </trkpt>
      <trkpt lat="44.80415" lon="1.59095">
        <ele>218.2</ele>
      </trkpt>
      <trkpt lat="44.80391" lon="1.59068">
        <ele>213.4</ele>
      </trkpt>
      <trkpt lat="44.80376" lon="1.59052">
        <ele>211.5</ele>
      </trkpt>
      <trkpt lat="44.80373" lon="1.59047">
        <ele>211.4</ele>
      </trkpt>
      <trkpt lat="44.8037" lon="1.59043">
        <ele>211.1</ele>
      </trkpt>
      <trkpt lat="44.80368" lon="1.59038">
        <ele>211.2</ele>
      </trkpt>
      <trkpt lat="44.80366" lon="1.59034">
        <ele>211.1</ele>
      </trkpt>
      <trkpt lat="44.80366" lon="1.59031">
        <ele>211.3</ele>
      </trkpt>
      <trkpt lat="44.80366" lon="1.59029">
        <ele>211.5</ele>
      </trkpt>
      <trkpt lat="44.80367" lon="1.59027">
        <ele>211.8</ele>
      </trkpt>
      <trkpt lat="44.80368" lon="1.59026">
        <ele>212</ele>
      </trkpt>
      <trkpt lat="44.8037" lon="1.59025">
        <ele>212.3</ele>
      </trkpt>
      <trkpt lat="44.80375" lon="1.59025">
        <ele>213</ele>
      </trkpt>
      <trkpt lat="44.80385" lon="1.59028">
        <ele>214.2</ele>
      </trkpt>
      <trkpt lat="44.80396" lon="1.59034">
        <ele>215.6</ele>
      </trkpt>
      <trkpt lat="44.80409" lon="1.59042">
        <ele>217.3</ele>
      </trkpt>
      <trkpt lat="44.80418" lon="1.59049">
        <ele>218.5</ele>
      </trkpt>
      <trkpt lat="44.80433" lon="1.59057">
        <ele>219.7</ele>
      </trkpt>
      <trkpt lat="44.80449" lon="1.59063">
        <ele>221.4</ele>
      </trkpt>
      <trkpt lat="44.80458" lon="1.59067">
        <ele>222.5</ele>
      </trkpt>
      <trkpt lat="44.80464" lon="1.5907">
        <ele>223.3</ele>
      </trkpt>
      <trkpt lat="44.80477" lon="1.59071">
        <ele>224.8</ele>
      </trkpt>
      <trkpt lat="44.80493" lon="1.59073">
        <ele>226.8</ele>
      </trkpt>
      <trkpt lat="44.80512" lon="1.59072">
        <ele>227.7</ele>
      </trkpt>
      <trkpt lat="44.80524" lon="1.59074">
        <ele>228.3</ele>
      </trkpt>
      <trkpt lat="44.80539" lon="1.59077">
        <ele>229.2</ele>
      </trkpt>
      <trkpt lat="44.80551" lon="1.59079">
        <ele>229.9</ele>
      </trkpt>
      <trkpt lat="44.80565" lon="1.59084">
        <ele>231.4</ele>
      </trkpt>
      <trkpt lat="44.80583" lon="1.59091">
        <ele>232.7</ele>
      </trkpt>
      <trkpt lat="44.80595" lon="1.59099">
        <ele>232.2</ele>
      </trkpt>
      <trkpt lat="44.80602" lon="1.59104">
        <ele>231.9</ele>
      </trkpt>
      <trkpt lat="44.80604" lon="1.59107">
        <ele>231.9</ele>
      </trkpt>
      <trkpt lat="44.80606" lon="1.59116">
        <ele>232.6</ele>
      </trkpt>
      <trkpt lat="44.80606" lon="1.5912">
        <ele>233</ele>
      </trkpt>
      <trkpt lat="44.80606" lon="1.59125">
        <ele>233.6</ele>
      </trkpt>
      <trkpt lat="44.80606" lon="1.5913">
        <ele>234.1</ele>
      </trkpt>
      <trkpt lat="44.80605" lon="1.59152">
        <ele>236.4</ele>
      </trkpt>
      <trkpt lat="44.80601" lon="1.5918">
        <ele>239.1</ele>
      </trkpt>
      <trkpt lat="44.80594" lon="1.59218">
        <ele>242.1</ele>
      </trkpt>
      <trkpt lat="44.80587" lon="1.59257">
        <ele>245.3</ele>
      </trkpt>
      <trkpt lat="44.80581" lon="1.59293">
        <ele>248.5</ele>
      </trkpt>
      <trkpt lat="44.80574" lon="1.59333">
        <ele>251.5</ele>
      </trkpt>
      <trkpt lat="44.80568" lon="1.59361">
        <ele>253.2</ele>
      </trkpt>
      <trkpt lat="44.80565" lon="1.59368">
        <ele>253.6</ele>
      </trkpt>
      <trkpt lat="44.80563" lon="1.59372">
        <ele>253.8</ele>
      </trkpt>
      <trkpt lat="44.80561" lon="1.59376">
        <ele>254</ele>
      </trkpt>
      <trkpt lat="44.80556" lon="1.59381">
        <ele>254.3</ele>
      </trkpt>
      <trkpt lat="44.8055" lon="1.59388">
        <ele>254.7</ele>
      </trkpt>
      <trkpt lat="44.8054" lon="1.59408">
        <ele>256.3</ele>
      </trkpt>
      <trkpt lat="44.80527" lon="1.59434">
        <ele>258</ele>
      </trkpt>
      <trkpt lat="44.80516" lon="1.59452">
        <ele>259.3</ele>
      </trkpt>
      <trkpt lat="44.80501" lon="1.59471">
        <ele>260.9</ele>
      </trkpt>
      <trkpt lat="44.80482" lon="1.59492">
        <ele>262.7</ele>
      </trkpt>
      <trkpt lat="44.80469" lon="1.59505">
        <ele>263.6</ele>
      </trkpt>
      <trkpt lat="44.80452" lon="1.59519">
        <ele>264.4</ele>
      </trkpt>
      <trkpt lat="44.80442" lon="1.59529">
        <ele>264.8</ele>
      </trkpt>
      <trkpt lat="44.80439" lon="1.59533">
        <ele>265</ele>
      </trkpt>
      <trkpt lat="44.80433" lon="1.59541">
        <ele>265.4</ele>
      </trkpt>
      <trkpt lat="44.80434" lon="1.59548">
        <ele>265.6</ele>
      </trkpt>
      <trkpt lat="44.80848" lon="1.62504">
        <ele>254.6</ele>
        <time>2010-01-01T00:00:00Z</time>
      </trkpt>
      <trkpt lat="44.81046" lon="1.62443">
        <ele>246.5</ele>
        <time>2010-01-01T00:00:00Z</time>
      </trkpt>
      <trkpt lat="44.81338" lon="1.62611">
        <ele>243</ele>
        <time>2010-01-01T00:00:00Z</time>
      </trkpt>
      <trkpt lat="44.81335" lon="1.62697">
        <ele>241.4</ele>
        <time>2010-01-01T00:00:00Z</time>
      </trkpt>
      <trkpt lat="44.8139" lon="1.62843">
        <ele>242.2</ele>
        <time>2010-01-01T00:00:00Z</time>
      </trkpt>
      <trkpt lat="44.81439" lon="1.62825">
        <ele>245</ele>
        <time>2010-01-01T00:00:00Z</time>
      </trkpt>
      <trkpt lat="44.81451" lon="1.62864">
        <ele>244.3</ele>
        <time>2010-01-01T00:00:00Z</time>
      </trkpt>
      <trkpt lat="44.81503" lon="1.62804">
        <ele>247.9</ele>
        <time>2010-01-01T00:00:00Z</time>
      </trkpt>
      <trkpt lat="44.82038" lon="1.6313">
        <ele>250.2</ele>
        <time>2010-01-01T00:00:00Z</time>
      </trkpt>
      <trkpt lat="44.82111" lon="1.63169">
        <ele>253.9</ele>
        <time>2010-01-01T00:00:00Z</time>
      </trkpt>
      <trkpt lat="44.82288" lon="1.63225">
        <ele>263.1</ele>
        <time>2010-01-01T00:00:00Z</time>
      </trkpt>
      <trkpt lat="44.82395" lon="1.6328">
        <ele>265.1</ele>
        <time>2010-01-01T00:00:00Z</time>
      </trkpt>
      <trkpt lat="44.82504" lon="1.63156">
        <ele>265.1</ele>
        <time>2010-01-01T00:00:00Z</time>
      </trkpt>
      <trkpt lat="44.82605" lon="1.631">
        <ele>262.3</ele>
        <time>2010-01-01T00:00:00Z</time>
      </trkpt>
      <trkpt lat="44.82681" lon="1.62997">
        <ele>265.1</ele>
        <time>2010-01-01T00:00:00Z</time>
      </trkpt>
      <trkpt lat="44.82696" lon="1.6286">
        <ele>263.4</ele>
        <time>2010-01-01T00:00:00Z</time>
      </trkpt>
      <trkpt lat="44.82945" lon="1.62413">
        <ele>266.1</ele>
        <time>2010-01-01T00:00:00Z</time>
      </trkpt>
      <trkpt lat="44.82994" lon="1.62409">
        <ele>267.7</ele>
        <time>2010-01-01T00:00:00Z</time>
      </trkpt>
      <trkpt lat="44.83055" lon="1.62448">
        <ele>266.2</ele>
        <time>2010-01-01T00:00:00Z</time>
      </trkpt>
      <trkpt lat="44.83104" lon="1.62474">
        <ele>263.4</ele>
        <time>2010-01-01T00:00:00Z</time>
      </trkpt>
      <trkpt lat="44.83201" lon="1.62461">
        <ele>256.7</ele>
        <time>2010-01-01T00:00:00Z</time>
      </trkpt>
      <trkpt lat="44.83253" lon="1.62435">
        <ele>251.4</ele>
        <time>2010-01-01T00:00:00Z</time>
      </trkpt>
      <trkpt lat="44.83311" lon="1.62323">
        <ele>244.2</ele>
        <time>2010-01-01T00:00:00Z</time>
      </trkpt>
      <trkpt lat="44.83353" lon="1.62289">
        <ele>239.2</ele>
        <time>2010-01-01T00:00:00Z</time>
      </trkpt>
      <trkpt lat="44.83414" lon="1.6216">
        <ele>224.5</ele>
        <time>2010-01-01T00:00:00Z</time>
      </trkpt>
      <trkpt lat="44.83603" lon="1.62255">
        <ele>218.6</ele>
        <time>2010-01-01T00:00:00Z</time>
      </trkpt>
      <trkpt lat="44.83743" lon="1.62276">
        <ele>213.6</ele>
        <time>2010-01-01T00:00:00Z</time>
      </trkpt>
      <trkpt lat="44.83865" lon="1.62323">
        <ele>207.2</ele>
        <time>2010-01-01T00:00:00Z</time>
      </trkpt>
      <trkpt lat="44.83931" lon="1.62362">
        <ele>207.5</ele>
        <time>2010-01-01T00:00:00Z</time>
      </trkpt>
      <trkpt lat="44.83971" lon="1.62521">
        <ele>193.5</ele>
        <time>2010-01-01T00:00:00Z</time>
      </trkpt>
      <trkpt lat="44.84038" lon="1.62559">
        <ele>193.9</ele>
        <time>2010-01-01T00:00:00Z</time>
      </trkpt>
      <trkpt lat="44.84126" lon="1.62568">
        <ele>195.7</ele>
        <time>2010-01-01T00:00:00Z</time>
      </trkpt>
      <trkpt lat="44.84275" lon="1.62572">
        <ele>190.3</ele>
        <time>2010-01-01T00:00:00Z</time>
      </trkpt>
      <trkpt lat="44.84424" lon="1.62615">
        <ele>184.7</ele>
        <time>2010-01-01T00:00:00Z</time>
      </trkpt>
      <trkpt lat="44.84549" lon="1.62564">
        <ele>194.5</ele>
        <time>2010-01-01T00:00:00Z</time>
      </trkpt>
      <trkpt lat="44.84723" lon="1.62624">
        <ele>213.1</ele>
        <time>2010-01-01T00:00:00Z</time>
      </trkpt>
      <trkpt lat="44.85127" lon="1.62568">
        <ele>226.5</ele>
        <time>2010-01-01T00:00:00Z</time>
      </trkpt>
      <trkpt lat="44.85212" lon="1.62529">
        <ele>226.7</ele>
        <time>2010-01-01T00:00:00Z</time>
      </trkpt>
      <trkpt lat="44.85295" lon="1.62546">
        <ele>229.3</ele>
        <time>2010-01-01T00:00:00Z</time>
      </trkpt>
      <trkpt lat="44.85413" lon="1.62598">
        <ele>233</ele>
        <time>2010-01-01T00:00:00Z</time>
      </trkpt>
      <trkpt lat="44.85505" lon="1.62632">
        <ele>235.6</ele>
        <time>2010-01-01T00:00:00Z</time>
      </trkpt>
      <trkpt lat="44.8555" lon="1.62598">
        <ele>235.6</ele>
        <time>2010-01-01T00:00:00Z</time>
      </trkpt>
      <trkpt lat="44.85608" lon="1.62607">
        <ele>235.3</ele>
        <time>2010-01-01T00:00:00Z</time>
      </trkpt>
      <trkpt lat="44.85734" lon="1.62604">
        <ele>236.9</ele>
        <time>2010-01-01T00:00:00Z</time>
      </trkpt>
      <trkpt lat="44.85938" lon="1.62637">
        <ele>243.8</ele>
        <time>2010-01-01T00:00:00Z</time>
      </trkpt>
      <trkpt lat="44.86264" lon="1.62495">
        <ele>229.3</ele>
        <time>2010-01-01T00:00:00Z</time>
      </trkpt>
      <trkpt lat="44.86349" lon="1.62491">
        <ele>231.6</ele>
        <time>2010-01-01T00:00:00Z</time>
      </trkpt>
      <trkpt lat="44.86403" lon="1.6251">
        <ele>234.7</ele>
        <time>2010-01-01T00:00:00Z</time>
      </trkpt>
      <trkpt lat="44.86697" lon="1.62407">
        <ele>236.2</ele>
        <time>2010-01-01T00:00:00Z</time>
      </trkpt>
      <trkpt lat="44.86765" lon="1.62403">
        <ele>237.4</ele>
        <time>2010-01-01T00:00:00Z</time>
      </trkpt>
      <trkpt lat="44.86919" lon="1.62349">
        <ele>240.6</ele>
        <time>2010-01-01T00:00:00Z</time>
      </trkpt>
      <trkpt lat="44.87244" lon="1.62338">
        <ele>227.4</ele>
        <time>2010-01-01T00:00:00Z</time>
      </trkpt>
      <trkpt lat="44.87371" lon="1.62366">
        <ele>219.9</ele>
        <time>2010-01-01T00:00:00Z</time>
      </trkpt>
      <trkpt lat="44.875" lon="1.62345">
        <ele>218.6</ele>
        <time>2010-01-01T00:00:00Z</time>
      </trkpt>
      <trkpt lat="44.87685" lon="1.6219">
        <ele>214.6</ele>
        <time>2010-01-01T00:00:00Z</time>
      </trkpt>
      <trkpt lat="44.87807" lon="1.62072">
        <ele>207.7</ele>
        <time>2010-01-01T00:00:00Z</time>
      </trkpt>
      <trkpt lat="44.87877" lon="1.62036">
        <ele>210</ele>
        <time>2010-01-01T00:00:00Z</time>
      </trkpt>
      <trkpt lat="44.87997" lon="1.61967">
        <ele>201.5</ele>
        <time>2010-01-01T00:00:00Z</time>
      </trkpt>
      <trkpt lat="44.88041" lon="1.62059">
        <ele>208.5</ele>
        <time>2010-01-01T00:00:00Z</time>
      </trkpt>
      <trkpt lat="44.88076" lon="1.62064">
        <ele>205.1</ele>
        <time>2010-01-01T00:00:00Z</time>
      </trkpt>
      <trkpt lat="44.88123" lon="1.61954">
        <ele>199.3</ele>
        <time>2010-01-01T00:00:00Z</time>
      </trkpt>
      <trkpt lat="44.88129" lon="1.61838">
        <ele>182.4</ele>
        <time>2010-01-01T00:00:00Z</time>
      </trkpt>
      <trkpt lat="44.88148" lon="1.61774">
        <ele>170.8</ele>
        <time>2010-01-01T00:00:00Z</time>
      </trkpt>
      <trkpt lat="44.88195" lon="1.61808">
        <ele>173.3</ele>
        <time>2010-01-01T00:00:00Z</time>
      </trkpt>
      <trkpt lat="44.88262" lon="1.61823">
        <ele>162.6</ele>
        <time>2010-01-01T00:00:00Z</time>
      </trkpt>
      <trkpt lat="44.88385" lon="1.61911">
        <ele>159.6</ele>
        <time>2010-01-01T00:00:00Z</time>
      </trkpt>
      <trkpt lat="44.88537" lon="1.61944">
        <ele>146.6</ele>
        <time>2010-01-01T00:00:00Z</time>
      </trkpt>
      <trkpt lat="44.88709" lon="1.61928">
        <ele>137</ele>
        <time>2010-01-01T00:00:00Z</time>
      </trkpt>
      <trkpt lat="44.88815" lon="1.61886">
        <ele>127.4</ele>
        <time>2010-01-01T00:00:00Z</time>
      </trkpt>
      <trkpt lat="44.88897" lon="1.61881">
        <ele>126.6</ele>
        <time>2010-01-01T00:00:00Z</time>
      </trkpt>
      <trkpt lat="44.88953" lon="1.61847">
        <ele>118.4</ele>
        <time>2010-01-01T00:00:00Z</time>
      </trkpt>
      <trkpt lat="44.8895" lon="1.61789">
        <ele>111.3</ele>
        <time>2010-01-01T00:00:00Z</time>
      </trkpt>
      <trkpt lat="44.89023" lon="1.61746">
        <ele>108.3</ele>
        <time>2010-01-01T00:00:00Z</time>
      </trkpt>
      <trkpt lat="44.89113" lon="1.61705">
        <ele>109</ele>
        <time>2010-01-01T00:00:00Z</time>
      </trkpt>
      <trkpt lat="44.89172" lon="1.61658">
        <ele>108.7</ele>
        <time>2010-01-01T00:00:00Z</time>
      </trkpt>
      <trkpt lat="44.89229" lon="1.61626">
        <ele>108.4</ele>
        <time>2010-01-01T00:00:00Z</time>
      </trkpt>
      <trkpt lat="44.89326" lon="1.61615">
        <ele>108.1</ele>
        <time>2010-01-01T00:00:00Z</time>
      </trkpt>
      <trkpt lat="44.89625" lon="1.61604">
        <ele>110</ele>
        <time>2010-01-01T00:00:00Z</time>
      </trkpt>
      <trkpt lat="44.8964" lon="1.618">
        <ele>113.9</ele>
        <time>2010-01-01T00:00:00Z</time>
      </trkpt>
      <trkpt lat="44.89581" lon="1.62113">
        <ele>135.1</ele>
        <time>2010-01-01T00:00:00Z</time>
      </trkpt>
      <trkpt lat="44.8971" lon="1.62192">
        <ele>124</ele>
        <time>2010-01-01T00:00:00Z</time>
      </trkpt>
      <trkpt lat="44.89797" lon="1.62171">
        <ele>122.4</ele>
        <time>2010-01-01T00:00:00Z</time>
      </trkpt>
      <trkpt lat="44.9001" lon="1.62248">
        <ele>128.5</ele>
        <time>2010-01-01T00:00:00Z</time>
      </trkpt>
      <trkpt lat="44.90078" lon="1.62049">
        <ele>134.9</ele>
        <time>2010-01-01T00:00:00Z</time>
      </trkpt>
      <trkpt lat="44.90253" lon="1.62182">
        <ele>131.1</ele>
        <time>2010-01-01T00:00:00Z</time>
      </trkpt>
      <trkpt lat="44.90431" lon="1.62244">
        <ele>128.8</ele>
        <time>2010-01-01T00:00:00Z</time>
      </trkpt>
      <trkpt lat="44.9051" lon="1.62197">
        <ele>117</ele>
        <time>2010-01-01T00:00:00Z</time>
      </trkpt>
      <trkpt lat="44.90603" lon="1.62257">
        <ele>113.8</ele>
        <time>2010-01-01T00:00:00Z</time>
      </trkpt>
      <trkpt lat="44.90619" lon="1.62336">
        <ele>114.2</ele>
        <time>2010-01-01T00:00:00Z</time>
      </trkpt>
      <trkpt lat="44.907" lon="1.62426">
        <ele>113.6</ele>
        <time>2010-01-01T00:00:00Z</time>
      </trkpt>
      <trkpt lat="44.90697" lon="1.62514">
        <ele>114.1</ele>
        <time>2010-01-01T00:00:00Z</time>
      </trkpt>
      <trkpt lat="44.90665" lon="1.626">
        <ele>120</ele>
        <time>2010-01-01T00:00:00Z</time>
      </trkpt>
      <trkpt lat="44.90821" lon="1.62879">
        <ele>109.4</ele>
        <time>2010-01-01T00:00:00Z</time>
      </trkpt>
      <trkpt lat="44.90864" lon="1.62778">
        <ele>107</ele>
        <time>2010-01-01T00:00:00Z</time>
      </trkpt>
      <trkpt lat="44.90952" lon="1.62688">
        <ele>110.6</ele>
        <time>2010-01-01T00:00:00Z</time>
      </trkpt>
      <trkpt lat="44.91078" lon="1.62645">
        <ele>124.6</ele>
        <time>2010-01-01T00:00:00Z</time>
      </trkpt>
      <trkpt lat="44.91065" lon="1.6257">
        <ele>126.2</ele>
        <time>2010-01-01T00:00:00Z</time>
      </trkpt>
      <trkpt lat="44.91051" lon="1.62551">
        <ele>123.4</ele>
        <time>2010-01-01T00:00:00Z</time>
      </trkpt>
      <trkpt lat="44.9103" lon="1.62506">
        <ele>119.2</ele>
        <time>2010-01-01T00:00:00Z</time>
      </trkpt>
      <trkpt lat="44.91039" lon="1.62431">
        <ele>127.4</ele>
        <time>2010-01-01T00:00:00Z</time>
      </trkpt>
      <trkpt lat="44.91021" lon="1.62323">
        <ele>147.8</ele>
        <time>2010-01-01T00:00:00Z</time>
      </trkpt>
      <trkpt lat="44.90969" lon="1.6219">
        <ele>135.6</ele>
        <time>2010-01-01T00:00:00Z</time>
      </trkpt>
      <trkpt lat="44.90923" lon="1.61997">
        <ele>134.3</ele>
        <time>2010-01-01T00:00:00Z</time>
      </trkpt>
      <trkpt lat="44.90817" lon="1.61806">
        <ele>124.3</ele>
        <time>2010-01-01T00:00:00Z</time>
      </trkpt>
      <trkpt lat="44.90639" lon="1.6151">
        <ele>137.4</ele>
        <time>2010-01-01T00:00:00Z</time>
      </trkpt>
      <trkpt lat="44.90473" lon="1.61317">
        <ele>129.1</ele>
        <time>2010-01-01T00:00:00Z</time>
      </trkpt>
      <trkpt lat="44.90443" lon="1.61218">
        <ele>145.1</ele>
        <time>2010-01-01T00:00:00Z</time>
      </trkpt>
      <trkpt lat="44.90396" lon="1.61197">
        <ele>142.5</ele>
        <time>2010-01-01T00:00:00Z</time>
      </trkpt>
      <trkpt lat="44.90334" lon="1.61188">
        <ele>132.7</ele>
        <time>2010-01-01T00:00:00Z</time>
      </trkpt>
      <trkpt lat="44.90256" lon="1.61111">
        <ele>138.6</ele>
        <time>2010-01-01T00:00:00Z</time>
      </trkpt>
      <trkpt lat="44.9016" lon="1.61044">
        <ele>138.4</ele>
        <time>2010-01-01T00:00:00Z</time>
      </trkpt>
      <trkpt lat="44.90252" lon="1.61014">
        <ele>161.5</ele>
        <time>2010-01-01T00:00:00Z</time>
      </trkpt>
      <trkpt lat="44.90326" lon="1.61049">
        <ele>170.4</ele>
        <time>2010-01-01T00:00:00Z</time>
      </trkpt>
      <trkpt lat="44.904" lon="1.61064">
        <ele>183.7</ele>
        <time>2010-01-01T00:00:00Z</time>
      </trkpt>
      <trkpt lat="44.90479" lon="1.61057">
        <ele>192.5</ele>
        <time>2010-01-01T00:00:00Z</time>
      </trkpt>
      <trkpt lat="44.9058" lon="1.61068">
        <ele>198.8</ele>
        <time>2010-01-01T00:00:00Z</time>
      </trkpt>
      <trkpt lat="44.90683" lon="1.61066">
        <ele>206.9</ele>
        <time>2010-01-01T00:00:00Z</time>
      </trkpt>
      <trkpt lat="44.90802" lon="1.61165">
        <ele>211.7</ele>
        <time>2010-01-01T00:00:00Z</time>
      </trkpt>
      <trkpt lat="44.90954" lon="1.61263">
        <ele>209.5</ele>
        <time>2010-01-01T00:00:00Z</time>
      </trkpt>
      <trkpt lat="44.91089" lon="1.61244">
        <ele>213.4</ele>
        <time>2010-01-01T00:00:00Z</time>
      </trkpt>
      <trkpt lat="44.91343" lon="1.61255">
        <ele>218.6</ele>
        <time>2010-01-01T00:00:00Z</time>
      </trkpt>
      <trkpt lat="44.91484" lon="1.61205">
        <ele>227.7</ele>
        <time>2010-01-01T00:00:00Z</time>
      </trkpt>
      <trkpt lat="44.91668" lon="1.61182">
        <ele>242.8</ele>
        <time>2010-01-01T00:00:00Z</time>
      </trkpt>
      <trkpt lat="44.91808" lon="1.61147">
        <ele>245.6</ele>
        <time>2010-01-01T00:00:00Z</time>
      </trkpt>
      <trkpt lat="44.91973" lon="1.61072">
        <ele>251.5</ele>
        <time>2010-01-01T00:00:00Z</time>
      </trkpt>
      <trkpt lat="44.92134" lon="1.61047">
        <ele>247.7</ele>
        <time>2010-01-01T00:00:00Z</time>
      </trkpt>
      <trkpt lat="44.92212" lon="1.61008">
        <ele>247.8</ele>
        <time>2010-01-01T00:00:00Z</time>
      </trkpt>
      <trkpt lat="44.92292" lon="1.60907">
        <ele>247.8</ele>
        <time>2010-01-01T00:00:00Z</time>
      </trkpt>
      <trkpt lat="44.92324" lon="1.60836">
        <ele>244.7</ele>
        <time>2010-01-01T00:00:00Z</time>
      </trkpt>
      <trkpt lat="44.9242" lon="1.60828">
        <ele>246.7</ele>
        <time>2010-01-01T00:00:00Z</time>
      </trkpt>
      <trkpt lat="44.92531" lon="1.60733">
        <ele>247.2</ele>
        <time>2010-01-01T00:00:00Z</time>
      </trkpt>
      <trkpt lat="44.92693" lon="1.60583">
        <ele>253.2</ele>
        <time>2010-01-01T00:00:00Z</time>
      </trkpt>
      <trkpt lat="44.92839" lon="1.60544">
        <ele>258.7</ele>
        <time>2010-01-01T00:00:00Z</time>
      </trkpt>
      <trkpt lat="44.92882" lon="1.60504">
        <ele>257.9</ele>
        <time>2010-01-01T00:00:00Z</time>
      </trkpt>
      <trkpt lat="44.9294" lon="1.60459">
        <ele>256.7</ele>
        <time>2010-01-01T00:00:00Z</time>
      </trkpt>
      <trkpt lat="44.93029" lon="1.60476">
        <ele>247.5</ele>
        <time>2010-01-01T00:00:00Z</time>
      </trkpt>
      <trkpt lat="44.93078" lon="1.60454">
        <ele>243.8</ele>
        <time>2010-01-01T00:00:00Z</time>
      </trkpt>
      <trkpt lat="44.93122" lon="1.60476">
        <ele>238.8</ele>
        <time>2010-01-01T00:00:00Z</time>
      </trkpt>
      <trkpt lat="44.93166" lon="1.60564">
        <ele>238.1</ele>
        <time>2010-01-01T00:00:00Z</time>
      </trkpt>
      <trkpt lat="44.9323" lon="1.6065">
        <ele>234.7</ele>
        <time>2010-01-01T00:00:00Z</time>
      </trkpt>
      <trkpt lat="44.93336" lon="1.60725">
        <ele>225</ele>
        <time>2010-01-01T00:00:00Z</time>
      </trkpt>
      <trkpt lat="44.93441" lon="1.60774">
        <ele>226</ele>
        <time>2010-01-01T00:00:00Z</time>
      </trkpt>
      <trkpt lat="44.93508" lon="1.60811">
        <ele>228.5</ele>
        <time>2010-01-01T00:00:00Z</time>
      </trkpt>
      <trkpt lat="44.93631" lon="1.60845">
        <ele>236</ele>
        <time>2010-01-01T00:00:00Z</time>
      </trkpt>
      <trkpt lat="44.93634" lon="1.60873">
        <ele>236.6</ele>
        <time>2010-01-01T00:00:00Z</time>
      </trkpt>
      <trkpt lat="44.93653" lon="1.60875">
        <ele>238</ele>
        <time>2010-01-01T00:00:00Z</time>
      </trkpt>
      <trkpt lat="44.93632" lon="1.60939">
        <ele>236.1</ele>
        <time>2010-01-01T00:00:00Z</time>
      </trkpt>
      <trkpt lat="44.9366" lon="1.6104">
        <ele>233.2</ele>
        <time>2010-01-01T00:00:00Z</time>
      </trkpt>
      <trkpt lat="44.93682" lon="1.61156">
        <ele>228.1</ele>
        <time>2010-01-01T00:00:00Z</time>
      </trkpt>
      <trkpt lat="44.9378" lon="1.6121">
        <ele>224.6</ele>
        <time>2010-01-01T00:00:00Z</time>
      </trkpt>
      <trkpt lat="44.93871" lon="1.61216">
        <ele>220.4</ele>
        <time>2010-01-01T00:00:00Z</time>
      </trkpt>
      <trkpt lat="44.94023" lon="1.61087">
        <ele>224.9</ele>
        <time>2010-01-01T00:00:00Z</time>
      </trkpt>
      <trkpt lat="44.94053" lon="1.6119">
        <ele>223.7</ele>
        <time>2010-01-01T00:00:00Z</time>
      </trkpt>
      <trkpt lat="44.94124" lon="1.61295">
        <ele>226.4</ele>
        <time>2010-01-01T00:00:00Z</time>
      </trkpt>
      <trkpt lat="44.94237" lon="1.61311">
        <ele>225.8</ele>
        <time>2010-01-01T00:00:00Z</time>
      </trkpt>
      <trkpt lat="44.94422" lon="1.61304">
        <ele>234.9</ele>
        <time>2010-01-01T00:00:00Z</time>
      </trkpt>
      <trkpt lat="44.9454" lon="1.61257">
        <ele>242.7</ele>
        <time>2010-01-01T00:00:00Z</time>
      </trkpt>
      <trkpt lat="44.94632" lon="1.61341">
        <ele>244.8</ele>
        <time>2010-01-01T00:00:00Z</time>
      </trkpt>
      <trkpt lat="44.94717" lon="1.61358">
        <ele>249.1</ele>
        <time>2010-01-01T00:00:00Z</time>
      </trkpt>
      <trkpt lat="44.9475" lon="1.61409">
        <ele>250.1</ele>
        <time>2010-01-01T00:00:00Z</time>
      </trkpt>
      <trkpt lat="44.94867" lon="1.61639">
        <ele>267.1</ele>
        <time>2010-01-01T00:00:00Z</time>
      </trkpt>
      <trkpt lat="44.94943" lon="1.61716">
        <ele>266.9</ele>
        <time>2010-01-01T00:00:00Z</time>
      </trkpt>
      <trkpt lat="44.95186" lon="1.61868">
        <ele>277.5</ele>
        <time>2010-01-01T00:00:00Z</time>
      </trkpt>
      <trkpt lat="44.95227" lon="1.61933">
        <ele>288.9</ele>
        <time>2010-01-01T00:00:00Z</time>
      </trkpt>
      <trkpt lat="44.9528" lon="1.62077">
        <ele>294.2</ele>
        <time>2010-01-01T00:00:00Z</time>
      </trkpt>
      <trkpt lat="44.9531" lon="1.62113">
        <ele>294.4</ele>
        <time>2010-01-01T00:00:00Z</time>
      </trkpt>
      <trkpt lat="44.95415" lon="1.6218">
        <ele>300.1</ele>
        <time>2010-01-01T00:00:00Z</time>
      </trkpt>
      <trkpt lat="44.95543" lon="1.62222">
        <ele>299.5</ele>
        <time>2010-01-01T00:00:00Z</time>
      </trkpt>
      <trkpt lat="44.9566" lon="1.62212">
        <ele>297.2</ele>
        <time>2010-01-01T00:00:00Z</time>
      </trkpt>
      <trkpt lat="44.95856" lon="1.62259">
        <ele>300.1</ele>
        <time>2010-01-01T00:00:00Z</time>
      </trkpt>
      <trkpt lat="44.96095" lon="1.62265">
        <ele>308.4</ele>
        <time>2010-01-01T00:00:00Z</time>
      </trkpt>
      <trkpt lat="44.96147" lon="1.62295">
        <ele>307.7</ele>
        <time>2010-01-01T00:00:00Z</time>
      </trkpt>
      <trkpt lat="44.96235" lon="1.62257">
        <ele>310.3</ele>
        <time>2010-01-01T00:00:00Z</time>
      </trkpt>
      <trkpt lat="44.96314" lon="1.6227">
        <ele>304.4</ele>
        <time>2010-01-01T00:00:00Z</time>
      </trkpt>
      <trkpt lat="44.96445" lon="1.62246">
        <ele>292.2</ele>
        <time>2010-01-01T00:00:00Z</time>
      </trkpt>
      <trkpt lat="44.96732" lon="1.62137">
        <ele>266.5</ele>
        <time>2010-01-01T00:00:00Z</time>
      </trkpt>
      <trkpt lat="44.9694" lon="1.6204">
        <ele>262.5</ele>
        <time>2010-01-01T00:00:00Z</time>
      </trkpt>
      <trkpt lat="44.96971" lon="1.62077">
        <ele>259.1</ele>
        <time>2010-01-01T00:00:00Z</time>
      </trkpt>
      <trkpt lat="44.97154" lon="1.62098">
        <ele>249.9</ele>
        <time>2010-01-01T00:00:00Z</time>
      </trkpt>
      <trkpt lat="44.97254" lon="1.62066">
        <ele>237.2</ele>
        <time>2010-01-01T00:00:00Z</time>
      </trkpt>
      <trkpt lat="44.97354" lon="1.62143">
        <ele>224.9</ele>
        <time>2010-01-01T00:00:00Z</time>
      </trkpt>
      <trkpt lat="44.97395" lon="1.62182">
        <ele>221.9</ele>
        <time>2010-01-01T00:00:00Z</time>
      </trkpt>
      <trkpt lat="44.97482" lon="1.62255">
        <ele>217.7</ele>
        <time>2010-01-01T00:00:00Z</time>
      </trkpt>
      <trkpt lat="44.97594" lon="1.62364">
        <ele>213.6</ele>
        <time>2010-01-01T00:00:00Z</time>
      </trkpt>
      <trkpt lat="44.97685" lon="1.62371">
        <ele>211.6</ele>
        <time>2010-01-01T00:00:00Z</time>
      </trkpt>
      <trkpt lat="44.97618" lon="1.62493">
        <ele>217.1</ele>
        <time>2010-01-01T00:00:00Z</time>
      </trkpt>
      <trkpt lat="44.97606" lon="1.62538">
        <ele>219.8</ele>
        <time>2010-01-01T00:00:00Z</time>
      </trkpt>
      <trkpt lat="44.97586" lon="1.62579">
        <ele>223.5</ele>
        <time>2010-01-01T00:00:00Z</time>
      </trkpt>
      <trkpt lat="44.97515" lon="1.62652">
        <ele>225.4</ele>
        <time>2010-01-01T00:00:00Z</time>
      </trkpt>
      <trkpt lat="44.97526" lon="1.62688">
        <ele>220.4</ele>
        <time>2010-01-01T00:00:00Z</time>
      </trkpt>
      <trkpt lat="44.9741" lon="1.62808">
        <ele>222.8</ele>
        <time>2010-01-01T00:00:00Z</time>
      </trkpt>
      <trkpt lat="44.97451" lon="1.6295">
        <ele>225.5</ele>
        <time>2010-01-01T00:00:00Z</time>
      </trkpt>
      <trkpt lat="44.97535" lon="1.62999">
        <ele>225.5</ele>
        <time>2010-01-01T00:00:00Z</time>
      </trkpt>
      <trkpt lat="44.97541" lon="1.63031">
        <ele>228.3</ele>
        <time>2010-01-01T00:00:00Z</time>
      </trkpt>
      <trkpt lat="44.97512" lon="1.6313">
        <ele>235.1</ele>
        <time>2010-01-01T00:00:00Z</time>
      </trkpt>
      <trkpt lat="44.97548" lon="1.63179">
        <ele>234.2</ele>
        <time>2010-01-01T00:00:00Z</time>
      </trkpt>
      <trkpt lat="44.97612" lon="1.63207">
        <ele>227.2</ele>
        <time>2010-01-01T00:00:00Z</time>
      </trkpt>
      <trkpt lat="44.97639" lon="1.6328">
        <ele>227.5</ele>
        <time>2010-01-01T00:00:00Z</time>
      </trkpt>
      <trkpt lat="44.9768" lon="1.633">
        <ele>227.2</ele>
        <time>2010-01-01T00:00:00Z</time>
      </trkpt>
      <trkpt lat="44.97706" lon="1.63267">
        <ele>222.3</ele>
        <time>2010-01-01T00:00:00Z</time>
      </trkpt>
      <trkpt lat="44.97737" lon="1.63246">
        <ele>218.9</ele>
        <time>2010-01-01T00:00:00Z</time>
      </trkpt>
      <trkpt lat="44.97773" lon="1.63188">
        <ele>202.2</ele>
        <time>2010-01-01T00:00:00Z</time>
      </trkpt>
      <trkpt lat="44.97828" lon="1.63145">
        <ele>192.8</ele>
        <time>2010-01-01T00:00:00Z</time>
      </trkpt>
      <trkpt lat="44.97923" lon="1.63137">
        <ele>180.7</ele>
        <time>2010-01-01T00:00:00Z</time>
      </trkpt>
      <trkpt lat="44.97998" lon="1.63126">
        <ele>176.1</ele>
        <time>2010-01-01T00:00:00Z</time>
      </trkpt>
      <trkpt lat="44.98099" lon="1.63237">
        <ele>173.6</ele>
        <time>2010-01-01T00:00:00Z</time>
      </trkpt>
      <trkpt lat="44.98196" lon="1.63431">
        <ele>177.8</ele>
        <time>2010-01-01T00:00:00Z</time>
      </trkpt>
      <trkpt lat="44.98268" lon="1.63531">
        <ele>176.3</ele>
        <time>2010-01-01T00:00:00Z</time>
      </trkpt>
      <trkpt lat="44.98322" lon="1.63581">
        <ele>176.5</ele>
        <time>2010-01-01T00:00:00Z</time>
      </trkpt>
      <trkpt lat="44.98316" lon="1.63682">
        <ele>179.5</ele>
        <time>2010-01-01T00:00:00Z</time>
      </trkpt>
      <trkpt lat="44.98418" lon="1.63718">
        <ele>182.5</ele>
        <time>2010-01-01T00:00:00Z</time>
      </trkpt>
      <trkpt lat="44.98427" lon="1.6377">
        <ele>183.7</ele>
        <time>2010-01-01T00:00:00Z</time>
      </trkpt>
      <trkpt lat="44.98345" lon="1.63823">
        <ele>182.6</ele>
        <time>2010-01-01T00:00:00Z</time>
      </trkpt>
      <trkpt lat="44.98371" lon="1.6389">
        <ele>178.7</ele>
        <time>2010-01-01T00:00:00Z</time>
      </trkpt>
      <trkpt lat="44.98421" lon="1.6386">
        <ele>179.1</ele>
        <time>2010-01-01T00:00:00Z</time>
      </trkpt>
      <trkpt lat="44.98448" lon="1.63958">
        <ele>169.2</ele>
        <time>2010-01-01T00:00:00Z</time>
      </trkpt>
      <trkpt lat="44.98488" lon="1.6395">
        <ele>169.5</ele>
        <time>2010-01-01T00:00:00Z</time>
      </trkpt>
      <trkpt lat="44.98511" lon="1.63926">
        <ele>171</ele>
        <time>2010-01-01T00:00:00Z</time>
      </trkpt>
      <trkpt lat="44.98533" lon="1.63937">
        <ele>167.7</ele>
        <time>2010-01-01T00:00:00Z</time>
      </trkpt>
      <trkpt lat="44.98591" lon="1.63993">
        <ele>153.8</ele>
        <time>2010-01-01T00:00:00Z</time>
      </trkpt>
      <trkpt lat="44.98646" lon="1.6404">
        <ele>142.6</ele>
        <time>2010-01-01T00:00:00Z</time>
      </trkpt>
      <trkpt lat="44.98661" lon="1.64104">
        <ele>142.4</ele>
        <time>2010-01-01T00:00:00Z</time>
      </trkpt>
      <trkpt lat="44.98715" lon="1.64121">
        <ele>141.1</ele>
        <time>2010-01-01T00:00:00Z</time>
      </trkpt>
      <trkpt lat="44.98816" lon="1.64227">
        <ele>139.3</ele>
        <time>2010-01-01T00:00:00Z</time>
      </trkpt>
      <trkpt lat="44.98899" lon="1.64239">
        <ele>127</ele>
        <time>2010-01-01T00:00:00Z</time>
      </trkpt>
      <trkpt lat="44.98975" lon="1.6428">
        <ele>124.7</ele>
        <time>2010-01-01T00:00:00Z</time>
      </trkpt>
      <trkpt lat="44.99052" lon="1.64351">
        <ele>125.1</ele>
        <time>2010-01-01T00:00:00Z</time>
      </trkpt>
      <trkpt lat="44.99315" lon="1.64441">
        <ele>125.4</ele>
        <time>2010-01-01T00:00:00Z</time>
      </trkpt>
      <trkpt lat="44.9947" lon="1.64456">
        <ele>128.3</ele>
        <time>2010-01-01T00:00:00Z</time>
      </trkpt>
      <trkpt lat="44.99562" lon="1.64579">
        <ele>128.1</ele>
        <time>2010-01-01T00:00:00Z</time>
      </trkpt>
      <trkpt lat="44.99667" lon="1.64712">
        <ele>127.5</ele>
        <time>2010-01-01T00:00:00Z</time>
      </trkpt>
      <trkpt lat="44.99697" lon="1.6463">
        <ele>127.1</ele>
        <time>2010-01-01T00:00:00Z</time>
      </trkpt>
      <trkpt lat="44.99776" lon="1.64454">
        <ele>127.8</ele>
        <time>2010-01-01T00:00:00Z</time>
      </trkpt>
      <trkpt lat="44.99913" lon="1.64508">
        <ele>125.1</ele>
        <time>2010-01-01T00:00:00Z</time>
      </trkpt>
      <trkpt lat="45.00163" lon="1.64664">
        <ele>125.9</ele>
        <time>2010-01-01T00:00:00Z</time>
      </trkpt>
      <trkpt lat="45.00335" lon="1.64684">
        <ele>126</ele>
        <time>2010-01-01T00:00:00Z</time>
      </trkpt>
      <trkpt lat="45.004" lon="1.64694">
        <ele>126.5</ele>
        <time>2010-01-01T00:00:00Z</time>
      </trkpt>
      <trkpt lat="45.00462" lon="1.64718">
        <ele>127.6</ele>
        <time>2010-01-01T00:00:00Z</time>
      </trkpt>
      <trkpt lat="45.00495" lon="1.64636">
        <ele>125.3</ele>
        <time>2010-01-01T00:00:00Z</time>
      </trkpt>
      <trkpt lat="45.00548" lon="1.64568">
        <ele>125.7</ele>
        <time>2010-01-01T00:00:00Z</time>
      </trkpt>
      <trkpt lat="45.00656" lon="1.64518">
        <ele>131.6</ele>
        <time>2010-01-01T00:00:00Z</time>
      </trkpt>
      <trkpt lat="45.00655" lon="1.64433">
        <ele>134.9</ele>
        <time>2010-01-01T00:00:00Z</time>
      </trkpt>
      <trkpt lat="45.00737" lon="1.64347">
        <ele>143.8</ele>
        <time>2010-01-01T00:00:00Z</time>
      </trkpt>
      <trkpt lat="45.00749" lon="1.64278">
        <ele>151.8</ele>
        <time>2010-01-01T00:00:00Z</time>
      </trkpt>
      <trkpt lat="45.00831" lon="1.64209">
        <ele>159.5</ele>
        <time>2010-01-01T00:00:00Z</time>
      </trkpt>
      <trkpt lat="45.00837" lon="1.64139">
        <ele>171.1</ele>
        <time>2010-01-01T00:00:00Z</time>
      </trkpt>
      <trkpt lat="45.00876" lon="1.64083">
        <ele>177.4</ele>
        <time>2010-01-01T00:00:00Z</time>
      </trkpt>
      <trkpt lat="45.00884" lon="1.64036">
        <ele>178.1</ele>
        <time>2010-01-01T00:00:00Z</time>
      </trkpt>
      <trkpt lat="45.00934" lon="1.64016">
        <ele>175.9</ele>
        <time>2010-01-01T00:00:00Z</time>
      </trkpt>
      <trkpt lat="45.01087" lon="1.63969">
        <ele>178.1</ele>
        <time>2010-01-01T00:00:00Z</time>
      </trkpt>
      <trkpt lat="45.01146" lon="1.63965">
        <ele>181.5</ele>
        <time>2010-01-01T00:00:00Z</time>
      </trkpt>
      <trkpt lat="45.01208" lon="1.63935">
        <ele>186.2</ele>
        <time>2010-01-01T00:00:00Z</time>
      </trkpt>
      <trkpt lat="45.01272" lon="1.63986">
        <ele>183.2</ele>
        <time>2010-01-01T00:00:00Z</time>
      </trkpt>
      <trkpt lat="45.01356" lon="1.64012">
        <ele>177.5</ele>
        <time>2010-01-01T00:00:00Z</time>
      </trkpt>
      <trkpt lat="45.01412" lon="1.63982">
        <ele>178.4</ele>
        <time>2010-01-01T00:00:00Z</time>
      </trkpt>
      <trkpt lat="45.01498" lon="1.63924">
        <ele>183</ele>
        <time>2010-01-01T00:00:00Z</time>
      </trkpt>
      <trkpt lat="45.016" lon="1.63907">
        <ele>174.6</ele>
        <time>2010-01-01T00:00:00Z</time>
      </trkpt>
      <trkpt lat="45.01647" lon="1.63928">
        <ele>166.6</ele>
        <time>2010-01-01T00:00:00Z</time>
      </trkpt>
      <trkpt lat="45.01712" lon="1.63937">
        <ele>161.2</ele>
        <time>2010-01-01T00:00:00Z</time>
      </trkpt>
      <trkpt lat="45.01786" lon="1.63952">
        <ele>156.5</ele>
        <time>2010-01-01T00:00:00Z</time>
      </trkpt>
      <trkpt lat="45.01905" lon="1.63864">
        <ele>157.6</ele>
        <time>2010-01-01T00:00:00Z</time>
      </trkpt>
      <trkpt lat="45.01956" lon="1.63838">
        <ele>160.1</ele>
        <time>2010-01-01T00:00:00Z</time>
      </trkpt>
      <trkpt lat="45.02032" lon="1.63877">
        <ele>162.3</ele>
        <time>2010-01-01T00:00:00Z</time>
      </trkpt>
      <trkpt lat="45.02084" lon="1.63898">
        <ele>165.8</ele>
        <time>2010-01-01T00:00:00Z</time>
      </trkpt>
      <trkpt lat="45.0217" lon="1.63984">
        <ele>164.4</ele>
        <time>2010-01-01T00:00:00Z</time>
      </trkpt>
      <trkpt lat="45.02241" lon="1.64014">
        <ele>162.9</ele>
        <time>2010-01-01T00:00:00Z</time>
      </trkpt>
      <trkpt lat="45.0232" lon="1.63961">
        <ele>165.9</ele>
        <time>2010-01-01T00:00:00Z</time>
      </trkpt>
      <trkpt lat="45.02422" lon="1.63877">
        <ele>166.7</ele>
        <time>2010-01-01T00:00:00Z</time>
      </trkpt>
      <trkpt lat="45.02489" lon="1.63832">
        <ele>165.9</ele>
        <time>2010-01-01T00:00:00Z</time>
      </trkpt>
      <trkpt lat="45.02649" lon="1.63877">
        <ele>169.8</ele>
        <time>2010-01-01T00:00:00Z</time>
      </trkpt>
      <trkpt lat="45.02696" lon="1.63924">
        <ele>174</ele>
        <time>2010-01-01T00:00:00Z</time>
      </trkpt>
      <trkpt lat="45.02749" lon="1.63922">
        <ele>175.7</ele>
        <time>2010-01-01T00:00:00Z</time>
      </trkpt>
      <trkpt lat="45.02807" lon="1.63883">
        <ele>175.6</ele>
        <time>2010-01-01T00:00:00Z</time>
      </trkpt>
      <trkpt lat="45.02846" lon="1.63804">
        <ele>184</ele>
        <time>2010-01-01T00:00:00Z</time>
      </trkpt>
      <trkpt lat="45.0289" lon="1.6381">
        <ele>183.9</ele>
        <time>2010-01-01T00:00:00Z</time>
      </trkpt>
      <trkpt lat="45.02933" lon="1.63836">
        <ele>181.4</ele>
        <time>2010-01-01T00:00:00Z</time>
      </trkpt>
      <trkpt lat="45.02947" lon="1.63776">
        <ele>186.8</ele>
        <time>2010-01-01T00:00:00Z</time>
      </trkpt>
      <trkpt lat="45.03025" lon="1.63778">
        <ele>184.7</ele>
        <time>2010-01-01T00:00:00Z</time>
      </trkpt>
      <trkpt lat="45.03086" lon="1.63787">
        <ele>182.4</ele>
        <time>2010-01-01T00:00:00Z</time>
      </trkpt>
      <trkpt lat="45.03168" lon="1.63785">
        <ele>182</ele>
        <time>2010-01-01T00:00:00Z</time>
      </trkpt>
      <trkpt lat="45.03223" lon="1.63817">
        <ele>179</ele>
        <time>2010-01-01T00:00:00Z</time>
      </trkpt>
      <trkpt lat="45.03265" lon="1.63834">
        <ele>176.9</ele>
        <time>2010-01-01T00:00:00Z</time>
      </trkpt>
      <trkpt lat="45.03271" lon="1.63894">
        <ele>175.4</ele>
        <time>2010-01-01T00:00:00Z</time>
      </trkpt>
      <trkpt lat="45.03274" lon="1.6398">
        <ele>172.9</ele>
        <time>2010-01-01T00:00:00Z</time>
      </trkpt>
      <trkpt lat="45.03311" lon="1.64175">
        <ele>170.1</ele>
        <time>2010-01-01T00:00:00Z</time>
      </trkpt>
      <trkpt lat="45.03371" lon="1.64162">
        <ele>172.2</ele>
        <time>2010-01-01T00:00:00Z</time>
      </trkpt>
      <trkpt lat="45.03426" lon="1.64139">
        <ele>173.5</ele>
        <time>2010-01-01T00:00:00Z</time>
      </trkpt>
      <trkpt lat="45.03494" lon="1.64124">
        <ele>176.2</ele>
        <time>2010-01-01T00:00:00Z</time>
      </trkpt>
      <trkpt lat="45.0355" lon="1.64132">
        <ele>178.8</ele>
        <time>2010-01-01T00:00:00Z</time>
      </trkpt>
      <trkpt lat="45.03591" lon="1.64126">
        <ele>180.5</ele>
        <time>2010-01-01T00:00:00Z</time>
      </trkpt>
      <trkpt lat="45.0367" lon="1.63978">
        <ele>181</ele>
        <time>2010-01-01T00:00:00Z</time>
      </trkpt>
      <trkpt lat="45.0365" lon="1.63877">
        <ele>178.8</ele>
        <time>2010-01-01T00:00:00Z</time>
      </trkpt>
      <trkpt lat="45.03711" lon="1.63873">
        <ele>181.9</ele>
        <time>2010-01-01T00:00:00Z</time>
      </trkpt>
      <trkpt lat="45.03729" lon="1.63819">
        <ele>181.5</ele>
        <time>2010-01-01T00:00:00Z</time>
      </trkpt>
      <trkpt lat="45.03803" lon="1.63879">
        <ele>189.5</ele>
        <time>2010-01-01T00:00:00Z</time>
      </trkpt>
      <trkpt lat="45.0387" lon="1.63862">
        <ele>197.3</ele>
        <time>2010-01-01T00:00:00Z</time>
      </trkpt>
      <trkpt lat="45.03928" lon="1.6387">
        <ele>205.2</ele>
        <time>2010-01-01T00:00:00Z</time>
      </trkpt>
      <trkpt lat="45.04044" lon="1.63969">
        <ele>218.9</ele>
        <time>2010-01-01T00:00:00Z</time>
      </trkpt>
      <trkpt lat="45.0409" lon="1.63965">
        <ele>218.8</ele>
        <time>2010-01-01T00:00:00Z</time>
      </trkpt>
      <trkpt lat="45.04157" lon="1.63903">
        <ele>225.3</ele>
        <time>2010-01-01T00:00:00Z</time>
      </trkpt>
      <trkpt lat="45.04202" lon="1.63911">
        <ele>233</ele>
        <time>2010-01-01T00:00:00Z</time>
      </trkpt>
      <trkpt lat="45.04281" lon="1.63993">
        <ele>235.5</ele>
        <time>2010-01-01T00:00:00Z</time>
      </trkpt>
      <trkpt lat="45.04346" lon="1.64104">
        <ele>224.8</ele>
        <time>2010-01-01T00:00:00Z</time>
      </trkpt>
      <trkpt lat="45.04383" lon="1.64252">
        <ele>210.5</ele>
        <time>2010-01-01T00:00:00Z</time>
      </trkpt>
      <trkpt lat="45.04428" lon="1.64291">
        <ele>212.7</ele>
        <time>2010-01-01T00:00:00Z</time>
      </trkpt>
      <trkpt lat="45.04464" lon="1.64349">
        <ele>212.9</ele>
        <time>2010-01-01T00:00:00Z</time>
      </trkpt>
      <trkpt lat="45.04498" lon="1.64379">
        <ele>213.3</ele>
        <time>2010-01-01T00:00:00Z</time>
      </trkpt>
      <trkpt lat="45.04586" lon="1.64355">
        <ele>219.5</ele>
        <time>2010-01-01T00:00:00Z</time>
      </trkpt>
      <trkpt lat="45.04614" lon="1.64407">
        <ele>220</ele>
        <time>2010-01-01T00:00:00Z</time>
      </trkpt>
      <trkpt lat="45.04677" lon="1.64458">
        <ele>223.5</ele>
        <time>2010-01-01T00:00:00Z</time>
      </trkpt>
      <trkpt lat="45.0471" lon="1.6457">
        <ele>218.4</ele>
        <time>2010-01-01T00:00:00Z</time>
      </trkpt>
      <trkpt lat="45.04749" lon="1.64604">
        <ele>218</ele>
        <time>2010-01-01T00:00:00Z</time>
      </trkpt>
      <trkpt lat="45.04765" lon="1.64656">
        <ele>215.8</ele>
        <time>2010-01-01T00:00:00Z</time>
      </trkpt>
      <trkpt lat="45.04801" lon="1.64682">
        <ele>215.2</ele>
        <time>2010-01-01T00:00:00Z</time>
      </trkpt>
      <trkpt lat="45.04821" lon="1.64769">
        <ele>215.2</ele>
        <time>2010-01-01T00:00:00Z</time>
      </trkpt>
      <trkpt lat="45.04836" lon="1.64793">
        <ele>217.1</ele>
        <time>2010-01-01T00:00:00Z</time>
      </trkpt>
      <trkpt lat="45.04837" lon="1.64862">
        <ele>216.5</ele>
        <time>2010-01-01T00:00:00Z</time>
      </trkpt>
      <trkpt lat="45.04877" lon="1.64802">
        <ele>217.3</ele>
        <time>2010-01-01T00:00:00Z</time>
      </trkpt>
      <trkpt lat="45.04915" lon="1.648">
        <ele>217.2</ele>
        <time>2010-01-01T00:00:00Z</time>
      </trkpt>
      <trkpt lat="45.04954" lon="1.64785">
        <ele>217.6</ele>
        <time>2010-01-01T00:00:00Z</time>
      </trkpt>
      <trkpt lat="45.05003" lon="1.6472">
        <ele>220.6</ele>
        <time>2010-01-01T00:00:00Z</time>
      </trkpt>
      <trkpt lat="45.05081" lon="1.64686">
        <ele>218.2</ele>
        <time>2010-01-01T00:00:00Z</time>
      </trkpt>
      <trkpt lat="45.05159" lon="1.64671">
        <ele>215.1</ele>
        <time>2010-01-01T00:00:00Z</time>
      </trkpt>
      <trkpt lat="45.05175" lon="1.64703">
        <ele>212</ele>
        <time>2010-01-01T00:00:00Z</time>
      </trkpt>
      <trkpt lat="45.05174" lon="1.64821">
        <ele>204.8</ele>
        <time>2010-01-01T00:00:00Z</time>
      </trkpt>
      <trkpt lat="45.05195" lon="1.64847">
        <ele>200.2</ele>
        <time>2010-01-01T00:00:00Z</time>
      </trkpt>
      <trkpt lat="45.05228" lon="1.6501">
        <ele>185</ele>
        <time>2010-01-01T00:00:00Z</time>
      </trkpt>
      <trkpt lat="45.0523" lon="1.65083">
        <ele>181.7</ele>
        <time>2010-01-01T00:00:00Z</time>
      </trkpt>
    </trkseg>
  </trk>
</gpx>